<?xml version="1.0" encoding="UTF-8" standalone="no" ?>
<gpx xmlns="http://www.topografix.com/GPX/1/1" xmlns:xsi="http://www.w3.org/2001/XMLSchema-instance" xsi:schemaLocation="http://www.topografix.com/GPX/1/1 http://www.topografix.com/GPX/1/1/gpx.xsd" version="1.1" creator="VisuGPX - https://www.visugpx.com">
  <metadata>
    <name>Romeyer Chabrinel Faisan Econdus</name>
    <desc><![CDATA[

Rando sympa emmenée par Dany LCV. Attention, erreur de chemin au retour.

Photos

[url]https://photos.app.goo.gl/ny773PRcc2DHB1Zl2[/url]]]></desc>
  </metadata>
  <trk>
    <name><![CDATA[Romeyer Chabrinel Faisan Econdus_1]]></name>
    <trkseg>
      <trkpt lat="44.80613" lon="5.44605">
        <ele>977.3</ele>
        <time>2014-06-26T08:52:22Z</time>
      </trkpt>
      <trkpt lat="44.80595" lon="5.44611">
        <ele>977.6139</ele>
        <time>2014-06-26T08:52:27Z</time>
      </trkpt>
      <trkpt lat="44.80589" lon="5.44617">
        <ele>977.6139</ele>
        <time>2014-06-26T08:52:32Z</time>
      </trkpt>
      <trkpt lat="44.80588" lon="5.44619">
        <ele>983.30365</ele>
        <time>2014-06-26T08:52:37Z</time>
      </trkpt>
      <trkpt lat="44.80587" lon="5.44621">
        <ele>983.30365</ele>
        <time>2014-06-26T08:52:42Z</time>
      </trkpt>
      <trkpt lat="44.80586" lon="5.44621">
        <ele>983.30365</ele>
        <time>2014-06-26T08:52:49Z</time>
      </trkpt>
      <trkpt lat="44.80576" lon="5.44618">
        <ele>987.0285</ele>
        <time>2014-06-26T08:52:53Z</time>
      </trkpt>
      <trkpt lat="44.80579" lon="5.44609">
        <ele>987.0285</ele>
        <time>2014-06-26T08:52:58Z</time>
      </trkpt>
      <trkpt lat="44.8058" lon="5.44606">
        <ele>990.9785</ele>
        <time>2014-06-26T08:53:04Z</time>
      </trkpt>
      <trkpt lat="44.80576" lon="5.44606">
        <ele>990.9785</ele>
        <time>2014-06-26T08:53:07Z</time>
      </trkpt>
      <trkpt lat="44.80583" lon="5.44599">
        <ele>994.5856</ele>
        <time>2014-06-26T08:53:14Z</time>
      </trkpt>
      <trkpt lat="44.80585" lon="5.44597">
        <ele>994.5856</ele>
        <time>2014-06-26T08:53:18Z</time>
      </trkpt>
      <trkpt lat="44.8058" lon="5.44591">
        <ele>994.5856</ele>
        <time>2014-06-26T08:53:24Z</time>
      </trkpt>
      <trkpt lat="44.80577" lon="5.4459">
        <ele>997.56683</ele>
        <time>2014-06-26T08:53:29Z</time>
      </trkpt>
      <trkpt lat="44.80572" lon="5.44589">
        <ele>997.56683</ele>
        <time>2014-06-26T08:53:33Z</time>
      </trkpt>
      <trkpt lat="44.80571" lon="5.44586">
        <ele>997.56683</ele>
        <time>2014-06-26T08:53:39Z</time>
      </trkpt>
      <trkpt lat="44.80569" lon="5.44585">
        <ele>999.817</ele>
        <time>2014-06-26T08:53:44Z</time>
      </trkpt>
      <trkpt lat="44.80568" lon="5.4458">
        <ele>999.817</ele>
        <time>2014-06-26T08:53:49Z</time>
      </trkpt>
      <trkpt lat="44.80567" lon="5.44575">
        <ele>999.817</ele>
        <time>2014-06-26T08:53:54Z</time>
      </trkpt>
      <trkpt lat="44.80565" lon="5.44569">
        <ele>1001.2115</ele>
        <time>2014-06-26T08:53:59Z</time>
      </trkpt>
      <trkpt lat="44.80561" lon="5.44564">
        <ele>1001.2115</ele>
        <time>2014-06-26T08:54:03Z</time>
      </trkpt>
      <trkpt lat="44.80559" lon="5.4456">
        <ele>1001.2115</ele>
        <time>2014-06-26T08:54:07Z</time>
      </trkpt>
      <trkpt lat="44.80553" lon="5.44552">
        <ele>1001.7041</ele>
        <time>2014-06-26T08:54:14Z</time>
      </trkpt>
      <trkpt lat="44.80548" lon="5.44549">
        <ele>1001.7041</ele>
        <time>2014-06-26T08:54:18Z</time>
      </trkpt>
      <trkpt lat="44.80548" lon="5.44545">
        <ele>1001.7041</ele>
        <time>2014-06-26T08:54:24Z</time>
      </trkpt>
      <trkpt lat="44.80549" lon="5.44539">
        <ele>1001.42426</ele>
        <time>2014-06-26T08:54:28Z</time>
      </trkpt>
      <trkpt lat="44.80546" lon="5.44541">
        <ele>1001.42426</ele>
        <time>2014-06-26T08:54:34Z</time>
      </trkpt>
      <trkpt lat="44.80542" lon="5.44547">
        <ele>1000.5349</ele>
        <time>2014-06-26T08:54:39Z</time>
      </trkpt>
      <trkpt lat="44.80538" lon="5.44554">
        <ele>1000.5349</ele>
        <time>2014-06-26T08:54:44Z</time>
      </trkpt>
      <trkpt lat="44.80534" lon="5.4456">
        <ele>999.0903</ele>
        <time>2014-06-26T08:54:49Z</time>
      </trkpt>
      <trkpt lat="44.8053" lon="5.44566">
        <ele>999.0903</ele>
        <time>2014-06-26T08:54:54Z</time>
      </trkpt>
      <trkpt lat="44.8053" lon="5.44572">
        <ele>997.193</ele>
        <time>2014-06-26T08:54:59Z</time>
      </trkpt>
      <trkpt lat="44.80529" lon="5.44577">
        <ele>997.193</ele>
        <time>2014-06-26T08:55:04Z</time>
      </trkpt>
      <trkpt lat="44.80527" lon="5.44583">
        <ele>997.193</ele>
        <time>2014-06-26T08:55:08Z</time>
      </trkpt>
      <trkpt lat="44.80526" lon="5.4459">
        <ele>994.8054</ele>
        <time>2014-06-26T08:55:14Z</time>
      </trkpt>
      <trkpt lat="44.80526" lon="5.44596">
        <ele>994.8054</ele>
        <time>2014-06-26T08:55:18Z</time>
      </trkpt>
      <trkpt lat="44.80528" lon="5.44601">
        <ele>994.8054</ele>
        <time>2014-06-26T08:55:23Z</time>
      </trkpt>
      <trkpt lat="44.80528" lon="5.44606">
        <ele>992.08295</ele>
        <time>2014-06-26T08:55:29Z</time>
      </trkpt>
      <trkpt lat="44.80527" lon="5.44608">
        <ele>992.08295</ele>
        <time>2014-06-26T08:55:34Z</time>
      </trkpt>
      <trkpt lat="44.80528" lon="5.44608">
        <ele>992.08295</ele>
        <time>2014-06-26T08:55:38Z</time>
      </trkpt>
      <trkpt lat="44.8054" lon="5.44606">
        <ele>989.5098</ele>
        <time>2014-06-26T08:55:54Z</time>
      </trkpt>
      <trkpt lat="44.8054" lon="5.44606">
        <ele>989.5098</ele>
        <time>2014-06-26T08:55:59Z</time>
      </trkpt>
      <trkpt lat="44.80505" lon="5.44612">
        <ele>988.58453</ele>
        <time>2014-06-26T08:56:08Z</time>
      </trkpt>
      <trkpt lat="44.80515" lon="5.44614">
        <ele>989.79535</ele>
        <time>2014-06-26T08:56:14Z</time>
      </trkpt>
      <trkpt lat="44.80521" lon="5.44613">
        <ele>989.79535</ele>
        <time>2014-06-26T08:56:19Z</time>
      </trkpt>
      <trkpt lat="44.80539" lon="5.44618">
        <ele>991.45374</ele>
        <time>2014-06-26T08:56:24Z</time>
      </trkpt>
      <trkpt lat="44.80553" lon="5.44624">
        <ele>993.9391</ele>
        <time>2014-06-26T08:56:28Z</time>
      </trkpt>
      <trkpt lat="44.80554" lon="5.4463">
        <ele>993.9391</ele>
        <time>2014-06-26T08:56:33Z</time>
      </trkpt>
      <trkpt lat="44.80555" lon="5.44632">
        <ele>993.9391</ele>
        <time>2014-06-26T08:56:38Z</time>
      </trkpt>
      <trkpt lat="44.80556" lon="5.44636">
        <ele>993.9391</ele>
        <time>2014-06-26T08:56:44Z</time>
      </trkpt>
      <trkpt lat="44.80553" lon="5.44638">
        <ele>997.2504</ele>
        <time>2014-06-26T08:56:49Z</time>
      </trkpt>
      <trkpt lat="44.80549" lon="5.44644">
        <ele>997.2504</ele>
        <time>2014-06-26T08:56:53Z</time>
      </trkpt>
      <trkpt lat="44.80547" lon="5.44648">
        <ele>997.2504</ele>
        <time>2014-06-26T08:56:58Z</time>
      </trkpt>
      <trkpt lat="44.80546" lon="5.44654">
        <ele>1000.66656</ele>
        <time>2014-06-26T08:57:04Z</time>
      </trkpt>
      <trkpt lat="44.80548" lon="5.44659">
        <ele>1000.66656</ele>
        <time>2014-06-26T08:57:09Z</time>
      </trkpt>
      <trkpt lat="44.80554" lon="5.44668">
        <ele>1003.6333</ele>
        <time>2014-06-26T08:57:14Z</time>
      </trkpt>
      <trkpt lat="44.80554" lon="5.44672">
        <ele>1003.6333</ele>
        <time>2014-06-26T08:57:19Z</time>
      </trkpt>
      <trkpt lat="44.80557" lon="5.44676">
        <ele>1003.6333</ele>
        <time>2014-06-26T08:57:23Z</time>
      </trkpt>
      <trkpt lat="44.80555" lon="5.44679">
        <ele>1006.40607</ele>
        <time>2014-06-26T08:57:28Z</time>
      </trkpt>
      <trkpt lat="44.80557" lon="5.44686">
        <ele>1006.40607</ele>
        <time>2014-06-26T08:57:33Z</time>
      </trkpt>
      <trkpt lat="44.80562" lon="5.4469">
        <ele>1009.3249</ele>
        <time>2014-06-26T08:57:39Z</time>
      </trkpt>
      <trkpt lat="44.80572" lon="5.44701">
        <ele>1011.8685</ele>
        <time>2014-06-26T08:57:43Z</time>
      </trkpt>
      <trkpt lat="44.8058" lon="5.44709">
        <ele>1014.08685</ele>
        <time>2014-06-26T08:57:49Z</time>
      </trkpt>
      <trkpt lat="44.80586" lon="5.44713">
        <ele>1014.08685</ele>
        <time>2014-06-26T08:57:54Z</time>
      </trkpt>
      <trkpt lat="44.80598" lon="5.44721">
        <ele>1016.3756</ele>
        <time>2014-06-26T08:57:59Z</time>
      </trkpt>
      <trkpt lat="44.80605" lon="5.44728">
        <ele>1016.3756</ele>
        <time>2014-06-26T08:58:04Z</time>
      </trkpt>
      <trkpt lat="44.8061" lon="5.44732">
        <ele>1018.7251</ele>
        <time>2014-06-26T08:58:09Z</time>
      </trkpt>
      <trkpt lat="44.80612" lon="5.44736">
        <ele>1018.7251</ele>
        <time>2014-06-26T08:58:14Z</time>
      </trkpt>
      <trkpt lat="44.80615" lon="5.44739">
        <ele>1018.7251</ele>
        <time>2014-06-26T08:58:19Z</time>
      </trkpt>
      <trkpt lat="44.80619" lon="5.44742">
        <ele>1021.0988</ele>
        <time>2014-06-26T08:58:23Z</time>
      </trkpt>
      <trkpt lat="44.80625" lon="5.44745">
        <ele>1021.0988</ele>
        <time>2014-06-26T08:58:29Z</time>
      </trkpt>
      <trkpt lat="44.80628" lon="5.44751">
        <ele>1023.64417</ele>
        <time>2014-06-26T08:58:34Z</time>
      </trkpt>
      <trkpt lat="44.80629" lon="5.44754">
        <ele>1023.64417</ele>
        <time>2014-06-26T08:58:38Z</time>
      </trkpt>
      <trkpt lat="44.80632" lon="5.44759">
        <ele>1023.64417</ele>
        <time>2014-06-26T08:58:44Z</time>
      </trkpt>
      <trkpt lat="44.80634" lon="5.44762">
        <ele>1026.3582</ele>
        <time>2014-06-26T08:58:48Z</time>
      </trkpt>
      <trkpt lat="44.80638" lon="5.44772">
        <ele>1026.3582</ele>
        <time>2014-06-26T08:58:54Z</time>
      </trkpt>
      <trkpt lat="44.8064" lon="5.44779">
        <ele>1028.8505</ele>
        <time>2014-06-26T08:58:59Z</time>
      </trkpt>
      <trkpt lat="44.80641" lon="5.44787">
        <ele>1028.8505</ele>
        <time>2014-06-26T08:59:04Z</time>
      </trkpt>
      <trkpt lat="44.80644" lon="5.44793">
        <ele>1031.1469</ele>
        <time>2014-06-26T08:59:09Z</time>
      </trkpt>
      <trkpt lat="44.80648" lon="5.44796">
        <ele>1031.1469</ele>
        <time>2014-06-26T08:59:13Z</time>
      </trkpt>
      <trkpt lat="44.80652" lon="5.44801">
        <ele>1033.2854</ele>
        <time>2014-06-26T08:59:19Z</time>
      </trkpt>
      <trkpt lat="44.80653" lon="5.44805">
        <ele>1033.2854</ele>
        <time>2014-06-26T08:59:24Z</time>
      </trkpt>
      <trkpt lat="44.80655" lon="5.4481">
        <ele>1033.2854</ele>
        <time>2014-06-26T08:59:28Z</time>
      </trkpt>
      <trkpt lat="44.80657" lon="5.44813">
        <ele>1035.2881</ele>
        <time>2014-06-26T08:59:34Z</time>
      </trkpt>
      <trkpt lat="44.80663" lon="5.44815">
        <ele>1035.2881</ele>
        <time>2014-06-26T08:59:39Z</time>
      </trkpt>
      <trkpt lat="44.80668" lon="5.44817">
        <ele>1037.1617</ele>
        <time>2014-06-26T08:59:44Z</time>
      </trkpt>
      <trkpt lat="44.80671" lon="5.44818">
        <ele>1037.1617</ele>
        <time>2014-06-26T08:59:49Z</time>
      </trkpt>
      <trkpt lat="44.80673" lon="5.4482">
        <ele>1037.1617</ele>
        <time>2014-06-26T08:59:55Z</time>
      </trkpt>
      <trkpt lat="44.80679" lon="5.44824">
        <ele>1039.3108</ele>
        <time>2014-06-26T08:59:59Z</time>
      </trkpt>
      <trkpt lat="44.80685" lon="5.44828">
        <ele>1039.3108</ele>
        <time>2014-06-26T09:00:04Z</time>
      </trkpt>
      <trkpt lat="44.80692" lon="5.44835">
        <ele>1041.7767</ele>
        <time>2014-06-26T09:00:08Z</time>
      </trkpt>
      <trkpt lat="44.80695" lon="5.44841">
        <ele>1041.7767</ele>
        <time>2014-06-26T09:00:14Z</time>
      </trkpt>
      <trkpt lat="44.80697" lon="5.44845">
        <ele>1041.7767</ele>
        <time>2014-06-26T09:00:19Z</time>
      </trkpt>
      <trkpt lat="44.80697" lon="5.44849">
        <ele>1044.3973</ele>
        <time>2014-06-26T09:00:24Z</time>
      </trkpt>
      <trkpt lat="44.80696" lon="5.44855">
        <ele>1044.3973</ele>
        <time>2014-06-26T09:00:29Z</time>
      </trkpt>
      <trkpt lat="44.80697" lon="5.44862">
        <ele>1047.0616</ele>
        <time>2014-06-26T09:00:34Z</time>
      </trkpt>
      <trkpt lat="44.80697" lon="5.44869">
        <ele>1047.0616</ele>
        <time>2014-06-26T09:00:39Z</time>
      </trkpt>
      <trkpt lat="44.80698" lon="5.44875">
        <ele>1047.0616</ele>
        <time>2014-06-26T09:00:44Z</time>
      </trkpt>
      <trkpt lat="44.80699" lon="5.4488">
        <ele>1049.7955</ele>
        <time>2014-06-26T09:00:49Z</time>
      </trkpt>
      <trkpt lat="44.80699" lon="5.44887">
        <ele>1049.7955</ele>
        <time>2014-06-26T09:00:54Z</time>
      </trkpt>
      <trkpt lat="44.807" lon="5.44892">
        <ele>1049.7955</ele>
        <time>2014-06-26T09:00:59Z</time>
      </trkpt>
      <trkpt lat="44.80702" lon="5.449">
        <ele>1052.6382</ele>
        <time>2014-06-26T09:01:04Z</time>
      </trkpt>
      <trkpt lat="44.80702" lon="5.44907">
        <ele>1052.6382</ele>
        <time>2014-06-26T09:01:09Z</time>
      </trkpt>
      <trkpt lat="44.80704" lon="5.44914">
        <ele>1055.3899</ele>
        <time>2014-06-26T09:01:14Z</time>
      </trkpt>
      <trkpt lat="44.80704" lon="5.44921">
        <ele>1055.3899</ele>
        <time>2014-06-26T09:01:19Z</time>
      </trkpt>
      <trkpt lat="44.807" lon="5.44926">
        <ele>1058.0558</ele>
        <time>2014-06-26T09:01:24Z</time>
      </trkpt>
      <trkpt lat="44.80699" lon="5.44932">
        <ele>1058.0558</ele>
        <time>2014-06-26T09:01:29Z</time>
      </trkpt>
      <trkpt lat="44.80697" lon="5.44936">
        <ele>1058.0558</ele>
        <time>2014-06-26T09:01:32Z</time>
      </trkpt>
      <trkpt lat="44.80697" lon="5.4494">
        <ele>1060.7902</ele>
        <time>2014-06-26T09:01:38Z</time>
      </trkpt>
      <trkpt lat="44.80697" lon="5.44941">
        <ele>1060.7902</ele>
        <time>2014-06-26T09:01:43Z</time>
      </trkpt>
      <trkpt lat="44.80703" lon="5.44948">
        <ele>1060.7902</ele>
        <time>2014-06-26T09:01:48Z</time>
      </trkpt>
      <trkpt lat="44.80706" lon="5.44952">
        <ele>1063.4086</ele>
        <time>2014-06-26T09:01:54Z</time>
      </trkpt>
      <trkpt lat="44.80707" lon="5.44952">
        <ele>1063.4086</ele>
        <time>2014-06-26T09:01:59Z</time>
      </trkpt>
      <trkpt lat="44.80711" lon="5.44957">
        <ele>1063.4086</ele>
        <time>2014-06-26T09:02:04Z</time>
      </trkpt>
      <trkpt lat="44.80715" lon="5.44961">
        <ele>1065.9791</ele>
        <time>2014-06-26T09:02:08Z</time>
      </trkpt>
      <trkpt lat="44.8072" lon="5.44965">
        <ele>1065.9791</ele>
        <time>2014-06-26T09:02:14Z</time>
      </trkpt>
      <trkpt lat="44.80723" lon="5.44969">
        <ele>1068.3102</ele>
        <time>2014-06-26T09:02:18Z</time>
      </trkpt>
      <trkpt lat="44.80726" lon="5.44972">
        <ele>1068.3102</ele>
        <time>2014-06-26T09:02:23Z</time>
      </trkpt>
      <trkpt lat="44.8073" lon="5.44976">
        <ele>1068.3102</ele>
        <time>2014-06-26T09:02:29Z</time>
      </trkpt>
      <trkpt lat="44.80733" lon="5.44979">
        <ele>1070.556</ele>
        <time>2014-06-26T09:02:34Z</time>
      </trkpt>
      <trkpt lat="44.80737" lon="5.44979">
        <ele>1070.556</ele>
        <time>2014-06-26T09:02:37Z</time>
      </trkpt>
      <trkpt lat="44.80738" lon="5.44984">
        <ele>1070.556</ele>
        <time>2014-06-26T09:02:46Z</time>
      </trkpt>
      <trkpt lat="44.80741" lon="5.44986">
        <ele>1072.5891</ele>
        <time>2014-06-26T09:02:48Z</time>
      </trkpt>
      <trkpt lat="44.80746" lon="5.44992">
        <ele>1072.5891</ele>
        <time>2014-06-26T09:02:54Z</time>
      </trkpt>
      <trkpt lat="44.80753" lon="5.44995">
        <ele>1074.3525</ele>
        <time>2014-06-26T09:02:58Z</time>
      </trkpt>
      <trkpt lat="44.80759" lon="5.44996">
        <ele>1074.3525</ele>
        <time>2014-06-26T09:03:04Z</time>
      </trkpt>
      <trkpt lat="44.80763" lon="5.44999">
        <ele>1075.9762</ele>
        <time>2014-06-26T09:03:08Z</time>
      </trkpt>
      <trkpt lat="44.80767" lon="5.45005">
        <ele>1075.9762</ele>
        <time>2014-06-26T09:03:14Z</time>
      </trkpt>
      <trkpt lat="44.80771" lon="5.45006">
        <ele>1077.5656</ele>
        <time>2014-06-26T09:03:19Z</time>
      </trkpt>
      <trkpt lat="44.80777" lon="5.45009">
        <ele>1077.5656</ele>
        <time>2014-06-26T09:03:23Z</time>
      </trkpt>
      <trkpt lat="44.80782" lon="5.45012">
        <ele>1079.1122</ele>
        <time>2014-06-26T09:03:29Z</time>
      </trkpt>
      <trkpt lat="44.80784" lon="5.45012">
        <ele>1079.1122</ele>
        <time>2014-06-26T09:03:33Z</time>
      </trkpt>
      <trkpt lat="44.80786" lon="5.45013">
        <ele>1079.1122</ele>
        <time>2014-06-26T09:03:38Z</time>
      </trkpt>
      <trkpt lat="44.8079" lon="5.45013">
        <ele>1080.804</ele>
        <time>2014-06-26T09:03:44Z</time>
      </trkpt>
      <trkpt lat="44.80796" lon="5.45014">
        <ele>1080.804</ele>
        <time>2014-06-26T09:03:49Z</time>
      </trkpt>
      <trkpt lat="44.808" lon="5.45014">
        <ele>1082.4672</ele>
        <time>2014-06-26T09:03:53Z</time>
      </trkpt>
      <trkpt lat="44.80804" lon="5.45011">
        <ele>1082.4672</ele>
        <time>2014-06-26T09:03:58Z</time>
      </trkpt>
      <trkpt lat="44.80808" lon="5.4501">
        <ele>1084.1072</ele>
        <time>2014-06-26T09:04:03Z</time>
      </trkpt>
      <trkpt lat="44.80812" lon="5.45006">
        <ele>1084.1072</ele>
        <time>2014-06-26T09:04:09Z</time>
      </trkpt>
      <trkpt lat="44.80818" lon="5.45005">
        <ele>1085.8185</ele>
        <time>2014-06-26T09:04:13Z</time>
      </trkpt>
      <trkpt lat="44.80825" lon="5.45008">
        <ele>1085.8185</ele>
        <time>2014-06-26T09:04:18Z</time>
      </trkpt>
      <trkpt lat="44.8083" lon="5.45012">
        <ele>1087.822</ele>
        <time>2014-06-26T09:04:24Z</time>
      </trkpt>
      <trkpt lat="44.80831" lon="5.45014">
        <ele>1087.822</ele>
        <time>2014-06-26T09:04:28Z</time>
      </trkpt>
      <trkpt lat="44.80839" lon="5.45022">
        <ele>1089.7677</ele>
        <time>2014-06-26T09:04:33Z</time>
      </trkpt>
      <trkpt lat="44.80847" lon="5.4503">
        <ele>1091.4688</ele>
        <time>2014-06-26T09:04:39Z</time>
      </trkpt>
      <trkpt lat="44.80853" lon="5.45041">
        <ele>1092.6809</ele>
        <time>2014-06-26T09:04:43Z</time>
      </trkpt>
      <trkpt lat="44.80858" lon="5.45047">
        <ele>1092.6809</ele>
        <time>2014-06-26T09:04:49Z</time>
      </trkpt>
      <trkpt lat="44.8086" lon="5.45054">
        <ele>1093.4032</ele>
        <time>2014-06-26T09:04:53Z</time>
      </trkpt>
      <trkpt lat="44.80864" lon="5.45062">
        <ele>1093.4032</ele>
        <time>2014-06-26T09:04:59Z</time>
      </trkpt>
      <trkpt lat="44.80869" lon="5.45069">
        <ele>1093.7244</ele>
        <time>2014-06-26T09:05:04Z</time>
      </trkpt>
      <trkpt lat="44.8087" lon="5.45072">
        <ele>1093.7244</ele>
        <time>2014-06-26T09:05:08Z</time>
      </trkpt>
      <trkpt lat="44.80878" lon="5.45083">
        <ele>1093.8594</ele>
        <time>2014-06-26T09:05:13Z</time>
      </trkpt>
      <trkpt lat="44.80876" lon="5.45091">
        <ele>1093.8594</ele>
        <time>2014-06-26T09:05:22Z</time>
      </trkpt>
      <trkpt lat="44.80876" lon="5.45096">
        <ele>1093.9905</ele>
        <time>2014-06-26T09:05:22Z</time>
      </trkpt>
      <trkpt lat="44.80876" lon="5.45102">
        <ele>1093.9905</ele>
        <time>2014-06-26T09:05:29Z</time>
      </trkpt>
      <trkpt lat="44.80873" lon="5.45113">
        <ele>1094.1385</ele>
        <time>2014-06-26T09:05:33Z</time>
      </trkpt>
      <trkpt lat="44.80872" lon="5.45121">
        <ele>1094.1385</ele>
        <time>2014-06-26T09:05:39Z</time>
      </trkpt>
      <trkpt lat="44.80872" lon="5.4513">
        <ele>1094.2202</ele>
        <time>2014-06-26T09:05:43Z</time>
      </trkpt>
      <trkpt lat="44.80872" lon="5.45138">
        <ele>1094.2202</ele>
        <time>2014-06-26T09:05:48Z</time>
      </trkpt>
      <trkpt lat="44.80876" lon="5.45143">
        <ele>1094.1882</ele>
        <time>2014-06-26T09:05:57Z</time>
      </trkpt>
      <trkpt lat="44.80876" lon="5.45151">
        <ele>1094.1882</ele>
        <time>2014-06-26T09:05:57Z</time>
      </trkpt>
      <trkpt lat="44.80876" lon="5.45162">
        <ele>1093.9991</ele>
        <time>2014-06-26T09:06:04Z</time>
      </trkpt>
      <trkpt lat="44.80875" lon="5.45171">
        <ele>1093.9991</ele>
        <time>2014-06-26T09:06:08Z</time>
      </trkpt>
      <trkpt lat="44.80872" lon="5.45177">
        <ele>1093.6863</ele>
        <time>2014-06-26T09:06:14Z</time>
      </trkpt>
      <trkpt lat="44.80872" lon="5.45183">
        <ele>1093.6863</ele>
        <time>2014-06-26T09:06:19Z</time>
      </trkpt>
      <trkpt lat="44.80868" lon="5.4519">
        <ele>1093.2655</ele>
        <time>2014-06-26T09:06:23Z</time>
      </trkpt>
      <trkpt lat="44.80865" lon="5.45196">
        <ele>1093.2655</ele>
        <time>2014-06-26T09:06:29Z</time>
      </trkpt>
      <trkpt lat="44.80862" lon="5.45203">
        <ele>1092.7228</ele>
        <time>2014-06-26T09:06:33Z</time>
      </trkpt>
      <trkpt lat="44.80858" lon="5.45209">
        <ele>1092.7228</ele>
        <time>2014-06-26T09:06:38Z</time>
      </trkpt>
      <trkpt lat="44.80855" lon="5.45221">
        <ele>1092.1615</ele>
        <time>2014-06-26T09:06:44Z</time>
      </trkpt>
      <trkpt lat="44.80853" lon="5.45228">
        <ele>1092.1615</ele>
        <time>2014-06-26T09:06:48Z</time>
      </trkpt>
      <trkpt lat="44.80853" lon="5.45234">
        <ele>1091.5752</ele>
        <time>2014-06-26T09:06:53Z</time>
      </trkpt>
      <trkpt lat="44.80854" lon="5.45244">
        <ele>1091.5752</ele>
        <time>2014-06-26T09:06:58Z</time>
      </trkpt>
      <trkpt lat="44.80856" lon="5.45255">
        <ele>1090.9291</ele>
        <time>2014-06-26T09:07:04Z</time>
      </trkpt>
      <trkpt lat="44.80854" lon="5.45263">
        <ele>1090.9291</ele>
        <time>2014-06-26T09:07:09Z</time>
      </trkpt>
      <trkpt lat="44.80853" lon="5.4527">
        <ele>1089.9166</ele>
        <time>2014-06-26T09:07:14Z</time>
      </trkpt>
      <trkpt lat="44.80856" lon="5.45273">
        <ele>1089.9166</ele>
        <time>2014-06-26T09:07:19Z</time>
      </trkpt>
      <trkpt lat="44.80854" lon="5.45283">
        <ele>1088.6019</ele>
        <time>2014-06-26T09:07:26Z</time>
      </trkpt>
      <trkpt lat="44.80852" lon="5.4529">
        <ele>1088.6019</ele>
        <time>2014-06-26T09:07:27Z</time>
      </trkpt>
      <trkpt lat="44.8085" lon="5.453">
        <ele>1087.2755</ele>
        <time>2014-06-26T09:07:34Z</time>
      </trkpt>
      <trkpt lat="44.80846" lon="5.4531">
        <ele>1087.2755</ele>
        <time>2014-06-26T09:07:38Z</time>
      </trkpt>
      <trkpt lat="44.80844" lon="5.45317">
        <ele>1085.8167</ele>
        <time>2014-06-26T09:07:44Z</time>
      </trkpt>
      <trkpt lat="44.80839" lon="5.45324">
        <ele>1085.8167</ele>
        <time>2014-06-26T09:07:49Z</time>
      </trkpt>
      <trkpt lat="44.80834" lon="5.45332">
        <ele>1084.3445</ele>
        <time>2014-06-26T09:07:54Z</time>
      </trkpt>
      <trkpt lat="44.80832" lon="5.4534">
        <ele>1084.3445</ele>
        <time>2014-06-26T09:07:59Z</time>
      </trkpt>
      <trkpt lat="44.80828" lon="5.45347">
        <ele>1082.7959</ele>
        <time>2014-06-26T09:08:03Z</time>
      </trkpt>
      <trkpt lat="44.80827" lon="5.45354">
        <ele>1082.7959</ele>
        <time>2014-06-26T09:08:09Z</time>
      </trkpt>
      <trkpt lat="44.80826" lon="5.45362">
        <ele>1081.2712</ele>
        <time>2014-06-26T09:08:14Z</time>
      </trkpt>
      <trkpt lat="44.80823" lon="5.45371">
        <ele>1081.2712</ele>
        <time>2014-06-26T09:08:19Z</time>
      </trkpt>
      <trkpt lat="44.80819" lon="5.45378">
        <ele>1079.7769</ele>
        <time>2014-06-26T09:08:24Z</time>
      </trkpt>
      <trkpt lat="44.80817" lon="5.45386">
        <ele>1079.7769</ele>
        <time>2014-06-26T09:08:28Z</time>
      </trkpt>
      <trkpt lat="44.80818" lon="5.45394">
        <ele>1078.3467</ele>
        <time>2014-06-26T09:08:34Z</time>
      </trkpt>
      <trkpt lat="44.80823" lon="5.45405">
        <ele>1076.9689</ele>
        <time>2014-06-26T09:08:39Z</time>
      </trkpt>
      <trkpt lat="44.80823" lon="5.45412">
        <ele>1076.9689</ele>
        <time>2014-06-26T09:08:44Z</time>
      </trkpt>
      <trkpt lat="44.80821" lon="5.4542">
        <ele>1075.4446</ele>
        <time>2014-06-26T09:08:49Z</time>
      </trkpt>
      <trkpt lat="44.80822" lon="5.4543">
        <ele>1075.4446</ele>
        <time>2014-06-26T09:08:54Z</time>
      </trkpt>
      <trkpt lat="44.80818" lon="5.45436">
        <ele>1073.849</ele>
        <time>2014-06-26T09:08:58Z</time>
      </trkpt>
      <trkpt lat="44.80818" lon="5.45444">
        <ele>1073.849</ele>
        <time>2014-06-26T09:09:04Z</time>
      </trkpt>
      <trkpt lat="44.80816" lon="5.45451">
        <ele>1072.2234</ele>
        <time>2014-06-26T09:09:09Z</time>
      </trkpt>
      <trkpt lat="44.80816" lon="5.45456">
        <ele>1072.2234</ele>
        <time>2014-06-26T09:09:14Z</time>
      </trkpt>
      <trkpt lat="44.80816" lon="5.45461">
        <ele>1072.2234</ele>
        <time>2014-06-26T09:09:19Z</time>
      </trkpt>
      <trkpt lat="44.80812" lon="5.45465">
        <ele>1070.5188</ele>
        <time>2014-06-26T09:09:24Z</time>
      </trkpt>
      <trkpt lat="44.80808" lon="5.4547">
        <ele>1070.5188</ele>
        <time>2014-06-26T09:09:28Z</time>
      </trkpt>
      <trkpt lat="44.80804" lon="5.45474">
        <ele>1068.8054</ele>
        <time>2014-06-26T09:09:34Z</time>
      </trkpt>
      <trkpt lat="44.80801" lon="5.45479">
        <ele>1068.8054</ele>
        <time>2014-06-26T09:09:38Z</time>
      </trkpt>
      <trkpt lat="44.80799" lon="5.45481">
        <ele>1068.8054</ele>
        <time>2014-06-26T09:09:44Z</time>
      </trkpt>
      <trkpt lat="44.80793" lon="5.45491">
        <ele>1067.0616</ele>
        <time>2014-06-26T09:09:49Z</time>
      </trkpt>
      <trkpt lat="44.8079" lon="5.45498">
        <ele>1067.0616</ele>
        <time>2014-06-26T09:09:53Z</time>
      </trkpt>
      <trkpt lat="44.80787" lon="5.45506">
        <ele>1065.5121</ele>
        <time>2014-06-26T09:09:58Z</time>
      </trkpt>
      <trkpt lat="44.80782" lon="5.45512">
        <ele>1065.5121</ele>
        <time>2014-06-26T09:10:03Z</time>
      </trkpt>
      <trkpt lat="44.80785" lon="5.45514">
        <ele>1064.1193</ele>
        <time>2014-06-26T09:10:08Z</time>
      </trkpt>
      <trkpt lat="44.80786" lon="5.4551">
        <ele>1064.1193</ele>
        <time>2014-06-26T09:10:13Z</time>
      </trkpt>
      <trkpt lat="44.80788" lon="5.45505">
        <ele>1064.1193</ele>
        <time>2014-06-26T09:10:18Z</time>
      </trkpt>
      <trkpt lat="44.80792" lon="5.45504">
        <ele>1063.035</ele>
        <time>2014-06-26T09:10:23Z</time>
      </trkpt>
      <trkpt lat="44.80796" lon="5.45504">
        <ele>1063.035</ele>
        <time>2014-06-26T09:10:28Z</time>
      </trkpt>
      <trkpt lat="44.80803" lon="5.45508">
        <ele>1062.2837</ele>
        <time>2014-06-26T09:10:34Z</time>
      </trkpt>
      <trkpt lat="44.80809" lon="5.45511">
        <ele>1062.2837</ele>
        <time>2014-06-26T09:10:39Z</time>
      </trkpt>
      <trkpt lat="44.80813" lon="5.45513">
        <ele>1062.002</ele>
        <time>2014-06-26T09:10:43Z</time>
      </trkpt>
      <trkpt lat="44.80818" lon="5.45515">
        <ele>1062.002</ele>
        <time>2014-06-26T09:10:49Z</time>
      </trkpt>
      <trkpt lat="44.80825" lon="5.45514">
        <ele>1062.1272</ele>
        <time>2014-06-26T09:10:54Z</time>
      </trkpt>
      <trkpt lat="44.80829" lon="5.45513">
        <ele>1062.1272</ele>
        <time>2014-06-26T09:10:59Z</time>
      </trkpt>
      <trkpt lat="44.80837" lon="5.45514">
        <ele>1062.5281</ele>
        <time>2014-06-26T09:11:04Z</time>
      </trkpt>
      <trkpt lat="44.8084" lon="5.45514">
        <ele>1062.5281</ele>
        <time>2014-06-26T09:11:08Z</time>
      </trkpt>
      <trkpt lat="44.80846" lon="5.45511">
        <ele>1063.1831</ele>
        <time>2014-06-26T09:11:13Z</time>
      </trkpt>
      <trkpt lat="44.80853" lon="5.4551">
        <ele>1063.1831</ele>
        <time>2014-06-26T09:11:19Z</time>
      </trkpt>
      <trkpt lat="44.80859" lon="5.45504">
        <ele>1064.0277</ele>
        <time>2014-06-26T09:11:23Z</time>
      </trkpt>
      <trkpt lat="44.80862" lon="5.45501">
        <ele>1064.0277</ele>
        <time>2014-06-26T09:11:29Z</time>
      </trkpt>
      <trkpt lat="44.80867" lon="5.45497">
        <ele>1065.0162</ele>
        <time>2014-06-26T09:11:33Z</time>
      </trkpt>
      <trkpt lat="44.80873" lon="5.45498">
        <ele>1065.0162</ele>
        <time>2014-06-26T09:11:39Z</time>
      </trkpt>
      <trkpt lat="44.80881" lon="5.45494">
        <ele>1065.9757</ele>
        <time>2014-06-26T09:11:44Z</time>
      </trkpt>
      <trkpt lat="44.80885" lon="5.45494">
        <ele>1065.9757</ele>
        <time>2014-06-26T09:11:49Z</time>
      </trkpt>
      <trkpt lat="44.80891" lon="5.45497">
        <ele>1067.1211</ele>
        <time>2014-06-26T09:11:54Z</time>
      </trkpt>
      <trkpt lat="44.80897" lon="5.45501">
        <ele>1067.1211</ele>
        <time>2014-06-26T09:11:58Z</time>
      </trkpt>
      <trkpt lat="44.80902" lon="5.455">
        <ele>1068.4923</ele>
        <time>2014-06-26T09:12:04Z</time>
      </trkpt>
      <trkpt lat="44.8091" lon="5.45499">
        <ele>1068.4923</ele>
        <time>2014-06-26T09:12:09Z</time>
      </trkpt>
      <trkpt lat="44.80917" lon="5.455">
        <ele>1069.981</ele>
        <time>2014-06-26T09:12:13Z</time>
      </trkpt>
      <trkpt lat="44.80922" lon="5.45503">
        <ele>1069.981</ele>
        <time>2014-06-26T09:12:19Z</time>
      </trkpt>
      <trkpt lat="44.80923" lon="5.45503">
        <ele>1069.981</ele>
        <time>2014-06-26T09:12:23Z</time>
      </trkpt>
      <trkpt lat="44.80933" lon="5.45513">
        <ele>1071.011</ele>
        <time>2014-06-26T09:12:29Z</time>
      </trkpt>
      <trkpt lat="44.80941" lon="5.45515">
        <ele>1071.011</ele>
        <time>2014-06-26T09:12:34Z</time>
      </trkpt>
      <trkpt lat="44.80948" lon="5.4552">
        <ele>1071.165</ele>
        <time>2014-06-26T09:12:40Z</time>
      </trkpt>
      <trkpt lat="44.80953" lon="5.4553">
        <ele>1071.165</ele>
        <time>2014-06-26T09:12:43Z</time>
      </trkpt>
      <trkpt lat="44.80958" lon="5.45534">
        <ele>1070.5491</ele>
        <time>2014-06-26T09:12:50Z</time>
      </trkpt>
      <trkpt lat="44.80966" lon="5.45545">
        <ele>1069.7396</ele>
        <time>2014-06-26T09:12:53Z</time>
      </trkpt>
      <trkpt lat="44.80971" lon="5.45554">
        <ele>1069.7396</ele>
        <time>2014-06-26T09:12:59Z</time>
      </trkpt>
      <trkpt lat="44.80978" lon="5.45562">
        <ele>1068.276</ele>
        <time>2014-06-26T09:13:04Z</time>
      </trkpt>
      <trkpt lat="44.8098" lon="5.45568">
        <ele>1068.276</ele>
        <time>2014-06-26T09:13:10Z</time>
      </trkpt>
      <trkpt lat="44.80984" lon="5.45574">
        <ele>1066.4257</ele>
        <time>2014-06-26T09:13:13Z</time>
      </trkpt>
      <trkpt lat="44.8099" lon="5.45586">
        <ele>1064.639</ele>
        <time>2014-06-26T09:13:19Z</time>
      </trkpt>
      <trkpt lat="44.80992" lon="5.45595">
        <ele>1064.639</ele>
        <time>2014-06-26T09:13:22Z</time>
      </trkpt>
      <trkpt lat="44.80998" lon="5.45602">
        <ele>1062.6699</ele>
        <time>2014-06-26T09:13:29Z</time>
      </trkpt>
      <trkpt lat="44.81002" lon="5.45609">
        <ele>1062.6699</ele>
        <time>2014-06-26T09:13:34Z</time>
      </trkpt>
      <trkpt lat="44.81006" lon="5.45617">
        <ele>1060.4208</ele>
        <time>2014-06-26T09:13:39Z</time>
      </trkpt>
      <trkpt lat="44.81008" lon="5.45626">
        <ele>1060.4208</ele>
        <time>2014-06-26T09:13:44Z</time>
      </trkpt>
      <trkpt lat="44.81011" lon="5.45633">
        <ele>1058.2197</ele>
        <time>2014-06-26T09:13:48Z</time>
      </trkpt>
      <trkpt lat="44.81012" lon="5.45641">
        <ele>1058.2197</ele>
        <time>2014-06-26T09:13:54Z</time>
      </trkpt>
      <trkpt lat="44.8101" lon="5.45647">
        <ele>1056.0969</ele>
        <time>2014-06-26T09:13:59Z</time>
      </trkpt>
      <trkpt lat="44.81008" lon="5.45655">
        <ele>1056.0969</ele>
        <time>2014-06-26T09:14:04Z</time>
      </trkpt>
      <trkpt lat="44.8101" lon="5.45663">
        <ele>1054.195</ele>
        <time>2014-06-26T09:14:09Z</time>
      </trkpt>
      <trkpt lat="44.81012" lon="5.45667">
        <ele>1054.195</ele>
        <time>2014-06-26T09:14:13Z</time>
      </trkpt>
      <trkpt lat="44.8101" lon="5.45673">
        <ele>1054.195</ele>
        <time>2014-06-26T09:14:19Z</time>
      </trkpt>
      <trkpt lat="44.81016" lon="5.45681">
        <ele>1052.5013</ele>
        <time>2014-06-26T09:14:24Z</time>
      </trkpt>
      <trkpt lat="44.81015" lon="5.45683">
        <ele>1052.5013</ele>
        <time>2014-06-26T09:14:29Z</time>
      </trkpt>
      <trkpt lat="44.81012" lon="5.45696">
        <ele>1051.004</ele>
        <time>2014-06-26T09:14:33Z</time>
      </trkpt>
      <trkpt lat="44.81007" lon="5.45705">
        <ele>1051.004</ele>
        <time>2014-06-26T09:14:41Z</time>
      </trkpt>
      <trkpt lat="44.81003" lon="5.45712">
        <ele>1049.806</ele>
        <time>2014-06-26T09:14:43Z</time>
      </trkpt>
      <trkpt lat="44.80999" lon="5.45718">
        <ele>1049.806</ele>
        <time>2014-06-26T09:14:49Z</time>
      </trkpt>
      <trkpt lat="44.80998" lon="5.45721">
        <ele>1049.806</ele>
        <time>2014-06-26T09:14:53Z</time>
      </trkpt>
      <trkpt lat="44.80993" lon="5.45731">
        <ele>1048.8005</ele>
        <time>2014-06-26T09:14:59Z</time>
      </trkpt>
      <trkpt lat="44.80989" lon="5.4574">
        <ele>1048.8005</ele>
        <time>2014-06-26T09:15:04Z</time>
      </trkpt>
      <trkpt lat="44.80989" lon="5.45749">
        <ele>1047.8445</ele>
        <time>2014-06-26T09:15:09Z</time>
      </trkpt>
      <trkpt lat="44.80989" lon="5.45752">
        <ele>1047.8445</ele>
        <time>2014-06-26T09:15:15Z</time>
      </trkpt>
      <trkpt lat="44.80991" lon="5.45765">
        <ele>1047.0503</ele>
        <time>2014-06-26T09:15:18Z</time>
      </trkpt>
      <trkpt lat="44.80988" lon="5.4577">
        <ele>1047.0503</ele>
        <time>2014-06-26T09:15:24Z</time>
      </trkpt>
      <trkpt lat="44.8099" lon="5.45775">
        <ele>1047.0503</ele>
        <time>2014-06-26T09:15:28Z</time>
      </trkpt>
      <trkpt lat="44.80989" lon="5.45782">
        <ele>1046.406</ele>
        <time>2014-06-26T09:15:34Z</time>
      </trkpt>
      <trkpt lat="44.80982" lon="5.45791">
        <ele>1045.8716</ele>
        <time>2014-06-26T09:15:39Z</time>
      </trkpt>
      <trkpt lat="44.80979" lon="5.45798">
        <ele>1045.8716</ele>
        <time>2014-06-26T09:15:44Z</time>
      </trkpt>
      <trkpt lat="44.80976" lon="5.45804">
        <ele>1045.4669</ele>
        <time>2014-06-26T09:15:49Z</time>
      </trkpt>
      <trkpt lat="44.80974" lon="5.45813">
        <ele>1045.4669</ele>
        <time>2014-06-26T09:15:53Z</time>
      </trkpt>
      <trkpt lat="44.80975" lon="5.45823">
        <ele>1045.239</ele>
        <time>2014-06-26T09:15:59Z</time>
      </trkpt>
      <trkpt lat="44.80987" lon="5.45836">
        <ele>1045.1011</ele>
        <time>2014-06-26T09:16:04Z</time>
      </trkpt>
      <trkpt lat="44.80988" lon="5.4584">
        <ele>1045.1011</ele>
        <time>2014-06-26T09:16:09Z</time>
      </trkpt>
      <trkpt lat="44.80991" lon="5.4585">
        <ele>1045.0446</ele>
        <time>2014-06-26T09:16:14Z</time>
      </trkpt>
      <trkpt lat="44.80993" lon="5.45855">
        <ele>1045.0446</ele>
        <time>2014-06-26T09:16:17Z</time>
      </trkpt>
      <trkpt lat="44.80994" lon="5.45863">
        <ele>1044.773</ele>
        <time>2014-06-26T09:16:24Z</time>
      </trkpt>
      <trkpt lat="44.8099" lon="5.45872">
        <ele>1044.773</ele>
        <time>2014-06-26T09:16:29Z</time>
      </trkpt>
      <trkpt lat="44.80991" lon="5.45875">
        <ele>1044.5309</ele>
        <time>2014-06-26T09:16:34Z</time>
      </trkpt>
      <trkpt lat="44.80993" lon="5.45885">
        <ele>1044.5309</ele>
        <time>2014-06-26T09:16:39Z</time>
      </trkpt>
      <trkpt lat="44.80998" lon="5.45892">
        <ele>1044.3721</ele>
        <time>2014-06-26T09:16:44Z</time>
      </trkpt>
      <trkpt lat="44.81005" lon="5.45901">
        <ele>1044.2596</ele>
        <time>2014-06-26T09:16:49Z</time>
      </trkpt>
      <trkpt lat="44.81007" lon="5.45908">
        <ele>1044.2596</ele>
        <time>2014-06-26T09:16:55Z</time>
      </trkpt>
      <trkpt lat="44.81006" lon="5.45916">
        <ele>1044.1879</ele>
        <time>2014-06-26T09:16:58Z</time>
      </trkpt>
      <trkpt lat="44.81004" lon="5.45922">
        <ele>1044.1879</ele>
        <time>2014-06-26T09:17:04Z</time>
      </trkpt>
      <trkpt lat="44.81005" lon="5.45925">
        <ele>1044.1879</ele>
        <time>2014-06-26T09:17:09Z</time>
      </trkpt>
      <trkpt lat="44.81008" lon="5.45926">
        <ele>1044.094</ele>
        <time>2014-06-26T09:17:14Z</time>
      </trkpt>
      <trkpt lat="44.8101" lon="5.45925">
        <ele>1044.094</ele>
        <time>2014-06-26T09:17:24Z</time>
      </trkpt>
      <trkpt lat="44.8101" lon="5.45924">
        <ele>1044.094</ele>
        <time>2014-06-26T09:17:28Z</time>
      </trkpt>
      <trkpt lat="44.81017" lon="5.4592">
        <ele>1043.9629</ele>
        <time>2014-06-26T09:17:35Z</time>
      </trkpt>
      <trkpt lat="44.81019" lon="5.45914">
        <ele>1043.9629</ele>
        <time>2014-06-26T09:17:38Z</time>
      </trkpt>
      <trkpt lat="44.81024" lon="5.45905">
        <ele>1043.7953</ele>
        <time>2014-06-26T09:17:44Z</time>
      </trkpt>
      <trkpt lat="44.8103" lon="5.459">
        <ele>1043.7953</ele>
        <time>2014-06-26T09:17:49Z</time>
      </trkpt>
      <trkpt lat="44.8104" lon="5.45893">
        <ele>1043.5343</ele>
        <time>2014-06-26T09:17:54Z</time>
      </trkpt>
      <trkpt lat="44.81047" lon="5.45893">
        <ele>1043.5343</ele>
        <time>2014-06-26T09:17:59Z</time>
      </trkpt>
      <trkpt lat="44.81056" lon="5.45898">
        <ele>1042.9545</ele>
        <time>2014-06-26T09:18:03Z</time>
      </trkpt>
      <trkpt lat="44.81061" lon="5.45907">
        <ele>1042.9545</ele>
        <time>2014-06-26T09:18:08Z</time>
      </trkpt>
      <trkpt lat="44.81067" lon="5.45912">
        <ele>1041.9199</ele>
        <time>2014-06-26T09:18:14Z</time>
      </trkpt>
      <trkpt lat="44.81072" lon="5.45916">
        <ele>1041.9199</ele>
        <time>2014-06-26T09:18:18Z</time>
      </trkpt>
      <trkpt lat="44.8108" lon="5.45924">
        <ele>1040.2052</ele>
        <time>2014-06-26T09:18:24Z</time>
      </trkpt>
      <trkpt lat="44.81082" lon="5.45926">
        <ele>1040.2052</ele>
        <time>2014-06-26T09:18:28Z</time>
      </trkpt>
      <trkpt lat="44.81092" lon="5.45942">
        <ele>1038.0212</ele>
        <time>2014-06-26T09:18:34Z</time>
      </trkpt>
      <trkpt lat="44.81096" lon="5.45947">
        <ele>1038.0212</ele>
        <time>2014-06-26T09:18:39Z</time>
      </trkpt>
      <trkpt lat="44.81102" lon="5.45953">
        <ele>1035.7091</ele>
        <time>2014-06-26T09:18:44Z</time>
      </trkpt>
      <trkpt lat="44.81105" lon="5.4596">
        <ele>1035.7091</ele>
        <time>2014-06-26T09:18:49Z</time>
      </trkpt>
      <trkpt lat="44.81108" lon="5.45964">
        <ele>1033.3544</ele>
        <time>2014-06-26T09:18:53Z</time>
      </trkpt>
      <trkpt lat="44.81111" lon="5.45971">
        <ele>1033.3544</ele>
        <time>2014-06-26T09:18:59Z</time>
      </trkpt>
      <trkpt lat="44.81115" lon="5.45981">
        <ele>1030.8347</ele>
        <time>2014-06-26T09:19:04Z</time>
      </trkpt>
      <trkpt lat="44.81116" lon="5.4599">
        <ele>1030.8347</ele>
        <time>2014-06-26T09:19:09Z</time>
      </trkpt>
      <trkpt lat="44.81118" lon="5.45997">
        <ele>1028.3975</ele>
        <time>2014-06-26T09:19:13Z</time>
      </trkpt>
      <trkpt lat="44.81118" lon="5.46004">
        <ele>1028.3975</ele>
        <time>2014-06-26T09:19:18Z</time>
      </trkpt>
      <trkpt lat="44.81118" lon="5.46014">
        <ele>1025.9979</ele>
        <time>2014-06-26T09:19:24Z</time>
      </trkpt>
      <trkpt lat="44.81121" lon="5.4602">
        <ele>1025.9979</ele>
        <time>2014-06-26T09:19:29Z</time>
      </trkpt>
      <trkpt lat="44.81123" lon="5.46025">
        <ele>1023.76733</ele>
        <time>2014-06-26T09:19:34Z</time>
      </trkpt>
      <trkpt lat="44.81128" lon="5.46034">
        <ele>1023.76733</ele>
        <time>2014-06-26T09:19:39Z</time>
      </trkpt>
      <trkpt lat="44.8113" lon="5.46037">
        <ele>1021.88434</ele>
        <time>2014-06-26T09:19:43Z</time>
      </trkpt>
      <trkpt lat="44.81133" lon="5.4604">
        <ele>1021.88434</ele>
        <time>2014-06-26T09:19:49Z</time>
      </trkpt>
      <trkpt lat="44.81136" lon="5.4604">
        <ele>1021.88434</ele>
        <time>2014-06-26T09:19:54Z</time>
      </trkpt>
      <trkpt lat="44.8114" lon="5.46042">
        <ele>1020.3262</ele>
        <time>2014-06-26T09:19:58Z</time>
      </trkpt>
      <trkpt lat="44.81144" lon="5.46041">
        <ele>1020.3262</ele>
        <time>2014-06-26T09:20:04Z</time>
      </trkpt>
      <trkpt lat="44.81148" lon="5.4604">
        <ele>1020.3262</ele>
        <time>2014-06-26T09:20:09Z</time>
      </trkpt>
      <trkpt lat="44.81154" lon="5.46042">
        <ele>1019.08514</ele>
        <time>2014-06-26T09:20:14Z</time>
      </trkpt>
      <trkpt lat="44.8116" lon="5.46038">
        <ele>1019.08514</ele>
        <time>2014-06-26T09:20:19Z</time>
      </trkpt>
      <trkpt lat="44.81163" lon="5.46041">
        <ele>1018.1099</ele>
        <time>2014-06-26T09:20:23Z</time>
      </trkpt>
      <trkpt lat="44.81168" lon="5.46046">
        <ele>1018.1099</ele>
        <time>2014-06-26T09:20:28Z</time>
      </trkpt>
      <trkpt lat="44.81171" lon="5.46052">
        <ele>1017.28015</ele>
        <time>2014-06-26T09:20:34Z</time>
      </trkpt>
      <trkpt lat="44.81176" lon="5.46061">
        <ele>1017.28015</ele>
        <time>2014-06-26T09:20:38Z</time>
      </trkpt>
      <trkpt lat="44.81179" lon="5.46074">
        <ele>1016.80084</ele>
        <time>2014-06-26T09:20:44Z</time>
      </trkpt>
      <trkpt lat="44.81182" lon="5.46082">
        <ele>1016.80084</ele>
        <time>2014-06-26T09:20:49Z</time>
      </trkpt>
      <trkpt lat="44.81184" lon="5.46091">
        <ele>1016.76</ele>
        <time>2014-06-26T09:20:53Z</time>
      </trkpt>
      <trkpt lat="44.81187" lon="5.46103">
        <ele>1016.76</ele>
        <time>2014-06-26T09:20:59Z</time>
      </trkpt>
      <trkpt lat="44.81189" lon="5.46111">
        <ele>1016.96423</ele>
        <time>2014-06-26T09:21:04Z</time>
      </trkpt>
      <trkpt lat="44.81189" lon="5.46118">
        <ele>1016.96423</ele>
        <time>2014-06-26T09:21:09Z</time>
      </trkpt>
      <trkpt lat="44.81189" lon="5.46124">
        <ele>1017.39197</ele>
        <time>2014-06-26T09:21:13Z</time>
      </trkpt>
      <trkpt lat="44.81189" lon="5.46128">
        <ele>1017.39197</ele>
        <time>2014-06-26T09:21:19Z</time>
      </trkpt>
      <trkpt lat="44.81188" lon="5.46133">
        <ele>1017.39197</ele>
        <time>2014-06-26T09:21:23Z</time>
      </trkpt>
      <trkpt lat="44.81192" lon="5.46132">
        <ele>1017.9074</ele>
        <time>2014-06-26T09:21:29Z</time>
      </trkpt>
      <trkpt lat="44.81196" lon="5.46132">
        <ele>1017.9074</ele>
        <time>2014-06-26T09:21:34Z</time>
      </trkpt>
      <trkpt lat="44.81198" lon="5.46137">
        <ele>1017.9074</ele>
        <time>2014-06-26T09:21:38Z</time>
      </trkpt>
      <trkpt lat="44.81201" lon="5.46136">
        <ele>1018.6294</ele>
        <time>2014-06-26T09:21:44Z</time>
      </trkpt>
      <trkpt lat="44.81205" lon="5.46134">
        <ele>1018.6294</ele>
        <time>2014-06-26T09:21:49Z</time>
      </trkpt>
      <trkpt lat="44.81209" lon="5.46135">
        <ele>1018.6294</ele>
        <time>2014-06-26T09:21:54Z</time>
      </trkpt>
      <trkpt lat="44.81211" lon="5.46135">
        <ele>1019.66754</ele>
        <time>2014-06-26T09:21:59Z</time>
      </trkpt>
      <trkpt lat="44.81216" lon="5.46137">
        <ele>1019.66754</ele>
        <time>2014-06-26T09:22:04Z</time>
      </trkpt>
      <trkpt lat="44.8122" lon="5.46137">
        <ele>1019.66754</ele>
        <time>2014-06-26T09:22:09Z</time>
      </trkpt>
      <trkpt lat="44.81225" lon="5.46136">
        <ele>1020.8775</ele>
        <time>2014-06-26T09:22:12Z</time>
      </trkpt>
      <trkpt lat="44.81232" lon="5.46134">
        <ele>1020.8775</ele>
        <time>2014-06-26T09:22:19Z</time>
      </trkpt>
      <trkpt lat="44.81236" lon="5.46133">
        <ele>1022.42773</ele>
        <time>2014-06-26T09:22:23Z</time>
      </trkpt>
      <trkpt lat="44.81239" lon="5.46132">
        <ele>1022.42773</ele>
        <time>2014-06-26T09:22:29Z</time>
      </trkpt>
      <trkpt lat="44.81243" lon="5.4613">
        <ele>1022.42773</ele>
        <time>2014-06-26T09:22:34Z</time>
      </trkpt>
      <trkpt lat="44.81246" lon="5.46131">
        <ele>1024.1997</ele>
        <time>2014-06-26T09:22:39Z</time>
      </trkpt>
      <trkpt lat="44.81251" lon="5.46132">
        <ele>1024.1997</ele>
        <time>2014-06-26T09:22:44Z</time>
      </trkpt>
      <trkpt lat="44.81255" lon="5.46133">
        <ele>1026.0396</ele>
        <time>2014-06-26T09:22:49Z</time>
      </trkpt>
      <trkpt lat="44.81261" lon="5.46131">
        <ele>1026.0396</ele>
        <time>2014-06-26T09:22:53Z</time>
      </trkpt>
      <trkpt lat="44.81266" lon="5.46133">
        <ele>1028.2085</ele>
        <time>2014-06-26T09:22:59Z</time>
      </trkpt>
      <trkpt lat="44.8127" lon="5.46132">
        <ele>1028.2085</ele>
        <time>2014-06-26T09:23:03Z</time>
      </trkpt>
      <trkpt lat="44.81275" lon="5.46136">
        <ele>1030.587</ele>
        <time>2014-06-26T09:23:09Z</time>
      </trkpt>
      <trkpt lat="44.81278" lon="5.46142">
        <ele>1030.587</ele>
        <time>2014-06-26T09:23:14Z</time>
      </trkpt>
      <trkpt lat="44.81277" lon="5.46146">
        <ele>1030.587</ele>
        <time>2014-06-26T09:23:18Z</time>
      </trkpt>
      <trkpt lat="44.81278" lon="5.46154">
        <ele>1033.2518</ele>
        <time>2014-06-26T09:23:26Z</time>
      </trkpt>
      <trkpt lat="44.81279" lon="5.46159">
        <ele>1033.2518</ele>
        <time>2014-06-26T09:23:28Z</time>
      </trkpt>
      <trkpt lat="44.81281" lon="5.46168">
        <ele>1036.0278</ele>
        <time>2014-06-26T09:23:34Z</time>
      </trkpt>
      <trkpt lat="44.81283" lon="5.46177">
        <ele>1036.0278</ele>
        <time>2014-06-26T09:23:39Z</time>
      </trkpt>
      <trkpt lat="44.81284" lon="5.46187">
        <ele>1038.7817</ele>
        <time>2014-06-26T09:23:44Z</time>
      </trkpt>
      <trkpt lat="44.81283" lon="5.46194">
        <ele>1038.7817</ele>
        <time>2014-06-26T09:23:48Z</time>
      </trkpt>
      <trkpt lat="44.81284" lon="5.46197">
        <ele>1038.7817</ele>
        <time>2014-06-26T09:23:54Z</time>
      </trkpt>
      <trkpt lat="44.81285" lon="5.46199">
        <ele>1038.7817</ele>
        <time>2014-06-26T09:23:59Z</time>
      </trkpt>
      <trkpt lat="44.81285" lon="5.46202">
        <ele>1041.7073</ele>
        <time>2014-06-26T09:24:03Z</time>
      </trkpt>
      <trkpt lat="44.81285" lon="5.46208">
        <ele>1041.7073</ele>
        <time>2014-06-26T09:24:09Z</time>
      </trkpt>
      <trkpt lat="44.81286" lon="5.46207">
        <ele>1041.7073</ele>
        <time>2014-06-26T09:24:14Z</time>
      </trkpt>
      <trkpt lat="44.81295" lon="5.46213">
        <ele>1044.681</ele>
        <time>2014-06-26T09:24:23Z</time>
      </trkpt>
      <trkpt lat="44.81299" lon="5.46224">
        <ele>1044.681</ele>
        <time>2014-06-26T09:24:29Z</time>
      </trkpt>
      <trkpt lat="44.81301" lon="5.46229">
        <ele>1047.43</ele>
        <time>2014-06-26T09:24:34Z</time>
      </trkpt>
      <trkpt lat="44.81304" lon="5.46237">
        <ele>1047.43</ele>
        <time>2014-06-26T09:24:39Z</time>
      </trkpt>
      <trkpt lat="44.81306" lon="5.4624">
        <ele>1049.9332</ele>
        <time>2014-06-26T09:24:44Z</time>
      </trkpt>
      <trkpt lat="44.81308" lon="5.46245">
        <ele>1049.9332</ele>
        <time>2014-06-26T09:24:49Z</time>
      </trkpt>
      <trkpt lat="44.81309" lon="5.46247">
        <ele>1049.9332</ele>
        <time>2014-06-26T09:24:54Z</time>
      </trkpt>
      <trkpt lat="44.81312" lon="5.4625">
        <ele>1052.2726</ele>
        <time>2014-06-26T09:24:59Z</time>
      </trkpt>
      <trkpt lat="44.81314" lon="5.46254">
        <ele>1052.2726</ele>
        <time>2014-06-26T09:25:04Z</time>
      </trkpt>
      <trkpt lat="44.81316" lon="5.46256">
        <ele>1052.2726</ele>
        <time>2014-06-26T09:25:08Z</time>
      </trkpt>
      <trkpt lat="44.81317" lon="5.46262">
        <ele>1054.5245</ele>
        <time>2014-06-26T09:25:18Z</time>
      </trkpt>
      <trkpt lat="44.81313" lon="5.46261">
        <ele>1054.5245</ele>
        <time>2014-06-26T09:25:34Z</time>
      </trkpt>
      <trkpt lat="44.81314" lon="5.46261">
        <ele>1054.5245</ele>
        <time>2014-06-26T09:25:39Z</time>
      </trkpt>
      <trkpt lat="44.81313" lon="5.4626">
        <ele>1054.5245</ele>
        <time>2014-06-26T09:25:44Z</time>
      </trkpt>
      <trkpt lat="44.81311" lon="5.46261">
        <ele>1054.5245</ele>
        <time>2014-06-26T09:25:49Z</time>
      </trkpt>
      <trkpt lat="44.81321" lon="5.46263">
        <ele>1056.732</ele>
        <time>2014-06-26T09:26:18Z</time>
      </trkpt>
      <trkpt lat="44.81323" lon="5.46262">
        <ele>1056.732</ele>
        <time>2014-06-26T09:26:24Z</time>
      </trkpt>
      <trkpt lat="44.81323" lon="5.46261">
        <ele>1056.732</ele>
        <time>2014-06-26T09:26:29Z</time>
      </trkpt>
      <trkpt lat="44.81312" lon="5.4626">
        <ele>1058.8342</ele>
        <time>2014-06-26T09:26:49Z</time>
      </trkpt>
      <trkpt lat="44.81311" lon="5.4626">
        <ele>1058.8342</ele>
        <time>2014-06-26T09:26:57Z</time>
      </trkpt>
      <trkpt lat="44.81306" lon="5.46261">
        <ele>1058.8342</ele>
        <time>2014-06-26T09:27:04Z</time>
      </trkpt>
      <trkpt lat="44.81307" lon="5.46262">
        <ele>1058.8342</ele>
        <time>2014-06-26T09:27:09Z</time>
      </trkpt>
      <trkpt lat="44.81308" lon="5.46262">
        <ele>1058.8342</ele>
        <time>2014-06-26T09:27:14Z</time>
      </trkpt>
      <trkpt lat="44.81309" lon="5.46261">
        <ele>1060.7462</ele>
        <time>2014-06-26T09:27:19Z</time>
      </trkpt>
      <trkpt lat="44.8131" lon="5.46259">
        <ele>1060.7462</ele>
        <time>2014-06-26T09:27:24Z</time>
      </trkpt>
      <trkpt lat="44.81312" lon="5.46263">
        <ele>1060.7462</ele>
        <time>2014-06-26T09:27:49Z</time>
      </trkpt>
      <trkpt lat="44.81312" lon="5.46265">
        <ele>1060.7462</ele>
        <time>2014-06-26T09:27:54Z</time>
      </trkpt>
      <trkpt lat="44.81311" lon="5.46264">
        <ele>1060.7462</ele>
        <time>2014-06-26T09:27:59Z</time>
      </trkpt>
      <trkpt lat="44.81311" lon="5.46263">
        <ele>1060.7462</ele>
        <time>2014-06-26T09:28:14Z</time>
      </trkpt>
      <trkpt lat="44.8131" lon="5.46268">
        <ele>1062.3472</ele>
        <time>2014-06-26T09:28:54Z</time>
      </trkpt>
      <trkpt lat="44.8131" lon="5.46268">
        <ele>1062.3472</ele>
        <time>2014-06-26T09:28:59Z</time>
      </trkpt>
      <trkpt lat="44.81309" lon="5.46269">
        <ele>1062.3472</ele>
        <time>2014-06-26T09:29:13Z</time>
      </trkpt>
      <trkpt lat="44.81316" lon="5.46258">
        <ele>1063.8431</ele>
        <time>2014-06-26T09:29:22Z</time>
      </trkpt>
      <trkpt lat="44.81316" lon="5.46258">
        <ele>1063.8431</ele>
        <time>2014-06-26T09:29:27Z</time>
      </trkpt>
      <trkpt lat="44.81317" lon="5.4626">
        <ele>1063.8431</ele>
        <time>2014-06-26T09:30:38Z</time>
      </trkpt>
      <trkpt lat="44.8132" lon="5.46263">
        <ele>1063.8431</ele>
        <time>2014-06-26T09:30:44Z</time>
      </trkpt>
      <trkpt lat="44.81324" lon="5.46267">
        <ele>1065.0941</ele>
        <time>2014-06-26T09:30:49Z</time>
      </trkpt>
      <trkpt lat="44.81328" lon="5.4627">
        <ele>1065.0941</ele>
        <time>2014-06-26T09:30:54Z</time>
      </trkpt>
      <trkpt lat="44.81333" lon="5.46273">
        <ele>1066.2885</ele>
        <time>2014-06-26T09:30:59Z</time>
      </trkpt>
      <trkpt lat="44.81337" lon="5.46278">
        <ele>1066.2885</ele>
        <time>2014-06-26T09:31:03Z</time>
      </trkpt>
      <trkpt lat="44.81339" lon="5.4628">
        <ele>1066.2885</ele>
        <time>2014-06-26T09:31:07Z</time>
      </trkpt>
      <trkpt lat="44.8134" lon="5.46285">
        <ele>1067.2694</ele>
        <time>2014-06-26T09:31:14Z</time>
      </trkpt>
      <trkpt lat="44.81342" lon="5.4629">
        <ele>1067.2694</ele>
        <time>2014-06-26T09:31:18Z</time>
      </trkpt>
      <trkpt lat="44.81344" lon="5.46293">
        <ele>1067.2694</ele>
        <time>2014-06-26T09:31:23Z</time>
      </trkpt>
      <trkpt lat="44.81348" lon="5.46295">
        <ele>1068.1666</ele>
        <time>2014-06-26T09:31:28Z</time>
      </trkpt>
      <trkpt lat="44.81351" lon="5.46298">
        <ele>1068.1666</ele>
        <time>2014-06-26T09:31:34Z</time>
      </trkpt>
      <trkpt lat="44.81355" lon="5.46301">
        <ele>1068.1666</ele>
        <time>2014-06-26T09:31:39Z</time>
      </trkpt>
      <trkpt lat="44.81358" lon="5.46306">
        <ele>1068.9995</ele>
        <time>2014-06-26T09:31:44Z</time>
      </trkpt>
      <trkpt lat="44.81362" lon="5.4631">
        <ele>1068.9995</ele>
        <time>2014-06-26T09:31:52Z</time>
      </trkpt>
      <trkpt lat="44.81362" lon="5.46312">
        <ele>1068.9995</ele>
        <time>2014-06-26T09:31:52Z</time>
      </trkpt>
      <trkpt lat="44.81365" lon="5.46311">
        <ele>1069.7865</ele>
        <time>2014-06-26T09:32:00Z</time>
      </trkpt>
      <trkpt lat="44.81368" lon="5.46311">
        <ele>1069.7865</ele>
        <time>2014-06-26T09:32:03Z</time>
      </trkpt>
      <trkpt lat="44.81372" lon="5.46312">
        <ele>1069.7865</ele>
        <time>2014-06-26T09:32:09Z</time>
      </trkpt>
      <trkpt lat="44.81375" lon="5.46317">
        <ele>1070.5452</ele>
        <time>2014-06-26T09:32:15Z</time>
      </trkpt>
      <trkpt lat="44.81378" lon="5.4632">
        <ele>1070.5452</ele>
        <time>2014-06-26T09:32:18Z</time>
      </trkpt>
      <trkpt lat="44.81382" lon="5.46323">
        <ele>1070.5452</ele>
        <time>2014-06-26T09:32:23Z</time>
      </trkpt>
      <trkpt lat="44.81385" lon="5.46324">
        <ele>1071.2341</ele>
        <time>2014-06-26T09:32:29Z</time>
      </trkpt>
      <trkpt lat="44.81388" lon="5.46326">
        <ele>1071.2341</ele>
        <time>2014-06-26T09:32:33Z</time>
      </trkpt>
      <trkpt lat="44.81392" lon="5.46328">
        <ele>1071.2341</ele>
        <time>2014-06-26T09:32:39Z</time>
      </trkpt>
      <trkpt lat="44.81396" lon="5.4633">
        <ele>1071.8154</ele>
        <time>2014-06-26T09:32:44Z</time>
      </trkpt>
      <trkpt lat="44.814" lon="5.46329">
        <ele>1071.8154</ele>
        <time>2014-06-26T09:32:48Z</time>
      </trkpt>
      <trkpt lat="44.81404" lon="5.4633">
        <ele>1071.8154</ele>
        <time>2014-06-26T09:32:54Z</time>
      </trkpt>
      <trkpt lat="44.81408" lon="5.46335">
        <ele>1072.3411</ele>
        <time>2014-06-26T09:32:58Z</time>
      </trkpt>
      <trkpt lat="44.81411" lon="5.46334">
        <ele>1072.3411</ele>
        <time>2014-06-26T09:33:03Z</time>
      </trkpt>
      <trkpt lat="44.81414" lon="5.4634">
        <ele>1072.3411</ele>
        <time>2014-06-26T09:33:09Z</time>
      </trkpt>
      <trkpt lat="44.81417" lon="5.46344">
        <ele>1072.7727</ele>
        <time>2014-06-26T09:33:13Z</time>
      </trkpt>
      <trkpt lat="44.81417" lon="5.46346">
        <ele>1072.7727</ele>
        <time>2014-06-26T09:33:19Z</time>
      </trkpt>
      <trkpt lat="44.81418" lon="5.4635">
        <ele>1072.7727</ele>
        <time>2014-06-26T09:33:23Z</time>
      </trkpt>
      <trkpt lat="44.81419" lon="5.46355">
        <ele>1072.7727</ele>
        <time>2014-06-26T09:33:29Z</time>
      </trkpt>
      <trkpt lat="44.8142" lon="5.46359">
        <ele>1073.0753</ele>
        <time>2014-06-26T09:33:33Z</time>
      </trkpt>
      <trkpt lat="44.81424" lon="5.4636">
        <ele>1073.0753</ele>
        <time>2014-06-26T09:33:39Z</time>
      </trkpt>
      <trkpt lat="44.81427" lon="5.46364">
        <ele>1073.0753</ele>
        <time>2014-06-26T09:33:44Z</time>
      </trkpt>
      <trkpt lat="44.81429" lon="5.46365">
        <ele>1073.217</ele>
        <time>2014-06-26T09:33:49Z</time>
      </trkpt>
      <trkpt lat="44.81432" lon="5.46369">
        <ele>1073.217</ele>
        <time>2014-06-26T09:33:54Z</time>
      </trkpt>
      <trkpt lat="44.81435" lon="5.46376">
        <ele>1073.3129</ele>
        <time>2014-06-26T09:33:59Z</time>
      </trkpt>
      <trkpt lat="44.81437" lon="5.46379">
        <ele>1073.3129</ele>
        <time>2014-06-26T09:34:04Z</time>
      </trkpt>
      <trkpt lat="44.8144" lon="5.46384">
        <ele>1073.3129</ele>
        <time>2014-06-26T09:34:09Z</time>
      </trkpt>
      <trkpt lat="44.81443" lon="5.46388">
        <ele>1073.3687</ele>
        <time>2014-06-26T09:34:14Z</time>
      </trkpt>
      <trkpt lat="44.81444" lon="5.46392">
        <ele>1073.3687</ele>
        <time>2014-06-26T09:34:18Z</time>
      </trkpt>
      <trkpt lat="44.81449" lon="5.46396">
        <ele>1073.3687</ele>
        <time>2014-06-26T09:34:24Z</time>
      </trkpt>
      <trkpt lat="44.81451" lon="5.46401">
        <ele>1073.4188</ele>
        <time>2014-06-26T09:34:28Z</time>
      </trkpt>
      <trkpt lat="44.81455" lon="5.46407">
        <ele>1073.4188</ele>
        <time>2014-06-26T09:34:34Z</time>
      </trkpt>
      <trkpt lat="44.81458" lon="5.46411">
        <ele>1073.5243</ele>
        <time>2014-06-26T09:34:39Z</time>
      </trkpt>
      <trkpt lat="44.8146" lon="5.46413">
        <ele>1073.5243</ele>
        <time>2014-06-26T09:34:45Z</time>
      </trkpt>
      <trkpt lat="44.81462" lon="5.46422">
        <ele>1073.5243</ele>
        <time>2014-06-26T09:34:48Z</time>
      </trkpt>
      <trkpt lat="44.81463" lon="5.46423">
        <ele>1073.8132</ele>
        <time>2014-06-26T09:34:54Z</time>
      </trkpt>
      <trkpt lat="44.81465" lon="5.4643">
        <ele>1073.8132</ele>
        <time>2014-06-26T09:34:59Z</time>
      </trkpt>
      <trkpt lat="44.81468" lon="5.46433">
        <ele>1074.1592</ele>
        <time>2014-06-26T09:35:03Z</time>
      </trkpt>
      <trkpt lat="44.81471" lon="5.46437">
        <ele>1074.1592</ele>
        <time>2014-06-26T09:35:08Z</time>
      </trkpt>
      <trkpt lat="44.81473" lon="5.4644">
        <ele>1074.1592</ele>
        <time>2014-06-26T09:35:14Z</time>
      </trkpt>
      <trkpt lat="44.81475" lon="5.46442">
        <ele>1074.6608</ele>
        <time>2014-06-26T09:35:19Z</time>
      </trkpt>
      <trkpt lat="44.81477" lon="5.46445">
        <ele>1074.6608</ele>
        <time>2014-06-26T09:35:24Z</time>
      </trkpt>
      <trkpt lat="44.81478" lon="5.46449">
        <ele>1074.6608</ele>
        <time>2014-06-26T09:35:29Z</time>
      </trkpt>
      <trkpt lat="44.81478" lon="5.46454">
        <ele>1075.2649</ele>
        <time>2014-06-26T09:35:34Z</time>
      </trkpt>
      <trkpt lat="44.8148" lon="5.46456">
        <ele>1075.2649</ele>
        <time>2014-06-26T09:35:38Z</time>
      </trkpt>
      <trkpt lat="44.81481" lon="5.46458">
        <ele>1075.2649</ele>
        <time>2014-06-26T09:35:44Z</time>
      </trkpt>
      <trkpt lat="44.8148" lon="5.46461">
        <ele>1075.2649</ele>
        <time>2014-06-26T09:35:49Z</time>
      </trkpt>
      <trkpt lat="44.81486" lon="5.46465">
        <ele>1076.268</ele>
        <time>2014-06-26T09:35:57Z</time>
      </trkpt>
      <trkpt lat="44.81489" lon="5.4647">
        <ele>1076.268</ele>
        <time>2014-06-26T09:36:04Z</time>
      </trkpt>
      <trkpt lat="44.8149" lon="5.4647">
        <ele>1076.268</ele>
        <time>2014-06-26T09:36:09Z</time>
      </trkpt>
      <trkpt lat="44.81495" lon="5.46477">
        <ele>1077.4968</ele>
        <time>2014-06-26T09:36:14Z</time>
      </trkpt>
      <trkpt lat="44.81497" lon="5.46481">
        <ele>1077.4968</ele>
        <time>2014-06-26T09:36:19Z</time>
      </trkpt>
      <trkpt lat="44.81497" lon="5.46483">
        <ele>1077.4968</ele>
        <time>2014-06-26T09:36:24Z</time>
      </trkpt>
      <trkpt lat="44.81499" lon="5.46487">
        <ele>1077.4968</ele>
        <time>2014-06-26T09:36:32Z</time>
      </trkpt>
      <trkpt lat="44.81499" lon="5.46491">
        <ele>1079.0928</ele>
        <time>2014-06-26T09:36:33Z</time>
      </trkpt>
      <trkpt lat="44.81503" lon="5.46499">
        <ele>1079.0928</ele>
        <time>2014-06-26T09:36:39Z</time>
      </trkpt>
      <trkpt lat="44.81503" lon="5.46504">
        <ele>1080.8547</ele>
        <time>2014-06-26T09:36:44Z</time>
      </trkpt>
      <trkpt lat="44.81506" lon="5.46508">
        <ele>1080.8547</ele>
        <time>2014-06-26T09:36:49Z</time>
      </trkpt>
      <trkpt lat="44.81507" lon="5.46514">
        <ele>1080.8547</ele>
        <time>2014-06-26T09:36:54Z</time>
      </trkpt>
      <trkpt lat="44.8151" lon="5.46518">
        <ele>1083.1143</ele>
        <time>2014-06-26T09:36:59Z</time>
      </trkpt>
      <trkpt lat="44.81511" lon="5.46522">
        <ele>1083.1143</ele>
        <time>2014-06-26T09:37:04Z</time>
      </trkpt>
      <trkpt lat="44.81511" lon="5.46526">
        <ele>1083.1143</ele>
        <time>2014-06-26T09:37:08Z</time>
      </trkpt>
      <trkpt lat="44.81511" lon="5.46528">
        <ele>1083.1143</ele>
        <time>2014-06-26T09:37:13Z</time>
      </trkpt>
      <trkpt lat="44.81511" lon="5.46529">
        <ele>1083.1143</ele>
        <time>2014-06-26T09:37:19Z</time>
      </trkpt>
      <trkpt lat="44.81513" lon="5.46533">
        <ele>1085.8892</ele>
        <time>2014-06-26T09:37:24Z</time>
      </trkpt>
      <trkpt lat="44.81513" lon="5.46539">
        <ele>1085.8892</ele>
        <time>2014-06-26T09:37:28Z</time>
      </trkpt>
      <trkpt lat="44.81513" lon="5.46542">
        <ele>1085.8892</ele>
        <time>2014-06-26T09:37:33Z</time>
      </trkpt>
      <trkpt lat="44.81513" lon="5.46542">
        <ele>1085.8892</ele>
        <time>2014-06-26T09:37:39Z</time>
      </trkpt>
      <trkpt lat="44.81516" lon="5.46547">
        <ele>1088.8198</ele>
        <time>2014-06-26T09:37:44Z</time>
      </trkpt>
      <trkpt lat="44.81517" lon="5.46551">
        <ele>1088.8198</ele>
        <time>2014-06-26T09:37:49Z</time>
      </trkpt>
      <trkpt lat="44.81519" lon="5.46555">
        <ele>1088.8198</ele>
        <time>2014-06-26T09:37:53Z</time>
      </trkpt>
      <trkpt lat="44.81522" lon="5.46558">
        <ele>1091.8319</ele>
        <time>2014-06-26T09:38:02Z</time>
      </trkpt>
      <trkpt lat="44.81522" lon="5.4656">
        <ele>1091.8319</ele>
        <time>2014-06-26T09:38:03Z</time>
      </trkpt>
      <trkpt lat="44.81526" lon="5.46567">
        <ele>1091.8319</ele>
        <time>2014-06-26T09:38:09Z</time>
      </trkpt>
      <trkpt lat="44.81528" lon="5.46569">
        <ele>1094.7847</ele>
        <time>2014-06-26T09:38:14Z</time>
      </trkpt>
      <trkpt lat="44.8153" lon="5.46574">
        <ele>1094.7847</ele>
        <time>2014-06-26T09:38:19Z</time>
      </trkpt>
      <trkpt lat="44.81531" lon="5.46577">
        <ele>1094.7847</ele>
        <time>2014-06-26T09:38:24Z</time>
      </trkpt>
      <trkpt lat="44.81533" lon="5.46578">
        <ele>1094.7847</ele>
        <time>2014-06-26T09:38:28Z</time>
      </trkpt>
      <trkpt lat="44.81533" lon="5.4658">
        <ele>1097.5618</ele>
        <time>2014-06-26T09:38:35Z</time>
      </trkpt>
      <trkpt lat="44.81536" lon="5.46596">
        <ele>1100.2439</ele>
        <time>2014-06-26T09:38:49Z</time>
      </trkpt>
      <trkpt lat="44.8154" lon="5.46603">
        <ele>1100.2439</ele>
        <time>2014-06-26T09:38:53Z</time>
      </trkpt>
      <trkpt lat="44.81541" lon="5.46609">
        <ele>1102.6462</ele>
        <time>2014-06-26T09:38:58Z</time>
      </trkpt>
      <trkpt lat="44.81541" lon="5.46615">
        <ele>1102.6462</ele>
        <time>2014-06-26T09:39:04Z</time>
      </trkpt>
      <trkpt lat="44.81543" lon="5.46618">
        <ele>1102.6462</ele>
        <time>2014-06-26T09:39:09Z</time>
      </trkpt>
      <trkpt lat="44.81548" lon="5.46623">
        <ele>1104.9303</ele>
        <time>2014-06-26T09:39:14Z</time>
      </trkpt>
      <trkpt lat="44.81548" lon="5.46628">
        <ele>1104.9303</ele>
        <time>2014-06-26T09:39:19Z</time>
      </trkpt>
      <trkpt lat="44.81547" lon="5.46631">
        <ele>1104.9303</ele>
        <time>2014-06-26T09:39:24Z</time>
      </trkpt>
      <trkpt lat="44.81547" lon="5.46634">
        <ele>1104.9303</ele>
        <time>2014-06-26T09:39:29Z</time>
      </trkpt>
      <trkpt lat="44.81548" lon="5.46639">
        <ele>1107.3468</ele>
        <time>2014-06-26T09:39:33Z</time>
      </trkpt>
      <trkpt lat="44.81549" lon="5.46638">
        <ele>1107.3468</ele>
        <time>2014-06-26T09:39:39Z</time>
      </trkpt>
      <trkpt lat="44.8155" lon="5.46645">
        <ele>1107.3468</ele>
        <time>2014-06-26T09:39:44Z</time>
      </trkpt>
      <trkpt lat="44.8155" lon="5.46647">
        <ele>1107.3468</ele>
        <time>2014-06-26T09:39:48Z</time>
      </trkpt>
      <trkpt lat="44.81553" lon="5.46651">
        <ele>1109.7964</ele>
        <time>2014-06-26T09:39:53Z</time>
      </trkpt>
      <trkpt lat="44.81555" lon="5.46655">
        <ele>1109.7964</ele>
        <time>2014-06-26T09:39:58Z</time>
      </trkpt>
      <trkpt lat="44.81556" lon="5.46658">
        <ele>1109.7964</ele>
        <time>2014-06-26T09:40:04Z</time>
      </trkpt>
      <trkpt lat="44.81556" lon="5.46666">
        <ele>1112.331</ele>
        <time>2014-06-26T09:40:09Z</time>
      </trkpt>
      <trkpt lat="44.81557" lon="5.4667">
        <ele>1112.331</ele>
        <time>2014-06-26T09:40:13Z</time>
      </trkpt>
      <trkpt lat="44.81557" lon="5.46674">
        <ele>1112.331</ele>
        <time>2014-06-26T09:40:19Z</time>
      </trkpt>
      <trkpt lat="44.81558" lon="5.46678">
        <ele>1112.331</ele>
        <time>2014-06-26T09:40:24Z</time>
      </trkpt>
      <trkpt lat="44.81561" lon="5.46682">
        <ele>1115.1285</ele>
        <time>2014-06-26T09:40:29Z</time>
      </trkpt>
      <trkpt lat="44.81562" lon="5.46688">
        <ele>1115.1285</ele>
        <time>2014-06-26T09:40:34Z</time>
      </trkpt>
      <trkpt lat="44.81563" lon="5.4669">
        <ele>1115.1285</ele>
        <time>2014-06-26T09:40:38Z</time>
      </trkpt>
      <trkpt lat="44.81565" lon="5.46693">
        <ele>1117.9493</ele>
        <time>2014-06-26T09:40:43Z</time>
      </trkpt>
      <trkpt lat="44.81569" lon="5.46697">
        <ele>1117.9493</ele>
        <time>2014-06-26T09:40:49Z</time>
      </trkpt>
      <trkpt lat="44.81572" lon="5.46698">
        <ele>1117.9493</ele>
        <time>2014-06-26T09:40:53Z</time>
      </trkpt>
      <trkpt lat="44.81573" lon="5.46699">
        <ele>1121.0042</ele>
        <time>2014-06-26T09:40:59Z</time>
      </trkpt>
      <trkpt lat="44.81574" lon="5.46702">
        <ele>1121.0042</ele>
        <time>2014-06-26T09:41:04Z</time>
      </trkpt>
      <trkpt lat="44.81578" lon="5.4671">
        <ele>1124.0117</ele>
        <time>2014-06-26T09:41:09Z</time>
      </trkpt>
      <trkpt lat="44.81579" lon="5.46715">
        <ele>1124.0117</ele>
        <time>2014-06-26T09:41:14Z</time>
      </trkpt>
      <trkpt lat="44.8158" lon="5.46717">
        <ele>1124.0117</ele>
        <time>2014-06-26T09:41:22Z</time>
      </trkpt>
      <trkpt lat="44.81582" lon="5.46718">
        <ele>1124.0117</ele>
        <time>2014-06-26T09:41:23Z</time>
      </trkpt>
      <trkpt lat="44.81586" lon="5.46721">
        <ele>1127.1732</ele>
        <time>2014-06-26T09:41:29Z</time>
      </trkpt>
      <trkpt lat="44.81589" lon="5.46723">
        <ele>1127.1732</ele>
        <time>2014-06-26T09:41:34Z</time>
      </trkpt>
      <trkpt lat="44.81591" lon="5.46723">
        <ele>1127.1732</ele>
        <time>2014-06-26T09:41:39Z</time>
      </trkpt>
      <trkpt lat="44.81594" lon="5.46727">
        <ele>1130.1699</ele>
        <time>2014-06-26T09:41:43Z</time>
      </trkpt>
      <trkpt lat="44.81596" lon="5.4673">
        <ele>1130.1699</ele>
        <time>2014-06-26T09:41:48Z</time>
      </trkpt>
      <trkpt lat="44.81597" lon="5.46731">
        <ele>1130.1699</ele>
        <time>2014-06-26T09:41:53Z</time>
      </trkpt>
      <trkpt lat="44.81597" lon="5.46735">
        <ele>1130.1699</ele>
        <time>2014-06-26T09:41:59Z</time>
      </trkpt>
      <trkpt lat="44.81592" lon="5.46741">
        <ele>1133.4569</ele>
        <time>2014-06-26T09:42:08Z</time>
      </trkpt>
      <trkpt lat="44.81591" lon="5.46742">
        <ele>1133.4569</ele>
        <time>2014-06-26T09:42:12Z</time>
      </trkpt>
      <trkpt lat="44.81594" lon="5.46755">
        <ele>1137.109</ele>
        <time>2014-06-26T09:42:48Z</time>
      </trkpt>
      <trkpt lat="44.81598" lon="5.46758">
        <ele>1137.109</ele>
        <time>2014-06-26T09:42:52Z</time>
      </trkpt>
      <trkpt lat="44.81599" lon="5.46758">
        <ele>1137.109</ele>
        <time>2014-06-26T09:42:59Z</time>
      </trkpt>
      <trkpt lat="44.81597" lon="5.46769">
        <ele>1140.4597</ele>
        <time>2014-06-26T09:43:24Z</time>
      </trkpt>
      <trkpt lat="44.81599" lon="5.46774">
        <ele>1140.4597</ele>
        <time>2014-06-26T09:43:28Z</time>
      </trkpt>
      <trkpt lat="44.81599" lon="5.46777">
        <ele>1140.4597</ele>
        <time>2014-06-26T09:43:33Z</time>
      </trkpt>
      <trkpt lat="44.81599" lon="5.46779">
        <ele>1140.4597</ele>
        <time>2014-06-26T09:43:39Z</time>
      </trkpt>
      <trkpt lat="44.81598" lon="5.46784">
        <ele>1143.5121</ele>
        <time>2014-06-26T09:43:44Z</time>
      </trkpt>
      <trkpt lat="44.81598" lon="5.46787">
        <ele>1143.5121</ele>
        <time>2014-06-26T09:43:48Z</time>
      </trkpt>
      <trkpt lat="44.81595" lon="5.4679">
        <ele>1143.5121</ele>
        <time>2014-06-26T09:43:54Z</time>
      </trkpt>
      <trkpt lat="44.81592" lon="5.46797">
        <ele>1146.2847</ele>
        <time>2014-06-26T09:43:59Z</time>
      </trkpt>
      <trkpt lat="44.81589" lon="5.46802">
        <ele>1146.2847</ele>
        <time>2014-06-26T09:44:03Z</time>
      </trkpt>
      <trkpt lat="44.81589" lon="5.46805">
        <ele>1146.2847</ele>
        <time>2014-06-26T09:44:07Z</time>
      </trkpt>
      <trkpt lat="44.8159" lon="5.46809">
        <ele>1148.7953</ele>
        <time>2014-06-26T09:44:14Z</time>
      </trkpt>
      <trkpt lat="44.8159" lon="5.46811">
        <ele>1148.7953</ele>
        <time>2014-06-26T09:44:18Z</time>
      </trkpt>
      <trkpt lat="44.81591" lon="5.46811">
        <ele>1148.7953</ele>
        <time>2014-06-26T09:44:23Z</time>
      </trkpt>
      <trkpt lat="44.81602" lon="5.46812">
        <ele>1151.3495</ele>
        <time>2014-06-26T09:45:03Z</time>
      </trkpt>
      <trkpt lat="44.81604" lon="5.4681">
        <ele>1151.3495</ele>
        <time>2014-06-26T09:45:08Z</time>
      </trkpt>
      <trkpt lat="44.81607" lon="5.46812">
        <ele>1151.3495</ele>
        <time>2014-06-26T09:45:14Z</time>
      </trkpt>
      <trkpt lat="44.81609" lon="5.46813">
        <ele>1151.3495</ele>
        <time>2014-06-26T09:45:18Z</time>
      </trkpt>
      <trkpt lat="44.81609" lon="5.46817">
        <ele>1153.8414</ele>
        <time>2014-06-26T09:45:23Z</time>
      </trkpt>
      <trkpt lat="44.81607" lon="5.46822">
        <ele>1153.8414</ele>
        <time>2014-06-26T09:45:29Z</time>
      </trkpt>
      <trkpt lat="44.81607" lon="5.46827">
        <ele>1153.8414</ele>
        <time>2014-06-26T09:45:33Z</time>
      </trkpt>
      <trkpt lat="44.81609" lon="5.4683">
        <ele>1156.1157</ele>
        <time>2014-06-26T09:45:39Z</time>
      </trkpt>
      <trkpt lat="44.8161" lon="5.46833">
        <ele>1156.1157</ele>
        <time>2014-06-26T09:45:43Z</time>
      </trkpt>
      <trkpt lat="44.81612" lon="5.46838">
        <ele>1156.1157</ele>
        <time>2014-06-26T09:45:47Z</time>
      </trkpt>
      <trkpt lat="44.81612" lon="5.46842">
        <ele>1158.1587</ele>
        <time>2014-06-26T09:45:53Z</time>
      </trkpt>
      <trkpt lat="44.81611" lon="5.46844">
        <ele>1158.1587</ele>
        <time>2014-06-26T09:45:59Z</time>
      </trkpt>
      <trkpt lat="44.81609" lon="5.46849">
        <ele>1158.1587</ele>
        <time>2014-06-26T09:46:04Z</time>
      </trkpt>
      <trkpt lat="44.81612" lon="5.46853">
        <ele>1159.9873</ele>
        <time>2014-06-26T09:46:09Z</time>
      </trkpt>
      <trkpt lat="44.81615" lon="5.46857">
        <ele>1159.9873</ele>
        <time>2014-06-26T09:46:13Z</time>
      </trkpt>
      <trkpt lat="44.81616" lon="5.4686">
        <ele>1159.9873</ele>
        <time>2014-06-26T09:46:19Z</time>
      </trkpt>
      <trkpt lat="44.81618" lon="5.46862">
        <ele>1161.6326</ele>
        <time>2014-06-26T09:46:23Z</time>
      </trkpt>
      <trkpt lat="44.81617" lon="5.46865">
        <ele>1161.6326</ele>
        <time>2014-06-26T09:46:29Z</time>
      </trkpt>
      <trkpt lat="44.81617" lon="5.46864">
        <ele>1161.6326</ele>
        <time>2014-06-26T09:46:34Z</time>
      </trkpt>
      <trkpt lat="44.81612" lon="5.46867">
        <ele>1161.6326</ele>
        <time>2014-06-26T09:46:38Z</time>
      </trkpt>
      <trkpt lat="44.81609" lon="5.46868">
        <ele>1163.21</ele>
        <time>2014-06-26T09:46:44Z</time>
      </trkpt>
      <trkpt lat="44.81606" lon="5.46869">
        <ele>1163.21</ele>
        <time>2014-06-26T09:46:51Z</time>
      </trkpt>
      <trkpt lat="44.81605" lon="5.46868">
        <ele>1163.21</ele>
        <time>2014-06-26T09:46:53Z</time>
      </trkpt>
      <trkpt lat="44.81608" lon="5.46867">
        <ele>1163.21</ele>
        <time>2014-06-26T09:46:59Z</time>
      </trkpt>
      <trkpt lat="44.81618" lon="5.46857">
        <ele>1165.0432</ele>
        <time>2014-06-26T09:47:19Z</time>
      </trkpt>
      <trkpt lat="44.8162" lon="5.4686">
        <ele>1165.0432</ele>
        <time>2014-06-26T09:47:23Z</time>
      </trkpt>
      <trkpt lat="44.81622" lon="5.46865">
        <ele>1165.0432</ele>
        <time>2014-06-26T09:47:28Z</time>
      </trkpt>
      <trkpt lat="44.81628" lon="5.46876">
        <ele>1166.7255</ele>
        <time>2014-06-26T09:47:34Z</time>
      </trkpt>
      <trkpt lat="44.81631" lon="5.46882">
        <ele>1166.7255</ele>
        <time>2014-06-26T09:47:39Z</time>
      </trkpt>
      <trkpt lat="44.81633" lon="5.46888">
        <ele>1168.1537</ele>
        <time>2014-06-26T09:47:43Z</time>
      </trkpt>
      <trkpt lat="44.81639" lon="5.46899">
        <ele>1169.3922</ele>
        <time>2014-06-26T09:47:49Z</time>
      </trkpt>
      <trkpt lat="44.81643" lon="5.46909">
        <ele>1169.3922</ele>
        <time>2014-06-26T09:47:53Z</time>
      </trkpt>
      <trkpt lat="44.81641" lon="5.46912">
        <ele>1170.4865</ele>
        <time>2014-06-26T09:47:59Z</time>
      </trkpt>
      <trkpt lat="44.81639" lon="5.46917">
        <ele>1170.4865</ele>
        <time>2014-06-26T09:48:04Z</time>
      </trkpt>
      <trkpt lat="44.81643" lon="5.4692">
        <ele>1171.4502</ele>
        <time>2014-06-26T09:48:09Z</time>
      </trkpt>
      <trkpt lat="44.81645" lon="5.46924">
        <ele>1171.4502</ele>
        <time>2014-06-26T09:48:13Z</time>
      </trkpt>
      <trkpt lat="44.81647" lon="5.46927">
        <ele>1171.4502</ele>
        <time>2014-06-26T09:48:18Z</time>
      </trkpt>
      <trkpt lat="44.8165" lon="5.46931">
        <ele>1172.2823</ele>
        <time>2014-06-26T09:48:24Z</time>
      </trkpt>
      <trkpt lat="44.81657" lon="5.46938">
        <ele>1172.2823</ele>
        <time>2014-06-26T09:48:29Z</time>
      </trkpt>
      <trkpt lat="44.8166" lon="5.46942">
        <ele>1173.0253</ele>
        <time>2014-06-26T09:48:33Z</time>
      </trkpt>
      <trkpt lat="44.81663" lon="5.46948">
        <ele>1173.0253</ele>
        <time>2014-06-26T09:48:39Z</time>
      </trkpt>
      <trkpt lat="44.81665" lon="5.46953">
        <ele>1173.7186</ele>
        <time>2014-06-26T09:48:44Z</time>
      </trkpt>
      <trkpt lat="44.81667" lon="5.46957">
        <ele>1173.7186</ele>
        <time>2014-06-26T09:48:48Z</time>
      </trkpt>
      <trkpt lat="44.81668" lon="5.46961">
        <ele>1173.7186</ele>
        <time>2014-06-26T09:48:54Z</time>
      </trkpt>
      <trkpt lat="44.81669" lon="5.46962">
        <ele>1173.7186</ele>
        <time>2014-06-26T09:48:59Z</time>
      </trkpt>
      <trkpt lat="44.81672" lon="5.46965">
        <ele>1174.428</ele>
        <time>2014-06-26T09:49:03Z</time>
      </trkpt>
      <trkpt lat="44.81676" lon="5.46963">
        <ele>1174.428</ele>
        <time>2014-06-26T09:49:09Z</time>
      </trkpt>
      <trkpt lat="44.81678" lon="5.46964">
        <ele>1174.428</ele>
        <time>2014-06-26T09:49:13Z</time>
      </trkpt>
      <trkpt lat="44.81682" lon="5.46967">
        <ele>1175.0701</ele>
        <time>2014-06-26T09:49:20Z</time>
      </trkpt>
      <trkpt lat="44.81686" lon="5.46972">
        <ele>1175.0701</ele>
        <time>2014-06-26T09:49:23Z</time>
      </trkpt>
      <trkpt lat="44.81686" lon="5.46977">
        <ele>1175.6398</ele>
        <time>2014-06-26T09:49:29Z</time>
      </trkpt>
      <trkpt lat="44.81687" lon="5.46983">
        <ele>1175.6398</ele>
        <time>2014-06-26T09:49:34Z</time>
      </trkpt>
      <trkpt lat="44.81691" lon="5.46988">
        <ele>1176.2046</ele>
        <time>2014-06-26T09:49:39Z</time>
      </trkpt>
      <trkpt lat="44.81692" lon="5.4699">
        <ele>1176.2046</ele>
        <time>2014-06-26T09:49:43Z</time>
      </trkpt>
      <trkpt lat="44.81698" lon="5.46994">
        <ele>1176.2046</ele>
        <time>2014-06-26T09:49:49Z</time>
      </trkpt>
      <trkpt lat="44.81699" lon="5.46998">
        <ele>1176.7694</ele>
        <time>2014-06-26T09:49:53Z</time>
      </trkpt>
      <trkpt lat="44.817" lon="5.47001">
        <ele>1176.7694</ele>
        <time>2014-06-26T09:49:59Z</time>
      </trkpt>
      <trkpt lat="44.81703" lon="5.47002">
        <ele>1176.7694</ele>
        <time>2014-06-26T09:50:03Z</time>
      </trkpt>
      <trkpt lat="44.81703" lon="5.47006">
        <ele>1176.7694</ele>
        <time>2014-06-26T09:50:09Z</time>
      </trkpt>
      <trkpt lat="44.81703" lon="5.47009">
        <ele>1177.4684</ele>
        <time>2014-06-26T09:50:13Z</time>
      </trkpt>
      <trkpt lat="44.81705" lon="5.47016">
        <ele>1177.4684</ele>
        <time>2014-06-26T09:50:19Z</time>
      </trkpt>
      <trkpt lat="44.81711" lon="5.47023">
        <ele>1178.267</ele>
        <time>2014-06-26T09:50:24Z</time>
      </trkpt>
      <trkpt lat="44.81714" lon="5.47029">
        <ele>1178.267</ele>
        <time>2014-06-26T09:50:28Z</time>
      </trkpt>
      <trkpt lat="44.81713" lon="5.47032">
        <ele>1178.267</ele>
        <time>2014-06-26T09:50:33Z</time>
      </trkpt>
      <trkpt lat="44.81716" lon="5.47038">
        <ele>1179.3776</ele>
        <time>2014-06-26T09:50:39Z</time>
      </trkpt>
      <trkpt lat="44.81718" lon="5.47043">
        <ele>1179.3776</ele>
        <time>2014-06-26T09:50:43Z</time>
      </trkpt>
      <trkpt lat="44.81721" lon="5.47043">
        <ele>1179.3776</ele>
        <time>2014-06-26T09:50:49Z</time>
      </trkpt>
      <trkpt lat="44.81722" lon="5.47045">
        <ele>1179.3776</ele>
        <time>2014-06-26T09:50:54Z</time>
      </trkpt>
      <trkpt lat="44.81722" lon="5.47046">
        <ele>1180.8809</ele>
        <time>2014-06-26T09:50:58Z</time>
      </trkpt>
      <trkpt lat="44.81725" lon="5.47052">
        <ele>1180.8809</ele>
        <time>2014-06-26T09:51:04Z</time>
      </trkpt>
      <trkpt lat="44.81727" lon="5.47057">
        <ele>1182.5189</ele>
        <time>2014-06-26T09:51:09Z</time>
      </trkpt>
      <trkpt lat="44.81731" lon="5.4706">
        <ele>1182.5189</ele>
        <time>2014-06-26T09:51:13Z</time>
      </trkpt>
      <trkpt lat="44.81735" lon="5.47067">
        <ele>1184.3405</ele>
        <time>2014-06-26T09:51:19Z</time>
      </trkpt>
      <trkpt lat="44.81738" lon="5.47069">
        <ele>1184.3405</ele>
        <time>2014-06-26T09:51:23Z</time>
      </trkpt>
      <trkpt lat="44.81735" lon="5.47065">
        <ele>1184.3405</ele>
        <time>2014-06-26T09:51:29Z</time>
      </trkpt>
      <trkpt lat="44.81728" lon="5.47075">
        <ele>1188.1051</ele>
        <time>2014-06-26T09:52:23Z</time>
      </trkpt>
      <trkpt lat="44.81735" lon="5.47058">
        <ele>1192.4688</ele>
        <time>2014-06-26T09:54:08Z</time>
      </trkpt>
      <trkpt lat="44.81738" lon="5.47054">
        <ele>1192.4688</ele>
        <time>2014-06-26T09:54:13Z</time>
      </trkpt>
      <trkpt lat="44.81735" lon="5.47062">
        <ele>1196.4441</ele>
        <time>2014-06-26T09:54:19Z</time>
      </trkpt>
      <trkpt lat="44.81725" lon="5.47064">
        <ele>1202.1289</ele>
        <time>2014-06-26T09:56:01Z</time>
      </trkpt>
      <trkpt lat="44.81733" lon="5.4707">
        <ele>1202.1289</ele>
        <time>2014-06-26T09:56:13Z</time>
      </trkpt>
      <trkpt lat="44.81737" lon="5.47071">
        <ele>1207.384</ele>
        <time>2014-06-26T09:56:18Z</time>
      </trkpt>
      <trkpt lat="44.81739" lon="5.47072">
        <ele>1207.384</ele>
        <time>2014-06-26T09:56:23Z</time>
      </trkpt>
      <trkpt lat="44.81744" lon="5.47074">
        <ele>1207.384</ele>
        <time>2014-06-26T09:56:28Z</time>
      </trkpt>
      <trkpt lat="44.81747" lon="5.47075">
        <ele>1212.2028</ele>
        <time>2014-06-26T09:56:34Z</time>
      </trkpt>
      <trkpt lat="44.81753" lon="5.47077">
        <ele>1212.2028</ele>
        <time>2014-06-26T09:56:39Z</time>
      </trkpt>
      <trkpt lat="44.81757" lon="5.4708">
        <ele>1216.5948</ele>
        <time>2014-06-26T09:56:44Z</time>
      </trkpt>
      <trkpt lat="44.81761" lon="5.47082">
        <ele>1216.5948</ele>
        <time>2014-06-26T09:56:49Z</time>
      </trkpt>
      <trkpt lat="44.81761" lon="5.47084">
        <ele>1216.5948</ele>
        <time>2014-06-26T09:56:54Z</time>
      </trkpt>
      <trkpt lat="44.81762" lon="5.47088">
        <ele>1216.5948</ele>
        <time>2014-06-26T09:56:58Z</time>
      </trkpt>
      <trkpt lat="44.81764" lon="5.47091">
        <ele>1220.7432</ele>
        <time>2014-06-26T09:57:03Z</time>
      </trkpt>
      <trkpt lat="44.81767" lon="5.47092">
        <ele>1220.7432</ele>
        <time>2014-06-26T09:57:07Z</time>
      </trkpt>
      <trkpt lat="44.81773" lon="5.47094">
        <ele>1224.5588</ele>
        <time>2014-06-26T09:57:13Z</time>
      </trkpt>
      <trkpt lat="44.81776" lon="5.47097">
        <ele>1224.5588</ele>
        <time>2014-06-26T09:57:19Z</time>
      </trkpt>
      <trkpt lat="44.81778" lon="5.47099">
        <ele>1224.5588</ele>
        <time>2014-06-26T09:57:24Z</time>
      </trkpt>
      <trkpt lat="44.81779" lon="5.47101">
        <ele>1224.5588</ele>
        <time>2014-06-26T09:57:29Z</time>
      </trkpt>
      <trkpt lat="44.81782" lon="5.47102">
        <ele>1228.1908</ele>
        <time>2014-06-26T09:57:34Z</time>
      </trkpt>
      <trkpt lat="44.81782" lon="5.47104">
        <ele>1228.1908</ele>
        <time>2014-06-26T09:57:39Z</time>
      </trkpt>
      <trkpt lat="44.81784" lon="5.47107">
        <ele>1228.1908</ele>
        <time>2014-06-26T09:57:44Z</time>
      </trkpt>
      <trkpt lat="44.81785" lon="5.47108">
        <ele>1228.1908</ele>
        <time>2014-06-26T09:57:49Z</time>
      </trkpt>
      <trkpt lat="44.81786" lon="5.47111">
        <ele>1228.1908</ele>
        <time>2014-06-26T09:57:54Z</time>
      </trkpt>
      <trkpt lat="44.81787" lon="5.47112">
        <ele>1231.8357</ele>
        <time>2014-06-26T09:57:58Z</time>
      </trkpt>
      <trkpt lat="44.81789" lon="5.47114">
        <ele>1231.8357</ele>
        <time>2014-06-26T09:58:04Z</time>
      </trkpt>
      <trkpt lat="44.8179" lon="5.47116">
        <ele>1231.8357</ele>
        <time>2014-06-26T09:58:09Z</time>
      </trkpt>
      <trkpt lat="44.81791" lon="5.47118">
        <ele>1231.8357</ele>
        <time>2014-06-26T09:58:14Z</time>
      </trkpt>
      <trkpt lat="44.81796" lon="5.47126">
        <ele>1235.5458</ele>
        <time>2014-06-26T09:58:24Z</time>
      </trkpt>
      <trkpt lat="44.81798" lon="5.4713">
        <ele>1235.5458</ele>
        <time>2014-06-26T09:58:29Z</time>
      </trkpt>
      <trkpt lat="44.818" lon="5.47135">
        <ele>1235.5458</ele>
        <time>2014-06-26T09:58:34Z</time>
      </trkpt>
      <trkpt lat="44.81801" lon="5.47138">
        <ele>1239.1678</ele>
        <time>2014-06-26T09:58:38Z</time>
      </trkpt>
      <trkpt lat="44.81804" lon="5.47142">
        <ele>1239.1678</ele>
        <time>2014-06-26T09:58:44Z</time>
      </trkpt>
      <trkpt lat="44.81805" lon="5.47147">
        <ele>1239.1678</ele>
        <time>2014-06-26T09:58:48Z</time>
      </trkpt>
      <trkpt lat="44.81808" lon="5.47152">
        <ele>1242.6177</ele>
        <time>2014-06-26T09:58:54Z</time>
      </trkpt>
      <trkpt lat="44.81809" lon="5.47154">
        <ele>1242.6177</ele>
        <time>2014-06-26T09:58:59Z</time>
      </trkpt>
      <trkpt lat="44.8181" lon="5.47157">
        <ele>1242.6177</ele>
        <time>2014-06-26T09:59:03Z</time>
      </trkpt>
      <trkpt lat="44.8181" lon="5.47159">
        <ele>1242.6177</ele>
        <time>2014-06-26T09:59:09Z</time>
      </trkpt>
      <trkpt lat="44.81814" lon="5.47166">
        <ele>1246.0488</ele>
        <time>2014-06-26T09:59:14Z</time>
      </trkpt>
      <trkpt lat="44.81815" lon="5.4717">
        <ele>1246.0488</ele>
        <time>2014-06-26T09:59:18Z</time>
      </trkpt>
      <trkpt lat="44.81818" lon="5.47174">
        <ele>1246.0488</ele>
        <time>2014-06-26T09:59:23Z</time>
      </trkpt>
      <trkpt lat="44.8182" lon="5.47178">
        <ele>1249.3007</ele>
        <time>2014-06-26T09:59:28Z</time>
      </trkpt>
      <trkpt lat="44.81822" lon="5.4718">
        <ele>1249.3007</ele>
        <time>2014-06-26T09:59:33Z</time>
      </trkpt>
      <trkpt lat="44.81828" lon="5.47183">
        <ele>1252.3551</ele>
        <time>2014-06-26T09:59:39Z</time>
      </trkpt>
      <trkpt lat="44.8183" lon="5.47183">
        <ele>1252.3551</ele>
        <time>2014-06-26T09:59:43Z</time>
      </trkpt>
      <trkpt lat="44.8183" lon="5.47186">
        <ele>1252.3551</ele>
        <time>2014-06-26T09:59:50Z</time>
      </trkpt>
      <trkpt lat="44.81833" lon="5.47191">
        <ele>1252.3551</ele>
        <time>2014-06-26T09:59:53Z</time>
      </trkpt>
      <trkpt lat="44.81833" lon="5.47196">
        <ele>1255.412</ele>
        <time>2014-06-26T09:59:58Z</time>
      </trkpt>
      <trkpt lat="44.81834" lon="5.47199">
        <ele>1255.412</ele>
        <time>2014-06-26T10:00:03Z</time>
      </trkpt>
      <trkpt lat="44.81836" lon="5.47204">
        <ele>1255.412</ele>
        <time>2014-06-26T10:00:08Z</time>
      </trkpt>
      <trkpt lat="44.81835" lon="5.47208">
        <ele>1255.412</ele>
        <time>2014-06-26T10:00:14Z</time>
      </trkpt>
      <trkpt lat="44.81837" lon="5.4721">
        <ele>1258.498</ele>
        <time>2014-06-26T10:00:19Z</time>
      </trkpt>
      <trkpt lat="44.81834" lon="5.47215">
        <ele>1258.498</ele>
        <time>2014-06-26T10:00:24Z</time>
      </trkpt>
      <trkpt lat="44.81831" lon="5.4722">
        <ele>1258.498</ele>
        <time>2014-06-26T10:00:31Z</time>
      </trkpt>
      <trkpt lat="44.81831" lon="5.47223">
        <ele>1261.494</ele>
        <time>2014-06-26T10:00:33Z</time>
      </trkpt>
      <trkpt lat="44.81832" lon="5.47231">
        <ele>1261.494</ele>
        <time>2014-06-26T10:00:39Z</time>
      </trkpt>
      <trkpt lat="44.8183" lon="5.47238">
        <ele>1264.4052</ele>
        <time>2014-06-26T10:00:44Z</time>
      </trkpt>
      <trkpt lat="44.81829" lon="5.47242">
        <ele>1264.4052</ele>
        <time>2014-06-26T10:00:49Z</time>
      </trkpt>
      <trkpt lat="44.81831" lon="5.47245">
        <ele>1264.4052</ele>
        <time>2014-06-26T10:00:54Z</time>
      </trkpt>
      <trkpt lat="44.8183" lon="5.47247">
        <ele>1264.4052</ele>
        <time>2014-06-26T10:00:58Z</time>
      </trkpt>
      <trkpt lat="44.81831" lon="5.4725">
        <ele>1267.496</ele>
        <time>2014-06-26T10:01:04Z</time>
      </trkpt>
      <trkpt lat="44.81833" lon="5.47253">
        <ele>1267.496</ele>
        <time>2014-06-26T10:01:09Z</time>
      </trkpt>
      <trkpt lat="44.81834" lon="5.47257">
        <ele>1267.496</ele>
        <time>2014-06-26T10:01:13Z</time>
      </trkpt>
      <trkpt lat="44.81836" lon="5.4726">
        <ele>1267.496</ele>
        <time>2014-06-26T10:01:19Z</time>
      </trkpt>
      <trkpt lat="44.81836" lon="5.47264">
        <ele>1270.7661</ele>
        <time>2014-06-26T10:01:24Z</time>
      </trkpt>
      <trkpt lat="44.81837" lon="5.47268">
        <ele>1270.7661</ele>
        <time>2014-06-26T10:01:29Z</time>
      </trkpt>
      <trkpt lat="44.8184" lon="5.47271">
        <ele>1270.7661</ele>
        <time>2014-06-26T10:01:34Z</time>
      </trkpt>
      <trkpt lat="44.81843" lon="5.47273">
        <ele>1274.0276</ele>
        <time>2014-06-26T10:01:38Z</time>
      </trkpt>
      <trkpt lat="44.81844" lon="5.47276">
        <ele>1274.0276</ele>
        <time>2014-06-26T10:01:44Z</time>
      </trkpt>
      <trkpt lat="44.81848" lon="5.47279">
        <ele>1274.0276</ele>
        <time>2014-06-26T10:01:49Z</time>
      </trkpt>
      <trkpt lat="44.8185" lon="5.47284">
        <ele>1277.1785</ele>
        <time>2014-06-26T10:01:54Z</time>
      </trkpt>
      <trkpt lat="44.81851" lon="5.4729">
        <ele>1277.1785</ele>
        <time>2014-06-26T10:02:02Z</time>
      </trkpt>
      <trkpt lat="44.81851" lon="5.47294">
        <ele>1277.1785</ele>
        <time>2014-06-26T10:02:03Z</time>
      </trkpt>
      <trkpt lat="44.81852" lon="5.47296">
        <ele>1277.1785</ele>
        <time>2014-06-26T10:02:08Z</time>
      </trkpt>
      <trkpt lat="44.81854" lon="5.47302">
        <ele>1280.4415</ele>
        <time>2014-06-26T10:02:14Z</time>
      </trkpt>
      <trkpt lat="44.81853" lon="5.47308">
        <ele>1280.4415</ele>
        <time>2014-06-26T10:02:19Z</time>
      </trkpt>
      <trkpt lat="44.81855" lon="5.47312">
        <ele>1280.4415</ele>
        <time>2014-06-26T10:02:22Z</time>
      </trkpt>
      <trkpt lat="44.81858" lon="5.47317">
        <ele>1283.7205</ele>
        <time>2014-06-26T10:02:29Z</time>
      </trkpt>
      <trkpt lat="44.81861" lon="5.4732">
        <ele>1283.7205</ele>
        <time>2014-06-26T10:02:33Z</time>
      </trkpt>
      <trkpt lat="44.81862" lon="5.47322">
        <ele>1283.7205</ele>
        <time>2014-06-26T10:02:40Z</time>
      </trkpt>
      <trkpt lat="44.81863" lon="5.47326">
        <ele>1283.7205</ele>
        <time>2014-06-26T10:02:43Z</time>
      </trkpt>
      <trkpt lat="44.81865" lon="5.47331">
        <ele>1287.1711</ele>
        <time>2014-06-26T10:02:49Z</time>
      </trkpt>
      <trkpt lat="44.81867" lon="5.47335">
        <ele>1287.1711</ele>
        <time>2014-06-26T10:02:54Z</time>
      </trkpt>
      <trkpt lat="44.8187" lon="5.47339">
        <ele>1287.1711</ele>
        <time>2014-06-26T10:02:59Z</time>
      </trkpt>
      <trkpt lat="44.81872" lon="5.47344">
        <ele>1290.6061</ele>
        <time>2014-06-26T10:03:03Z</time>
      </trkpt>
      <trkpt lat="44.81875" lon="5.47351">
        <ele>1290.6061</ele>
        <time>2014-06-26T10:03:08Z</time>
      </trkpt>
      <trkpt lat="44.8188" lon="5.47355">
        <ele>1293.8373</ele>
        <time>2014-06-26T10:03:13Z</time>
      </trkpt>
      <trkpt lat="44.81883" lon="5.47359">
        <ele>1293.8373</ele>
        <time>2014-06-26T10:03:19Z</time>
      </trkpt>
      <trkpt lat="44.81887" lon="5.47365">
        <ele>1296.9504</ele>
        <time>2014-06-26T10:03:24Z</time>
      </trkpt>
      <trkpt lat="44.81892" lon="5.4737">
        <ele>1296.9504</ele>
        <time>2014-06-26T10:03:29Z</time>
      </trkpt>
      <trkpt lat="44.81891" lon="5.47374">
        <ele>1299.9824</ele>
        <time>2014-06-26T10:03:33Z</time>
      </trkpt>
      <trkpt lat="44.81891" lon="5.4738">
        <ele>1299.9824</ele>
        <time>2014-06-26T10:03:39Z</time>
      </trkpt>
      <trkpt lat="44.81891" lon="5.47382">
        <ele>1299.9824</ele>
        <time>2014-06-26T10:03:43Z</time>
      </trkpt>
      <trkpt lat="44.81893" lon="5.47384">
        <ele>1299.9824</ele>
        <time>2014-06-26T10:03:49Z</time>
      </trkpt>
      <trkpt lat="44.81882" lon="5.47388">
        <ele>1303.0974</ele>
        <time>2014-06-26T10:03:54Z</time>
      </trkpt>
      <trkpt lat="44.81877" lon="5.47391">
        <ele>1303.0974</ele>
        <time>2014-06-26T10:03:59Z</time>
      </trkpt>
      <trkpt lat="44.81877" lon="5.47393">
        <ele>1303.0974</ele>
        <time>2014-06-26T10:04:03Z</time>
      </trkpt>
      <trkpt lat="44.81874" lon="5.47392">
        <ele>1305.8417</ele>
        <time>2014-06-26T10:04:09Z</time>
      </trkpt>
      <trkpt lat="44.81876" lon="5.4739">
        <ele>1305.8417</ele>
        <time>2014-06-26T10:04:13Z</time>
      </trkpt>
      <trkpt lat="44.81877" lon="5.47389">
        <ele>1305.8417</ele>
        <time>2014-06-26T10:04:19Z</time>
      </trkpt>
      <trkpt lat="44.81878" lon="5.47389">
        <ele>1305.8417</ele>
        <time>2014-06-26T10:04:24Z</time>
      </trkpt>
      <trkpt lat="44.81881" lon="5.47393">
        <ele>1308.7042</ele>
        <time>2014-06-26T10:04:29Z</time>
      </trkpt>
      <trkpt lat="44.81884" lon="5.47396">
        <ele>1308.7042</ele>
        <time>2014-06-26T10:04:34Z</time>
      </trkpt>
      <trkpt lat="44.81887" lon="5.47398">
        <ele>1308.7042</ele>
        <time>2014-06-26T10:04:39Z</time>
      </trkpt>
      <trkpt lat="44.81891" lon="5.474">
        <ele>1311.4894</ele>
        <time>2014-06-26T10:04:43Z</time>
      </trkpt>
      <trkpt lat="44.81893" lon="5.47403">
        <ele>1311.4894</ele>
        <time>2014-06-26T10:04:49Z</time>
      </trkpt>
      <trkpt lat="44.81897" lon="5.47406">
        <ele>1311.4894</ele>
        <time>2014-06-26T10:04:54Z</time>
      </trkpt>
      <trkpt lat="44.81902" lon="5.47409">
        <ele>1314.2177</ele>
        <time>2014-06-26T10:04:59Z</time>
      </trkpt>
      <trkpt lat="44.81905" lon="5.47412">
        <ele>1314.2177</ele>
        <time>2014-06-26T10:05:04Z</time>
      </trkpt>
      <trkpt lat="44.81908" lon="5.47414">
        <ele>1314.2177</ele>
        <time>2014-06-26T10:05:08Z</time>
      </trkpt>
      <trkpt lat="44.81912" lon="5.47418">
        <ele>1316.8075</ele>
        <time>2014-06-26T10:05:13Z</time>
      </trkpt>
      <trkpt lat="44.81914" lon="5.47421">
        <ele>1316.8075</ele>
        <time>2014-06-26T10:05:18Z</time>
      </trkpt>
      <trkpt lat="44.81914" lon="5.47422">
        <ele>1316.8075</ele>
        <time>2014-06-26T10:05:23Z</time>
      </trkpt>
      <trkpt lat="44.81915" lon="5.4743">
        <ele>1319.2991</ele>
        <time>2014-06-26T10:05:29Z</time>
      </trkpt>
      <trkpt lat="44.81917" lon="5.47435">
        <ele>1319.2991</ele>
        <time>2014-06-26T10:05:33Z</time>
      </trkpt>
      <trkpt lat="44.81919" lon="5.4744">
        <ele>1319.2991</ele>
        <time>2014-06-26T10:05:39Z</time>
      </trkpt>
      <trkpt lat="44.81919" lon="5.47442">
        <ele>1321.7155</ele>
        <time>2014-06-26T10:05:43Z</time>
      </trkpt>
      <trkpt lat="44.81918" lon="5.47444">
        <ele>1321.7155</ele>
        <time>2014-06-26T10:05:49Z</time>
      </trkpt>
      <trkpt lat="44.81909" lon="5.47443">
        <ele>1324.1936</ele>
        <time>2014-06-26T10:05:58Z</time>
      </trkpt>
      <trkpt lat="44.81908" lon="5.47445">
        <ele>1324.1936</ele>
        <time>2014-06-26T10:06:04Z</time>
      </trkpt>
      <trkpt lat="44.8191" lon="5.47449">
        <ele>1324.1936</ele>
        <time>2014-06-26T10:06:09Z</time>
      </trkpt>
      <trkpt lat="44.8191" lon="5.47454">
        <ele>1324.1936</ele>
        <time>2014-06-26T10:06:14Z</time>
      </trkpt>
      <trkpt lat="44.81911" lon="5.47459">
        <ele>1326.6729</ele>
        <time>2014-06-26T10:06:19Z</time>
      </trkpt>
      <trkpt lat="44.81911" lon="5.4746">
        <ele>1326.6729</ele>
        <time>2014-06-26T10:06:24Z</time>
      </trkpt>
      <trkpt lat="44.81914" lon="5.47459">
        <ele>1326.6729</ele>
        <time>2014-06-26T10:06:29Z</time>
      </trkpt>
      <trkpt lat="44.81915" lon="5.47459">
        <ele>1326.6729</ele>
        <time>2014-06-26T10:06:34Z</time>
      </trkpt>
      <trkpt lat="44.81914" lon="5.47463">
        <ele>1326.6729</ele>
        <time>2014-06-26T10:06:38Z</time>
      </trkpt>
      <trkpt lat="44.81918" lon="5.47468">
        <ele>1329.0106</ele>
        <time>2014-06-26T10:06:43Z</time>
      </trkpt>
      <trkpt lat="44.81921" lon="5.47472">
        <ele>1329.0106</ele>
        <time>2014-06-26T10:06:49Z</time>
      </trkpt>
      <trkpt lat="44.81923" lon="5.47476">
        <ele>1329.0106</ele>
        <time>2014-06-26T10:06:54Z</time>
      </trkpt>
      <trkpt lat="44.81924" lon="5.47482">
        <ele>1331.1906</ele>
        <time>2014-06-26T10:06:59Z</time>
      </trkpt>
      <trkpt lat="44.81927" lon="5.47487">
        <ele>1331.1906</ele>
        <time>2014-06-26T10:07:03Z</time>
      </trkpt>
      <trkpt lat="44.8193" lon="5.4749">
        <ele>1331.1906</ele>
        <time>2014-06-26T10:07:09Z</time>
      </trkpt>
      <trkpt lat="44.81934" lon="5.47494">
        <ele>1333.4716</ele>
        <time>2014-06-26T10:07:14Z</time>
      </trkpt>
      <trkpt lat="44.81934" lon="5.47496">
        <ele>1333.4716</ele>
        <time>2014-06-26T10:07:18Z</time>
      </trkpt>
      <trkpt lat="44.81939" lon="5.47499">
        <ele>1333.4716</ele>
        <time>2014-06-26T10:07:24Z</time>
      </trkpt>
      <trkpt lat="44.81939" lon="5.47501">
        <ele>1333.4716</ele>
        <time>2014-06-26T10:07:29Z</time>
      </trkpt>
      <trkpt lat="44.81934" lon="5.47504">
        <ele>1335.8484</ele>
        <time>2014-06-26T10:07:34Z</time>
      </trkpt>
      <trkpt lat="44.81933" lon="5.47506">
        <ele>1335.8484</ele>
        <time>2014-06-26T10:07:39Z</time>
      </trkpt>
      <trkpt lat="44.81934" lon="5.47507">
        <ele>1335.8484</ele>
        <time>2014-06-26T10:07:43Z</time>
      </trkpt>
      <trkpt lat="44.81939" lon="5.47503">
        <ele>1335.8484</ele>
        <time>2014-06-26T10:07:49Z</time>
      </trkpt>
      <trkpt lat="44.81941" lon="5.47504">
        <ele>1338.5896</ele>
        <time>2014-06-26T10:07:54Z</time>
      </trkpt>
      <trkpt lat="44.81942" lon="5.47505">
        <ele>1338.5896</ele>
        <time>2014-06-26T10:07:59Z</time>
      </trkpt>
      <trkpt lat="44.81946" lon="5.47507">
        <ele>1338.5896</ele>
        <time>2014-06-26T10:08:04Z</time>
      </trkpt>
      <trkpt lat="44.81944" lon="5.47512">
        <ele>1341.4532</ele>
        <time>2014-06-26T10:08:08Z</time>
      </trkpt>
      <trkpt lat="44.81944" lon="5.47517">
        <ele>1341.4532</ele>
        <time>2014-06-26T10:08:13Z</time>
      </trkpt>
      <trkpt lat="44.81944" lon="5.4752">
        <ele>1341.4532</ele>
        <time>2014-06-26T10:08:18Z</time>
      </trkpt>
      <trkpt lat="44.81949" lon="5.47523">
        <ele>1344.4452</ele>
        <time>2014-06-26T10:08:24Z</time>
      </trkpt>
      <trkpt lat="44.8195" lon="5.47524">
        <ele>1344.4452</ele>
        <time>2014-06-26T10:08:28Z</time>
      </trkpt>
      <trkpt lat="44.81954" lon="5.47526">
        <ele>1344.4452</ele>
        <time>2014-06-26T10:08:33Z</time>
      </trkpt>
      <trkpt lat="44.81958" lon="5.47529">
        <ele>1347.4264</ele>
        <time>2014-06-26T10:08:39Z</time>
      </trkpt>
      <trkpt lat="44.8196" lon="5.4753">
        <ele>1347.4264</ele>
        <time>2014-06-26T10:08:43Z</time>
      </trkpt>
      <trkpt lat="44.81961" lon="5.47532">
        <ele>1347.4264</ele>
        <time>2014-06-26T10:08:48Z</time>
      </trkpt>
      <trkpt lat="44.81964" lon="5.47535">
        <ele>1347.4264</ele>
        <time>2014-06-26T10:08:54Z</time>
      </trkpt>
      <trkpt lat="44.81965" lon="5.47533">
        <ele>1350.4121</ele>
        <time>2014-06-26T10:08:58Z</time>
      </trkpt>
      <trkpt lat="44.81963" lon="5.47535">
        <ele>1350.4121</ele>
        <time>2014-06-26T10:09:04Z</time>
      </trkpt>
      <trkpt lat="44.81962" lon="5.47538">
        <ele>1350.4121</ele>
        <time>2014-06-26T10:09:09Z</time>
      </trkpt>
      <trkpt lat="44.81961" lon="5.47547">
        <ele>1353.186</ele>
        <time>2014-06-26T10:09:19Z</time>
      </trkpt>
      <trkpt lat="44.81965" lon="5.47551">
        <ele>1353.186</ele>
        <time>2014-06-26T10:09:24Z</time>
      </trkpt>
      <trkpt lat="44.8197" lon="5.47556">
        <ele>1355.822</ele>
        <time>2014-06-26T10:09:28Z</time>
      </trkpt>
      <trkpt lat="44.81973" lon="5.47558">
        <ele>1355.822</ele>
        <time>2014-06-26T10:09:34Z</time>
      </trkpt>
      <trkpt lat="44.81978" lon="5.47559">
        <ele>1355.822</ele>
        <time>2014-06-26T10:09:39Z</time>
      </trkpt>
      <trkpt lat="44.81983" lon="5.47563">
        <ele>1358.504</ele>
        <time>2014-06-26T10:09:44Z</time>
      </trkpt>
      <trkpt lat="44.81986" lon="5.47567">
        <ele>1358.504</ele>
        <time>2014-06-26T10:09:49Z</time>
      </trkpt>
      <trkpt lat="44.81985" lon="5.47573">
        <ele>1361.0713</ele>
        <time>2014-06-26T10:09:54Z</time>
      </trkpt>
      <trkpt lat="44.81985" lon="5.47578">
        <ele>1361.0713</ele>
        <time>2014-06-26T10:09:59Z</time>
      </trkpt>
      <trkpt lat="44.81988" lon="5.47582">
        <ele>1361.0713</ele>
        <time>2014-06-26T10:10:04Z</time>
      </trkpt>
      <trkpt lat="44.81988" lon="5.47588">
        <ele>1363.8358</ele>
        <time>2014-06-26T10:10:09Z</time>
      </trkpt>
      <trkpt lat="44.81989" lon="5.47593">
        <ele>1363.8358</ele>
        <time>2014-06-26T10:10:14Z</time>
      </trkpt>
      <trkpt lat="44.81992" lon="5.47596">
        <ele>1363.8358</ele>
        <time>2014-06-26T10:10:19Z</time>
      </trkpt>
      <trkpt lat="44.81994" lon="5.47599">
        <ele>1366.7695</ele>
        <time>2014-06-26T10:10:24Z</time>
      </trkpt>
      <trkpt lat="44.81995" lon="5.47601">
        <ele>1366.7695</ele>
        <time>2014-06-26T10:10:28Z</time>
      </trkpt>
      <trkpt lat="44.81999" lon="5.47604">
        <ele>1366.7695</ele>
        <time>2014-06-26T10:10:34Z</time>
      </trkpt>
      <trkpt lat="44.82005" lon="5.47606">
        <ele>1369.6871</ele>
        <time>2014-06-26T10:10:39Z</time>
      </trkpt>
      <trkpt lat="44.82004" lon="5.47611">
        <ele>1369.6871</ele>
        <time>2014-06-26T10:10:44Z</time>
      </trkpt>
      <trkpt lat="44.82008" lon="5.47613">
        <ele>1369.6871</ele>
        <time>2014-06-26T10:10:48Z</time>
      </trkpt>
      <trkpt lat="44.82009" lon="5.47616">
        <ele>1372.3594</ele>
        <time>2014-06-26T10:10:54Z</time>
      </trkpt>
      <trkpt lat="44.82012" lon="5.47619">
        <ele>1372.3594</ele>
        <time>2014-06-26T10:10:59Z</time>
      </trkpt>
      <trkpt lat="44.82016" lon="5.47623">
        <ele>1372.3594</ele>
        <time>2014-06-26T10:11:04Z</time>
      </trkpt>
      <trkpt lat="44.82017" lon="5.47628">
        <ele>1374.9924</ele>
        <time>2014-06-26T10:11:09Z</time>
      </trkpt>
      <trkpt lat="44.82014" lon="5.47633">
        <ele>1374.9924</ele>
        <time>2014-06-26T10:11:12Z</time>
      </trkpt>
      <trkpt lat="44.82018" lon="5.47636">
        <ele>1374.9924</ele>
        <time>2014-06-26T10:11:19Z</time>
      </trkpt>
      <trkpt lat="44.82023" lon="5.4764">
        <ele>1377.7198</ele>
        <time>2014-06-26T10:11:24Z</time>
      </trkpt>
      <trkpt lat="44.82028" lon="5.47643">
        <ele>1377.7198</ele>
        <time>2014-06-26T10:11:28Z</time>
      </trkpt>
      <trkpt lat="44.82036" lon="5.47644">
        <ele>1380.3479</ele>
        <time>2014-06-26T10:11:34Z</time>
      </trkpt>
      <trkpt lat="44.82044" lon="5.47647">
        <ele>1380.3479</ele>
        <time>2014-06-26T10:11:39Z</time>
      </trkpt>
      <trkpt lat="44.82047" lon="5.4765">
        <ele>1382.8561</ele>
        <time>2014-06-26T10:11:44Z</time>
      </trkpt>
      <trkpt lat="44.82045" lon="5.47654">
        <ele>1382.8561</ele>
        <time>2014-06-26T10:11:49Z</time>
      </trkpt>
      <trkpt lat="44.8205" lon="5.47655">
        <ele>1382.8561</ele>
        <time>2014-06-26T10:11:53Z</time>
      </trkpt>
      <trkpt lat="44.82051" lon="5.47658">
        <ele>1385.1677</ele>
        <time>2014-06-26T10:11:59Z</time>
      </trkpt>
      <trkpt lat="44.82051" lon="5.4766">
        <ele>1385.1677</ele>
        <time>2014-06-26T10:12:05Z</time>
      </trkpt>
      <trkpt lat="44.82055" lon="5.47665">
        <ele>1385.1677</ele>
        <time>2014-06-26T10:12:08Z</time>
      </trkpt>
      <trkpt lat="44.82056" lon="5.47667">
        <ele>1387.4001</ele>
        <time>2014-06-26T10:12:14Z</time>
      </trkpt>
      <trkpt lat="44.82057" lon="5.47668">
        <ele>1387.4001</ele>
        <time>2014-06-26T10:12:18Z</time>
      </trkpt>
      <trkpt lat="44.82057" lon="5.47668">
        <ele>1387.4001</ele>
        <time>2014-06-26T10:12:22Z</time>
      </trkpt>
      <trkpt lat="44.82051" lon="5.47673">
        <ele>1387.4001</ele>
        <time>2014-06-26T10:12:27Z</time>
      </trkpt>
      <trkpt lat="44.82049" lon="5.47673">
        <ele>1389.4456</ele>
        <time>2014-06-26T10:12:32Z</time>
      </trkpt>
      <trkpt lat="44.82051" lon="5.47673">
        <ele>1389.4456</ele>
        <time>2014-06-26T10:12:52Z</time>
      </trkpt>
      <trkpt lat="44.82053" lon="5.47676">
        <ele>1389.4456</ele>
        <time>2014-06-26T10:12:57Z</time>
      </trkpt>
      <trkpt lat="44.82054" lon="5.47677">
        <ele>1389.4456</ele>
        <time>2014-06-26T10:13:02Z</time>
      </trkpt>
      <trkpt lat="44.82054" lon="5.47677">
        <ele>1389.4456</ele>
        <time>2014-06-26T10:13:07Z</time>
      </trkpt>
      <trkpt lat="44.82061" lon="5.47673">
        <ele>1391.45</ele>
        <time>2014-06-26T10:13:23Z</time>
      </trkpt>
      <trkpt lat="44.8206" lon="5.47674">
        <ele>1391.45</ele>
        <time>2014-06-26T10:13:39Z</time>
      </trkpt>
      <trkpt lat="44.82056" lon="5.47673">
        <ele>1391.45</ele>
        <time>2014-06-26T10:13:44Z</time>
      </trkpt>
      <trkpt lat="44.82056" lon="5.47673">
        <ele>1391.45</ele>
        <time>2014-06-26T10:13:47Z</time>
      </trkpt>
      <trkpt lat="44.82055" lon="5.47673">
        <ele>1391.45</ele>
        <time>2014-06-26T10:13:54Z</time>
      </trkpt>
      <trkpt lat="44.82057" lon="5.47673">
        <ele>1391.45</ele>
        <time>2014-06-26T10:13:59Z</time>
      </trkpt>
      <trkpt lat="44.82052" lon="5.47677">
        <ele>1393.1161</ele>
        <time>2014-06-26T10:14:03Z</time>
      </trkpt>
      <trkpt lat="44.82053" lon="5.47677">
        <ele>1393.1161</ele>
        <time>2014-06-26T10:14:08Z</time>
      </trkpt>
      <trkpt lat="44.8205" lon="5.47678">
        <ele>1393.1161</ele>
        <time>2014-06-26T10:14:13Z</time>
      </trkpt>
      <trkpt lat="44.82053" lon="5.47677">
        <ele>1393.1161</ele>
        <time>2014-06-26T10:14:19Z</time>
      </trkpt>
      <trkpt lat="44.82056" lon="5.47678">
        <ele>1394.3715</ele>
        <time>2014-06-26T10:14:24Z</time>
      </trkpt>
      <trkpt lat="44.82061" lon="5.47677">
        <ele>1394.3715</ele>
        <time>2014-06-26T10:14:29Z</time>
      </trkpt>
      <trkpt lat="44.82062" lon="5.47677">
        <ele>1394.3715</ele>
        <time>2014-06-26T10:14:34Z</time>
      </trkpt>
      <trkpt lat="44.82066" lon="5.47674">
        <ele>1395.5245</ele>
        <time>2014-06-26T10:14:53Z</time>
      </trkpt>
      <trkpt lat="44.82065" lon="5.47672">
        <ele>1395.5245</ele>
        <time>2014-06-26T10:14:59Z</time>
      </trkpt>
      <trkpt lat="44.82064" lon="5.47673">
        <ele>1395.5245</ele>
        <time>2014-06-26T10:15:04Z</time>
      </trkpt>
      <trkpt lat="44.82073" lon="5.47669">
        <ele>1396.3856</ele>
        <time>2014-06-26T10:15:09Z</time>
      </trkpt>
      <trkpt lat="44.82086" lon="5.47664">
        <ele>1396.9674</ele>
        <time>2014-06-26T10:15:14Z</time>
      </trkpt>
      <trkpt lat="44.82085" lon="5.47665">
        <ele>1396.9674</ele>
        <time>2014-06-26T10:15:18Z</time>
      </trkpt>
      <trkpt lat="44.82072" lon="5.47671">
        <ele>1397.3398</ele>
        <time>2014-06-26T10:15:24Z</time>
      </trkpt>
      <trkpt lat="44.82062" lon="5.47676">
        <ele>1397.5105</ele>
        <time>2014-06-26T10:15:29Z</time>
      </trkpt>
      <trkpt lat="44.82058" lon="5.47679">
        <ele>1397.5105</ele>
        <time>2014-06-26T10:15:33Z</time>
      </trkpt>
      <trkpt lat="44.82065" lon="5.47677">
        <ele>1397.5012</ele>
        <time>2014-06-26T10:15:39Z</time>
      </trkpt>
      <trkpt lat="44.82067" lon="5.47676">
        <ele>1397.5012</ele>
        <time>2014-06-26T10:15:44Z</time>
      </trkpt>
      <trkpt lat="44.82072" lon="5.47677">
        <ele>1397.5012</ele>
        <time>2014-06-26T10:15:49Z</time>
      </trkpt>
      <trkpt lat="44.82068" lon="5.47678">
        <ele>1397.333</ele>
        <time>2014-06-26T10:15:54Z</time>
      </trkpt>
      <trkpt lat="44.82066" lon="5.4768">
        <ele>1397.333</ele>
        <time>2014-06-26T10:15:59Z</time>
      </trkpt>
      <trkpt lat="44.82067" lon="5.4768">
        <ele>1397.333</ele>
        <time>2014-06-26T10:16:03Z</time>
      </trkpt>
      <trkpt lat="44.82066" lon="5.47675">
        <ele>1397.333</ele>
        <time>2014-06-26T10:16:09Z</time>
      </trkpt>
      <trkpt lat="44.82069" lon="5.47673">
        <ele>1397.126</ele>
        <time>2014-06-26T10:16:14Z</time>
      </trkpt>
      <trkpt lat="44.82061" lon="5.47674">
        <ele>1397.126</ele>
        <time>2014-06-26T10:16:24Z</time>
      </trkpt>
      <trkpt lat="44.8206" lon="5.47674">
        <ele>1396.9486</ele>
        <time>2014-06-26T10:16:29Z</time>
      </trkpt>
      <trkpt lat="44.82068" lon="5.47671">
        <ele>1396.9486</ele>
        <time>2014-06-26T10:16:34Z</time>
      </trkpt>
      <trkpt lat="44.82068" lon="5.4767">
        <ele>1396.7487</ele>
        <time>2014-06-26T10:16:40Z</time>
      </trkpt>
      <trkpt lat="44.82067" lon="5.47669">
        <ele>1396.7487</ele>
        <time>2014-06-26T10:16:43Z</time>
      </trkpt>
      <trkpt lat="44.82057" lon="5.47672">
        <ele>1396.4918</ele>
        <time>2014-06-26T10:16:49Z</time>
      </trkpt>
      <trkpt lat="44.82049" lon="5.47676">
        <ele>1396.4918</ele>
        <time>2014-06-26T10:16:53Z</time>
      </trkpt>
      <trkpt lat="44.82053" lon="5.47674">
        <ele>1396.3771</ele>
        <time>2014-06-26T10:16:59Z</time>
      </trkpt>
      <trkpt lat="44.8206" lon="5.47672">
        <ele>1396.3771</ele>
        <time>2014-06-26T10:17:03Z</time>
      </trkpt>
      <trkpt lat="44.82062" lon="5.47671">
        <ele>1396.3146</ele>
        <time>2014-06-26T10:17:08Z</time>
      </trkpt>
      <trkpt lat="44.82065" lon="5.47673">
        <ele>1396.3146</ele>
        <time>2014-06-26T10:17:24Z</time>
      </trkpt>
      <trkpt lat="44.82068" lon="5.47672">
        <ele>1396.3146</ele>
        <time>2014-06-26T10:17:29Z</time>
      </trkpt>
      <trkpt lat="44.82069" lon="5.47668">
        <ele>1396.3146</ele>
        <time>2014-06-26T10:17:33Z</time>
      </trkpt>
      <trkpt lat="44.82068" lon="5.47668">
        <ele>1396.4508</ele>
        <time>2014-06-26T10:17:39Z</time>
      </trkpt>
      <trkpt lat="44.8206" lon="5.47672">
        <ele>1396.4508</ele>
        <time>2014-06-26T10:17:59Z</time>
      </trkpt>
      <trkpt lat="44.82059" lon="5.47672">
        <ele>1396.0566</ele>
        <time>2014-06-26T10:18:04Z</time>
      </trkpt>
      <trkpt lat="44.82061" lon="5.4767">
        <ele>1396.0566</ele>
        <time>2014-06-26T10:18:09Z</time>
      </trkpt>
      <trkpt lat="44.82054" lon="5.4767">
        <ele>1395.6823</ele>
        <time>2014-06-26T10:18:23Z</time>
      </trkpt>
      <trkpt lat="44.82055" lon="5.47676">
        <ele>1395.6823</ele>
        <time>2014-06-26T10:18:39Z</time>
      </trkpt>
      <trkpt lat="44.82054" lon="5.47678">
        <ele>1395.6823</ele>
        <time>2014-06-26T10:18:44Z</time>
      </trkpt>
      <trkpt lat="44.82048" lon="5.47676">
        <ele>1395.3043</ele>
        <time>2014-06-26T10:18:49Z</time>
      </trkpt>
      <trkpt lat="44.82047" lon="5.47675">
        <ele>1395.3043</ele>
        <time>2014-06-26T10:18:54Z</time>
      </trkpt>
      <trkpt lat="44.82044" lon="5.47671">
        <ele>1395.3043</ele>
        <time>2014-06-26T10:18:59Z</time>
      </trkpt>
      <trkpt lat="44.82044" lon="5.47671">
        <ele>1395.3043</ele>
        <time>2014-06-26T10:19:03Z</time>
      </trkpt>
      <trkpt lat="44.82043" lon="5.47675">
        <ele>1395.3043</ele>
        <time>2014-06-26T10:19:13Z</time>
      </trkpt>
      <trkpt lat="44.82038" lon="5.47676">
        <ele>1394.872</ele>
        <time>2014-06-26T10:19:19Z</time>
      </trkpt>
      <trkpt lat="44.82038" lon="5.47675">
        <ele>1394.872</ele>
        <time>2014-06-26T10:19:24Z</time>
      </trkpt>
      <trkpt lat="44.82033" lon="5.47679">
        <ele>1394.872</ele>
        <time>2014-06-26T10:19:34Z</time>
      </trkpt>
      <trkpt lat="44.82034" lon="5.47681">
        <ele>1394.482</ele>
        <time>2014-06-26T10:19:38Z</time>
      </trkpt>
      <trkpt lat="44.82047" lon="5.47678">
        <ele>1393.9935</ele>
        <time>2014-06-26T10:19:44Z</time>
      </trkpt>
      <trkpt lat="44.82059" lon="5.47674">
        <ele>1393.4922</ele>
        <time>2014-06-26T10:19:50Z</time>
      </trkpt>
      <trkpt lat="44.82068" lon="5.47672">
        <ele>1393.0135</ele>
        <time>2014-06-26T10:19:53Z</time>
      </trkpt>
      <trkpt lat="44.82059" lon="5.47675">
        <ele>1392.533</ele>
        <time>2014-06-26T10:19:59Z</time>
      </trkpt>
      <trkpt lat="44.82058" lon="5.47674">
        <ele>1392.533</ele>
        <time>2014-06-26T10:20:02Z</time>
      </trkpt>
      <trkpt lat="44.82056" lon="5.47677">
        <ele>1392.533</ele>
        <time>2014-06-26T10:20:09Z</time>
      </trkpt>
      <trkpt lat="44.82056" lon="5.47678">
        <ele>1392.533</ele>
        <time>2014-06-26T10:20:14Z</time>
      </trkpt>
      <trkpt lat="44.82059" lon="5.47681">
        <ele>1392.533</ele>
        <time>2014-06-26T10:20:19Z</time>
      </trkpt>
      <trkpt lat="44.82062" lon="5.47686">
        <ele>1392.157</ele>
        <time>2014-06-26T10:20:24Z</time>
      </trkpt>
      <trkpt lat="44.82063" lon="5.4769">
        <ele>1392.157</ele>
        <time>2014-06-26T10:20:29Z</time>
      </trkpt>
      <trkpt lat="44.82063" lon="5.47692">
        <ele>1392.157</ele>
        <time>2014-06-26T10:20:33Z</time>
      </trkpt>
      <trkpt lat="44.82067" lon="5.47696">
        <ele>1392.0703</ele>
        <time>2014-06-26T10:20:38Z</time>
      </trkpt>
      <trkpt lat="44.82068" lon="5.47701">
        <ele>1392.0703</ele>
        <time>2014-06-26T10:20:44Z</time>
      </trkpt>
      <trkpt lat="44.82066" lon="5.47704">
        <ele>1392.0703</ele>
        <time>2014-06-26T10:20:48Z</time>
      </trkpt>
      <trkpt lat="44.82067" lon="5.47708">
        <ele>1392.1116</ele>
        <time>2014-06-26T10:20:54Z</time>
      </trkpt>
      <trkpt lat="44.82068" lon="5.47712">
        <ele>1392.1116</ele>
        <time>2014-06-26T10:20:58Z</time>
      </trkpt>
      <trkpt lat="44.82069" lon="5.47717">
        <ele>1392.1116</ele>
        <time>2014-06-26T10:21:04Z</time>
      </trkpt>
      <trkpt lat="44.8207" lon="5.47723">
        <ele>1392.2748</ele>
        <time>2014-06-26T10:21:09Z</time>
      </trkpt>
      <trkpt lat="44.82069" lon="5.47729">
        <ele>1392.2748</ele>
        <time>2014-06-26T10:21:14Z</time>
      </trkpt>
      <trkpt lat="44.82069" lon="5.47732">
        <ele>1392.2748</ele>
        <time>2014-06-26T10:21:19Z</time>
      </trkpt>
      <trkpt lat="44.8207" lon="5.47737">
        <ele>1392.352</ele>
        <time>2014-06-26T10:21:23Z</time>
      </trkpt>
      <trkpt lat="44.82073" lon="5.47741">
        <ele>1392.352</ele>
        <time>2014-06-26T10:21:29Z</time>
      </trkpt>
      <trkpt lat="44.82072" lon="5.47746">
        <ele>1392.352</ele>
        <time>2014-06-26T10:21:34Z</time>
      </trkpt>
      <trkpt lat="44.82072" lon="5.47751">
        <ele>1392.4823</ele>
        <time>2014-06-26T10:21:38Z</time>
      </trkpt>
      <trkpt lat="44.8207" lon="5.47756">
        <ele>1392.4823</ele>
        <time>2014-06-26T10:21:44Z</time>
      </trkpt>
      <trkpt lat="44.82068" lon="5.47761">
        <ele>1392.4823</ele>
        <time>2014-06-26T10:21:49Z</time>
      </trkpt>
      <trkpt lat="44.8207" lon="5.47765">
        <ele>1392.8514</ele>
        <time>2014-06-26T10:21:54Z</time>
      </trkpt>
      <trkpt lat="44.82069" lon="5.47769">
        <ele>1392.8514</ele>
        <time>2014-06-26T10:21:59Z</time>
      </trkpt>
      <trkpt lat="44.82071" lon="5.47772">
        <ele>1392.8514</ele>
        <time>2014-06-26T10:22:04Z</time>
      </trkpt>
      <trkpt lat="44.82069" lon="5.47774">
        <ele>1393.3142</ele>
        <time>2014-06-26T10:22:09Z</time>
      </trkpt>
      <trkpt lat="44.82072" lon="5.47776">
        <ele>1393.3142</ele>
        <time>2014-06-26T10:22:14Z</time>
      </trkpt>
      <trkpt lat="44.82073" lon="5.4778">
        <ele>1393.3142</ele>
        <time>2014-06-26T10:22:19Z</time>
      </trkpt>
      <trkpt lat="44.82079" lon="5.47782">
        <ele>1393.7782</ele>
        <time>2014-06-26T10:22:24Z</time>
      </trkpt>
      <trkpt lat="44.82081" lon="5.47784">
        <ele>1393.7782</ele>
        <time>2014-06-26T10:22:29Z</time>
      </trkpt>
      <trkpt lat="44.82083" lon="5.47789">
        <ele>1393.7782</ele>
        <time>2014-06-26T10:22:33Z</time>
      </trkpt>
      <trkpt lat="44.82085" lon="5.47793">
        <ele>1394.5039</ele>
        <time>2014-06-26T10:22:38Z</time>
      </trkpt>
      <trkpt lat="44.82087" lon="5.47796">
        <ele>1394.5039</ele>
        <time>2014-06-26T10:22:44Z</time>
      </trkpt>
      <trkpt lat="44.82089" lon="5.47799">
        <ele>1394.5039</ele>
        <time>2014-06-26T10:22:48Z</time>
      </trkpt>
      <trkpt lat="44.82087" lon="5.47805">
        <ele>1395.4004</ele>
        <time>2014-06-26T10:22:54Z</time>
      </trkpt>
      <trkpt lat="44.82088" lon="5.47808">
        <ele>1395.4004</ele>
        <time>2014-06-26T10:22:57Z</time>
      </trkpt>
      <trkpt lat="44.8209" lon="5.47812">
        <ele>1395.4004</ele>
        <time>2014-06-26T10:23:03Z</time>
      </trkpt>
      <trkpt lat="44.8209" lon="5.47813">
        <ele>1395.4004</ele>
        <time>2014-06-26T10:23:09Z</time>
      </trkpt>
      <trkpt lat="44.8209" lon="5.47815">
        <ele>1395.4004</ele>
        <time>2014-06-26T10:23:13Z</time>
      </trkpt>
      <trkpt lat="44.82086" lon="5.47823">
        <ele>1396.8579</ele>
        <time>2014-06-26T10:23:48Z</time>
      </trkpt>
      <trkpt lat="44.82086" lon="5.47824">
        <ele>1396.8579</ele>
        <time>2014-06-26T10:23:54Z</time>
      </trkpt>
      <trkpt lat="44.82089" lon="5.47828">
        <ele>1396.8579</ele>
        <time>2014-06-26T10:24:03Z</time>
      </trkpt>
      <trkpt lat="44.82089" lon="5.4783">
        <ele>1396.8579</ele>
        <time>2014-06-26T10:24:09Z</time>
      </trkpt>
      <trkpt lat="44.82088" lon="5.47838">
        <ele>1398.3</ele>
        <time>2014-06-26T10:24:23Z</time>
      </trkpt>
      <trkpt lat="44.8209" lon="5.4784">
        <ele>1398.3</ele>
        <time>2014-06-26T10:24:28Z</time>
      </trkpt>
      <trkpt lat="44.82091" lon="5.47842">
        <ele>1398.3</ele>
        <time>2014-06-26T10:24:34Z</time>
      </trkpt>
      <trkpt lat="44.8209" lon="5.47843">
        <ele>1398.3</ele>
        <time>2014-06-26T10:24:39Z</time>
      </trkpt>
      <trkpt lat="44.82093" lon="5.47848">
        <ele>1399.74</ele>
        <time>2014-06-26T10:24:44Z</time>
      </trkpt>
      <trkpt lat="44.82095" lon="5.47851">
        <ele>1399.74</ele>
        <time>2014-06-26T10:24:49Z</time>
      </trkpt>
      <trkpt lat="44.82096" lon="5.47856">
        <ele>1399.74</ele>
        <time>2014-06-26T10:24:54Z</time>
      </trkpt>
      <trkpt lat="44.82099" lon="5.47861">
        <ele>1401.2046</ele>
        <time>2014-06-26T10:24:58Z</time>
      </trkpt>
      <trkpt lat="44.82099" lon="5.47866">
        <ele>1401.2046</ele>
        <time>2014-06-26T10:25:03Z</time>
      </trkpt>
      <trkpt lat="44.82098" lon="5.47867">
        <ele>1401.2046</ele>
        <time>2014-06-26T10:25:07Z</time>
      </trkpt>
      <trkpt lat="44.82097" lon="5.47875">
        <ele>1402.776</ele>
        <time>2014-06-26T10:25:19Z</time>
      </trkpt>
      <trkpt lat="44.82097" lon="5.47876">
        <ele>1402.776</ele>
        <time>2014-06-26T10:25:24Z</time>
      </trkpt>
      <trkpt lat="44.82098" lon="5.4788">
        <ele>1402.776</ele>
        <time>2014-06-26T10:25:29Z</time>
      </trkpt>
      <trkpt lat="44.821" lon="5.47884">
        <ele>1402.776</ele>
        <time>2014-06-26T10:25:34Z</time>
      </trkpt>
      <trkpt lat="44.82101" lon="5.47888">
        <ele>1404.3712</ele>
        <time>2014-06-26T10:25:39Z</time>
      </trkpt>
      <trkpt lat="44.82104" lon="5.47892">
        <ele>1404.3712</ele>
        <time>2014-06-26T10:25:44Z</time>
      </trkpt>
      <trkpt lat="44.82105" lon="5.47896">
        <ele>1404.3712</ele>
        <time>2014-06-26T10:25:49Z</time>
      </trkpt>
      <trkpt lat="44.82105" lon="5.47899">
        <ele>1405.9858</ele>
        <time>2014-06-26T10:25:53Z</time>
      </trkpt>
      <trkpt lat="44.82104" lon="5.47901">
        <ele>1405.9858</ele>
        <time>2014-06-26T10:25:59Z</time>
      </trkpt>
      <trkpt lat="44.82099" lon="5.47902">
        <ele>1405.9858</ele>
        <time>2014-06-26T10:26:03Z</time>
      </trkpt>
      <trkpt lat="44.82097" lon="5.47902">
        <ele>1405.9858</ele>
        <time>2014-06-26T10:26:09Z</time>
      </trkpt>
      <trkpt lat="44.82101" lon="5.47911">
        <ele>1407.716</ele>
        <time>2014-06-26T10:26:24Z</time>
      </trkpt>
      <trkpt lat="44.82102" lon="5.47913">
        <ele>1407.716</ele>
        <time>2014-06-26T10:26:29Z</time>
      </trkpt>
      <trkpt lat="44.82105" lon="5.47926">
        <ele>1409.4634</ele>
        <time>2014-06-26T10:26:54Z</time>
      </trkpt>
      <trkpt lat="44.82106" lon="5.47927">
        <ele>1409.4634</ele>
        <time>2014-06-26T10:26:57Z</time>
      </trkpt>
      <trkpt lat="44.82109" lon="5.47934">
        <ele>1409.4634</ele>
        <time>2014-06-26T10:27:04Z</time>
      </trkpt>
      <trkpt lat="44.82111" lon="5.47939">
        <ele>1411.1656</ele>
        <time>2014-06-26T10:27:09Z</time>
      </trkpt>
      <trkpt lat="44.82116" lon="5.47944">
        <ele>1411.1656</ele>
        <time>2014-06-26T10:27:13Z</time>
      </trkpt>
      <trkpt lat="44.82117" lon="5.47948">
        <ele>1411.1656</ele>
        <time>2014-06-26T10:27:19Z</time>
      </trkpt>
      <trkpt lat="44.82116" lon="5.47949">
        <ele>1412.7649</ele>
        <time>2014-06-26T10:27:23Z</time>
      </trkpt>
      <trkpt lat="44.82114" lon="5.4795">
        <ele>1412.7649</ele>
        <time>2014-06-26T10:27:28Z</time>
      </trkpt>
      <trkpt lat="44.82113" lon="5.47951">
        <ele>1412.7649</ele>
        <time>2014-06-26T10:27:34Z</time>
      </trkpt>
      <trkpt lat="44.82118" lon="5.47962">
        <ele>1414.4674</ele>
        <time>2014-06-26T10:27:59Z</time>
      </trkpt>
      <trkpt lat="44.82116" lon="5.4797">
        <ele>1414.4674</ele>
        <time>2014-06-26T10:28:09Z</time>
      </trkpt>
      <trkpt lat="44.82116" lon="5.47972">
        <ele>1414.4674</ele>
        <time>2014-06-26T10:28:14Z</time>
      </trkpt>
      <trkpt lat="44.82114" lon="5.4798">
        <ele>1416.1471</ele>
        <time>2014-06-26T10:28:24Z</time>
      </trkpt>
      <trkpt lat="44.82117" lon="5.47987">
        <ele>1416.1471</ele>
        <time>2014-06-26T10:28:29Z</time>
      </trkpt>
      <trkpt lat="44.82118" lon="5.47986">
        <ele>1416.1471</ele>
        <time>2014-06-26T10:28:34Z</time>
      </trkpt>
      <trkpt lat="44.8212" lon="5.47987">
        <ele>1417.8309</ele>
        <time>2014-06-26T10:28:38Z</time>
      </trkpt>
      <trkpt lat="44.82122" lon="5.47988">
        <ele>1417.8309</ele>
        <time>2014-06-26T10:28:43Z</time>
      </trkpt>
      <trkpt lat="44.82122" lon="5.47988">
        <ele>1417.8309</ele>
        <time>2014-06-26T10:28:48Z</time>
      </trkpt>
      <trkpt lat="44.82122" lon="5.47991">
        <ele>1417.8309</ele>
        <time>2014-06-26T10:28:54Z</time>
      </trkpt>
      <trkpt lat="44.82127" lon="5.47997">
        <ele>1419.6309</ele>
        <time>2014-06-26T10:28:59Z</time>
      </trkpt>
      <trkpt lat="44.82129" lon="5.48">
        <ele>1419.6309</ele>
        <time>2014-06-26T10:29:03Z</time>
      </trkpt>
      <trkpt lat="44.82131" lon="5.48006">
        <ele>1419.6309</ele>
        <time>2014-06-26T10:29:09Z</time>
      </trkpt>
      <trkpt lat="44.8213" lon="5.48005">
        <ele>1421.5345</ele>
        <time>2014-06-26T10:29:14Z</time>
      </trkpt>
      <trkpt lat="44.82131" lon="5.48005">
        <ele>1421.5345</ele>
        <time>2014-06-26T10:29:19Z</time>
      </trkpt>
      <trkpt lat="44.82133" lon="5.48016">
        <ele>1423.574</ele>
        <time>2014-06-26T10:29:39Z</time>
      </trkpt>
      <trkpt lat="44.82132" lon="5.48018">
        <ele>1423.574</ele>
        <time>2014-06-26T10:29:44Z</time>
      </trkpt>
      <trkpt lat="44.82132" lon="5.48023">
        <ele>1423.574</ele>
        <time>2014-06-26T10:29:48Z</time>
      </trkpt>
      <trkpt lat="44.82132" lon="5.48027">
        <ele>1423.574</ele>
        <time>2014-06-26T10:29:53Z</time>
      </trkpt>
      <trkpt lat="44.82133" lon="5.48031">
        <ele>1425.7494</ele>
        <time>2014-06-26T10:29:59Z</time>
      </trkpt>
      <trkpt lat="44.82132" lon="5.48034">
        <ele>1425.7494</ele>
        <time>2014-06-26T10:30:03Z</time>
      </trkpt>
      <trkpt lat="44.82136" lon="5.48041">
        <ele>1425.7494</ele>
        <time>2014-06-26T10:30:09Z</time>
      </trkpt>
      <trkpt lat="44.82135" lon="5.48044">
        <ele>1427.9309</ele>
        <time>2014-06-26T10:30:14Z</time>
      </trkpt>
      <trkpt lat="44.82135" lon="5.48045">
        <ele>1427.9309</ele>
        <time>2014-06-26T10:30:19Z</time>
      </trkpt>
      <trkpt lat="44.82133" lon="5.48052">
        <ele>1427.9309</ele>
        <time>2014-06-26T10:30:29Z</time>
      </trkpt>
      <trkpt lat="44.82131" lon="5.48054">
        <ele>1427.9309</ele>
        <time>2014-06-26T10:30:34Z</time>
      </trkpt>
      <trkpt lat="44.82132" lon="5.48056">
        <ele>1430.186</ele>
        <time>2014-06-26T10:30:39Z</time>
      </trkpt>
      <trkpt lat="44.82134" lon="5.48061">
        <ele>1430.186</ele>
        <time>2014-06-26T10:30:44Z</time>
      </trkpt>
      <trkpt lat="44.82128" lon="5.4807">
        <ele>1432.7495</ele>
        <time>2014-06-26T10:31:19Z</time>
      </trkpt>
      <trkpt lat="44.82127" lon="5.48071">
        <ele>1432.7495</ele>
        <time>2014-06-26T10:31:24Z</time>
      </trkpt>
      <trkpt lat="44.82119" lon="5.48075">
        <ele>1435.1613</ele>
        <time>2014-06-26T10:31:34Z</time>
      </trkpt>
      <trkpt lat="44.82114" lon="5.48077">
        <ele>1435.1613</ele>
        <time>2014-06-26T10:31:39Z</time>
      </trkpt>
      <trkpt lat="44.8211" lon="5.48078">
        <ele>1437.3844</ele>
        <time>2014-06-26T10:31:44Z</time>
      </trkpt>
      <trkpt lat="44.82108" lon="5.48077">
        <ele>1437.3844</ele>
        <time>2014-06-26T10:31:49Z</time>
      </trkpt>
      <trkpt lat="44.82108" lon="5.48077">
        <ele>1437.3844</ele>
        <time>2014-06-26T10:31:54Z</time>
      </trkpt>
      <trkpt lat="44.82102" lon="5.48075">
        <ele>1439.5293</ele>
        <time>2014-06-26T10:32:09Z</time>
      </trkpt>
      <trkpt lat="44.82099" lon="5.48073">
        <ele>1439.5293</ele>
        <time>2014-06-26T10:32:14Z</time>
      </trkpt>
      <trkpt lat="44.82095" lon="5.48073">
        <ele>1439.5293</ele>
        <time>2014-06-26T10:32:19Z</time>
      </trkpt>
      <trkpt lat="44.8209" lon="5.48075">
        <ele>1441.5549</ele>
        <time>2014-06-26T10:32:24Z</time>
      </trkpt>
      <trkpt lat="44.8209" lon="5.48075">
        <ele>1441.5549</ele>
        <time>2014-06-26T10:32:29Z</time>
      </trkpt>
      <trkpt lat="44.82094" lon="5.48079">
        <ele>1441.5549</ele>
        <time>2014-06-26T10:32:39Z</time>
      </trkpt>
      <trkpt lat="44.82094" lon="5.48084">
        <ele>1441.5549</ele>
        <time>2014-06-26T10:32:44Z</time>
      </trkpt>
      <trkpt lat="44.82093" lon="5.48087">
        <ele>1443.5817</ele>
        <time>2014-06-26T10:32:49Z</time>
      </trkpt>
      <trkpt lat="44.82094" lon="5.48091">
        <ele>1443.5817</ele>
        <time>2014-06-26T10:32:53Z</time>
      </trkpt>
      <trkpt lat="44.82092" lon="5.48093">
        <ele>1443.5817</ele>
        <time>2014-06-26T10:32:59Z</time>
      </trkpt>
      <trkpt lat="44.82091" lon="5.48093">
        <ele>1443.5817</ele>
        <time>2014-06-26T10:33:04Z</time>
      </trkpt>
      <trkpt lat="44.82083" lon="5.48096">
        <ele>1445.7793</ele>
        <time>2014-06-26T10:33:14Z</time>
      </trkpt>
      <trkpt lat="44.8208" lon="5.48096">
        <ele>1445.7793</ele>
        <time>2014-06-26T10:33:19Z</time>
      </trkpt>
      <trkpt lat="44.8208" lon="5.48097">
        <ele>1445.7793</ele>
        <time>2014-06-26T10:33:24Z</time>
      </trkpt>
      <trkpt lat="44.82089" lon="5.48101">
        <ele>1447.9297</ele>
        <time>2014-06-26T10:33:48Z</time>
      </trkpt>
      <trkpt lat="44.82092" lon="5.48104">
        <ele>1447.9297</ele>
        <time>2014-06-26T10:33:54Z</time>
      </trkpt>
      <trkpt lat="44.82094" lon="5.48109">
        <ele>1447.9297</ele>
        <time>2014-06-26T10:33:59Z</time>
      </trkpt>
      <trkpt lat="44.82097" lon="5.48115">
        <ele>1449.8746</ele>
        <time>2014-06-26T10:34:04Z</time>
      </trkpt>
      <trkpt lat="44.82099" lon="5.48121">
        <ele>1449.8746</ele>
        <time>2014-06-26T10:34:08Z</time>
      </trkpt>
      <trkpt lat="44.82101" lon="5.48124">
        <ele>1449.8746</ele>
        <time>2014-06-26T10:34:14Z</time>
      </trkpt>
      <trkpt lat="44.82098" lon="5.48123">
        <ele>1451.6263</ele>
        <time>2014-06-26T10:34:19Z</time>
      </trkpt>
      <trkpt lat="44.82097" lon="5.48122">
        <ele>1451.6263</ele>
        <time>2014-06-26T10:34:24Z</time>
      </trkpt>
      <trkpt lat="44.82088" lon="5.48121">
        <ele>1453.1681</ele>
        <time>2014-06-26T10:34:29Z</time>
      </trkpt>
      <trkpt lat="44.82085" lon="5.48121">
        <ele>1453.1681</ele>
        <time>2014-06-26T10:34:34Z</time>
      </trkpt>
      <trkpt lat="44.82084" lon="5.48121">
        <ele>1453.1681</ele>
        <time>2014-06-26T10:34:39Z</time>
      </trkpt>
      <trkpt lat="44.82088" lon="5.48135">
        <ele>1454.5574</ele>
        <time>2014-06-26T10:34:49Z</time>
      </trkpt>
      <trkpt lat="44.82091" lon="5.48139">
        <ele>1454.5574</ele>
        <time>2014-06-26T10:34:54Z</time>
      </trkpt>
      <trkpt lat="44.82096" lon="5.48145">
        <ele>1455.7612</ele>
        <time>2014-06-26T10:34:59Z</time>
      </trkpt>
      <trkpt lat="44.821" lon="5.48146">
        <ele>1455.7612</ele>
        <time>2014-06-26T10:35:04Z</time>
      </trkpt>
      <trkpt lat="44.821" lon="5.4815">
        <ele>1455.7612</ele>
        <time>2014-06-26T10:35:09Z</time>
      </trkpt>
      <trkpt lat="44.82104" lon="5.48154">
        <ele>1456.822</ele>
        <time>2014-06-26T10:35:14Z</time>
      </trkpt>
      <trkpt lat="44.82106" lon="5.48159">
        <ele>1456.822</ele>
        <time>2014-06-26T10:35:19Z</time>
      </trkpt>
      <trkpt lat="44.82107" lon="5.48162">
        <ele>1456.822</ele>
        <time>2014-06-26T10:35:24Z</time>
      </trkpt>
      <trkpt lat="44.82104" lon="5.48166">
        <ele>1457.7361</ele>
        <time>2014-06-26T10:35:29Z</time>
      </trkpt>
      <trkpt lat="44.82099" lon="5.48173">
        <ele>1457.7361</ele>
        <time>2014-06-26T10:35:33Z</time>
      </trkpt>
      <trkpt lat="44.82097" lon="5.48179">
        <ele>1458.5005</ele>
        <time>2014-06-26T10:35:39Z</time>
      </trkpt>
      <trkpt lat="44.82095" lon="5.48184">
        <ele>1458.5005</ele>
        <time>2014-06-26T10:35:44Z</time>
      </trkpt>
      <trkpt lat="44.8209" lon="5.48188">
        <ele>1459.099</ele>
        <time>2014-06-26T10:35:47Z</time>
      </trkpt>
      <trkpt lat="44.82087" lon="5.48193">
        <ele>1459.099</ele>
        <time>2014-06-26T10:35:54Z</time>
      </trkpt>
      <trkpt lat="44.82086" lon="5.48195">
        <ele>1459.099</ele>
        <time>2014-06-26T10:35:59Z</time>
      </trkpt>
      <trkpt lat="44.82089" lon="5.48196">
        <ele>1459.5598</ele>
        <time>2014-06-26T10:36:04Z</time>
      </trkpt>
      <trkpt lat="44.82076" lon="5.48201">
        <ele>1459.881</ele>
        <time>2014-06-26T10:36:08Z</time>
      </trkpt>
      <trkpt lat="44.82064" lon="5.48204">
        <ele>1460.0754</ele>
        <time>2014-06-26T10:36:14Z</time>
      </trkpt>
      <trkpt lat="44.82057" lon="5.48206">
        <ele>1460.0754</ele>
        <time>2014-06-26T10:36:19Z</time>
      </trkpt>
      <trkpt lat="44.82053" lon="5.48205">
        <ele>1460.1558</ele>
        <time>2014-06-26T10:36:24Z</time>
      </trkpt>
      <trkpt lat="44.82044" lon="5.48203">
        <ele>1460.1337</ele>
        <time>2014-06-26T10:36:34Z</time>
      </trkpt>
      <trkpt lat="44.82044" lon="5.48204">
        <ele>1460.1337</ele>
        <time>2014-06-26T10:36:39Z</time>
      </trkpt>
      <trkpt lat="44.82046" lon="5.48192">
        <ele>1460.0205</ele>
        <time>2014-06-26T10:36:54Z</time>
      </trkpt>
      <trkpt lat="44.82052" lon="5.48217">
        <ele>1459.8269</ele>
        <time>2014-06-26T10:36:59Z</time>
      </trkpt>
      <trkpt lat="44.82053" lon="5.48221">
        <ele>1459.8269</ele>
        <time>2014-06-26T10:37:03Z</time>
      </trkpt>
      <trkpt lat="44.82052" lon="5.48221">
        <ele>1459.8269</ele>
        <time>2014-06-26T10:37:09Z</time>
      </trkpt>
      <trkpt lat="44.82053" lon="5.48201">
        <ele>1459.5774</ele>
        <time>2014-06-26T10:37:33Z</time>
      </trkpt>
      <trkpt lat="44.82055" lon="5.48185">
        <ele>1459.2661</ele>
        <time>2014-06-26T10:37:39Z</time>
      </trkpt>
      <trkpt lat="44.82057" lon="5.48177">
        <ele>1459.2661</ele>
        <time>2014-06-26T10:37:43Z</time>
      </trkpt>
      <trkpt lat="44.8207" lon="5.48171">
        <ele>1458.9164</ele>
        <time>2014-06-26T10:37:49Z</time>
      </trkpt>
      <trkpt lat="44.82081" lon="5.48166">
        <ele>1458.5214</ele>
        <time>2014-06-26T10:37:54Z</time>
      </trkpt>
      <trkpt lat="44.82092" lon="5.4816">
        <ele>1458.132</ele>
        <time>2014-06-26T10:37:59Z</time>
      </trkpt>
      <trkpt lat="44.82097" lon="5.48158">
        <ele>1458.132</ele>
        <time>2014-06-26T10:38:03Z</time>
      </trkpt>
      <trkpt lat="44.82099" lon="5.48144">
        <ele>1457.7814</ele>
        <time>2014-06-26T10:38:09Z</time>
      </trkpt>
      <trkpt lat="44.82099" lon="5.48139">
        <ele>1457.7814</ele>
        <time>2014-06-26T10:38:14Z</time>
      </trkpt>
      <trkpt lat="44.82101" lon="5.48142">
        <ele>1457.7814</ele>
        <time>2014-06-26T10:38:19Z</time>
      </trkpt>
      <trkpt lat="44.82105" lon="5.48141">
        <ele>1457.4998</ele>
        <time>2014-06-26T10:38:23Z</time>
      </trkpt>
      <trkpt lat="44.82111" lon="5.48141">
        <ele>1457.4998</ele>
        <time>2014-06-26T10:38:29Z</time>
      </trkpt>
      <trkpt lat="44.82112" lon="5.48136">
        <ele>1457.4998</ele>
        <time>2014-06-26T10:38:33Z</time>
      </trkpt>
      <trkpt lat="44.82112" lon="5.48131">
        <ele>1457.4303</ele>
        <time>2014-06-26T10:38:38Z</time>
      </trkpt>
      <trkpt lat="44.82116" lon="5.48122">
        <ele>1457.4303</ele>
        <time>2014-06-26T10:38:43Z</time>
      </trkpt>
      <trkpt lat="44.82126" lon="5.48109">
        <ele>1457.8923</ele>
        <time>2014-06-26T10:38:48Z</time>
      </trkpt>
      <trkpt lat="44.82132" lon="5.48106">
        <ele>1457.8923</ele>
        <time>2014-06-26T10:38:53Z</time>
      </trkpt>
      <trkpt lat="44.82136" lon="5.48107">
        <ele>1458.7621</ele>
        <time>2014-06-26T10:38:59Z</time>
      </trkpt>
      <trkpt lat="44.82141" lon="5.48105">
        <ele>1458.7621</ele>
        <time>2014-06-26T10:39:04Z</time>
      </trkpt>
      <trkpt lat="44.82146" lon="5.48104">
        <ele>1459.8372</ele>
        <time>2014-06-26T10:39:09Z</time>
      </trkpt>
      <trkpt lat="44.82148" lon="5.48105">
        <ele>1459.8372</ele>
        <time>2014-06-26T10:39:13Z</time>
      </trkpt>
      <trkpt lat="44.82158" lon="5.48111">
        <ele>1461.4485</ele>
        <time>2014-06-26T10:39:24Z</time>
      </trkpt>
      <trkpt lat="44.8216" lon="5.4811">
        <ele>1461.4485</ele>
        <time>2014-06-26T10:39:30Z</time>
      </trkpt>
      <trkpt lat="44.82171" lon="5.48104">
        <ele>1463.2522</ele>
        <time>2014-06-26T10:39:33Z</time>
      </trkpt>
      <trkpt lat="44.82174" lon="5.48106">
        <ele>1463.2522</ele>
        <time>2014-06-26T10:39:39Z</time>
      </trkpt>
      <trkpt lat="44.82178" lon="5.48108">
        <ele>1463.2522</ele>
        <time>2014-06-26T10:39:44Z</time>
      </trkpt>
      <trkpt lat="44.8218" lon="5.48111">
        <ele>1465.4193</ele>
        <time>2014-06-26T10:39:49Z</time>
      </trkpt>
      <trkpt lat="44.82183" lon="5.48115">
        <ele>1465.4193</ele>
        <time>2014-06-26T10:39:54Z</time>
      </trkpt>
      <trkpt lat="44.82186" lon="5.48116">
        <ele>1465.4193</ele>
        <time>2014-06-26T10:39:59Z</time>
      </trkpt>
      <trkpt lat="44.82188" lon="5.48119">
        <ele>1467.9198</ele>
        <time>2014-06-26T10:40:04Z</time>
      </trkpt>
      <trkpt lat="44.8219" lon="5.48121">
        <ele>1467.9198</ele>
        <time>2014-06-26T10:40:09Z</time>
      </trkpt>
      <trkpt lat="44.82191" lon="5.48123">
        <ele>1467.9198</ele>
        <time>2014-06-26T10:40:14Z</time>
      </trkpt>
      <trkpt lat="44.82192" lon="5.4812">
        <ele>1467.9198</ele>
        <time>2014-06-26T10:40:18Z</time>
      </trkpt>
      <trkpt lat="44.82195" lon="5.48119">
        <ele>1470.9556</ele>
        <time>2014-06-26T10:40:23Z</time>
      </trkpt>
      <trkpt lat="44.82199" lon="5.4812">
        <ele>1470.9556</ele>
        <time>2014-06-26T10:40:29Z</time>
      </trkpt>
      <trkpt lat="44.82204" lon="5.48122">
        <ele>1470.9556</ele>
        <time>2014-06-26T10:40:34Z</time>
      </trkpt>
      <trkpt lat="44.82206" lon="5.48122">
        <ele>1474.4812</ele>
        <time>2014-06-26T10:40:39Z</time>
      </trkpt>
      <trkpt lat="44.82207" lon="5.48123">
        <ele>1474.4812</ele>
        <time>2014-06-26T10:40:43Z</time>
      </trkpt>
      <trkpt lat="44.82211" lon="5.48124">
        <ele>1474.4812</ele>
        <time>2014-06-26T10:40:48Z</time>
      </trkpt>
      <trkpt lat="44.82213" lon="5.48124">
        <ele>1474.4812</ele>
        <time>2014-06-26T10:40:53Z</time>
      </trkpt>
      <trkpt lat="44.82216" lon="5.48127">
        <ele>1478.6842</ele>
        <time>2014-06-26T10:40:58Z</time>
      </trkpt>
      <trkpt lat="44.82219" lon="5.48129">
        <ele>1478.6842</ele>
        <time>2014-06-26T10:41:04Z</time>
      </trkpt>
      <trkpt lat="44.82223" lon="5.48132">
        <ele>1478.6842</ele>
        <time>2014-06-26T10:41:09Z</time>
      </trkpt>
      <trkpt lat="44.82225" lon="5.48133">
        <ele>1483.232</ele>
        <time>2014-06-26T10:41:14Z</time>
      </trkpt>
      <trkpt lat="44.82229" lon="5.48134">
        <ele>1483.232</ele>
        <time>2014-06-26T10:41:19Z</time>
      </trkpt>
      <trkpt lat="44.82231" lon="5.48133">
        <ele>1483.232</ele>
        <time>2014-06-26T10:41:23Z</time>
      </trkpt>
      <trkpt lat="44.82239" lon="5.48138">
        <ele>1487.8729</ele>
        <time>2014-06-26T10:41:28Z</time>
      </trkpt>
      <trkpt lat="44.82248" lon="5.48145">
        <ele>1492.1577</ele>
        <time>2014-06-26T10:41:34Z</time>
      </trkpt>
      <trkpt lat="44.82258" lon="5.48149">
        <ele>1496.1755</ele>
        <time>2014-06-26T10:41:39Z</time>
      </trkpt>
      <trkpt lat="44.82265" lon="5.48158">
        <ele>1499.9087</ele>
        <time>2014-06-26T10:41:43Z</time>
      </trkpt>
      <trkpt lat="44.82272" lon="5.48165">
        <ele>1499.9087</ele>
        <time>2014-06-26T10:41:49Z</time>
      </trkpt>
      <trkpt lat="44.82276" lon="5.48167">
        <ele>1503.8032</ele>
        <time>2014-06-26T10:41:53Z</time>
      </trkpt>
      <trkpt lat="44.82279" lon="5.48171">
        <ele>1503.8032</ele>
        <time>2014-06-26T10:41:59Z</time>
      </trkpt>
      <trkpt lat="44.82282" lon="5.48174">
        <ele>1503.8032</ele>
        <time>2014-06-26T10:42:04Z</time>
      </trkpt>
      <trkpt lat="44.82287" lon="5.48175">
        <ele>1507.9261</ele>
        <time>2014-06-26T10:42:08Z</time>
      </trkpt>
      <trkpt lat="44.82291" lon="5.48178">
        <ele>1507.9261</ele>
        <time>2014-06-26T10:42:14Z</time>
      </trkpt>
      <trkpt lat="44.82298" lon="5.48179">
        <ele>1512.44</ele>
        <time>2014-06-26T10:42:19Z</time>
      </trkpt>
      <trkpt lat="44.82308" lon="5.48181">
        <ele>1517.321</ele>
        <time>2014-06-26T10:42:24Z</time>
      </trkpt>
      <trkpt lat="44.82312" lon="5.48179">
        <ele>1517.321</ele>
        <time>2014-06-26T10:42:29Z</time>
      </trkpt>
      <trkpt lat="44.82316" lon="5.4818">
        <ele>1517.321</ele>
        <time>2014-06-26T10:42:34Z</time>
      </trkpt>
      <trkpt lat="44.82316" lon="5.48179">
        <ele>1522.432</ele>
        <time>2014-06-26T10:42:39Z</time>
      </trkpt>
      <trkpt lat="44.82323" lon="5.48178">
        <ele>1522.432</ele>
        <time>2014-06-26T10:43:19Z</time>
      </trkpt>
      <trkpt lat="44.82326" lon="5.48178">
        <ele>1528.3506</ele>
        <time>2014-06-26T10:43:24Z</time>
      </trkpt>
      <trkpt lat="44.82328" lon="5.4818">
        <ele>1528.3506</ele>
        <time>2014-06-26T10:43:29Z</time>
      </trkpt>
      <trkpt lat="44.82331" lon="5.48183">
        <ele>1528.3506</ele>
        <time>2014-06-26T10:43:34Z</time>
      </trkpt>
      <trkpt lat="44.82328" lon="5.48184">
        <ele>1528.3506</ele>
        <time>2014-06-26T10:43:37Z</time>
      </trkpt>
      <trkpt lat="44.82335" lon="5.48195">
        <ele>1534.155</ele>
        <time>2014-06-26T10:44:07Z</time>
      </trkpt>
      <trkpt lat="44.82339" lon="5.48204">
        <ele>1534.155</ele>
        <time>2014-06-26T10:44:17Z</time>
      </trkpt>
      <trkpt lat="44.82339" lon="5.48207">
        <ele>1539.4958</ele>
        <time>2014-06-26T10:44:22Z</time>
      </trkpt>
      <trkpt lat="44.82338" lon="5.48213">
        <ele>1539.4958</ele>
        <time>2014-06-26T10:44:33Z</time>
      </trkpt>
      <trkpt lat="44.82341" lon="5.48219">
        <ele>1544.3971</ele>
        <time>2014-06-26T10:44:39Z</time>
      </trkpt>
      <trkpt lat="44.82341" lon="5.48227">
        <ele>1544.3971</ele>
        <time>2014-06-26T10:44:44Z</time>
      </trkpt>
      <trkpt lat="44.82342" lon="5.48226">
        <ele>1544.3971</ele>
        <time>2014-06-26T10:44:48Z</time>
      </trkpt>
      <trkpt lat="44.82338" lon="5.48229">
        <ele>1549.2134</ele>
        <time>2014-06-26T10:45:04Z</time>
      </trkpt>
      <trkpt lat="44.82337" lon="5.48231">
        <ele>1549.2134</ele>
        <time>2014-06-26T10:45:08Z</time>
      </trkpt>
      <trkpt lat="44.82337" lon="5.48232">
        <ele>1549.2134</ele>
        <time>2014-06-26T10:45:14Z</time>
      </trkpt>
      <trkpt lat="44.82339" lon="5.4823">
        <ele>1549.2134</ele>
        <time>2014-06-26T10:45:33Z</time>
      </trkpt>
      <trkpt lat="44.82342" lon="5.48234">
        <ele>1549.2134</ele>
        <time>2014-06-26T10:45:39Z</time>
      </trkpt>
      <trkpt lat="44.82345" lon="5.48236">
        <ele>1553.6836</ele>
        <time>2014-06-26T10:45:44Z</time>
      </trkpt>
      <trkpt lat="44.8235" lon="5.4824">
        <ele>1553.6836</ele>
        <time>2014-06-26T10:45:49Z</time>
      </trkpt>
      <trkpt lat="44.82353" lon="5.48243">
        <ele>1557.8115</ele>
        <time>2014-06-26T10:45:54Z</time>
      </trkpt>
      <trkpt lat="44.82355" lon="5.48248">
        <ele>1557.8115</ele>
        <time>2014-06-26T10:45:58Z</time>
      </trkpt>
      <trkpt lat="44.82359" lon="5.48251">
        <ele>1557.8115</ele>
        <time>2014-06-26T10:46:03Z</time>
      </trkpt>
      <trkpt lat="44.82359" lon="5.4825">
        <ele>1561.5302</ele>
        <time>2014-06-26T10:46:07Z</time>
      </trkpt>
      <trkpt lat="44.82365" lon="5.48264">
        <ele>1565.4415</ele>
        <time>2014-06-26T10:47:09Z</time>
      </trkpt>
      <trkpt lat="44.82372" lon="5.48268">
        <ele>1565.4415</ele>
        <time>2014-06-26T10:47:14Z</time>
      </trkpt>
      <trkpt lat="44.82378" lon="5.48272">
        <ele>1568.9216</ele>
        <time>2014-06-26T10:47:19Z</time>
      </trkpt>
      <trkpt lat="44.82381" lon="5.48278">
        <ele>1568.9216</ele>
        <time>2014-06-26T10:47:24Z</time>
      </trkpt>
      <trkpt lat="44.82382" lon="5.48283">
        <ele>1572.0854</ele>
        <time>2014-06-26T10:47:28Z</time>
      </trkpt>
      <trkpt lat="44.82385" lon="5.48289">
        <ele>1572.0854</ele>
        <time>2014-06-26T10:47:34Z</time>
      </trkpt>
      <trkpt lat="44.82389" lon="5.4829">
        <ele>1572.0854</ele>
        <time>2014-06-26T10:47:38Z</time>
      </trkpt>
      <trkpt lat="44.8239" lon="5.4829">
        <ele>1575.3431</ele>
        <time>2014-06-26T10:47:44Z</time>
      </trkpt>
      <trkpt lat="44.8239" lon="5.4829">
        <ele>1575.3431</ele>
        <time>2014-06-26T10:47:49Z</time>
      </trkpt>
      <trkpt lat="44.8239" lon="5.48292">
        <ele>1575.3431</ele>
        <time>2014-06-26T10:48:14Z</time>
      </trkpt>
      <trkpt lat="44.82394" lon="5.48291">
        <ele>1575.3431</ele>
        <time>2014-06-26T10:48:19Z</time>
      </trkpt>
      <trkpt lat="44.82399" lon="5.4829">
        <ele>1578.8732</ele>
        <time>2014-06-26T10:48:24Z</time>
      </trkpt>
      <trkpt lat="44.824" lon="5.48291">
        <ele>1578.8732</ele>
        <time>2014-06-26T10:48:29Z</time>
      </trkpt>
      <trkpt lat="44.82401" lon="5.48292">
        <ele>1578.8732</ele>
        <time>2014-06-26T10:48:34Z</time>
      </trkpt>
      <trkpt lat="44.82398" lon="5.48304">
        <ele>1582.3071</ele>
        <time>2014-06-26T10:49:19Z</time>
      </trkpt>
      <trkpt lat="44.82398" lon="5.48305">
        <ele>1582.3071</ele>
        <time>2014-06-26T10:49:24Z</time>
      </trkpt>
      <trkpt lat="44.82401" lon="5.48292">
        <ele>1585.3328</ele>
        <time>2014-06-26T10:49:49Z</time>
      </trkpt>
      <trkpt lat="44.82409" lon="5.48299">
        <ele>1587.8208</ele>
        <time>2014-06-26T10:54:14Z</time>
      </trkpt>
      <trkpt lat="44.82408" lon="5.48298">
        <ele>1587.8208</ele>
        <time>2014-06-26T10:54:19Z</time>
      </trkpt>
      <trkpt lat="44.82404" lon="5.4831">
        <ele>1589.8116</ele>
        <time>2014-06-26T10:57:09Z</time>
      </trkpt>
      <trkpt lat="44.82407" lon="5.48296">
        <ele>1591.2723</ele>
        <time>2014-06-26T10:57:34Z</time>
      </trkpt>
      <trkpt lat="44.82398" lon="5.48295">
        <ele>1592.8511</ele>
        <time>2014-06-26T10:58:54Z</time>
      </trkpt>
      <trkpt lat="44.82397" lon="5.48294">
        <ele>1592.8511</ele>
        <time>2014-06-26T10:58:59Z</time>
      </trkpt>
      <trkpt lat="44.824" lon="5.48281">
        <ele>1594.2838</ele>
        <time>2014-06-26T10:59:13Z</time>
      </trkpt>
      <trkpt lat="44.82407" lon="5.48286">
        <ele>1594.2838</ele>
        <time>2014-06-26T10:59:34Z</time>
      </trkpt>
      <trkpt lat="44.8241" lon="5.4829">
        <ele>1595.0525</ele>
        <time>2014-06-26T10:59:39Z</time>
      </trkpt>
      <trkpt lat="44.82414" lon="5.48294">
        <ele>1595.0525</ele>
        <time>2014-06-26T10:59:43Z</time>
      </trkpt>
      <trkpt lat="44.82417" lon="5.48299">
        <ele>1595.5436</ele>
        <time>2014-06-26T10:59:49Z</time>
      </trkpt>
      <trkpt lat="44.8242" lon="5.48302">
        <ele>1595.5436</ele>
        <time>2014-06-26T10:59:54Z</time>
      </trkpt>
      <trkpt lat="44.82423" lon="5.48307">
        <ele>1595.5436</ele>
        <time>2014-06-26T10:59:59Z</time>
      </trkpt>
      <trkpt lat="44.82424" lon="5.48308">
        <ele>1595.7849</ele>
        <time>2014-06-26T11:00:04Z</time>
      </trkpt>
      <trkpt lat="44.82427" lon="5.48314">
        <ele>1595.7849</ele>
        <time>2014-06-26T11:00:08Z</time>
      </trkpt>
      <trkpt lat="44.82429" lon="5.48314">
        <ele>1595.7849</ele>
        <time>2014-06-26T11:00:14Z</time>
      </trkpt>
      <trkpt lat="44.82431" lon="5.48316">
        <ele>1595.8026</ele>
        <time>2014-06-26T11:00:19Z</time>
      </trkpt>
      <trkpt lat="44.82434" lon="5.48321">
        <ele>1595.8026</ele>
        <time>2014-06-26T11:00:24Z</time>
      </trkpt>
      <trkpt lat="44.82437" lon="5.48325">
        <ele>1595.8026</ele>
        <time>2014-06-26T11:00:29Z</time>
      </trkpt>
      <trkpt lat="44.82439" lon="5.4833">
        <ele>1595.7081</ele>
        <time>2014-06-26T11:00:34Z</time>
      </trkpt>
      <trkpt lat="44.82442" lon="5.48334">
        <ele>1595.7081</ele>
        <time>2014-06-26T11:00:39Z</time>
      </trkpt>
      <trkpt lat="44.82442" lon="5.48335">
        <ele>1595.7081</ele>
        <time>2014-06-26T11:00:44Z</time>
      </trkpt>
      <trkpt lat="44.82442" lon="5.48337">
        <ele>1595.7081</ele>
        <time>2014-06-26T11:00:49Z</time>
      </trkpt>
      <trkpt lat="44.82442" lon="5.48339">
        <ele>1595.7081</ele>
        <time>2014-06-26T11:00:53Z</time>
      </trkpt>
      <trkpt lat="44.82443" lon="5.48339">
        <ele>1595.7081</ele>
        <time>2014-06-26T11:00:58Z</time>
      </trkpt>
      <trkpt lat="44.82442" lon="5.48341">
        <ele>1595.5908</ele>
        <time>2014-06-26T11:01:04Z</time>
      </trkpt>
      <trkpt lat="44.82444" lon="5.48348">
        <ele>1595.5908</ele>
        <time>2014-06-26T11:01:09Z</time>
      </trkpt>
      <trkpt lat="44.82445" lon="5.48351">
        <ele>1595.5908</ele>
        <time>2014-06-26T11:01:14Z</time>
      </trkpt>
      <trkpt lat="44.82447" lon="5.48352">
        <ele>1595.4901</ele>
        <time>2014-06-26T11:01:19Z</time>
      </trkpt>
      <trkpt lat="44.82449" lon="5.48352">
        <ele>1595.4901</ele>
        <time>2014-06-26T11:01:23Z</time>
      </trkpt>
      <trkpt lat="44.82452" lon="5.48352">
        <ele>1595.4901</ele>
        <time>2014-06-26T11:01:28Z</time>
      </trkpt>
      <trkpt lat="44.82453" lon="5.48354">
        <ele>1595.4901</ele>
        <time>2014-06-26T11:01:34Z</time>
      </trkpt>
      <trkpt lat="44.82455" lon="5.48356">
        <ele>1595.4901</ele>
        <time>2014-06-26T11:01:39Z</time>
      </trkpt>
      <trkpt lat="44.82456" lon="5.48358">
        <ele>1595.471</ele>
        <time>2014-06-26T11:01:43Z</time>
      </trkpt>
      <trkpt lat="44.82458" lon="5.48366">
        <ele>1595.471</ele>
        <time>2014-06-26T11:01:49Z</time>
      </trkpt>
      <trkpt lat="44.82459" lon="5.48368">
        <ele>1595.471</ele>
        <time>2014-06-26T11:01:54Z</time>
      </trkpt>
      <trkpt lat="44.8246" lon="5.48373">
        <ele>1595.4352</ele>
        <time>2014-06-26T11:01:59Z</time>
      </trkpt>
      <trkpt lat="44.82461" lon="5.48374">
        <ele>1595.4352</ele>
        <time>2014-06-26T11:02:04Z</time>
      </trkpt>
      <trkpt lat="44.82461" lon="5.48377">
        <ele>1595.4352</ele>
        <time>2014-06-26T11:02:09Z</time>
      </trkpt>
      <trkpt lat="44.82461" lon="5.48383">
        <ele>1595.4352</ele>
        <time>2014-06-26T11:02:13Z</time>
      </trkpt>
      <trkpt lat="44.82463" lon="5.48388">
        <ele>1595.3779</ele>
        <time>2014-06-26T11:02:19Z</time>
      </trkpt>
      <trkpt lat="44.82465" lon="5.48392">
        <ele>1595.3779</ele>
        <time>2014-06-26T11:02:24Z</time>
      </trkpt>
      <trkpt lat="44.82466" lon="5.48393">
        <ele>1595.3779</ele>
        <time>2014-06-26T11:02:29Z</time>
      </trkpt>
      <trkpt lat="44.82465" lon="5.48397">
        <ele>1595.3779</ele>
        <time>2014-06-26T11:02:34Z</time>
      </trkpt>
      <trkpt lat="44.82464" lon="5.48394">
        <ele>1595.3812</ele>
        <time>2014-06-26T11:02:39Z</time>
      </trkpt>
      <trkpt lat="44.82465" lon="5.48403">
        <ele>1595.3812</ele>
        <time>2014-06-26T11:02:52Z</time>
      </trkpt>
      <trkpt lat="44.82466" lon="5.48404">
        <ele>1595.3812</ele>
        <time>2014-06-26T11:02:57Z</time>
      </trkpt>
      <trkpt lat="44.82464" lon="5.48412">
        <ele>1595.9098</ele>
        <time>2014-06-26T11:03:12Z</time>
      </trkpt>
      <trkpt lat="44.82462" lon="5.48415">
        <ele>1595.9098</ele>
        <time>2014-06-26T11:03:17Z</time>
      </trkpt>
      <trkpt lat="44.82461" lon="5.48417">
        <ele>1595.9098</ele>
        <time>2014-06-26T11:03:22Z</time>
      </trkpt>
      <trkpt lat="44.82459" lon="5.4842">
        <ele>1595.9098</ele>
        <time>2014-06-26T11:03:27Z</time>
      </trkpt>
      <trkpt lat="44.82456" lon="5.48422">
        <ele>1596.427</ele>
        <time>2014-06-26T11:03:32Z</time>
      </trkpt>
      <trkpt lat="44.82454" lon="5.48424">
        <ele>1596.427</ele>
        <time>2014-06-26T11:03:37Z</time>
      </trkpt>
      <trkpt lat="44.82453" lon="5.48426">
        <ele>1596.427</ele>
        <time>2014-06-26T11:03:42Z</time>
      </trkpt>
      <trkpt lat="44.82449" lon="5.48423">
        <ele>1596.427</ele>
        <time>2014-06-26T11:03:47Z</time>
      </trkpt>
      <trkpt lat="44.82451" lon="5.48432">
        <ele>1596.9689</ele>
        <time>2014-06-26T11:03:57Z</time>
      </trkpt>
      <trkpt lat="44.82452" lon="5.48439">
        <ele>1596.9689</ele>
        <time>2014-06-26T11:04:02Z</time>
      </trkpt>
      <trkpt lat="44.82459" lon="5.4844">
        <ele>1597.5828</ele>
        <time>2014-06-26T11:04:07Z</time>
      </trkpt>
      <trkpt lat="44.8246" lon="5.4844">
        <ele>1597.5828</ele>
        <time>2014-06-26T11:04:12Z</time>
      </trkpt>
      <trkpt lat="44.82463" lon="5.48442">
        <ele>1597.5828</ele>
        <time>2014-06-26T11:04:32Z</time>
      </trkpt>
      <trkpt lat="44.82461" lon="5.48448">
        <ele>1597.5828</ele>
        <time>2014-06-26T11:04:37Z</time>
      </trkpt>
      <trkpt lat="44.8246" lon="5.48456">
        <ele>1598.4421</ele>
        <time>2014-06-26T11:04:42Z</time>
      </trkpt>
      <trkpt lat="44.82459" lon="5.48465">
        <ele>1598.4421</ele>
        <time>2014-06-26T11:04:47Z</time>
      </trkpt>
      <trkpt lat="44.82458" lon="5.48472">
        <ele>1599.2023</ele>
        <time>2014-06-26T11:04:52Z</time>
      </trkpt>
      <trkpt lat="44.82458" lon="5.48478">
        <ele>1599.2023</ele>
        <time>2014-06-26T11:04:57Z</time>
      </trkpt>
      <trkpt lat="44.82459" lon="5.48483">
        <ele>1599.2023</ele>
        <time>2014-06-26T11:05:02Z</time>
      </trkpt>
      <trkpt lat="44.82459" lon="5.48488">
        <ele>1599.9042</ele>
        <time>2014-06-26T11:05:07Z</time>
      </trkpt>
      <trkpt lat="44.8246" lon="5.48496">
        <ele>1599.9042</ele>
        <time>2014-06-26T11:05:12Z</time>
      </trkpt>
      <trkpt lat="44.82457" lon="5.48504">
        <ele>1600.6146</ele>
        <time>2014-06-26T11:05:17Z</time>
      </trkpt>
      <trkpt lat="44.82455" lon="5.48511">
        <ele>1600.6146</ele>
        <time>2014-06-26T11:05:22Z</time>
      </trkpt>
      <trkpt lat="44.82457" lon="5.48518">
        <ele>1601.28</ele>
        <time>2014-06-26T11:05:27Z</time>
      </trkpt>
      <trkpt lat="44.82458" lon="5.48525">
        <ele>1601.28</ele>
        <time>2014-06-26T11:05:32Z</time>
      </trkpt>
      <trkpt lat="44.82463" lon="5.48531">
        <ele>1601.9948</ele>
        <time>2014-06-26T11:05:37Z</time>
      </trkpt>
      <trkpt lat="44.82468" lon="5.48539">
        <ele>1601.9948</ele>
        <time>2014-06-26T11:05:42Z</time>
      </trkpt>
      <trkpt lat="44.82471" lon="5.48544">
        <ele>1602.9326</ele>
        <time>2014-06-26T11:05:47Z</time>
      </trkpt>
      <trkpt lat="44.82476" lon="5.48548">
        <ele>1602.9326</ele>
        <time>2014-06-26T11:05:52Z</time>
      </trkpt>
      <trkpt lat="44.82481" lon="5.48553">
        <ele>1604.1381</ele>
        <time>2014-06-26T11:05:57Z</time>
      </trkpt>
      <trkpt lat="44.82485" lon="5.48557">
        <ele>1604.1381</ele>
        <time>2014-06-26T11:06:02Z</time>
      </trkpt>
      <trkpt lat="44.8249" lon="5.4856">
        <ele>1605.4645</ele>
        <time>2014-06-26T11:06:07Z</time>
      </trkpt>
      <trkpt lat="44.82488" lon="5.48565">
        <ele>1605.4645</ele>
        <time>2014-06-26T11:06:12Z</time>
      </trkpt>
      <trkpt lat="44.82486" lon="5.48567">
        <ele>1605.4645</ele>
        <time>2014-06-26T11:06:17Z</time>
      </trkpt>
      <trkpt lat="44.82483" lon="5.48567">
        <ele>1606.761</ele>
        <time>2014-06-26T11:06:22Z</time>
      </trkpt>
      <trkpt lat="44.82483" lon="5.48566">
        <ele>1606.761</ele>
        <time>2014-06-26T11:06:27Z</time>
      </trkpt>
      <trkpt lat="44.82489" lon="5.48569">
        <ele>1606.761</ele>
        <time>2014-06-26T11:06:37Z</time>
      </trkpt>
      <trkpt lat="44.82492" lon="5.48572">
        <ele>1608.2478</ele>
        <time>2014-06-26T11:06:42Z</time>
      </trkpt>
      <trkpt lat="44.82499" lon="5.48573">
        <ele>1608.2478</ele>
        <time>2014-06-26T11:06:47Z</time>
      </trkpt>
      <trkpt lat="44.82507" lon="5.48576">
        <ele>1609.6818</ele>
        <time>2014-06-26T11:06:52Z</time>
      </trkpt>
      <trkpt lat="44.82515" lon="5.4858">
        <ele>1609.6818</ele>
        <time>2014-06-26T11:06:57Z</time>
      </trkpt>
      <trkpt lat="44.8252" lon="5.4858">
        <ele>1611.068</ele>
        <time>2014-06-26T11:07:02Z</time>
      </trkpt>
      <trkpt lat="44.82524" lon="5.48581">
        <ele>1611.068</ele>
        <time>2014-06-26T11:07:07Z</time>
      </trkpt>
      <trkpt lat="44.8253" lon="5.48584">
        <ele>1612.4402</ele>
        <time>2014-06-26T11:07:12Z</time>
      </trkpt>
      <trkpt lat="44.82535" lon="5.48589">
        <ele>1612.4402</ele>
        <time>2014-06-26T11:07:17Z</time>
      </trkpt>
      <trkpt lat="44.82538" lon="5.48595">
        <ele>1613.858</ele>
        <time>2014-06-26T11:07:22Z</time>
      </trkpt>
      <trkpt lat="44.82544" lon="5.48601">
        <ele>1613.858</ele>
        <time>2014-06-26T11:07:27Z</time>
      </trkpt>
      <trkpt lat="44.82549" lon="5.48603">
        <ele>1615.2327</ele>
        <time>2014-06-26T11:07:32Z</time>
      </trkpt>
      <trkpt lat="44.82557" lon="5.48606">
        <ele>1615.2327</ele>
        <time>2014-06-26T11:07:37Z</time>
      </trkpt>
      <trkpt lat="44.82564" lon="5.48607">
        <ele>1616.5107</ele>
        <time>2014-06-26T11:07:42Z</time>
      </trkpt>
      <trkpt lat="44.82572" lon="5.48609">
        <ele>1616.5107</ele>
        <time>2014-06-26T11:07:47Z</time>
      </trkpt>
      <trkpt lat="44.82575" lon="5.48606">
        <ele>1617.5704</ele>
        <time>2014-06-26T11:07:52Z</time>
      </trkpt>
      <trkpt lat="44.82575" lon="5.48605">
        <ele>1617.5704</ele>
        <time>2014-06-26T11:07:57Z</time>
      </trkpt>
      <trkpt lat="44.8258" lon="5.48609">
        <ele>1617.5704</ele>
        <time>2014-06-26T11:08:02Z</time>
      </trkpt>
      <trkpt lat="44.82586" lon="5.48611">
        <ele>1618.4873</ele>
        <time>2014-06-26T11:08:07Z</time>
      </trkpt>
      <trkpt lat="44.82592" lon="5.48609">
        <ele>1618.4873</ele>
        <time>2014-06-26T11:08:12Z</time>
      </trkpt>
      <trkpt lat="44.82598" lon="5.48611">
        <ele>1619.1149</ele>
        <time>2014-06-26T11:08:17Z</time>
      </trkpt>
      <trkpt lat="44.82605" lon="5.48612">
        <ele>1619.1149</ele>
        <time>2014-06-26T11:08:23Z</time>
      </trkpt>
      <trkpt lat="44.82612" lon="5.48617">
        <ele>1619.3475</ele>
        <time>2014-06-26T11:08:29Z</time>
      </trkpt>
      <trkpt lat="44.82616" lon="5.48616">
        <ele>1619.3475</ele>
        <time>2014-06-26T11:08:33Z</time>
      </trkpt>
      <trkpt lat="44.8262" lon="5.48617">
        <ele>1619.3475</ele>
        <time>2014-06-26T11:08:39Z</time>
      </trkpt>
      <trkpt lat="44.82624" lon="5.48624">
        <ele>1619.2179</ele>
        <time>2014-06-26T11:08:44Z</time>
      </trkpt>
      <trkpt lat="44.82626" lon="5.48622">
        <ele>1619.2179</ele>
        <time>2014-06-26T11:08:48Z</time>
      </trkpt>
      <trkpt lat="44.82629" lon="5.48618">
        <ele>1619.2179</ele>
        <time>2014-06-26T11:08:53Z</time>
      </trkpt>
      <trkpt lat="44.82636" lon="5.48619">
        <ele>1618.8289</ele>
        <time>2014-06-26T11:08:59Z</time>
      </trkpt>
      <trkpt lat="44.82639" lon="5.48621">
        <ele>1618.8289</ele>
        <time>2014-06-26T11:09:03Z</time>
      </trkpt>
      <trkpt lat="44.82642" lon="5.48624">
        <ele>1618.8289</ele>
        <time>2014-06-26T11:09:07Z</time>
      </trkpt>
      <trkpt lat="44.82647" lon="5.48626">
        <ele>1618.0175</ele>
        <time>2014-06-26T11:09:14Z</time>
      </trkpt>
      <trkpt lat="44.82652" lon="5.48623">
        <ele>1618.0175</ele>
        <time>2014-06-26T11:09:19Z</time>
      </trkpt>
      <trkpt lat="44.82657" lon="5.48624">
        <ele>1617.1522</ele>
        <time>2014-06-26T11:09:23Z</time>
      </trkpt>
      <trkpt lat="44.82663" lon="5.48624">
        <ele>1617.1522</ele>
        <time>2014-06-26T11:09:28Z</time>
      </trkpt>
      <trkpt lat="44.82669" lon="5.48625">
        <ele>1616.301</ele>
        <time>2014-06-26T11:09:34Z</time>
      </trkpt>
      <trkpt lat="44.82673" lon="5.48626">
        <ele>1616.301</ele>
        <time>2014-06-26T11:09:37Z</time>
      </trkpt>
      <trkpt lat="44.82678" lon="5.48627">
        <ele>1616.301</ele>
        <time>2014-06-26T11:09:43Z</time>
      </trkpt>
      <trkpt lat="44.82679" lon="5.48627">
        <ele>1615.512</ele>
        <time>2014-06-26T11:09:49Z</time>
      </trkpt>
      <trkpt lat="44.82684" lon="5.48624">
        <ele>1615.512</ele>
        <time>2014-06-26T11:09:54Z</time>
      </trkpt>
      <trkpt lat="44.82692" lon="5.4862">
        <ele>1614.6565</ele>
        <time>2014-06-26T11:09:58Z</time>
      </trkpt>
      <trkpt lat="44.82694" lon="5.48624">
        <ele>1614.6565</ele>
        <time>2014-06-26T11:10:03Z</time>
      </trkpt>
      <trkpt lat="44.82695" lon="5.48628">
        <ele>1614.6565</ele>
        <time>2014-06-26T11:10:07Z</time>
      </trkpt>
      <trkpt lat="44.82698" lon="5.48628">
        <ele>1613.6733</ele>
        <time>2014-06-26T11:10:14Z</time>
      </trkpt>
      <trkpt lat="44.82701" lon="5.48627">
        <ele>1613.6733</ele>
        <time>2014-06-26T11:10:19Z</time>
      </trkpt>
      <trkpt lat="44.82706" lon="5.48626">
        <ele>1613.6733</ele>
        <time>2014-06-26T11:10:23Z</time>
      </trkpt>
      <trkpt lat="44.8271" lon="5.48623">
        <ele>1612.7073</ele>
        <time>2014-06-26T11:10:28Z</time>
      </trkpt>
      <trkpt lat="44.82714" lon="5.4862">
        <ele>1612.7073</ele>
        <time>2014-06-26T11:10:34Z</time>
      </trkpt>
      <trkpt lat="44.82718" lon="5.48612">
        <ele>1611.7053</ele>
        <time>2014-06-26T11:10:38Z</time>
      </trkpt>
      <trkpt lat="44.82722" lon="5.4861">
        <ele>1611.7053</ele>
        <time>2014-06-26T11:10:44Z</time>
      </trkpt>
      <trkpt lat="44.82727" lon="5.48606">
        <ele>1610.8053</ele>
        <time>2014-06-26T11:10:48Z</time>
      </trkpt>
      <trkpt lat="44.82732" lon="5.48604">
        <ele>1610.8053</ele>
        <time>2014-06-26T11:10:54Z</time>
      </trkpt>
      <trkpt lat="44.82738" lon="5.486">
        <ele>1609.9185</ele>
        <time>2014-06-26T11:10:59Z</time>
      </trkpt>
      <trkpt lat="44.82741" lon="5.48603">
        <ele>1609.9185</ele>
        <time>2014-06-26T11:11:06Z</time>
      </trkpt>
      <trkpt lat="44.82743" lon="5.48605">
        <ele>1609.9185</ele>
        <time>2014-06-26T11:11:08Z</time>
      </trkpt>
      <trkpt lat="44.82743" lon="5.48606">
        <ele>1609.9185</ele>
        <time>2014-06-26T11:11:14Z</time>
      </trkpt>
      <trkpt lat="44.8274" lon="5.48607">
        <ele>1609.0922</ele>
        <time>2014-06-26T11:11:44Z</time>
      </trkpt>
      <trkpt lat="44.82739" lon="5.48604">
        <ele>1609.0922</ele>
        <time>2014-06-26T11:11:48Z</time>
      </trkpt>
      <trkpt lat="44.82739" lon="5.48602">
        <ele>1609.0922</ele>
        <time>2014-06-26T11:11:53Z</time>
      </trkpt>
      <trkpt lat="44.82739" lon="5.48602">
        <ele>1609.0922</ele>
        <time>2014-06-26T11:11:59Z</time>
      </trkpt>
      <trkpt lat="44.82741" lon="5.48612">
        <ele>1608.067</ele>
        <time>2014-06-26T11:12:48Z</time>
      </trkpt>
      <trkpt lat="44.82741" lon="5.48612">
        <ele>1608.067</ele>
        <time>2014-06-26T11:12:53Z</time>
      </trkpt>
      <trkpt lat="44.82741" lon="5.48606">
        <ele>1608.067</ele>
        <time>2014-06-26T11:13:03Z</time>
      </trkpt>
      <trkpt lat="44.82741" lon="5.48605">
        <ele>1608.067</ele>
        <time>2014-06-26T11:13:09Z</time>
      </trkpt>
      <trkpt lat="44.8274" lon="5.48594">
        <ele>1607.2664</ele>
        <time>2014-06-26T11:13:39Z</time>
      </trkpt>
      <trkpt lat="44.82742" lon="5.48589">
        <ele>1607.2664</ele>
        <time>2014-06-26T11:13:44Z</time>
      </trkpt>
      <trkpt lat="44.82742" lon="5.48583">
        <ele>1607.2664</ele>
        <time>2014-06-26T11:13:48Z</time>
      </trkpt>
      <trkpt lat="44.82741" lon="5.48577">
        <ele>1606.649</ele>
        <time>2014-06-26T11:13:54Z</time>
      </trkpt>
      <trkpt lat="44.82739" lon="5.48569">
        <ele>1606.649</ele>
        <time>2014-06-26T11:13:59Z</time>
      </trkpt>
      <trkpt lat="44.82736" lon="5.48562">
        <ele>1606.1185</ele>
        <time>2014-06-26T11:14:04Z</time>
      </trkpt>
      <trkpt lat="44.82735" lon="5.48555">
        <ele>1606.1185</ele>
        <time>2014-06-26T11:14:09Z</time>
      </trkpt>
      <trkpt lat="44.82736" lon="5.48549">
        <ele>1605.7726</ele>
        <time>2014-06-26T11:14:14Z</time>
      </trkpt>
      <trkpt lat="44.82735" lon="5.48544">
        <ele>1605.7726</ele>
        <time>2014-06-26T11:14:17Z</time>
      </trkpt>
      <trkpt lat="44.82734" lon="5.48536">
        <ele>1605.7726</ele>
        <time>2014-06-26T11:14:23Z</time>
      </trkpt>
      <trkpt lat="44.82734" lon="5.48526">
        <ele>1605.6288</ele>
        <time>2014-06-26T11:14:29Z</time>
      </trkpt>
      <trkpt lat="44.82732" lon="5.48518">
        <ele>1605.6288</ele>
        <time>2014-06-26T11:14:34Z</time>
      </trkpt>
      <trkpt lat="44.82731" lon="5.48509">
        <ele>1605.5875</ele>
        <time>2014-06-26T11:14:38Z</time>
      </trkpt>
      <trkpt lat="44.8273" lon="5.48503">
        <ele>1605.5875</ele>
        <time>2014-06-26T11:14:44Z</time>
      </trkpt>
      <trkpt lat="44.82727" lon="5.48496">
        <ele>1605.5848</ele>
        <time>2014-06-26T11:14:49Z</time>
      </trkpt>
      <trkpt lat="44.82726" lon="5.48486">
        <ele>1605.5848</ele>
        <time>2014-06-26T11:14:54Z</time>
      </trkpt>
      <trkpt lat="44.82727" lon="5.48479">
        <ele>1605.6333</ele>
        <time>2014-06-26T11:14:59Z</time>
      </trkpt>
      <trkpt lat="44.82726" lon="5.48472">
        <ele>1605.6333</ele>
        <time>2014-06-26T11:15:03Z</time>
      </trkpt>
      <trkpt lat="44.82724" lon="5.48464">
        <ele>1605.7875</ele>
        <time>2014-06-26T11:15:09Z</time>
      </trkpt>
      <trkpt lat="44.82724" lon="5.48456">
        <ele>1605.7875</ele>
        <time>2014-06-26T11:15:14Z</time>
      </trkpt>
      <trkpt lat="44.82723" lon="5.48448">
        <ele>1605.9679</ele>
        <time>2014-06-26T11:15:19Z</time>
      </trkpt>
      <trkpt lat="44.82721" lon="5.4844">
        <ele>1605.9679</ele>
        <time>2014-06-26T11:15:24Z</time>
      </trkpt>
      <trkpt lat="44.82719" lon="5.48432">
        <ele>1606.187</ele>
        <time>2014-06-26T11:15:29Z</time>
      </trkpt>
      <trkpt lat="44.82718" lon="5.48423">
        <ele>1606.187</ele>
        <time>2014-06-26T11:15:33Z</time>
      </trkpt>
      <trkpt lat="44.82717" lon="5.48416">
        <ele>1606.3553</ele>
        <time>2014-06-26T11:15:39Z</time>
      </trkpt>
      <trkpt lat="44.82716" lon="5.48409">
        <ele>1606.3553</ele>
        <time>2014-06-26T11:15:44Z</time>
      </trkpt>
      <trkpt lat="44.82716" lon="5.48402">
        <ele>1606.5487</ele>
        <time>2014-06-26T11:15:49Z</time>
      </trkpt>
      <trkpt lat="44.82716" lon="5.484">
        <ele>1606.5487</ele>
        <time>2014-06-26T11:15:54Z</time>
      </trkpt>
      <trkpt lat="44.82714" lon="5.4839">
        <ele>1606.5487</ele>
        <time>2014-06-26T11:16:29Z</time>
      </trkpt>
      <trkpt lat="44.82714" lon="5.48388">
        <ele>1606.2605</ele>
        <time>2014-06-26T11:16:33Z</time>
      </trkpt>
      <trkpt lat="44.82715" lon="5.48387">
        <ele>1606.2605</ele>
        <time>2014-06-26T11:16:39Z</time>
      </trkpt>
      <trkpt lat="44.82711" lon="5.4838">
        <ele>1606.2605</ele>
        <time>2014-06-26T11:17:08Z</time>
      </trkpt>
      <trkpt lat="44.82711" lon="5.48378">
        <ele>1606.2605</ele>
        <time>2014-06-26T11:17:13Z</time>
      </trkpt>
      <trkpt lat="44.8271" lon="5.48377">
        <ele>1606.2605</ele>
        <time>2014-06-26T11:17:19Z</time>
      </trkpt>
      <trkpt lat="44.82709" lon="5.48369">
        <ele>1605.5991</ele>
        <time>2014-06-26T11:17:29Z</time>
      </trkpt>
      <trkpt lat="44.82709" lon="5.48364">
        <ele>1605.5991</ele>
        <time>2014-06-26T11:17:34Z</time>
      </trkpt>
      <trkpt lat="44.82709" lon="5.4836">
        <ele>1605.5991</ele>
        <time>2014-06-26T11:17:39Z</time>
      </trkpt>
      <trkpt lat="44.82709" lon="5.48358">
        <ele>1605.5991</ele>
        <time>2014-06-26T11:17:43Z</time>
      </trkpt>
      <trkpt lat="44.82708" lon="5.48354">
        <ele>1604.911</ele>
        <time>2014-06-26T11:17:49Z</time>
      </trkpt>
      <trkpt lat="44.82708" lon="5.4835">
        <ele>1604.911</ele>
        <time>2014-06-26T11:17:55Z</time>
      </trkpt>
      <trkpt lat="44.82706" lon="5.48342">
        <ele>1604.2865</ele>
        <time>2014-06-26T11:17:57Z</time>
      </trkpt>
      <trkpt lat="44.82705" lon="5.48332">
        <ele>1604.2865</ele>
        <time>2014-06-26T11:18:06Z</time>
      </trkpt>
      <trkpt lat="44.82704" lon="5.48327">
        <ele>1603.737</ele>
        <time>2014-06-26T11:18:08Z</time>
      </trkpt>
      <trkpt lat="44.82702" lon="5.48324">
        <ele>1603.737</ele>
        <time>2014-06-26T11:18:16Z</time>
      </trkpt>
      <trkpt lat="44.82702" lon="5.48324">
        <ele>1603.737</ele>
        <time>2014-06-26T11:18:18Z</time>
      </trkpt>
      <trkpt lat="44.82701" lon="5.48323">
        <ele>1603.737</ele>
        <time>2014-06-26T11:18:38Z</time>
      </trkpt>
      <trkpt lat="44.82699" lon="5.48315">
        <ele>1602.9702</ele>
        <time>2014-06-26T11:18:43Z</time>
      </trkpt>
      <trkpt lat="44.82696" lon="5.48306">
        <ele>1602.9702</ele>
        <time>2014-06-26T11:18:49Z</time>
      </trkpt>
      <trkpt lat="44.82696" lon="5.48299">
        <ele>1602.2921</ele>
        <time>2014-06-26T11:18:53Z</time>
      </trkpt>
      <trkpt lat="44.82695" lon="5.48293">
        <ele>1602.2921</ele>
        <time>2014-06-26T11:18:58Z</time>
      </trkpt>
      <trkpt lat="44.82694" lon="5.48288">
        <ele>1602.2921</ele>
        <time>2014-06-26T11:19:04Z</time>
      </trkpt>
      <trkpt lat="44.82692" lon="5.48283">
        <ele>1601.6979</ele>
        <time>2014-06-26T11:19:08Z</time>
      </trkpt>
      <trkpt lat="44.82691" lon="5.48278">
        <ele>1601.6979</ele>
        <time>2014-06-26T11:19:13Z</time>
      </trkpt>
      <trkpt lat="44.82688" lon="5.48274">
        <ele>1601.6979</ele>
        <time>2014-06-26T11:19:19Z</time>
      </trkpt>
      <trkpt lat="44.82687" lon="5.48276">
        <ele>1601.1825</ele>
        <time>2014-06-26T11:19:24Z</time>
      </trkpt>
      <trkpt lat="44.82685" lon="5.48276">
        <ele>1601.1825</ele>
        <time>2014-06-26T11:19:28Z</time>
      </trkpt>
      <trkpt lat="44.82685" lon="5.48276">
        <ele>1601.1825</ele>
        <time>2014-06-26T11:19:33Z</time>
      </trkpt>
      <trkpt lat="44.82684" lon="5.48277">
        <ele>1601.1825</ele>
        <time>2014-06-26T11:20:39Z</time>
      </trkpt>
      <trkpt lat="44.82685" lon="5.48278">
        <ele>1601.1825</ele>
        <time>2014-06-26T11:20:43Z</time>
      </trkpt>
      <trkpt lat="44.82682" lon="5.48277">
        <ele>1601.1825</ele>
        <time>2014-06-26T11:21:08Z</time>
      </trkpt>
      <trkpt lat="44.82676" lon="5.48274">
        <ele>1600.453</ele>
        <time>2014-06-26T11:21:13Z</time>
      </trkpt>
      <trkpt lat="44.82672" lon="5.48272">
        <ele>1600.453</ele>
        <time>2014-06-26T11:21:19Z</time>
      </trkpt>
      <trkpt lat="44.82669" lon="5.48268">
        <ele>1600.453</ele>
        <time>2014-06-26T11:21:23Z</time>
      </trkpt>
      <trkpt lat="44.82665" lon="5.48266">
        <ele>1599.815</ele>
        <time>2014-06-26T11:21:29Z</time>
      </trkpt>
      <trkpt lat="44.82659" lon="5.48263">
        <ele>1599.815</ele>
        <time>2014-06-26T11:21:34Z</time>
      </trkpt>
      <trkpt lat="44.82654" lon="5.48259">
        <ele>1599.2625</ele>
        <time>2014-06-26T11:21:38Z</time>
      </trkpt>
      <trkpt lat="44.82651" lon="5.48256">
        <ele>1599.2625</ele>
        <time>2014-06-26T11:21:44Z</time>
      </trkpt>
      <trkpt lat="44.82646" lon="5.48252">
        <ele>1598.8192</ele>
        <time>2014-06-26T11:21:48Z</time>
      </trkpt>
      <trkpt lat="44.82642" lon="5.4825">
        <ele>1598.8192</ele>
        <time>2014-06-26T11:21:54Z</time>
      </trkpt>
      <trkpt lat="44.82638" lon="5.48245">
        <ele>1598.4775</ele>
        <time>2014-06-26T11:21:59Z</time>
      </trkpt>
      <trkpt lat="44.82634" lon="5.48241">
        <ele>1598.4775</ele>
        <time>2014-06-26T11:22:03Z</time>
      </trkpt>
      <trkpt lat="44.82631" lon="5.48239">
        <ele>1598.4775</ele>
        <time>2014-06-26T11:22:08Z</time>
      </trkpt>
      <trkpt lat="44.82624" lon="5.48238">
        <ele>1598.259</ele>
        <time>2014-06-26T11:22:14Z</time>
      </trkpt>
      <trkpt lat="44.82619" lon="5.48237">
        <ele>1598.259</ele>
        <time>2014-06-26T11:22:19Z</time>
      </trkpt>
      <trkpt lat="44.82615" lon="5.48236">
        <ele>1598.1254</ele>
        <time>2014-06-26T11:22:24Z</time>
      </trkpt>
      <trkpt lat="44.8261" lon="5.48236">
        <ele>1598.1254</ele>
        <time>2014-06-26T11:22:29Z</time>
      </trkpt>
      <trkpt lat="44.82605" lon="5.48235">
        <ele>1597.9979</ele>
        <time>2014-06-26T11:22:34Z</time>
      </trkpt>
      <trkpt lat="44.826" lon="5.48232">
        <ele>1597.9979</ele>
        <time>2014-06-26T11:22:39Z</time>
      </trkpt>
      <trkpt lat="44.82595" lon="5.48228">
        <ele>1597.8899</ele>
        <time>2014-06-26T11:22:43Z</time>
      </trkpt>
      <trkpt lat="44.82591" lon="5.48224">
        <ele>1597.8899</ele>
        <time>2014-06-26T11:22:49Z</time>
      </trkpt>
      <trkpt lat="44.82586" lon="5.48222">
        <ele>1597.828</ele>
        <time>2014-06-26T11:22:53Z</time>
      </trkpt>
      <trkpt lat="44.82581" lon="5.48222">
        <ele>1597.828</ele>
        <time>2014-06-26T11:22:59Z</time>
      </trkpt>
      <trkpt lat="44.82575" lon="5.48223">
        <ele>1597.7792</ele>
        <time>2014-06-26T11:23:03Z</time>
      </trkpt>
      <trkpt lat="44.82572" lon="5.48223">
        <ele>1597.7792</ele>
        <time>2014-06-26T11:23:08Z</time>
      </trkpt>
      <trkpt lat="44.8257" lon="5.48222">
        <ele>1597.7792</ele>
        <time>2014-06-26T11:23:14Z</time>
      </trkpt>
      <trkpt lat="44.8257" lon="5.48221">
        <ele>1597.7792</ele>
        <time>2014-06-26T11:23:17Z</time>
      </trkpt>
      <trkpt lat="44.82568" lon="5.4822">
        <ele>1597.7792</ele>
        <time>2014-06-26T11:23:27Z</time>
      </trkpt>
      <trkpt lat="44.82563" lon="5.48218">
        <ele>1597.4243</ele>
        <time>2014-06-26T11:23:32Z</time>
      </trkpt>
      <trkpt lat="44.82557" lon="5.48217">
        <ele>1597.4243</ele>
        <time>2014-06-26T11:23:37Z</time>
      </trkpt>
      <trkpt lat="44.82551" lon="5.48216">
        <ele>1597.0885</ele>
        <time>2014-06-26T11:23:43Z</time>
      </trkpt>
      <trkpt lat="44.82546" lon="5.48217">
        <ele>1597.0885</ele>
        <time>2014-06-26T11:23:49Z</time>
      </trkpt>
      <trkpt lat="44.82541" lon="5.4822">
        <ele>1596.8279</ele>
        <time>2014-06-26T11:23:54Z</time>
      </trkpt>
      <trkpt lat="44.82536" lon="5.48221">
        <ele>1596.8279</ele>
        <time>2014-06-26T11:23:58Z</time>
      </trkpt>
      <trkpt lat="44.82534" lon="5.48222">
        <ele>1596.8279</ele>
        <time>2014-06-26T11:24:05Z</time>
      </trkpt>
      <trkpt lat="44.82533" lon="5.48227">
        <ele>1596.5498</ele>
        <time>2014-06-26T11:24:07Z</time>
      </trkpt>
      <trkpt lat="44.82527" lon="5.48229">
        <ele>1596.5498</ele>
        <time>2014-06-26T11:24:14Z</time>
      </trkpt>
      <trkpt lat="44.82523" lon="5.48232">
        <ele>1596.2552</ele>
        <time>2014-06-26T11:24:18Z</time>
      </trkpt>
      <trkpt lat="44.82518" lon="5.48232">
        <ele>1596.2552</ele>
        <time>2014-06-26T11:24:22Z</time>
      </trkpt>
      <trkpt lat="44.82515" lon="5.48235">
        <ele>1596.2552</ele>
        <time>2014-06-26T11:24:28Z</time>
      </trkpt>
      <trkpt lat="44.82514" lon="5.48235">
        <ele>1595.9163</ele>
        <time>2014-06-26T11:24:33Z</time>
      </trkpt>
      <trkpt lat="44.82511" lon="5.48238">
        <ele>1595.9163</ele>
        <time>2014-06-26T11:24:38Z</time>
      </trkpt>
      <trkpt lat="44.82506" lon="5.4824">
        <ele>1595.9163</ele>
        <time>2014-06-26T11:24:44Z</time>
      </trkpt>
      <trkpt lat="44.82503" lon="5.48241">
        <ele>1595.4927</ele>
        <time>2014-06-26T11:24:48Z</time>
      </trkpt>
      <trkpt lat="44.825" lon="5.48244">
        <ele>1595.4927</ele>
        <time>2014-06-26T11:24:53Z</time>
      </trkpt>
      <trkpt lat="44.82498" lon="5.48244">
        <ele>1595.4927</ele>
        <time>2014-06-26T11:24:58Z</time>
      </trkpt>
      <trkpt lat="44.82494" lon="5.48242">
        <ele>1595.0625</ele>
        <time>2014-06-26T11:25:02Z</time>
      </trkpt>
      <trkpt lat="44.8249" lon="5.48237">
        <ele>1595.0625</ele>
        <time>2014-06-26T11:25:08Z</time>
      </trkpt>
      <trkpt lat="44.82485" lon="5.48234">
        <ele>1594.6407</ele>
        <time>2014-06-26T11:25:14Z</time>
      </trkpt>
      <trkpt lat="44.82478" lon="5.48231">
        <ele>1594.6407</ele>
        <time>2014-06-26T11:25:19Z</time>
      </trkpt>
      <trkpt lat="44.82474" lon="5.48225">
        <ele>1594.1979</ele>
        <time>2014-06-26T11:25:24Z</time>
      </trkpt>
      <trkpt lat="44.82471" lon="5.48222">
        <ele>1594.1979</ele>
        <time>2014-06-26T11:25:28Z</time>
      </trkpt>
      <trkpt lat="44.8247" lon="5.48216">
        <ele>1594.1979</ele>
        <time>2014-06-26T11:25:34Z</time>
      </trkpt>
      <trkpt lat="44.82468" lon="5.48212">
        <ele>1593.7499</ele>
        <time>2014-06-26T11:25:40Z</time>
      </trkpt>
      <trkpt lat="44.82464" lon="5.48206">
        <ele>1593.7499</ele>
        <time>2014-06-26T11:25:43Z</time>
      </trkpt>
      <trkpt lat="44.82461" lon="5.482">
        <ele>1593.3691</ele>
        <time>2014-06-26T11:25:49Z</time>
      </trkpt>
      <trkpt lat="44.82458" lon="5.48193">
        <ele>1593.3691</ele>
        <time>2014-06-26T11:25:53Z</time>
      </trkpt>
      <trkpt lat="44.82456" lon="5.48188">
        <ele>1593.0072</ele>
        <time>2014-06-26T11:25:59Z</time>
      </trkpt>
      <trkpt lat="44.82455" lon="5.48182">
        <ele>1593.0072</ele>
        <time>2014-06-26T11:26:04Z</time>
      </trkpt>
      <trkpt lat="44.82451" lon="5.48179">
        <ele>1593.0072</ele>
        <time>2014-06-26T11:26:09Z</time>
      </trkpt>
      <trkpt lat="44.82448" lon="5.48175">
        <ele>1592.6338</ele>
        <time>2014-06-26T11:26:14Z</time>
      </trkpt>
      <trkpt lat="44.82444" lon="5.48172">
        <ele>1592.6338</ele>
        <time>2014-06-26T11:26:19Z</time>
      </trkpt>
      <trkpt lat="44.82441" lon="5.48168">
        <ele>1592.6338</ele>
        <time>2014-06-26T11:26:23Z</time>
      </trkpt>
      <trkpt lat="44.82442" lon="5.48163">
        <ele>1592.3069</ele>
        <time>2014-06-26T11:26:29Z</time>
      </trkpt>
      <trkpt lat="44.82441" lon="5.48158">
        <ele>1592.3069</ele>
        <time>2014-06-26T11:26:33Z</time>
      </trkpt>
      <trkpt lat="44.8244" lon="5.48152">
        <ele>1592.3069</ele>
        <time>2014-06-26T11:26:39Z</time>
      </trkpt>
      <trkpt lat="44.82441" lon="5.48145">
        <ele>1592.0374</ele>
        <time>2014-06-26T11:26:44Z</time>
      </trkpt>
      <trkpt lat="44.8244" lon="5.48143">
        <ele>1592.0374</ele>
        <time>2014-06-26T11:26:48Z</time>
      </trkpt>
      <trkpt lat="44.82439" lon="5.48141">
        <ele>1592.0374</ele>
        <time>2014-06-26T11:26:54Z</time>
      </trkpt>
      <trkpt lat="44.82439" lon="5.48139">
        <ele>1592.0374</ele>
        <time>2014-06-26T11:26:58Z</time>
      </trkpt>
      <trkpt lat="44.82437" lon="5.48135">
        <ele>1592.0374</ele>
        <time>2014-06-26T11:27:04Z</time>
      </trkpt>
      <trkpt lat="44.82437" lon="5.48129">
        <ele>1591.8636</ele>
        <time>2014-06-26T11:27:09Z</time>
      </trkpt>
      <trkpt lat="44.82436" lon="5.48124">
        <ele>1591.8636</ele>
        <time>2014-06-26T11:27:14Z</time>
      </trkpt>
      <trkpt lat="44.82434" lon="5.4812">
        <ele>1591.8636</ele>
        <time>2014-06-26T11:27:19Z</time>
      </trkpt>
      <trkpt lat="44.82434" lon="5.48115">
        <ele>1591.7778</ele>
        <time>2014-06-26T11:27:23Z</time>
      </trkpt>
      <trkpt lat="44.82433" lon="5.48112">
        <ele>1591.7778</ele>
        <time>2014-06-26T11:27:28Z</time>
      </trkpt>
      <trkpt lat="44.82433" lon="5.48105">
        <ele>1591.7778</ele>
        <time>2014-06-26T11:27:34Z</time>
      </trkpt>
      <trkpt lat="44.82432" lon="5.48098">
        <ele>1591.7579</ele>
        <time>2014-06-26T11:27:39Z</time>
      </trkpt>
      <trkpt lat="44.82433" lon="5.48092">
        <ele>1591.7579</ele>
        <time>2014-06-26T11:27:44Z</time>
      </trkpt>
      <trkpt lat="44.82433" lon="5.48086">
        <ele>1591.7579</ele>
        <time>2014-06-26T11:27:49Z</time>
      </trkpt>
      <trkpt lat="44.82433" lon="5.4808">
        <ele>1591.8701</ele>
        <time>2014-06-26T11:27:53Z</time>
      </trkpt>
      <trkpt lat="44.82431" lon="5.48073">
        <ele>1591.8701</ele>
        <time>2014-06-26T11:27:59Z</time>
      </trkpt>
      <trkpt lat="44.82429" lon="5.48066">
        <ele>1592.0742</ele>
        <time>2014-06-26T11:28:04Z</time>
      </trkpt>
      <trkpt lat="44.82427" lon="5.48064">
        <ele>1592.0742</ele>
        <time>2014-06-26T11:28:09Z</time>
      </trkpt>
      <trkpt lat="44.82424" lon="5.4806">
        <ele>1592.0742</ele>
        <time>2014-06-26T11:28:14Z</time>
      </trkpt>
      <trkpt lat="44.82422" lon="5.48054">
        <ele>1592.3472</ele>
        <time>2014-06-26T11:28:19Z</time>
      </trkpt>
      <trkpt lat="44.82421" lon="5.4805">
        <ele>1592.3472</ele>
        <time>2014-06-26T11:28:24Z</time>
      </trkpt>
      <trkpt lat="44.82419" lon="5.48049">
        <ele>1592.3472</ele>
        <time>2014-06-26T11:28:29Z</time>
      </trkpt>
      <trkpt lat="44.82413" lon="5.48037">
        <ele>1592.7972</ele>
        <time>2014-06-26T11:29:14Z</time>
      </trkpt>
      <trkpt lat="44.82412" lon="5.4803">
        <ele>1592.7972</ele>
        <time>2014-06-26T11:29:19Z</time>
      </trkpt>
      <trkpt lat="44.82413" lon="5.48024">
        <ele>1593.2504</ele>
        <time>2014-06-26T11:29:23Z</time>
      </trkpt>
      <trkpt lat="44.82409" lon="5.48019">
        <ele>1593.2504</ele>
        <time>2014-06-26T11:29:29Z</time>
      </trkpt>
      <trkpt lat="44.82408" lon="5.48014">
        <ele>1593.2504</ele>
        <time>2014-06-26T11:29:34Z</time>
      </trkpt>
      <trkpt lat="44.82409" lon="5.48008">
        <ele>1593.8192</ele>
        <time>2014-06-26T11:29:39Z</time>
      </trkpt>
      <trkpt lat="44.8241" lon="5.47999">
        <ele>1593.8192</ele>
        <time>2014-06-26T11:29:43Z</time>
      </trkpt>
      <trkpt lat="44.82415" lon="5.47992">
        <ele>1594.4636</ele>
        <time>2014-06-26T11:29:49Z</time>
      </trkpt>
      <trkpt lat="44.82418" lon="5.47987">
        <ele>1594.4636</ele>
        <time>2014-06-26T11:29:54Z</time>
      </trkpt>
      <trkpt lat="44.82425" lon="5.4798">
        <ele>1595.1897</ele>
        <time>2014-06-26T11:29:58Z</time>
      </trkpt>
      <trkpt lat="44.82427" lon="5.47978">
        <ele>1595.1897</ele>
        <time>2014-06-26T11:30:05Z</time>
      </trkpt>
      <trkpt lat="44.82435" lon="5.47972">
        <ele>1595.9882</ele>
        <time>2014-06-26T11:30:08Z</time>
      </trkpt>
      <trkpt lat="44.82439" lon="5.47967">
        <ele>1595.9882</ele>
        <time>2014-06-26T11:30:14Z</time>
      </trkpt>
      <trkpt lat="44.82441" lon="5.47964">
        <ele>1595.9882</ele>
        <time>2014-06-26T11:30:17Z</time>
      </trkpt>
      <trkpt lat="44.82441" lon="5.47964">
        <ele>1595.9882</ele>
        <time>2014-06-26T11:30:23Z</time>
      </trkpt>
      <trkpt lat="44.82442" lon="5.47961">
        <ele>1596.8793</ele>
        <time>2014-06-26T11:30:39Z</time>
      </trkpt>
      <trkpt lat="44.82446" lon="5.47957">
        <ele>1596.8793</ele>
        <time>2014-06-26T11:30:44Z</time>
      </trkpt>
      <trkpt lat="44.82449" lon="5.47949">
        <ele>1597.7664</ele>
        <time>2014-06-26T11:30:49Z</time>
      </trkpt>
      <trkpt lat="44.82451" lon="5.47943">
        <ele>1597.7664</ele>
        <time>2014-06-26T11:30:54Z</time>
      </trkpt>
      <trkpt lat="44.82454" lon="5.47941">
        <ele>1597.7664</ele>
        <time>2014-06-26T11:30:59Z</time>
      </trkpt>
      <trkpt lat="44.82454" lon="5.4794">
        <ele>1598.8912</ele>
        <time>2014-06-26T11:31:04Z</time>
      </trkpt>
      <trkpt lat="44.82454" lon="5.4793">
        <ele>1598.8912</ele>
        <time>2014-06-26T11:31:18Z</time>
      </trkpt>
      <trkpt lat="44.82458" lon="5.47924">
        <ele>1600.2758</ele>
        <time>2014-06-26T11:31:23Z</time>
      </trkpt>
      <trkpt lat="44.82462" lon="5.47918">
        <ele>1600.2758</ele>
        <time>2014-06-26T11:31:28Z</time>
      </trkpt>
      <trkpt lat="44.82464" lon="5.47911">
        <ele>1601.6367</ele>
        <time>2014-06-26T11:31:33Z</time>
      </trkpt>
      <trkpt lat="44.82465" lon="5.47905">
        <ele>1601.6367</ele>
        <time>2014-06-26T11:31:39Z</time>
      </trkpt>
      <trkpt lat="44.82467" lon="5.47901">
        <ele>1601.6367</ele>
        <time>2014-06-26T11:31:43Z</time>
      </trkpt>
      <trkpt lat="44.82467" lon="5.47894">
        <ele>1603.0146</ele>
        <time>2014-06-26T11:31:49Z</time>
      </trkpt>
      <trkpt lat="44.82468" lon="5.47888">
        <ele>1603.0146</ele>
        <time>2014-06-26T11:31:53Z</time>
      </trkpt>
      <trkpt lat="44.82468" lon="5.47884">
        <ele>1603.0146</ele>
        <time>2014-06-26T11:31:58Z</time>
      </trkpt>
      <trkpt lat="44.82469" lon="5.47878">
        <ele>1604.5048</ele>
        <time>2014-06-26T11:32:03Z</time>
      </trkpt>
      <trkpt lat="44.82471" lon="5.47872">
        <ele>1604.5048</ele>
        <time>2014-06-26T11:32:09Z</time>
      </trkpt>
      <trkpt lat="44.82474" lon="5.47867">
        <ele>1606.0653</ele>
        <time>2014-06-26T11:32:13Z</time>
      </trkpt>
      <trkpt lat="44.82481" lon="5.47863">
        <ele>1606.0653</ele>
        <time>2014-06-26T11:32:18Z</time>
      </trkpt>
      <trkpt lat="44.82483" lon="5.47857">
        <ele>1607.6863</ele>
        <time>2014-06-26T11:32:23Z</time>
      </trkpt>
      <trkpt lat="44.82486" lon="5.47851">
        <ele>1607.6863</ele>
        <time>2014-06-26T11:32:29Z</time>
      </trkpt>
      <trkpt lat="44.82486" lon="5.47841">
        <ele>1609.2432</ele>
        <time>2014-06-26T11:32:34Z</time>
      </trkpt>
      <trkpt lat="44.82485" lon="5.47834">
        <ele>1609.2432</ele>
        <time>2014-06-26T11:32:38Z</time>
      </trkpt>
      <trkpt lat="44.82485" lon="5.47827">
        <ele>1610.7073</ele>
        <time>2014-06-26T11:32:44Z</time>
      </trkpt>
      <trkpt lat="44.82484" lon="5.47824">
        <ele>1610.7073</ele>
        <time>2014-06-26T11:32:48Z</time>
      </trkpt>
      <trkpt lat="44.8248" lon="5.47821">
        <ele>1610.7073</ele>
        <time>2014-06-26T11:32:54Z</time>
      </trkpt>
      <trkpt lat="44.82478" lon="5.47815">
        <ele>1612.2976</ele>
        <time>2014-06-26T11:32:59Z</time>
      </trkpt>
      <trkpt lat="44.82473" lon="5.4781">
        <ele>1612.2976</ele>
        <time>2014-06-26T11:33:04Z</time>
      </trkpt>
      <trkpt lat="44.8247" lon="5.47805">
        <ele>1613.9572</ele>
        <time>2014-06-26T11:33:09Z</time>
      </trkpt>
      <trkpt lat="44.8247" lon="5.47797">
        <ele>1613.9572</ele>
        <time>2014-06-26T11:33:13Z</time>
      </trkpt>
      <trkpt lat="44.82466" lon="5.47794">
        <ele>1615.7197</ele>
        <time>2014-06-26T11:33:18Z</time>
      </trkpt>
      <trkpt lat="44.82462" lon="5.47787">
        <ele>1615.7197</ele>
        <time>2014-06-26T11:33:24Z</time>
      </trkpt>
      <trkpt lat="44.82461" lon="5.47782">
        <ele>1617.7172</ele>
        <time>2014-06-26T11:33:28Z</time>
      </trkpt>
      <trkpt lat="44.82462" lon="5.47778">
        <ele>1617.7172</ele>
        <time>2014-06-26T11:33:34Z</time>
      </trkpt>
      <trkpt lat="44.82462" lon="5.47771">
        <ele>1617.7172</ele>
        <time>2014-06-26T11:33:38Z</time>
      </trkpt>
      <trkpt lat="44.8246" lon="5.47769">
        <ele>1619.783</ele>
        <time>2014-06-26T11:33:44Z</time>
      </trkpt>
      <trkpt lat="44.82456" lon="5.47769">
        <ele>1619.783</ele>
        <time>2014-06-26T11:33:49Z</time>
      </trkpt>
      <trkpt lat="44.82452" lon="5.47768">
        <ele>1619.783</ele>
        <time>2014-06-26T11:33:54Z</time>
      </trkpt>
      <trkpt lat="44.8245" lon="5.47767">
        <ele>1622.0511</ele>
        <time>2014-06-26T11:33:59Z</time>
      </trkpt>
      <trkpt lat="44.82449" lon="5.47765">
        <ele>1622.0511</ele>
        <time>2014-06-26T11:34:04Z</time>
      </trkpt>
      <trkpt lat="44.82447" lon="5.47762">
        <ele>1622.0511</ele>
        <time>2014-06-26T11:34:08Z</time>
      </trkpt>
      <trkpt lat="44.82445" lon="5.4776">
        <ele>1622.0511</ele>
        <time>2014-06-26T11:34:14Z</time>
      </trkpt>
      <trkpt lat="44.82445" lon="5.47758">
        <ele>1622.0511</ele>
        <time>2014-06-26T11:34:19Z</time>
      </trkpt>
      <trkpt lat="44.82452" lon="5.4775">
        <ele>1624.4436</ele>
        <time>2014-06-26T11:34:54Z</time>
      </trkpt>
      <trkpt lat="44.82442" lon="5.4775">
        <ele>1626.6428</ele>
        <time>2014-06-26T11:35:28Z</time>
      </trkpt>
      <trkpt lat="44.82441" lon="5.47749">
        <ele>1626.6428</ele>
        <time>2014-06-26T11:35:34Z</time>
      </trkpt>
      <trkpt lat="44.8244" lon="5.47751">
        <ele>1626.6428</ele>
        <time>2014-06-26T11:35:59Z</time>
      </trkpt>
      <trkpt lat="44.8244" lon="5.47751">
        <ele>1626.6428</ele>
        <time>2014-06-26T11:36:04Z</time>
      </trkpt>
      <trkpt lat="44.8244" lon="5.47747">
        <ele>1626.6428</ele>
        <time>2014-06-26T11:36:12Z</time>
      </trkpt>
      <trkpt lat="44.82439" lon="5.47746">
        <ele>1626.6428</ele>
        <time>2014-06-26T11:36:19Z</time>
      </trkpt>
      <trkpt lat="44.8243" lon="5.47743">
        <ele>1628.9316</ele>
        <time>2014-06-26T11:37:23Z</time>
      </trkpt>
      <trkpt lat="44.82435" lon="5.47745">
        <ele>1628.9316</ele>
        <time>2014-06-26T11:37:58Z</time>
      </trkpt>
      <trkpt lat="44.82437" lon="5.47749">
        <ele>1628.9316</ele>
        <time>2014-06-26T11:38:04Z</time>
      </trkpt>
      <trkpt lat="44.82437" lon="5.47749">
        <ele>1628.9316</ele>
        <time>2014-06-26T11:38:09Z</time>
      </trkpt>
      <trkpt lat="44.82442" lon="5.4775">
        <ele>1630.9092</ele>
        <time>2014-06-26T11:38:29Z</time>
      </trkpt>
      <trkpt lat="44.82449" lon="5.47742">
        <ele>1632.6086</ele>
        <time>2014-06-26T11:38:34Z</time>
      </trkpt>
      <trkpt lat="44.8245" lon="5.47738">
        <ele>1632.6086</ele>
        <time>2014-06-26T11:38:39Z</time>
      </trkpt>
      <trkpt lat="44.8245" lon="5.47736">
        <ele>1632.6086</ele>
        <time>2014-06-26T11:38:43Z</time>
      </trkpt>
      <trkpt lat="44.82452" lon="5.4773">
        <ele>1634.1337</ele>
        <time>2014-06-26T11:38:49Z</time>
      </trkpt>
      <trkpt lat="44.82452" lon="5.47723">
        <ele>1634.1337</ele>
        <time>2014-06-26T11:38:54Z</time>
      </trkpt>
      <trkpt lat="44.82449" lon="5.47716">
        <ele>1635.5089</ele>
        <time>2014-06-26T11:38:58Z</time>
      </trkpt>
      <trkpt lat="44.82447" lon="5.47707">
        <ele>1635.5089</ele>
        <time>2014-06-26T11:39:04Z</time>
      </trkpt>
      <trkpt lat="44.82443" lon="5.47697">
        <ele>1636.8301</ele>
        <time>2014-06-26T11:39:08Z</time>
      </trkpt>
      <trkpt lat="44.82441" lon="5.47691">
        <ele>1636.8301</ele>
        <time>2014-06-26T11:39:13Z</time>
      </trkpt>
      <trkpt lat="44.82438" lon="5.47681">
        <ele>1637.9983</ele>
        <time>2014-06-26T11:39:19Z</time>
      </trkpt>
      <trkpt lat="44.82436" lon="5.47675">
        <ele>1637.9983</ele>
        <time>2014-06-26T11:39:23Z</time>
      </trkpt>
      <trkpt lat="44.82436" lon="5.47668">
        <ele>1638.9951</ele>
        <time>2014-06-26T11:39:28Z</time>
      </trkpt>
      <trkpt lat="44.82437" lon="5.47663">
        <ele>1638.9951</ele>
        <time>2014-06-26T11:39:34Z</time>
      </trkpt>
      <trkpt lat="44.82437" lon="5.47659">
        <ele>1638.9951</ele>
        <time>2014-06-26T11:39:39Z</time>
      </trkpt>
      <trkpt lat="44.82437" lon="5.47658">
        <ele>1638.9951</ele>
        <time>2014-06-26T11:39:43Z</time>
      </trkpt>
      <trkpt lat="44.82431" lon="5.47644">
        <ele>1640.0918</ele>
        <time>2014-06-26T11:40:04Z</time>
      </trkpt>
      <trkpt lat="44.82431" lon="5.47641">
        <ele>1640.0918</ele>
        <time>2014-06-26T11:40:08Z</time>
      </trkpt>
      <trkpt lat="44.82431" lon="5.47639">
        <ele>1640.0918</ele>
        <time>2014-06-26T11:40:13Z</time>
      </trkpt>
      <trkpt lat="44.82429" lon="5.47637">
        <ele>1640.0918</ele>
        <time>2014-06-26T11:40:19Z</time>
      </trkpt>
      <trkpt lat="44.8243" lon="5.47637">
        <ele>1640.0918</ele>
        <time>2014-06-26T11:40:24Z</time>
      </trkpt>
      <trkpt lat="44.82426" lon="5.47634">
        <ele>1641.05</ele>
        <time>2014-06-26T11:40:28Z</time>
      </trkpt>
      <trkpt lat="44.82424" lon="5.47636">
        <ele>1641.05</ele>
        <time>2014-06-26T11:40:34Z</time>
      </trkpt>
      <trkpt lat="44.82422" lon="5.47638">
        <ele>1641.05</ele>
        <time>2014-06-26T11:40:38Z</time>
      </trkpt>
      <trkpt lat="44.82419" lon="5.47635">
        <ele>1641.05</ele>
        <time>2014-06-26T11:40:44Z</time>
      </trkpt>
      <trkpt lat="44.82417" lon="5.47632">
        <ele>1641.8221</ele>
        <time>2014-06-26T11:40:49Z</time>
      </trkpt>
      <trkpt lat="44.82417" lon="5.47625">
        <ele>1641.8221</ele>
        <time>2014-06-26T11:40:53Z</time>
      </trkpt>
      <trkpt lat="44.82418" lon="5.47616">
        <ele>1642.379</ele>
        <time>2014-06-26T11:40:59Z</time>
      </trkpt>
      <trkpt lat="44.82416" lon="5.47609">
        <ele>1642.379</ele>
        <time>2014-06-26T11:41:04Z</time>
      </trkpt>
      <trkpt lat="44.82414" lon="5.47604">
        <ele>1642.8676</ele>
        <time>2014-06-26T11:41:09Z</time>
      </trkpt>
      <trkpt lat="44.82413" lon="5.47604">
        <ele>1642.8676</ele>
        <time>2014-06-26T11:41:14Z</time>
      </trkpt>
      <trkpt lat="44.82413" lon="5.47596">
        <ele>1642.8676</ele>
        <time>2014-06-26T11:41:19Z</time>
      </trkpt>
      <trkpt lat="44.82413" lon="5.47589">
        <ele>1643.2507</ele>
        <time>2014-06-26T11:41:24Z</time>
      </trkpt>
      <trkpt lat="44.82413" lon="5.47585">
        <ele>1643.2507</ele>
        <time>2014-06-26T11:41:29Z</time>
      </trkpt>
      <trkpt lat="44.82414" lon="5.47579">
        <ele>1643.2507</ele>
        <time>2014-06-26T11:41:33Z</time>
      </trkpt>
      <trkpt lat="44.82416" lon="5.47574">
        <ele>1643.4807</ele>
        <time>2014-06-26T11:41:39Z</time>
      </trkpt>
      <trkpt lat="44.82418" lon="5.47568">
        <ele>1643.4807</ele>
        <time>2014-06-26T11:41:44Z</time>
      </trkpt>
      <trkpt lat="44.82419" lon="5.47561">
        <ele>1643.5854</ele>
        <time>2014-06-26T11:41:49Z</time>
      </trkpt>
      <trkpt lat="44.82418" lon="5.47555">
        <ele>1643.5854</ele>
        <time>2014-06-26T11:41:54Z</time>
      </trkpt>
      <trkpt lat="44.8242" lon="5.47549">
        <ele>1643.5626</ele>
        <time>2014-06-26T11:41:58Z</time>
      </trkpt>
      <trkpt lat="44.82422" lon="5.47546">
        <ele>1643.5626</ele>
        <time>2014-06-26T11:42:03Z</time>
      </trkpt>
      <trkpt lat="44.82425" lon="5.47542">
        <ele>1643.5626</ele>
        <time>2014-06-26T11:42:08Z</time>
      </trkpt>
      <trkpt lat="44.82428" lon="5.47534">
        <ele>1643.3958</ele>
        <time>2014-06-26T11:42:14Z</time>
      </trkpt>
      <trkpt lat="44.82428" lon="5.47527">
        <ele>1643.3958</ele>
        <time>2014-06-26T11:42:19Z</time>
      </trkpt>
      <trkpt lat="44.82427" lon="5.47521">
        <ele>1643.128</ele>
        <time>2014-06-26T11:42:24Z</time>
      </trkpt>
      <trkpt lat="44.82427" lon="5.47515">
        <ele>1643.128</ele>
        <time>2014-06-26T11:42:31Z</time>
      </trkpt>
      <trkpt lat="44.82426" lon="5.47511">
        <ele>1643.128</ele>
        <time>2014-06-26T11:42:33Z</time>
      </trkpt>
      <trkpt lat="44.82428" lon="5.47503">
        <ele>1642.7562</ele>
        <time>2014-06-26T11:42:38Z</time>
      </trkpt>
      <trkpt lat="44.82428" lon="5.475">
        <ele>1642.7562</ele>
        <time>2014-06-26T11:42:44Z</time>
      </trkpt>
      <trkpt lat="44.82429" lon="5.47501">
        <ele>1642.7562</ele>
        <time>2014-06-26T11:42:49Z</time>
      </trkpt>
      <trkpt lat="44.82431" lon="5.47504">
        <ele>1642.7562</ele>
        <time>2014-06-26T11:42:54Z</time>
      </trkpt>
      <trkpt lat="44.82433" lon="5.47506">
        <ele>1642.1481</ele>
        <time>2014-06-26T11:42:59Z</time>
      </trkpt>
      <trkpt lat="44.8243" lon="5.47504">
        <ele>1642.1481</ele>
        <time>2014-06-26T11:43:09Z</time>
      </trkpt>
      <trkpt lat="44.82429" lon="5.47498">
        <ele>1642.1481</ele>
        <time>2014-06-26T11:43:13Z</time>
      </trkpt>
      <trkpt lat="44.82429" lon="5.47494">
        <ele>1641.5275</ele>
        <time>2014-06-26T11:43:19Z</time>
      </trkpt>
      <trkpt lat="44.82428" lon="5.4749">
        <ele>1641.5275</ele>
        <time>2014-06-26T11:43:24Z</time>
      </trkpt>
      <trkpt lat="44.82431" lon="5.47484">
        <ele>1641.5275</ele>
        <time>2014-06-26T11:43:28Z</time>
      </trkpt>
      <trkpt lat="44.82431" lon="5.47479">
        <ele>1640.7706</ele>
        <time>2014-06-26T11:43:34Z</time>
      </trkpt>
      <trkpt lat="44.82428" lon="5.47472">
        <ele>1640.7706</ele>
        <time>2014-06-26T11:43:39Z</time>
      </trkpt>
      <trkpt lat="44.82427" lon="5.47466">
        <ele>1639.9792</ele>
        <time>2014-06-26T11:43:45Z</time>
      </trkpt>
      <trkpt lat="44.82425" lon="5.4746">
        <ele>1639.9792</ele>
        <time>2014-06-26T11:43:48Z</time>
      </trkpt>
      <trkpt lat="44.82424" lon="5.47458">
        <ele>1639.9792</ele>
        <time>2014-06-26T11:43:54Z</time>
      </trkpt>
      <trkpt lat="44.82424" lon="5.47452">
        <ele>1639.1465</ele>
        <time>2014-06-26T11:43:59Z</time>
      </trkpt>
      <trkpt lat="44.82425" lon="5.4745">
        <ele>1639.1465</ele>
        <time>2014-06-26T11:44:04Z</time>
      </trkpt>
      <trkpt lat="44.82423" lon="5.47445">
        <ele>1639.1465</ele>
        <time>2014-06-26T11:44:08Z</time>
      </trkpt>
      <trkpt lat="44.82425" lon="5.47441">
        <ele>1639.1465</ele>
        <time>2014-06-26T11:44:14Z</time>
      </trkpt>
      <trkpt lat="44.82427" lon="5.47435">
        <ele>1638.2233</ele>
        <time>2014-06-26T11:44:19Z</time>
      </trkpt>
      <trkpt lat="44.82428" lon="5.4743">
        <ele>1638.2233</ele>
        <time>2014-06-26T11:44:23Z</time>
      </trkpt>
      <trkpt lat="44.82427" lon="5.47428">
        <ele>1638.2233</ele>
        <time>2014-06-26T11:44:29Z</time>
      </trkpt>
      <trkpt lat="44.82426" lon="5.47428">
        <ele>1638.2233</ele>
        <time>2014-06-26T11:44:33Z</time>
      </trkpt>
      <trkpt lat="44.82422" lon="5.47421">
        <ele>1637.3369</ele>
        <time>2014-06-26T11:44:48Z</time>
      </trkpt>
      <trkpt lat="44.82423" lon="5.47412">
        <ele>1637.3369</ele>
        <time>2014-06-26T11:44:54Z</time>
      </trkpt>
      <trkpt lat="44.8242" lon="5.47407">
        <ele>1636.5908</ele>
        <time>2014-06-26T11:44:59Z</time>
      </trkpt>
      <trkpt lat="44.8242" lon="5.47404">
        <ele>1636.5908</ele>
        <time>2014-06-26T11:45:02Z</time>
      </trkpt>
      <trkpt lat="44.82421" lon="5.47406">
        <ele>1636.5908</ele>
        <time>2014-06-26T11:45:09Z</time>
      </trkpt>
      <trkpt lat="44.82415" lon="5.47397">
        <ele>1635.8068</ele>
        <time>2014-06-26T11:45:23Z</time>
      </trkpt>
      <trkpt lat="44.82415" lon="5.47388">
        <ele>1635.8068</ele>
        <time>2014-06-26T11:45:29Z</time>
      </trkpt>
      <trkpt lat="44.82415" lon="5.4738">
        <ele>1635.093</ele>
        <time>2014-06-26T11:45:34Z</time>
      </trkpt>
      <trkpt lat="44.82415" lon="5.47374">
        <ele>1635.093</ele>
        <time>2014-06-26T11:45:38Z</time>
      </trkpt>
      <trkpt lat="44.82413" lon="5.47366">
        <ele>1634.3914</ele>
        <time>2014-06-26T11:45:44Z</time>
      </trkpt>
      <trkpt lat="44.8241" lon="5.47363">
        <ele>1634.3914</ele>
        <time>2014-06-26T11:45:49Z</time>
      </trkpt>
      <trkpt lat="44.82408" lon="5.47364">
        <ele>1634.3914</ele>
        <time>2014-06-26T11:45:54Z</time>
      </trkpt>
      <trkpt lat="44.82402" lon="5.47363">
        <ele>1633.7052</ele>
        <time>2014-06-26T11:46:00Z</time>
      </trkpt>
      <trkpt lat="44.824" lon="5.4736">
        <ele>1633.7052</ele>
        <time>2014-06-26T11:46:03Z</time>
      </trkpt>
      <trkpt lat="44.82396" lon="5.47357">
        <ele>1633.7052</ele>
        <time>2014-06-26T11:46:08Z</time>
      </trkpt>
      <trkpt lat="44.82394" lon="5.47352">
        <ele>1632.9657</ele>
        <time>2014-06-26T11:46:14Z</time>
      </trkpt>
      <trkpt lat="44.82393" lon="5.47347">
        <ele>1632.9657</ele>
        <time>2014-06-26T11:46:19Z</time>
      </trkpt>
      <trkpt lat="44.82391" lon="5.47339">
        <ele>1632.2963</ele>
        <time>2014-06-26T11:46:26Z</time>
      </trkpt>
      <trkpt lat="44.8239" lon="5.47336">
        <ele>1632.2963</ele>
        <time>2014-06-26T11:46:27Z</time>
      </trkpt>
      <trkpt lat="44.82389" lon="5.47331">
        <ele>1632.2963</ele>
        <time>2014-06-26T11:46:44Z</time>
      </trkpt>
      <trkpt lat="44.82386" lon="5.47327">
        <ele>1631.782</ele>
        <time>2014-06-26T11:46:49Z</time>
      </trkpt>
      <trkpt lat="44.82383" lon="5.47322">
        <ele>1631.782</ele>
        <time>2014-06-26T11:46:53Z</time>
      </trkpt>
      <trkpt lat="44.82382" lon="5.4732">
        <ele>1631.782</ele>
        <time>2014-06-26T11:46:59Z</time>
      </trkpt>
      <trkpt lat="44.82378" lon="5.47315">
        <ele>1631.4725</ele>
        <time>2014-06-26T11:47:04Z</time>
      </trkpt>
      <trkpt lat="44.82375" lon="5.47311">
        <ele>1631.4725</ele>
        <time>2014-06-26T11:47:09Z</time>
      </trkpt>
      <trkpt lat="44.82375" lon="5.47311">
        <ele>1631.4725</ele>
        <time>2014-06-26T11:47:13Z</time>
      </trkpt>
      <trkpt lat="44.82374" lon="5.4731">
        <ele>1631.4725</ele>
        <time>2014-06-26T11:47:39Z</time>
      </trkpt>
      <trkpt lat="44.82376" lon="5.47307">
        <ele>1631.4725</ele>
        <time>2014-06-26T11:47:44Z</time>
      </trkpt>
      <trkpt lat="44.82377" lon="5.47304">
        <ele>1632.033</ele>
        <time>2014-06-26T11:47:49Z</time>
      </trkpt>
      <trkpt lat="44.82377" lon="5.47301">
        <ele>1632.033</ele>
        <time>2014-06-26T11:47:54Z</time>
      </trkpt>
      <trkpt lat="44.82379" lon="5.47296">
        <ele>1632.033</ele>
        <time>2014-06-26T11:47:57Z</time>
      </trkpt>
      <trkpt lat="44.82379" lon="5.47294">
        <ele>1632.033</ele>
        <time>2014-06-26T11:48:03Z</time>
      </trkpt>
      <trkpt lat="44.8238" lon="5.47292">
        <ele>1632.8661</ele>
        <time>2014-06-26T11:48:09Z</time>
      </trkpt>
      <trkpt lat="44.82379" lon="5.4729">
        <ele>1632.8661</ele>
        <time>2014-06-26T11:48:14Z</time>
      </trkpt>
      <trkpt lat="44.82379" lon="5.4729">
        <ele>1632.8661</ele>
        <time>2014-06-26T11:48:19Z</time>
      </trkpt>
      <trkpt lat="44.8238" lon="5.47287">
        <ele>1632.8661</ele>
        <time>2014-06-26T11:48:24Z</time>
      </trkpt>
      <trkpt lat="44.8238" lon="5.47285">
        <ele>1632.8661</ele>
        <time>2014-06-26T11:48:28Z</time>
      </trkpt>
      <trkpt lat="44.82382" lon="5.47278">
        <ele>1633.8359</ele>
        <time>2014-06-26T11:48:34Z</time>
      </trkpt>
      <trkpt lat="44.82382" lon="5.47277">
        <ele>1633.8359</ele>
        <time>2014-06-26T11:48:39Z</time>
      </trkpt>
      <trkpt lat="44.82383" lon="5.47273">
        <ele>1633.8359</ele>
        <time>2014-06-26T11:48:44Z</time>
      </trkpt>
      <trkpt lat="44.82382" lon="5.47271">
        <ele>1633.8359</ele>
        <time>2014-06-26T11:48:49Z</time>
      </trkpt>
      <trkpt lat="44.82382" lon="5.47268">
        <ele>1633.8359</ele>
        <time>2014-06-26T11:48:53Z</time>
      </trkpt>
      <trkpt lat="44.82382" lon="5.47268">
        <ele>1633.8359</ele>
        <time>2014-06-26T11:48:59Z</time>
      </trkpt>
      <trkpt lat="44.8238" lon="5.47266">
        <ele>1635.0319</ele>
        <time>2014-06-26T11:49:08Z</time>
      </trkpt>
      <trkpt lat="44.82379" lon="5.47267">
        <ele>1635.0319</ele>
        <time>2014-06-26T11:49:13Z</time>
      </trkpt>
      <trkpt lat="44.82378" lon="5.47263">
        <ele>1635.0319</ele>
        <time>2014-06-26T11:49:23Z</time>
      </trkpt>
      <trkpt lat="44.82378" lon="5.47258">
        <ele>1635.0319</ele>
        <time>2014-06-26T11:49:29Z</time>
      </trkpt>
      <trkpt lat="44.8238" lon="5.47256">
        <ele>1636.3346</ele>
        <time>2014-06-26T11:49:34Z</time>
      </trkpt>
      <trkpt lat="44.82378" lon="5.47255">
        <ele>1636.3346</ele>
        <time>2014-06-26T11:49:39Z</time>
      </trkpt>
      <trkpt lat="44.8238" lon="5.47253">
        <ele>1636.3346</ele>
        <time>2014-06-26T11:49:43Z</time>
      </trkpt>
      <trkpt lat="44.82381" lon="5.4725">
        <ele>1636.3346</ele>
        <time>2014-06-26T11:49:49Z</time>
      </trkpt>
      <trkpt lat="44.8238" lon="5.47237">
        <ele>1638.6416</ele>
        <time>2014-06-26T11:51:14Z</time>
      </trkpt>
      <trkpt lat="44.8238" lon="5.47236">
        <ele>1638.6416</ele>
        <time>2014-06-26T11:51:18Z</time>
      </trkpt>
      <trkpt lat="44.82381" lon="5.47223">
        <ele>1642.0902</ele>
        <time>2014-06-26T11:53:39Z</time>
      </trkpt>
      <trkpt lat="44.82381" lon="5.4722">
        <ele>1642.0902</ele>
        <time>2014-06-26T11:53:44Z</time>
      </trkpt>
      <trkpt lat="44.8238" lon="5.4722">
        <ele>1642.0902</ele>
        <time>2014-06-26T11:53:49Z</time>
      </trkpt>
      <trkpt lat="44.82385" lon="5.47215">
        <ele>1642.0902</ele>
        <time>2014-06-26T11:54:04Z</time>
      </trkpt>
      <trkpt lat="44.82386" lon="5.47213">
        <ele>1645.7087</ele>
        <time>2014-06-26T11:54:08Z</time>
      </trkpt>
      <trkpt lat="44.82387" lon="5.47213">
        <ele>1645.7087</ele>
        <time>2014-06-26T11:54:14Z</time>
      </trkpt>
      <trkpt lat="44.82388" lon="5.47214">
        <ele>1645.7087</ele>
        <time>2014-06-26T11:54:23Z</time>
      </trkpt>
      <trkpt lat="44.8239" lon="5.47209">
        <ele>1645.7087</ele>
        <time>2014-06-26T11:54:29Z</time>
      </trkpt>
      <trkpt lat="44.82388" lon="5.4721">
        <ele>1645.7087</ele>
        <time>2014-06-26T11:54:34Z</time>
      </trkpt>
      <trkpt lat="44.82387" lon="5.47205">
        <ele>1649.1877</ele>
        <time>2014-06-26T11:54:54Z</time>
      </trkpt>
      <trkpt lat="44.82388" lon="5.47205">
        <ele>1649.1877</ele>
        <time>2014-06-26T11:54:59Z</time>
      </trkpt>
      <trkpt lat="44.82386" lon="5.47205">
        <ele>1649.1877</ele>
        <time>2014-06-26T11:55:08Z</time>
      </trkpt>
      <trkpt lat="44.82387" lon="5.47209">
        <ele>1649.1877</ele>
        <time>2014-06-26T11:55:14Z</time>
      </trkpt>
      <trkpt lat="44.82388" lon="5.47208">
        <ele>1649.1877</ele>
        <time>2014-06-26T11:55:19Z</time>
      </trkpt>
      <trkpt lat="44.82389" lon="5.47203">
        <ele>1652.4712</ele>
        <time>2014-06-26T11:55:24Z</time>
      </trkpt>
      <trkpt lat="44.82389" lon="5.47203">
        <ele>1652.4712</ele>
        <time>2014-06-26T11:55:28Z</time>
      </trkpt>
      <trkpt lat="44.82389" lon="5.47198">
        <ele>1652.4712</ele>
        <time>2014-06-26T11:55:43Z</time>
      </trkpt>
      <trkpt lat="44.82389" lon="5.47198">
        <ele>1652.4712</ele>
        <time>2014-06-26T11:55:49Z</time>
      </trkpt>
      <trkpt lat="44.8239" lon="5.47197">
        <ele>1652.4712</ele>
        <time>2014-06-26T11:55:53Z</time>
      </trkpt>
      <trkpt lat="44.82389" lon="5.47199">
        <ele>1652.4712</ele>
        <time>2014-06-26T11:55:59Z</time>
      </trkpt>
      <trkpt lat="44.82389" lon="5.47202">
        <ele>1652.4712</ele>
        <time>2014-06-26T11:56:19Z</time>
      </trkpt>
      <trkpt lat="44.82389" lon="5.47195">
        <ele>1656.1129</ele>
        <time>2014-06-26T11:56:24Z</time>
      </trkpt>
      <trkpt lat="44.82388" lon="5.4719">
        <ele>1656.1129</ele>
        <time>2014-06-26T11:56:29Z</time>
      </trkpt>
      <trkpt lat="44.82387" lon="5.47183">
        <ele>1656.1129</ele>
        <time>2014-06-26T11:56:34Z</time>
      </trkpt>
      <trkpt lat="44.82389" lon="5.47178">
        <ele>1659.6309</ele>
        <time>2014-06-26T11:56:38Z</time>
      </trkpt>
      <trkpt lat="44.82389" lon="5.47176">
        <ele>1659.6309</ele>
        <time>2014-06-26T11:56:44Z</time>
      </trkpt>
      <trkpt lat="44.82394" lon="5.47166">
        <ele>1662.9249</ele>
        <time>2014-06-26T11:56:48Z</time>
      </trkpt>
      <trkpt lat="44.82392" lon="5.47161">
        <ele>1662.9249</ele>
        <time>2014-06-26T11:56:53Z</time>
      </trkpt>
      <trkpt lat="44.82394" lon="5.47155">
        <ele>1662.9249</ele>
        <time>2014-06-26T11:56:59Z</time>
      </trkpt>
      <trkpt lat="44.82396" lon="5.47154">
        <ele>1666.2919</ele>
        <time>2014-06-26T11:57:04Z</time>
      </trkpt>
      <trkpt lat="44.82397" lon="5.47147">
        <ele>1666.2919</ele>
        <time>2014-06-26T11:57:09Z</time>
      </trkpt>
      <trkpt lat="44.82396" lon="5.47141">
        <ele>1666.2919</ele>
        <time>2014-06-26T11:57:13Z</time>
      </trkpt>
      <trkpt lat="44.82395" lon="5.47137">
        <ele>1669.7904</ele>
        <time>2014-06-26T11:57:19Z</time>
      </trkpt>
      <trkpt lat="44.82395" lon="5.47137">
        <ele>1669.7904</ele>
        <time>2014-06-26T11:57:23Z</time>
      </trkpt>
      <trkpt lat="44.82395" lon="5.47126">
        <ele>1669.7904</ele>
        <time>2014-06-26T11:57:29Z</time>
      </trkpt>
      <trkpt lat="44.82395" lon="5.47126">
        <ele>1669.7904</ele>
        <time>2014-06-26T11:57:34Z</time>
      </trkpt>
      <trkpt lat="44.82395" lon="5.47114">
        <ele>1673.057</ele>
        <time>2014-06-26T11:57:39Z</time>
      </trkpt>
      <trkpt lat="44.82396" lon="5.47109">
        <ele>1673.057</ele>
        <time>2014-06-26T11:57:44Z</time>
      </trkpt>
      <trkpt lat="44.82396" lon="5.47102">
        <ele>1673.057</ele>
        <time>2014-06-26T11:57:49Z</time>
      </trkpt>
      <trkpt lat="44.824" lon="5.47093">
        <ele>1676.3319</ele>
        <time>2014-06-26T11:57:54Z</time>
      </trkpt>
      <trkpt lat="44.824" lon="5.47084">
        <ele>1676.3319</ele>
        <time>2014-06-26T11:57:58Z</time>
      </trkpt>
      <trkpt lat="44.82399" lon="5.47079">
        <ele>1679.5353</ele>
        <time>2014-06-26T11:58:03Z</time>
      </trkpt>
      <trkpt lat="44.82399" lon="5.47073">
        <ele>1679.5353</ele>
        <time>2014-06-26T11:58:09Z</time>
      </trkpt>
      <trkpt lat="44.82402" lon="5.47068">
        <ele>1682.579</ele>
        <time>2014-06-26T11:58:13Z</time>
      </trkpt>
      <trkpt lat="44.82406" lon="5.47062">
        <ele>1682.579</ele>
        <time>2014-06-26T11:58:19Z</time>
      </trkpt>
      <trkpt lat="44.82406" lon="5.47056">
        <ele>1685.8287</ele>
        <time>2014-06-26T11:58:24Z</time>
      </trkpt>
      <trkpt lat="44.82406" lon="5.47047">
        <ele>1685.8287</ele>
        <time>2014-06-26T11:58:28Z</time>
      </trkpt>
      <trkpt lat="44.82402" lon="5.47041">
        <ele>1689.0325</ele>
        <time>2014-06-26T11:58:34Z</time>
      </trkpt>
      <trkpt lat="44.824" lon="5.47034">
        <ele>1689.0325</ele>
        <time>2014-06-26T11:58:38Z</time>
      </trkpt>
      <trkpt lat="44.82398" lon="5.47029">
        <ele>1692.2302</ele>
        <time>2014-06-26T11:58:43Z</time>
      </trkpt>
      <trkpt lat="44.82398" lon="5.47028">
        <ele>1692.2302</ele>
        <time>2014-06-26T11:58:48Z</time>
      </trkpt>
      <trkpt lat="44.82397" lon="5.47027">
        <ele>1692.2302</ele>
        <time>2014-06-26T11:58:54Z</time>
      </trkpt>
      <trkpt lat="44.82393" lon="5.47026">
        <ele>1692.2302</ele>
        <time>2014-06-26T11:59:23Z</time>
      </trkpt>
      <trkpt lat="44.82393" lon="5.47026">
        <ele>1692.2302</ele>
        <time>2014-06-26T11:59:28Z</time>
      </trkpt>
      <trkpt lat="44.82398" lon="5.47022">
        <ele>1695.258</ele>
        <time>2014-06-26T11:59:34Z</time>
      </trkpt>
      <trkpt lat="44.82398" lon="5.47022">
        <ele>1695.258</ele>
        <time>2014-06-26T11:59:39Z</time>
      </trkpt>
      <trkpt lat="44.82404" lon="5.47024">
        <ele>1695.258</ele>
        <time>2014-06-26T11:59:54Z</time>
      </trkpt>
      <trkpt lat="44.82405" lon="5.47024">
        <ele>1695.258</ele>
        <time>2014-06-26T11:59:58Z</time>
      </trkpt>
      <trkpt lat="44.82407" lon="5.47019">
        <ele>1697.9067</ele>
        <time>2014-06-26T12:00:09Z</time>
      </trkpt>
      <trkpt lat="44.82408" lon="5.47016">
        <ele>1697.9067</ele>
        <time>2014-06-26T12:00:14Z</time>
      </trkpt>
      <trkpt lat="44.82409" lon="5.47015">
        <ele>1697.9067</ele>
        <time>2014-06-26T12:00:19Z</time>
      </trkpt>
      <trkpt lat="44.8241" lon="5.47012">
        <ele>1697.9067</ele>
        <time>2014-06-26T12:00:29Z</time>
      </trkpt>
      <trkpt lat="44.82409" lon="5.4701">
        <ele>1697.9067</ele>
        <time>2014-06-26T12:51:25Z</time>
      </trkpt>
      <trkpt lat="44.8241" lon="5.4701">
        <ele>1700.4594</ele>
        <time>2014-06-26T12:51:30Z</time>
      </trkpt>
      <trkpt lat="44.82419" lon="5.47019">
        <ele>1703.0922</ele>
        <time>2014-06-26T12:55:27Z</time>
      </trkpt>
      <trkpt lat="44.82421" lon="5.47019">
        <ele>1703.0922</ele>
        <time>2014-06-26T12:55:31Z</time>
      </trkpt>
      <trkpt lat="44.82426" lon="5.47015">
        <ele>1703.0922</ele>
        <time>2014-06-26T12:55:36Z</time>
      </trkpt>
      <trkpt lat="44.82429" lon="5.47013">
        <ele>1705.421</ele>
        <time>2014-06-26T12:55:42Z</time>
      </trkpt>
      <trkpt lat="44.8243" lon="5.47008">
        <ele>1705.421</ele>
        <time>2014-06-26T12:55:47Z</time>
      </trkpt>
      <trkpt lat="44.82431" lon="5.47003">
        <ele>1705.421</ele>
        <time>2014-06-26T12:55:52Z</time>
      </trkpt>
      <trkpt lat="44.82431" lon="5.46996">
        <ele>1707.4365</ele>
        <time>2014-06-26T12:55:57Z</time>
      </trkpt>
      <trkpt lat="44.82431" lon="5.46994">
        <ele>1707.4365</ele>
        <time>2014-06-26T12:56:02Z</time>
      </trkpt>
      <trkpt lat="44.82436" lon="5.46992">
        <ele>1707.4365</ele>
        <time>2014-06-26T12:56:07Z</time>
      </trkpt>
      <trkpt lat="44.82437" lon="5.46985">
        <ele>1709.2755</ele>
        <time>2014-06-26T12:56:14Z</time>
      </trkpt>
      <trkpt lat="44.8244" lon="5.46983">
        <ele>1709.2755</ele>
        <time>2014-06-26T12:56:16Z</time>
      </trkpt>
      <trkpt lat="44.8244" lon="5.46982">
        <ele>1709.2755</ele>
        <time>2014-06-26T12:56:22Z</time>
      </trkpt>
      <trkpt lat="44.82443" lon="5.46966">
        <ele>1710.993</ele>
        <time>2014-06-26T12:57:02Z</time>
      </trkpt>
      <trkpt lat="44.82443" lon="5.46966">
        <ele>1710.993</ele>
        <time>2014-06-26T12:57:07Z</time>
      </trkpt>
      <trkpt lat="44.82445" lon="5.46965">
        <ele>1710.993</ele>
        <time>2014-06-26T12:57:12Z</time>
      </trkpt>
      <trkpt lat="44.82447" lon="5.46962">
        <ele>1710.993</ele>
        <time>2014-06-26T12:57:17Z</time>
      </trkpt>
      <trkpt lat="44.82446" lon="5.46958">
        <ele>1710.993</ele>
        <time>2014-06-26T12:57:22Z</time>
      </trkpt>
      <trkpt lat="44.82448" lon="5.46953">
        <ele>1712.5258</ele>
        <time>2014-06-26T12:57:27Z</time>
      </trkpt>
      <trkpt lat="44.8245" lon="5.46949">
        <ele>1712.5258</ele>
        <time>2014-06-26T12:57:32Z</time>
      </trkpt>
      <trkpt lat="44.82452" lon="5.46947">
        <ele>1712.5258</ele>
        <time>2014-06-26T12:57:37Z</time>
      </trkpt>
      <trkpt lat="44.82455" lon="5.46943">
        <ele>1713.9448</ele>
        <time>2014-06-26T12:57:42Z</time>
      </trkpt>
      <trkpt lat="44.82458" lon="5.46939">
        <ele>1713.9448</ele>
        <time>2014-06-26T12:57:46Z</time>
      </trkpt>
      <trkpt lat="44.82463" lon="5.4693">
        <ele>1715.173</ele>
        <time>2014-06-26T12:57:52Z</time>
      </trkpt>
      <trkpt lat="44.82467" lon="5.46925">
        <ele>1715.173</ele>
        <time>2014-06-26T12:57:57Z</time>
      </trkpt>
      <trkpt lat="44.82468" lon="5.46924">
        <ele>1715.173</ele>
        <time>2014-06-26T12:58:02Z</time>
      </trkpt>
      <trkpt lat="44.82467" lon="5.46919">
        <ele>1716.1821</ele>
        <time>2014-06-26T12:58:07Z</time>
      </trkpt>
      <trkpt lat="44.82468" lon="5.46914">
        <ele>1716.1821</ele>
        <time>2014-06-26T12:58:12Z</time>
      </trkpt>
      <trkpt lat="44.82471" lon="5.4691">
        <ele>1716.1821</ele>
        <time>2014-06-26T12:58:17Z</time>
      </trkpt>
      <trkpt lat="44.82473" lon="5.46907">
        <ele>1716.9618</ele>
        <time>2014-06-26T12:58:22Z</time>
      </trkpt>
      <trkpt lat="44.82476" lon="5.46907">
        <ele>1716.9618</ele>
        <time>2014-06-26T12:58:27Z</time>
      </trkpt>
      <trkpt lat="44.82479" lon="5.46906">
        <ele>1716.9618</ele>
        <time>2014-06-26T12:58:32Z</time>
      </trkpt>
      <trkpt lat="44.82481" lon="5.46905">
        <ele>1716.9618</ele>
        <time>2014-06-26T12:58:37Z</time>
      </trkpt>
      <trkpt lat="44.82486" lon="5.46902">
        <ele>1717.5459</ele>
        <time>2014-06-26T12:58:42Z</time>
      </trkpt>
      <trkpt lat="44.82488" lon="5.469">
        <ele>1717.5459</ele>
        <time>2014-06-26T12:58:46Z</time>
      </trkpt>
      <trkpt lat="44.8249" lon="5.46894">
        <ele>1717.5459</ele>
        <time>2014-06-26T12:58:52Z</time>
      </trkpt>
      <trkpt lat="44.82492" lon="5.4689">
        <ele>1717.9379</ele>
        <time>2014-06-26T12:58:56Z</time>
      </trkpt>
      <trkpt lat="44.82494" lon="5.46886">
        <ele>1717.9379</ele>
        <time>2014-06-26T12:59:02Z</time>
      </trkpt>
      <trkpt lat="44.82493" lon="5.46884">
        <ele>1717.9379</ele>
        <time>2014-06-26T12:59:07Z</time>
      </trkpt>
      <trkpt lat="44.82491" lon="5.46882">
        <ele>1717.9379</ele>
        <time>2014-06-26T12:59:12Z</time>
      </trkpt>
      <trkpt lat="44.82492" lon="5.4688">
        <ele>1718.372</ele>
        <time>2014-06-26T12:59:17Z</time>
      </trkpt>
      <trkpt lat="44.82492" lon="5.46877">
        <ele>1718.372</ele>
        <time>2014-06-26T12:59:23Z</time>
      </trkpt>
      <trkpt lat="44.82493" lon="5.46872">
        <ele>1718.372</ele>
        <time>2014-06-26T12:59:26Z</time>
      </trkpt>
      <trkpt lat="44.82493" lon="5.46868">
        <ele>1718.372</ele>
        <time>2014-06-26T12:59:32Z</time>
      </trkpt>
      <trkpt lat="44.82496" lon="5.46862">
        <ele>1718.6761</ele>
        <time>2014-06-26T12:59:37Z</time>
      </trkpt>
      <trkpt lat="44.82499" lon="5.46856">
        <ele>1718.6761</ele>
        <time>2014-06-26T12:59:41Z</time>
      </trkpt>
      <trkpt lat="44.82498" lon="5.46851">
        <ele>1718.6761</ele>
        <time>2014-06-26T12:59:47Z</time>
      </trkpt>
      <trkpt lat="44.82502" lon="5.46854">
        <ele>1718.7921</ele>
        <time>2014-06-26T12:59:52Z</time>
      </trkpt>
      <trkpt lat="44.82504" lon="5.4685">
        <ele>1718.7921</ele>
        <time>2014-06-26T12:59:57Z</time>
      </trkpt>
      <trkpt lat="44.82507" lon="5.46843">
        <ele>1718.7821</ele>
        <time>2014-06-26T13:00:02Z</time>
      </trkpt>
      <trkpt lat="44.8251" lon="5.4684">
        <ele>1718.7821</ele>
        <time>2014-06-26T13:00:07Z</time>
      </trkpt>
      <trkpt lat="44.82511" lon="5.46838">
        <ele>1718.7821</ele>
        <time>2014-06-26T13:00:12Z</time>
      </trkpt>
      <trkpt lat="44.82512" lon="5.46831">
        <ele>1718.6892</ele>
        <time>2014-06-26T13:00:17Z</time>
      </trkpt>
      <trkpt lat="44.82515" lon="5.46826">
        <ele>1718.6892</ele>
        <time>2014-06-26T13:00:22Z</time>
      </trkpt>
      <trkpt lat="44.82518" lon="5.46821">
        <ele>1718.3953</ele>
        <time>2014-06-26T13:00:27Z</time>
      </trkpt>
      <trkpt lat="44.82521" lon="5.46815">
        <ele>1718.3953</ele>
        <time>2014-06-26T13:00:32Z</time>
      </trkpt>
      <trkpt lat="44.82523" lon="5.46808">
        <ele>1717.9357</ele>
        <time>2014-06-26T13:00:37Z</time>
      </trkpt>
      <trkpt lat="44.82531" lon="5.468">
        <ele>1717.5161</ele>
        <time>2014-06-26T13:00:41Z</time>
      </trkpt>
      <trkpt lat="44.82533" lon="5.46797">
        <ele>1717.5161</ele>
        <time>2014-06-26T13:00:46Z</time>
      </trkpt>
      <trkpt lat="44.82536" lon="5.46788">
        <ele>1716.9094</ele>
        <time>2014-06-26T13:00:52Z</time>
      </trkpt>
      <trkpt lat="44.82535" lon="5.46787">
        <ele>1716.9094</ele>
        <time>2014-06-26T13:00:57Z</time>
      </trkpt>
      <trkpt lat="44.82535" lon="5.46782">
        <ele>1716.9094</ele>
        <time>2014-06-26T13:01:16Z</time>
      </trkpt>
      <trkpt lat="44.82536" lon="5.46782">
        <ele>1716.9094</ele>
        <time>2014-06-26T13:01:21Z</time>
      </trkpt>
      <trkpt lat="44.82539" lon="5.46783">
        <ele>1716.2657</ele>
        <time>2014-06-26T13:01:32Z</time>
      </trkpt>
      <trkpt lat="44.82534" lon="5.46776">
        <ele>1716.2657</ele>
        <time>2014-06-26T13:01:47Z</time>
      </trkpt>
      <trkpt lat="44.82533" lon="5.46776">
        <ele>1716.2657</ele>
        <time>2014-06-26T13:01:51Z</time>
      </trkpt>
      <trkpt lat="44.82535" lon="5.46767">
        <ele>1715.7385</ele>
        <time>2014-06-26T13:01:57Z</time>
      </trkpt>
      <trkpt lat="44.82536" lon="5.46765">
        <ele>1715.7385</ele>
        <time>2014-06-26T13:02:01Z</time>
      </trkpt>
      <trkpt lat="44.82536" lon="5.46755">
        <ele>1715.7385</ele>
        <time>2014-06-26T13:02:07Z</time>
      </trkpt>
      <trkpt lat="44.82541" lon="5.46751">
        <ele>1715.1959</ele>
        <time>2014-06-26T13:02:12Z</time>
      </trkpt>
      <trkpt lat="44.82543" lon="5.46746">
        <ele>1715.1959</ele>
        <time>2014-06-26T13:02:17Z</time>
      </trkpt>
      <trkpt lat="44.82546" lon="5.46743">
        <ele>1715.1959</ele>
        <time>2014-06-26T13:02:22Z</time>
      </trkpt>
      <trkpt lat="44.82549" lon="5.46736">
        <ele>1714.4434</ele>
        <time>2014-06-26T13:02:27Z</time>
      </trkpt>
      <trkpt lat="44.8255" lon="5.46731">
        <ele>1714.4434</ele>
        <time>2014-06-26T13:02:32Z</time>
      </trkpt>
      <trkpt lat="44.82549" lon="5.46722">
        <ele>1713.6184</ele>
        <time>2014-06-26T13:02:37Z</time>
      </trkpt>
      <trkpt lat="44.82551" lon="5.46719">
        <ele>1713.6184</ele>
        <time>2014-06-26T13:02:42Z</time>
      </trkpt>
      <trkpt lat="44.82554" lon="5.46715">
        <ele>1713.6184</ele>
        <time>2014-06-26T13:02:47Z</time>
      </trkpt>
      <trkpt lat="44.82556" lon="5.4671">
        <ele>1712.5311</ele>
        <time>2014-06-26T13:02:51Z</time>
      </trkpt>
      <trkpt lat="44.82559" lon="5.46705">
        <ele>1712.5311</ele>
        <time>2014-06-26T13:02:57Z</time>
      </trkpt>
      <trkpt lat="44.8256" lon="5.46702">
        <ele>1712.5311</ele>
        <time>2014-06-26T13:03:02Z</time>
      </trkpt>
      <trkpt lat="44.82559" lon="5.46703">
        <ele>1712.5311</ele>
        <time>2014-06-26T13:03:07Z</time>
      </trkpt>
      <trkpt lat="44.82559" lon="5.46704">
        <ele>1712.5311</ele>
        <time>2014-06-26T13:03:12Z</time>
      </trkpt>
      <trkpt lat="44.82559" lon="5.46703">
        <ele>1711.0066</ele>
        <time>2014-06-26T13:03:17Z</time>
      </trkpt>
      <trkpt lat="44.82563" lon="5.46689">
        <ele>1709.5607</ele>
        <time>2014-06-26T13:03:27Z</time>
      </trkpt>
      <trkpt lat="44.82564" lon="5.46685">
        <ele>1709.5607</ele>
        <time>2014-06-26T13:03:32Z</time>
      </trkpt>
      <trkpt lat="44.82566" lon="5.46678">
        <ele>1709.5607</ele>
        <time>2014-06-26T13:03:36Z</time>
      </trkpt>
      <trkpt lat="44.82566" lon="5.46676">
        <ele>1708.2245</ele>
        <time>2014-06-26T13:03:41Z</time>
      </trkpt>
      <trkpt lat="44.82568" lon="5.46673">
        <ele>1708.2245</ele>
        <time>2014-06-26T13:03:47Z</time>
      </trkpt>
      <trkpt lat="44.82568" lon="5.46674">
        <ele>1708.2245</ele>
        <time>2014-06-26T13:03:52Z</time>
      </trkpt>
      <trkpt lat="44.82571" lon="5.46673">
        <ele>1708.2245</ele>
        <time>2014-06-26T13:04:22Z</time>
      </trkpt>
      <trkpt lat="44.82571" lon="5.46671">
        <ele>1708.2245</ele>
        <time>2014-06-26T13:04:27Z</time>
      </trkpt>
      <trkpt lat="44.82573" lon="5.46664">
        <ele>1707.156</ele>
        <time>2014-06-26T13:04:32Z</time>
      </trkpt>
      <trkpt lat="44.82574" lon="5.46653">
        <ele>1707.156</ele>
        <time>2014-06-26T13:04:37Z</time>
      </trkpt>
      <trkpt lat="44.82577" lon="5.46647">
        <ele>1706.1405</ele>
        <time>2014-06-26T13:04:42Z</time>
      </trkpt>
      <trkpt lat="44.82581" lon="5.4664">
        <ele>1706.1405</ele>
        <time>2014-06-26T13:04:47Z</time>
      </trkpt>
      <trkpt lat="44.82584" lon="5.46636">
        <ele>1705.0936</ele>
        <time>2014-06-26T13:04:52Z</time>
      </trkpt>
      <trkpt lat="44.82589" lon="5.46627">
        <ele>1705.0936</ele>
        <time>2014-06-26T13:04:57Z</time>
      </trkpt>
      <trkpt lat="44.82593" lon="5.4662">
        <ele>1704.1393</ele>
        <time>2014-06-26T13:05:02Z</time>
      </trkpt>
      <trkpt lat="44.82597" lon="5.46616">
        <ele>1704.1393</ele>
        <time>2014-06-26T13:05:07Z</time>
      </trkpt>
      <trkpt lat="44.826" lon="5.4661">
        <ele>1703.1897</ele>
        <time>2014-06-26T13:05:12Z</time>
      </trkpt>
      <trkpt lat="44.82597" lon="5.46603">
        <ele>1703.1897</ele>
        <time>2014-06-26T13:05:17Z</time>
      </trkpt>
      <trkpt lat="44.82594" lon="5.46598">
        <ele>1702.3511</ele>
        <time>2014-06-26T13:05:21Z</time>
      </trkpt>
      <trkpt lat="44.82593" lon="5.46599">
        <ele>1702.3511</ele>
        <time>2014-06-26T13:05:27Z</time>
      </trkpt>
      <trkpt lat="44.82592" lon="5.46596">
        <ele>1702.3511</ele>
        <time>2014-06-26T13:05:32Z</time>
      </trkpt>
      <trkpt lat="44.82594" lon="5.46592">
        <ele>1702.3511</ele>
        <time>2014-06-26T13:05:37Z</time>
      </trkpt>
      <trkpt lat="44.82595" lon="5.46585">
        <ele>1701.5767</ele>
        <time>2014-06-26T13:05:42Z</time>
      </trkpt>
      <trkpt lat="44.82595" lon="5.46578">
        <ele>1701.5767</ele>
        <time>2014-06-26T13:05:47Z</time>
      </trkpt>
      <trkpt lat="44.82595" lon="5.46573">
        <ele>1701.5767</ele>
        <time>2014-06-26T13:05:52Z</time>
      </trkpt>
      <trkpt lat="44.82597" lon="5.46566">
        <ele>1700.9386</ele>
        <time>2014-06-26T13:05:56Z</time>
      </trkpt>
      <trkpt lat="44.82597" lon="5.46559">
        <ele>1700.9386</ele>
        <time>2014-06-26T13:06:02Z</time>
      </trkpt>
      <trkpt lat="44.82597" lon="5.46553">
        <ele>1700.3585</ele>
        <time>2014-06-26T13:06:07Z</time>
      </trkpt>
      <trkpt lat="44.82598" lon="5.46551">
        <ele>1700.3585</ele>
        <time>2014-06-26T13:06:12Z</time>
      </trkpt>
      <trkpt lat="44.826" lon="5.46546">
        <ele>1700.3585</ele>
        <time>2014-06-26T13:06:17Z</time>
      </trkpt>
      <trkpt lat="44.82602" lon="5.46545">
        <ele>1700.3585</ele>
        <time>2014-06-26T13:06:22Z</time>
      </trkpt>
      <trkpt lat="44.82605" lon="5.46546">
        <ele>1699.9657</ele>
        <time>2014-06-26T13:06:26Z</time>
      </trkpt>
      <trkpt lat="44.82607" lon="5.46544">
        <ele>1699.9657</ele>
        <time>2014-06-26T13:06:32Z</time>
      </trkpt>
      <trkpt lat="44.82607" lon="5.46541">
        <ele>1699.9657</ele>
        <time>2014-06-26T13:06:36Z</time>
      </trkpt>
      <trkpt lat="44.82607" lon="5.46538">
        <ele>1699.9657</ele>
        <time>2014-06-26T13:06:41Z</time>
      </trkpt>
      <trkpt lat="44.82609" lon="5.46535">
        <ele>1699.85</ele>
        <time>2014-06-26T13:06:46Z</time>
      </trkpt>
      <trkpt lat="44.82611" lon="5.46531">
        <ele>1699.85</ele>
        <time>2014-06-26T13:06:51Z</time>
      </trkpt>
      <trkpt lat="44.82613" lon="5.46528">
        <ele>1699.85</ele>
        <time>2014-06-26T13:06:59Z</time>
      </trkpt>
      <trkpt lat="44.82615" lon="5.46527">
        <ele>1699.85</ele>
        <time>2014-06-26T13:07:01Z</time>
      </trkpt>
      <trkpt lat="44.82618" lon="5.46523">
        <ele>1699.9786</ele>
        <time>2014-06-26T13:07:07Z</time>
      </trkpt>
      <trkpt lat="44.82617" lon="5.4652">
        <ele>1699.9786</ele>
        <time>2014-06-26T13:07:12Z</time>
      </trkpt>
      <trkpt lat="44.82619" lon="5.46518">
        <ele>1699.9786</ele>
        <time>2014-06-26T13:07:16Z</time>
      </trkpt>
      <trkpt lat="44.82621" lon="5.46514">
        <ele>1699.9786</ele>
        <time>2014-06-26T13:07:24Z</time>
      </trkpt>
      <trkpt lat="44.82622" lon="5.46511">
        <ele>1700.2336</ele>
        <time>2014-06-26T13:07:26Z</time>
      </trkpt>
      <trkpt lat="44.8262" lon="5.46503">
        <ele>1700.2336</ele>
        <time>2014-06-26T13:07:32Z</time>
      </trkpt>
      <trkpt lat="44.82618" lon="5.46497">
        <ele>1700.7218</ele>
        <time>2014-06-26T13:07:37Z</time>
      </trkpt>
      <trkpt lat="44.82617" lon="5.46496">
        <ele>1700.7218</ele>
        <time>2014-06-26T13:07:42Z</time>
      </trkpt>
      <trkpt lat="44.82616" lon="5.46489">
        <ele>1700.7218</ele>
        <time>2014-06-26T13:08:17Z</time>
      </trkpt>
      <trkpt lat="44.82618" lon="5.46484">
        <ele>1701.5409</ele>
        <time>2014-06-26T13:08:21Z</time>
      </trkpt>
      <trkpt lat="44.82618" lon="5.46481">
        <ele>1701.5409</ele>
        <time>2014-06-26T13:08:27Z</time>
      </trkpt>
      <trkpt lat="44.82619" lon="5.46478">
        <ele>1701.5409</ele>
        <time>2014-06-26T13:08:32Z</time>
      </trkpt>
      <trkpt lat="44.8262" lon="5.46475">
        <ele>1701.5409</ele>
        <time>2014-06-26T13:08:36Z</time>
      </trkpt>
      <trkpt lat="44.82621" lon="5.4647">
        <ele>1702.4922</ele>
        <time>2014-06-26T13:08:42Z</time>
      </trkpt>
      <trkpt lat="44.82624" lon="5.46465">
        <ele>1702.4922</ele>
        <time>2014-06-26T13:08:47Z</time>
      </trkpt>
      <trkpt lat="44.82627" lon="5.46459">
        <ele>1703.4491</ele>
        <time>2014-06-26T13:08:52Z</time>
      </trkpt>
      <trkpt lat="44.82628" lon="5.4645">
        <ele>1703.4491</ele>
        <time>2014-06-26T13:08:57Z</time>
      </trkpt>
      <trkpt lat="44.82628" lon="5.46439">
        <ele>1704.4089</ele>
        <time>2014-06-26T13:09:01Z</time>
      </trkpt>
      <trkpt lat="44.82628" lon="5.46431">
        <ele>1704.4089</ele>
        <time>2014-06-26T13:09:07Z</time>
      </trkpt>
      <trkpt lat="44.82628" lon="5.46426">
        <ele>1704.4089</ele>
        <time>2014-06-26T13:09:12Z</time>
      </trkpt>
      <trkpt lat="44.82629" lon="5.4642">
        <ele>1705.5857</ele>
        <time>2014-06-26T13:09:16Z</time>
      </trkpt>
      <trkpt lat="44.82629" lon="5.46415">
        <ele>1705.5857</ele>
        <time>2014-06-26T13:09:22Z</time>
      </trkpt>
      <trkpt lat="44.82627" lon="5.46411">
        <ele>1705.5857</ele>
        <time>2014-06-26T13:09:27Z</time>
      </trkpt>
      <trkpt lat="44.82632" lon="5.46408">
        <ele>1707.8685</ele>
        <time>2014-06-26T13:09:42Z</time>
      </trkpt>
      <trkpt lat="44.82633" lon="5.46411">
        <ele>1707.8685</ele>
        <time>2014-06-26T13:09:47Z</time>
      </trkpt>
      <trkpt lat="44.82633" lon="5.46411">
        <ele>1707.8685</ele>
        <time>2014-06-26T13:09:52Z</time>
      </trkpt>
      <trkpt lat="44.8263" lon="5.46412">
        <ele>1707.8685</ele>
        <time>2014-06-26T13:10:12Z</time>
      </trkpt>
      <trkpt lat="44.82627" lon="5.46407">
        <ele>1710.2335</ele>
        <time>2014-06-26T13:10:17Z</time>
      </trkpt>
      <trkpt lat="44.82628" lon="5.46407">
        <ele>1710.2335</ele>
        <time>2014-06-26T13:10:22Z</time>
      </trkpt>
      <trkpt lat="44.82629" lon="5.4641">
        <ele>1710.2335</ele>
        <time>2014-06-26T13:10:32Z</time>
      </trkpt>
      <trkpt lat="44.82629" lon="5.46412">
        <ele>1710.2335</ele>
        <time>2014-06-26T13:10:36Z</time>
      </trkpt>
      <trkpt lat="44.82631" lon="5.46407">
        <ele>1710.2335</ele>
        <time>2014-06-26T13:10:42Z</time>
      </trkpt>
      <trkpt lat="44.82632" lon="5.46405">
        <ele>1712.5531</ele>
        <time>2014-06-26T13:10:47Z</time>
      </trkpt>
      <trkpt lat="44.8263" lon="5.46407">
        <ele>1712.5531</ele>
        <time>2014-06-26T13:10:52Z</time>
      </trkpt>
      <trkpt lat="44.8263" lon="5.46402">
        <ele>1712.5531</ele>
        <time>2014-06-26T13:16:37Z</time>
      </trkpt>
      <trkpt lat="44.8263" lon="5.46402">
        <ele>1712.5531</ele>
        <time>2014-06-26T13:16:42Z</time>
      </trkpt>
      <trkpt lat="44.82629" lon="5.46394">
        <ele>1715.6027</ele>
        <time>2014-06-26T13:19:12Z</time>
      </trkpt>
      <trkpt lat="44.8263" lon="5.46394">
        <ele>1715.6027</ele>
        <time>2014-06-26T13:19:16Z</time>
      </trkpt>
      <trkpt lat="44.82632" lon="5.46397">
        <ele>1715.6027</ele>
        <time>2014-06-26T13:19:27Z</time>
      </trkpt>
      <trkpt lat="44.82633" lon="5.46397">
        <ele>1715.6027</ele>
        <time>2014-06-26T13:19:32Z</time>
      </trkpt>
      <trkpt lat="44.82634" lon="5.46387">
        <ele>1718.4414</ele>
        <time>2014-06-26T13:21:42Z</time>
      </trkpt>
      <trkpt lat="44.82636" lon="5.46384">
        <ele>1718.4414</ele>
        <time>2014-06-26T13:21:47Z</time>
      </trkpt>
      <trkpt lat="44.82638" lon="5.46379">
        <ele>1718.4414</ele>
        <time>2014-06-26T13:21:52Z</time>
      </trkpt>
      <trkpt lat="44.8264" lon="5.46374">
        <ele>1721.0916</ele>
        <time>2014-06-26T13:21:57Z</time>
      </trkpt>
      <trkpt lat="44.82642" lon="5.4637">
        <ele>1721.0916</ele>
        <time>2014-06-26T13:22:02Z</time>
      </trkpt>
      <trkpt lat="44.82643" lon="5.46365">
        <ele>1721.0916</ele>
        <time>2014-06-26T13:22:06Z</time>
      </trkpt>
      <trkpt lat="44.82643" lon="5.46362">
        <ele>1721.0916</ele>
        <time>2014-06-26T13:22:12Z</time>
      </trkpt>
      <trkpt lat="44.82644" lon="5.46361">
        <ele>1723.4446</ele>
        <time>2014-06-26T13:22:17Z</time>
      </trkpt>
      <trkpt lat="44.82641" lon="5.46349">
        <ele>1723.4446</ele>
        <time>2014-06-26T13:22:42Z</time>
      </trkpt>
      <trkpt lat="44.82643" lon="5.46341">
        <ele>1725.5885</ele>
        <time>2014-06-26T13:22:47Z</time>
      </trkpt>
      <trkpt lat="44.82648" lon="5.46335">
        <ele>1725.5885</ele>
        <time>2014-06-26T13:22:52Z</time>
      </trkpt>
      <trkpt lat="44.82651" lon="5.46331">
        <ele>1727.533</ele>
        <time>2014-06-26T13:22:57Z</time>
      </trkpt>
      <trkpt lat="44.82656" lon="5.46326">
        <ele>1727.533</ele>
        <time>2014-06-26T13:23:02Z</time>
      </trkpt>
      <trkpt lat="44.8266" lon="5.46321">
        <ele>1729.288</ele>
        <time>2014-06-26T13:23:06Z</time>
      </trkpt>
      <trkpt lat="44.82663" lon="5.46319">
        <ele>1729.288</ele>
        <time>2014-06-26T13:23:12Z</time>
      </trkpt>
      <trkpt lat="44.82666" lon="5.46319">
        <ele>1729.288</ele>
        <time>2014-06-26T13:23:17Z</time>
      </trkpt>
      <trkpt lat="44.82669" lon="5.46318">
        <ele>1730.8057</ele>
        <time>2014-06-26T13:23:22Z</time>
      </trkpt>
      <trkpt lat="44.82673" lon="5.46314">
        <ele>1730.8057</ele>
        <time>2014-06-26T13:23:27Z</time>
      </trkpt>
      <trkpt lat="44.82676" lon="5.4631">
        <ele>1730.8057</ele>
        <time>2014-06-26T13:23:32Z</time>
      </trkpt>
      <trkpt lat="44.82678" lon="5.46306">
        <ele>1732.0999</ele>
        <time>2014-06-26T13:23:37Z</time>
      </trkpt>
      <trkpt lat="44.82679" lon="5.46304">
        <ele>1732.0999</ele>
        <time>2014-06-26T13:23:42Z</time>
      </trkpt>
      <trkpt lat="44.82684" lon="5.46299">
        <ele>1732.0999</ele>
        <time>2014-06-26T13:23:47Z</time>
      </trkpt>
      <trkpt lat="44.82688" lon="5.46296">
        <ele>1733.1267</ele>
        <time>2014-06-26T13:23:51Z</time>
      </trkpt>
      <trkpt lat="44.82694" lon="5.46289">
        <ele>1733.1267</ele>
        <time>2014-06-26T13:23:57Z</time>
      </trkpt>
      <trkpt lat="44.82697" lon="5.4629">
        <ele>1733.9617</ele>
        <time>2014-06-26T13:24:02Z</time>
      </trkpt>
      <trkpt lat="44.82699" lon="5.46287">
        <ele>1733.9617</ele>
        <time>2014-06-26T13:24:09Z</time>
      </trkpt>
      <trkpt lat="44.82702" lon="5.46282">
        <ele>1733.9617</ele>
        <time>2014-06-26T13:24:11Z</time>
      </trkpt>
      <trkpt lat="44.82705" lon="5.46277">
        <ele>1734.5743</ele>
        <time>2014-06-26T13:24:16Z</time>
      </trkpt>
      <trkpt lat="44.82708" lon="5.46272">
        <ele>1734.5743</ele>
        <time>2014-06-26T13:24:21Z</time>
      </trkpt>
      <trkpt lat="44.82712" lon="5.4627">
        <ele>1734.5743</ele>
        <time>2014-06-26T13:24:27Z</time>
      </trkpt>
      <trkpt lat="44.82714" lon="5.46268">
        <ele>1734.9374</ele>
        <time>2014-06-26T13:24:32Z</time>
      </trkpt>
      <trkpt lat="44.82717" lon="5.46265">
        <ele>1734.9374</ele>
        <time>2014-06-26T13:24:37Z</time>
      </trkpt>
      <trkpt lat="44.82719" lon="5.46262">
        <ele>1734.9374</ele>
        <time>2014-06-26T13:24:42Z</time>
      </trkpt>
      <trkpt lat="44.82721" lon="5.46259">
        <ele>1735.0693</ele>
        <time>2014-06-26T13:24:46Z</time>
      </trkpt>
      <trkpt lat="44.82724" lon="5.46258">
        <ele>1735.0693</ele>
        <time>2014-06-26T13:24:53Z</time>
      </trkpt>
      <trkpt lat="44.82725" lon="5.46252">
        <ele>1735.0693</ele>
        <time>2014-06-26T13:24:56Z</time>
      </trkpt>
      <trkpt lat="44.82727" lon="5.46246">
        <ele>1734.9594</ele>
        <time>2014-06-26T13:25:02Z</time>
      </trkpt>
      <trkpt lat="44.8273" lon="5.4624">
        <ele>1734.9594</ele>
        <time>2014-06-26T13:25:07Z</time>
      </trkpt>
      <trkpt lat="44.82732" lon="5.46232">
        <ele>1734.656</ele>
        <time>2014-06-26T13:25:12Z</time>
      </trkpt>
      <trkpt lat="44.82734" lon="5.4623">
        <ele>1734.656</ele>
        <time>2014-06-26T13:25:17Z</time>
      </trkpt>
      <trkpt lat="44.82736" lon="5.46227">
        <ele>1734.656</ele>
        <time>2014-06-26T13:25:22Z</time>
      </trkpt>
      <trkpt lat="44.82739" lon="5.46225">
        <ele>1734.656</ele>
        <time>2014-06-26T13:25:26Z</time>
      </trkpt>
      <trkpt lat="44.82742" lon="5.46224">
        <ele>1734.0027</ele>
        <time>2014-06-26T13:25:32Z</time>
      </trkpt>
      <trkpt lat="44.82742" lon="5.46221">
        <ele>1734.0027</ele>
        <time>2014-06-26T13:25:37Z</time>
      </trkpt>
      <trkpt lat="44.82743" lon="5.46214">
        <ele>1734.0027</ele>
        <time>2014-06-26T13:25:42Z</time>
      </trkpt>
      <trkpt lat="44.82743" lon="5.46212">
        <ele>1734.0027</ele>
        <time>2014-06-26T13:25:46Z</time>
      </trkpt>
      <trkpt lat="44.82745" lon="5.46204">
        <ele>1733.1296</ele>
        <time>2014-06-26T13:25:52Z</time>
      </trkpt>
      <trkpt lat="44.82746" lon="5.462">
        <ele>1733.1296</ele>
        <time>2014-06-26T13:25:56Z</time>
      </trkpt>
      <trkpt lat="44.82748" lon="5.46194">
        <ele>1733.1296</ele>
        <time>2014-06-26T13:26:01Z</time>
      </trkpt>
      <trkpt lat="44.82751" lon="5.46189">
        <ele>1732.0856</ele>
        <time>2014-06-26T13:26:07Z</time>
      </trkpt>
      <trkpt lat="44.82751" lon="5.46188">
        <ele>1732.0856</ele>
        <time>2014-06-26T13:26:12Z</time>
      </trkpt>
      <trkpt lat="44.8275" lon="5.46187">
        <ele>1732.0856</ele>
        <time>2014-06-26T13:26:17Z</time>
      </trkpt>
      <trkpt lat="44.82749" lon="5.46185">
        <ele>1732.0856</ele>
        <time>2014-06-26T13:26:21Z</time>
      </trkpt>
      <trkpt lat="44.82751" lon="5.4618">
        <ele>1732.0856</ele>
        <time>2014-06-26T13:26:27Z</time>
      </trkpt>
      <trkpt lat="44.82754" lon="5.46175">
        <ele>1730.643</ele>
        <time>2014-06-26T13:26:31Z</time>
      </trkpt>
      <trkpt lat="44.82756" lon="5.46168">
        <ele>1730.643</ele>
        <time>2014-06-26T13:26:37Z</time>
      </trkpt>
      <trkpt lat="44.82759" lon="5.46164">
        <ele>1730.643</ele>
        <time>2014-06-26T13:26:42Z</time>
      </trkpt>
      <trkpt lat="44.8276" lon="5.46159">
        <ele>1729.1246</ele>
        <time>2014-06-26T13:26:47Z</time>
      </trkpt>
      <trkpt lat="44.8276" lon="5.46156">
        <ele>1729.1246</ele>
        <time>2014-06-26T13:26:52Z</time>
      </trkpt>
      <trkpt lat="44.82761" lon="5.46152">
        <ele>1729.1246</ele>
        <time>2014-06-26T13:26:57Z</time>
      </trkpt>
      <trkpt lat="44.82762" lon="5.46146">
        <ele>1727.5856</ele>
        <time>2014-06-26T13:27:01Z</time>
      </trkpt>
      <trkpt lat="44.82765" lon="5.46132">
        <ele>1726.0762</ele>
        <time>2014-06-26T13:27:07Z</time>
      </trkpt>
      <trkpt lat="44.82765" lon="5.46123">
        <ele>1726.0762</ele>
        <time>2014-06-26T13:27:12Z</time>
      </trkpt>
      <trkpt lat="44.82768" lon="5.46117">
        <ele>1724.5281</ele>
        <time>2014-06-26T13:27:16Z</time>
      </trkpt>
      <trkpt lat="44.8277" lon="5.46113">
        <ele>1724.5281</ele>
        <time>2014-06-26T13:27:22Z</time>
      </trkpt>
      <trkpt lat="44.82772" lon="5.46105">
        <ele>1722.9789</ele>
        <time>2014-06-26T13:27:27Z</time>
      </trkpt>
      <trkpt lat="44.82774" lon="5.46097">
        <ele>1722.9789</ele>
        <time>2014-06-26T13:27:32Z</time>
      </trkpt>
      <trkpt lat="44.82774" lon="5.46094">
        <ele>1722.9789</ele>
        <time>2014-06-26T13:27:37Z</time>
      </trkpt>
      <trkpt lat="44.82775" lon="5.4609">
        <ele>1721.3479</ele>
        <time>2014-06-26T13:27:42Z</time>
      </trkpt>
      <trkpt lat="44.82775" lon="5.46086">
        <ele>1721.3479</ele>
        <time>2014-06-26T13:27:47Z</time>
      </trkpt>
      <trkpt lat="44.82777" lon="5.46083">
        <ele>1721.3479</ele>
        <time>2014-06-26T13:27:52Z</time>
      </trkpt>
      <trkpt lat="44.82778" lon="5.46076">
        <ele>1719.647</ele>
        <time>2014-06-26T13:27:57Z</time>
      </trkpt>
      <trkpt lat="44.82781" lon="5.46072">
        <ele>1719.647</ele>
        <time>2014-06-26T13:28:02Z</time>
      </trkpt>
      <trkpt lat="44.82781" lon="5.46068">
        <ele>1719.647</ele>
        <time>2014-06-26T13:28:07Z</time>
      </trkpt>
      <trkpt lat="44.82783" lon="5.46063">
        <ele>1717.8441</ele>
        <time>2014-06-26T13:28:12Z</time>
      </trkpt>
      <trkpt lat="44.82783" lon="5.46055">
        <ele>1717.8441</ele>
        <time>2014-06-26T13:28:17Z</time>
      </trkpt>
      <trkpt lat="44.82783" lon="5.46053">
        <ele>1717.8441</ele>
        <time>2014-06-26T13:28:22Z</time>
      </trkpt>
      <trkpt lat="44.82782" lon="5.46049">
        <ele>1715.9241</ele>
        <time>2014-06-26T13:28:27Z</time>
      </trkpt>
      <trkpt lat="44.82784" lon="5.46044">
        <ele>1715.9241</ele>
        <time>2014-06-26T13:28:32Z</time>
      </trkpt>
      <trkpt lat="44.82786" lon="5.46038">
        <ele>1715.9241</ele>
        <time>2014-06-26T13:28:37Z</time>
      </trkpt>
      <trkpt lat="44.82788" lon="5.46032">
        <ele>1713.902</ele>
        <time>2014-06-26T13:28:42Z</time>
      </trkpt>
      <trkpt lat="44.82791" lon="5.46029">
        <ele>1713.902</ele>
        <time>2014-06-26T13:28:46Z</time>
      </trkpt>
      <trkpt lat="44.82795" lon="5.46021">
        <ele>1711.8207</ele>
        <time>2014-06-26T13:28:52Z</time>
      </trkpt>
      <trkpt lat="44.82797" lon="5.46018">
        <ele>1711.8207</ele>
        <time>2014-06-26T13:28:57Z</time>
      </trkpt>
      <trkpt lat="44.828" lon="5.46015">
        <ele>1711.8207</ele>
        <time>2014-06-26T13:29:02Z</time>
      </trkpt>
      <trkpt lat="44.82804" lon="5.46009">
        <ele>1709.7054</ele>
        <time>2014-06-26T13:29:07Z</time>
      </trkpt>
      <trkpt lat="44.82807" lon="5.46003">
        <ele>1709.7054</ele>
        <time>2014-06-26T13:29:12Z</time>
      </trkpt>
      <trkpt lat="44.8281" lon="5.46">
        <ele>1707.6373</ele>
        <time>2014-06-26T13:29:16Z</time>
      </trkpt>
      <trkpt lat="44.82813" lon="5.45997">
        <ele>1707.6373</ele>
        <time>2014-06-26T13:29:22Z</time>
      </trkpt>
      <trkpt lat="44.82817" lon="5.45996">
        <ele>1707.6373</ele>
        <time>2014-06-26T13:29:27Z</time>
      </trkpt>
      <trkpt lat="44.8282" lon="5.45993">
        <ele>1705.6337</ele>
        <time>2014-06-26T13:29:32Z</time>
      </trkpt>
      <trkpt lat="44.82823" lon="5.45991">
        <ele>1705.6337</ele>
        <time>2014-06-26T13:29:37Z</time>
      </trkpt>
      <trkpt lat="44.82824" lon="5.45989">
        <ele>1705.6337</ele>
        <time>2014-06-26T13:29:42Z</time>
      </trkpt>
      <trkpt lat="44.82826" lon="5.45984">
        <ele>1703.6812</ele>
        <time>2014-06-26T13:29:47Z</time>
      </trkpt>
      <trkpt lat="44.82827" lon="5.45983">
        <ele>1703.6812</ele>
        <time>2014-06-26T13:29:52Z</time>
      </trkpt>
      <trkpt lat="44.82829" lon="5.45981">
        <ele>1703.6812</ele>
        <time>2014-06-26T13:29:57Z</time>
      </trkpt>
      <trkpt lat="44.82829" lon="5.4598">
        <ele>1703.6812</ele>
        <time>2014-06-26T13:30:02Z</time>
      </trkpt>
      <trkpt lat="44.82831" lon="5.45974">
        <ele>1701.6952</ele>
        <time>2014-06-26T13:30:07Z</time>
      </trkpt>
      <trkpt lat="44.82832" lon="5.45968">
        <ele>1701.6952</ele>
        <time>2014-06-26T13:30:11Z</time>
      </trkpt>
      <trkpt lat="44.82834" lon="5.45965">
        <ele>1701.6952</ele>
        <time>2014-06-26T13:30:16Z</time>
      </trkpt>
      <trkpt lat="44.82838" lon="5.45957">
        <ele>1699.6837</ele>
        <time>2014-06-26T13:30:22Z</time>
      </trkpt>
      <trkpt lat="44.82841" lon="5.45954">
        <ele>1699.6837</ele>
        <time>2014-06-26T13:30:27Z</time>
      </trkpt>
      <trkpt lat="44.82845" lon="5.4595">
        <ele>1697.7405</ele>
        <time>2014-06-26T13:30:32Z</time>
      </trkpt>
      <trkpt lat="44.8285" lon="5.4595">
        <ele>1697.7405</ele>
        <time>2014-06-26T13:30:37Z</time>
      </trkpt>
      <trkpt lat="44.82854" lon="5.45949">
        <ele>1697.7405</ele>
        <time>2014-06-26T13:30:41Z</time>
      </trkpt>
      <trkpt lat="44.82855" lon="5.45945">
        <ele>1695.7792</ele>
        <time>2014-06-26T13:30:47Z</time>
      </trkpt>
      <trkpt lat="44.82857" lon="5.45944">
        <ele>1695.7792</ele>
        <time>2014-06-26T13:30:52Z</time>
      </trkpt>
      <trkpt lat="44.8286" lon="5.4594">
        <ele>1695.7792</ele>
        <time>2014-06-26T13:30:57Z</time>
      </trkpt>
      <trkpt lat="44.82862" lon="5.45939">
        <ele>1695.7792</ele>
        <time>2014-06-26T13:31:02Z</time>
      </trkpt>
      <trkpt lat="44.82864" lon="5.45939">
        <ele>1693.8058</ele>
        <time>2014-06-26T13:31:07Z</time>
      </trkpt>
      <trkpt lat="44.82867" lon="5.45936">
        <ele>1693.8058</ele>
        <time>2014-06-26T13:31:12Z</time>
      </trkpt>
      <trkpt lat="44.82871" lon="5.45937">
        <ele>1693.8058</ele>
        <time>2014-06-26T13:31:17Z</time>
      </trkpt>
      <trkpt lat="44.82874" lon="5.45934">
        <ele>1691.9127</ele>
        <time>2014-06-26T13:31:22Z</time>
      </trkpt>
      <trkpt lat="44.82876" lon="5.45929">
        <ele>1691.9127</ele>
        <time>2014-06-26T13:31:27Z</time>
      </trkpt>
      <trkpt lat="44.82877" lon="5.45927">
        <ele>1691.9127</ele>
        <time>2014-06-26T13:31:32Z</time>
      </trkpt>
      <trkpt lat="44.82877" lon="5.45926">
        <ele>1691.9127</ele>
        <time>2014-06-26T13:31:36Z</time>
      </trkpt>
      <trkpt lat="44.82884" lon="5.45922">
        <ele>1689.9829</ele>
        <time>2014-06-26T13:31:48Z</time>
      </trkpt>
      <trkpt lat="44.82886" lon="5.45919">
        <ele>1689.9829</ele>
        <time>2014-06-26T13:31:51Z</time>
      </trkpt>
      <trkpt lat="44.82889" lon="5.45915">
        <ele>1689.9829</ele>
        <time>2014-06-26T13:31:57Z</time>
      </trkpt>
      <trkpt lat="44.82891" lon="5.45916">
        <ele>1688.0956</ele>
        <time>2014-06-26T13:32:02Z</time>
      </trkpt>
      <trkpt lat="44.82895" lon="5.45915">
        <ele>1688.0956</ele>
        <time>2014-06-26T13:32:07Z</time>
      </trkpt>
      <trkpt lat="44.82899" lon="5.45917">
        <ele>1688.0956</ele>
        <time>2014-06-26T13:32:12Z</time>
      </trkpt>
      <trkpt lat="44.82902" lon="5.45918">
        <ele>1686.0641</ele>
        <time>2014-06-26T13:32:17Z</time>
      </trkpt>
      <trkpt lat="44.82907" lon="5.45918">
        <ele>1686.0641</ele>
        <time>2014-06-26T13:32:32Z</time>
      </trkpt>
      <trkpt lat="44.82908" lon="5.45918">
        <ele>1686.0641</ele>
        <time>2014-06-26T13:32:37Z</time>
      </trkpt>
      <trkpt lat="44.82917" lon="5.45923">
        <ele>1683.9178</ele>
        <time>2014-06-26T13:32:52Z</time>
      </trkpt>
      <trkpt lat="44.82922" lon="5.45917">
        <ele>1683.9178</ele>
        <time>2014-06-26T13:33:11Z</time>
      </trkpt>
      <trkpt lat="44.82927" lon="5.45917">
        <ele>1681.9288</ele>
        <time>2014-06-26T13:33:19Z</time>
      </trkpt>
      <trkpt lat="44.82927" lon="5.45917">
        <ele>1681.9288</ele>
        <time>2014-06-26T13:33:22Z</time>
      </trkpt>
      <trkpt lat="44.82936" lon="5.45916">
        <ele>1680.1758</ele>
        <time>2014-06-26T13:33:27Z</time>
      </trkpt>
      <trkpt lat="44.82934" lon="5.45908">
        <ele>1680.1758</ele>
        <time>2014-06-26T13:33:31Z</time>
      </trkpt>
      <trkpt lat="44.82934" lon="5.45905">
        <ele>1680.1758</ele>
        <time>2014-06-26T13:33:37Z</time>
      </trkpt>
      <trkpt lat="44.82935" lon="5.459">
        <ele>1678.6731</ele>
        <time>2014-06-26T13:33:42Z</time>
      </trkpt>
      <trkpt lat="44.82934" lon="5.45898">
        <ele>1678.6731</ele>
        <time>2014-06-26T13:33:47Z</time>
      </trkpt>
      <trkpt lat="44.82936" lon="5.45892">
        <ele>1678.6731</ele>
        <time>2014-06-26T13:33:52Z</time>
      </trkpt>
      <trkpt lat="44.82937" lon="5.45886">
        <ele>1677.3323</ele>
        <time>2014-06-26T13:33:57Z</time>
      </trkpt>
      <trkpt lat="44.82937" lon="5.45881">
        <ele>1677.3323</ele>
        <time>2014-06-26T13:34:01Z</time>
      </trkpt>
      <trkpt lat="44.82941" lon="5.45875">
        <ele>1676.0277</ele>
        <time>2014-06-26T13:34:07Z</time>
      </trkpt>
      <trkpt lat="44.8294" lon="5.45869">
        <ele>1676.0277</ele>
        <time>2014-06-26T13:34:12Z</time>
      </trkpt>
      <trkpt lat="44.82938" lon="5.45863">
        <ele>1676.0277</ele>
        <time>2014-06-26T13:34:17Z</time>
      </trkpt>
      <trkpt lat="44.82939" lon="5.4586">
        <ele>1674.7722</ele>
        <time>2014-06-26T13:34:22Z</time>
      </trkpt>
      <trkpt lat="44.82938" lon="5.45857">
        <ele>1674.7722</ele>
        <time>2014-06-26T13:34:27Z</time>
      </trkpt>
      <trkpt lat="44.82931" lon="5.45848">
        <ele>1673.5918</ele>
        <time>2014-06-26T13:34:32Z</time>
      </trkpt>
      <trkpt lat="44.82924" lon="5.4584">
        <ele>1672.4961</ele>
        <time>2014-06-26T13:34:37Z</time>
      </trkpt>
      <trkpt lat="44.8292" lon="5.45834">
        <ele>1672.4961</ele>
        <time>2014-06-26T13:34:42Z</time>
      </trkpt>
      <trkpt lat="44.82922" lon="5.45832">
        <ele>1672.4961</ele>
        <time>2014-06-26T13:34:47Z</time>
      </trkpt>
      <trkpt lat="44.82916" lon="5.45824">
        <ele>1671.3202</ele>
        <time>2014-06-26T13:34:52Z</time>
      </trkpt>
      <trkpt lat="44.82914" lon="5.45817">
        <ele>1671.3202</ele>
        <time>2014-06-26T13:34:56Z</time>
      </trkpt>
      <trkpt lat="44.82914" lon="5.45809">
        <ele>1670.1282</ele>
        <time>2014-06-26T13:35:02Z</time>
      </trkpt>
      <trkpt lat="44.82915" lon="5.45801">
        <ele>1670.1282</ele>
        <time>2014-06-26T13:35:12Z</time>
      </trkpt>
      <trkpt lat="44.82916" lon="5.45801">
        <ele>1670.1282</ele>
        <time>2014-06-26T13:35:22Z</time>
      </trkpt>
      <trkpt lat="44.82917" lon="5.45801">
        <ele>1670.1282</ele>
        <time>2014-06-26T13:35:26Z</time>
      </trkpt>
      <trkpt lat="44.82921" lon="5.45801">
        <ele>1668.316</ele>
        <time>2014-06-26T13:35:30Z</time>
      </trkpt>
      <trkpt lat="44.82922" lon="5.45798">
        <ele>1668.316</ele>
        <time>2014-06-26T13:35:35Z</time>
      </trkpt>
      <trkpt lat="44.82924" lon="5.45796">
        <ele>1668.316</ele>
        <time>2014-06-26T13:35:40Z</time>
      </trkpt>
      <trkpt lat="44.82927" lon="5.45795">
        <ele>1668.316</ele>
        <time>2014-06-26T13:35:45Z</time>
      </trkpt>
      <trkpt lat="44.82929" lon="5.4579">
        <ele>1666.4067</ele>
        <time>2014-06-26T13:35:50Z</time>
      </trkpt>
      <trkpt lat="44.8293" lon="5.4579">
        <ele>1666.4067</ele>
        <time>2014-06-26T13:35:55Z</time>
      </trkpt>
      <trkpt lat="44.82927" lon="5.45784">
        <ele>1666.4067</ele>
        <time>2014-06-26T13:36:00Z</time>
      </trkpt>
      <trkpt lat="44.82927" lon="5.45783">
        <ele>1666.4067</ele>
        <time>2014-06-26T13:36:05Z</time>
      </trkpt>
      <trkpt lat="44.82926" lon="5.45779">
        <ele>1664.5824</ele>
        <time>2014-06-26T13:36:17Z</time>
      </trkpt>
      <trkpt lat="44.82925" lon="5.45773">
        <ele>1664.5824</ele>
        <time>2014-06-26T13:36:22Z</time>
      </trkpt>
      <trkpt lat="44.82922" lon="5.45771">
        <ele>1664.5824</ele>
        <time>2014-06-26T13:36:27Z</time>
      </trkpt>
      <trkpt lat="44.82917" lon="5.45767">
        <ele>1662.968</ele>
        <time>2014-06-26T13:36:32Z</time>
      </trkpt>
      <trkpt lat="44.82909" lon="5.45761">
        <ele>1662.968</ele>
        <time>2014-06-26T13:36:36Z</time>
      </trkpt>
      <trkpt lat="44.82902" lon="5.45759">
        <ele>1661.4482</ele>
        <time>2014-06-26T13:36:42Z</time>
      </trkpt>
      <trkpt lat="44.829" lon="5.45754">
        <ele>1661.4482</ele>
        <time>2014-06-26T13:36:47Z</time>
      </trkpt>
      <trkpt lat="44.82895" lon="5.45749">
        <ele>1660.0314</ele>
        <time>2014-06-26T13:36:51Z</time>
      </trkpt>
      <trkpt lat="44.82892" lon="5.45746">
        <ele>1660.0314</ele>
        <time>2014-06-26T13:36:57Z</time>
      </trkpt>
      <trkpt lat="44.82889" lon="5.45742">
        <ele>1660.0314</ele>
        <time>2014-06-26T13:37:02Z</time>
      </trkpt>
      <trkpt lat="44.82889" lon="5.45738">
        <ele>1658.609</ele>
        <time>2014-06-26T13:37:05Z</time>
      </trkpt>
      <trkpt lat="44.82887" lon="5.45735">
        <ele>1658.609</ele>
        <time>2014-06-26T13:37:11Z</time>
      </trkpt>
      <trkpt lat="44.82888" lon="5.45734">
        <ele>1658.609</ele>
        <time>2014-06-26T13:37:17Z</time>
      </trkpt>
      <trkpt lat="44.82883" lon="5.45731">
        <ele>1657.124</ele>
        <time>2014-06-26T13:37:22Z</time>
      </trkpt>
      <trkpt lat="44.82883" lon="5.45726">
        <ele>1657.124</ele>
        <time>2014-06-26T13:37:27Z</time>
      </trkpt>
      <trkpt lat="44.82881" lon="5.45726">
        <ele>1657.124</ele>
        <time>2014-06-26T13:37:32Z</time>
      </trkpt>
      <trkpt lat="44.82878" lon="5.45725">
        <ele>1657.124</ele>
        <time>2014-06-26T13:37:37Z</time>
      </trkpt>
      <trkpt lat="44.82876" lon="5.45721">
        <ele>1655.3221</ele>
        <time>2014-06-26T13:37:42Z</time>
      </trkpt>
      <trkpt lat="44.82874" lon="5.45718">
        <ele>1655.3221</ele>
        <time>2014-06-26T13:37:47Z</time>
      </trkpt>
      <trkpt lat="44.82872" lon="5.45712">
        <ele>1655.3221</ele>
        <time>2014-06-26T13:37:52Z</time>
      </trkpt>
      <trkpt lat="44.8287" lon="5.4571">
        <ele>1653.4869</ele>
        <time>2014-06-26T13:37:57Z</time>
      </trkpt>
      <trkpt lat="44.82867" lon="5.45707">
        <ele>1653.4869</ele>
        <time>2014-06-26T13:38:02Z</time>
      </trkpt>
      <trkpt lat="44.82865" lon="5.45699">
        <ele>1651.6075</ele>
        <time>2014-06-26T13:38:07Z</time>
      </trkpt>
      <trkpt lat="44.82865" lon="5.4569">
        <ele>1651.6075</ele>
        <time>2014-06-26T13:38:11Z</time>
      </trkpt>
      <trkpt lat="44.82864" lon="5.45688">
        <ele>1651.6075</ele>
        <time>2014-06-26T13:38:17Z</time>
      </trkpt>
      <trkpt lat="44.82864" lon="5.45688">
        <ele>1651.6075</ele>
        <time>2014-06-26T13:38:22Z</time>
      </trkpt>
      <trkpt lat="44.82863" lon="5.45687">
        <ele>1651.6075</ele>
        <time>2014-06-26T13:38:27Z</time>
      </trkpt>
      <trkpt lat="44.82862" lon="5.4568">
        <ele>1649.1265</ele>
        <time>2014-06-26T13:38:37Z</time>
      </trkpt>
      <trkpt lat="44.82859" lon="5.45677">
        <ele>1649.1265</ele>
        <time>2014-06-26T13:38:42Z</time>
      </trkpt>
      <trkpt lat="44.82857" lon="5.45674">
        <ele>1649.1265</ele>
        <time>2014-06-26T13:38:47Z</time>
      </trkpt>
      <trkpt lat="44.82859" lon="5.45677">
        <ele>1649.1265</ele>
        <time>2014-06-26T13:38:52Z</time>
      </trkpt>
      <trkpt lat="44.82859" lon="5.45677">
        <ele>1649.1265</ele>
        <time>2014-06-26T13:38:57Z</time>
      </trkpt>
      <trkpt lat="44.82862" lon="5.45681">
        <ele>1644.5343</ele>
        <time>2014-06-26T13:39:02Z</time>
      </trkpt>
      <trkpt lat="44.82868" lon="5.45667">
        <ele>1638.3405</ele>
        <time>2014-06-26T13:39:52Z</time>
      </trkpt>
      <trkpt lat="44.82868" lon="5.45663">
        <ele>1638.3405</ele>
        <time>2014-06-26T13:39:57Z</time>
      </trkpt>
      <trkpt lat="44.82869" lon="5.4566">
        <ele>1638.3405</ele>
        <time>2014-06-26T13:40:02Z</time>
      </trkpt>
      <trkpt lat="44.82866" lon="5.45648">
        <ele>1632.4916</ele>
        <time>2014-06-26T13:40:07Z</time>
      </trkpt>
      <trkpt lat="44.82866" lon="5.45644">
        <ele>1632.4916</ele>
        <time>2014-06-26T13:40:12Z</time>
      </trkpt>
      <trkpt lat="44.82864" lon="5.45645">
        <ele>1632.4916</ele>
        <time>2014-06-26T13:40:17Z</time>
      </trkpt>
      <trkpt lat="44.82862" lon="5.45639">
        <ele>1632.4916</ele>
        <time>2014-06-26T13:40:22Z</time>
      </trkpt>
      <trkpt lat="44.82861" lon="5.45633">
        <ele>1626.8444</ele>
        <time>2014-06-26T13:40:27Z</time>
      </trkpt>
      <trkpt lat="44.82859" lon="5.4563">
        <ele>1626.8444</ele>
        <time>2014-06-26T13:40:32Z</time>
      </trkpt>
      <trkpt lat="44.82859" lon="5.45627">
        <ele>1626.8444</ele>
        <time>2014-06-26T13:40:37Z</time>
      </trkpt>
      <trkpt lat="44.82859" lon="5.45624">
        <ele>1626.8444</ele>
        <time>2014-06-26T13:40:42Z</time>
      </trkpt>
      <trkpt lat="44.82861" lon="5.45623">
        <ele>1626.8444</ele>
        <time>2014-06-26T13:40:47Z</time>
      </trkpt>
      <trkpt lat="44.82861" lon="5.45623">
        <ele>1626.8444</ele>
        <time>2014-06-26T13:40:51Z</time>
      </trkpt>
      <trkpt lat="44.82861" lon="5.45615">
        <ele>1621.3522</ele>
        <time>2014-06-26T13:40:57Z</time>
      </trkpt>
      <trkpt lat="44.82861" lon="5.45614">
        <ele>1621.3522</ele>
        <time>2014-06-26T13:41:01Z</time>
      </trkpt>
      <trkpt lat="44.8286" lon="5.45608">
        <ele>1621.3522</ele>
        <time>2014-06-26T13:41:07Z</time>
      </trkpt>
      <trkpt lat="44.82862" lon="5.45605">
        <ele>1621.3522</ele>
        <time>2014-06-26T13:41:12Z</time>
      </trkpt>
      <trkpt lat="44.82861" lon="5.45605">
        <ele>1621.3522</ele>
        <time>2014-06-26T13:41:17Z</time>
      </trkpt>
      <trkpt lat="44.82861" lon="5.45601">
        <ele>1616.2015</ele>
        <time>2014-06-26T13:41:21Z</time>
      </trkpt>
      <trkpt lat="44.82865" lon="5.45597">
        <ele>1616.2015</ele>
        <time>2014-06-26T13:41:27Z</time>
      </trkpt>
      <trkpt lat="44.82866" lon="5.45592">
        <ele>1616.2015</ele>
        <time>2014-06-26T13:41:32Z</time>
      </trkpt>
      <trkpt lat="44.82866" lon="5.45584">
        <ele>1611.4633</ele>
        <time>2014-06-26T13:41:37Z</time>
      </trkpt>
      <trkpt lat="44.82866" lon="5.45575">
        <ele>1611.4633</ele>
        <time>2014-06-26T13:41:42Z</time>
      </trkpt>
      <trkpt lat="44.82866" lon="5.45565">
        <ele>1607.1729</ele>
        <time>2014-06-26T13:41:47Z</time>
      </trkpt>
      <trkpt lat="44.82868" lon="5.4556">
        <ele>1607.1729</ele>
        <time>2014-06-26T13:41:52Z</time>
      </trkpt>
      <trkpt lat="44.82868" lon="5.45556">
        <ele>1607.1729</ele>
        <time>2014-06-26T13:41:56Z</time>
      </trkpt>
      <trkpt lat="44.82867" lon="5.45553">
        <ele>1603.2896</ele>
        <time>2014-06-26T13:42:02Z</time>
      </trkpt>
      <trkpt lat="44.82866" lon="5.45549">
        <ele>1603.2896</ele>
        <time>2014-06-26T13:42:06Z</time>
      </trkpt>
      <trkpt lat="44.82865" lon="5.45542">
        <ele>1603.2896</ele>
        <time>2014-06-26T13:42:12Z</time>
      </trkpt>
      <trkpt lat="44.82865" lon="5.4554">
        <ele>1599.7888</ele>
        <time>2014-06-26T13:42:17Z</time>
      </trkpt>
      <trkpt lat="44.82865" lon="5.45539">
        <ele>1599.7888</ele>
        <time>2014-06-26T13:42:21Z</time>
      </trkpt>
      <trkpt lat="44.8286" lon="5.45527">
        <ele>1596.661</ele>
        <time>2014-06-26T13:42:27Z</time>
      </trkpt>
      <trkpt lat="44.82859" lon="5.45524">
        <ele>1596.661</ele>
        <time>2014-06-26T13:42:32Z</time>
      </trkpt>
      <trkpt lat="44.82859" lon="5.4552">
        <ele>1596.661</ele>
        <time>2014-06-26T13:42:37Z</time>
      </trkpt>
      <trkpt lat="44.82861" lon="5.45514">
        <ele>1593.7661</ele>
        <time>2014-06-26T13:42:42Z</time>
      </trkpt>
      <trkpt lat="44.82862" lon="5.45511">
        <ele>1593.7661</ele>
        <time>2014-06-26T13:42:46Z</time>
      </trkpt>
      <trkpt lat="44.82862" lon="5.45505">
        <ele>1593.7661</ele>
        <time>2014-06-26T13:42:52Z</time>
      </trkpt>
      <trkpt lat="44.82867" lon="5.45499">
        <ele>1591.017</ele>
        <time>2014-06-26T13:42:57Z</time>
      </trkpt>
      <trkpt lat="44.82868" lon="5.45492">
        <ele>1591.017</ele>
        <time>2014-06-26T13:43:02Z</time>
      </trkpt>
      <trkpt lat="44.8287" lon="5.45485">
        <ele>1588.5769</ele>
        <time>2014-06-26T13:43:07Z</time>
      </trkpt>
      <trkpt lat="44.82873" lon="5.4548">
        <ele>1588.5769</ele>
        <time>2014-06-26T13:43:11Z</time>
      </trkpt>
      <trkpt lat="44.82874" lon="5.45478">
        <ele>1588.5769</ele>
        <time>2014-06-26T13:43:16Z</time>
      </trkpt>
      <trkpt lat="44.82876" lon="5.45474">
        <ele>1586.294</ele>
        <time>2014-06-26T13:43:22Z</time>
      </trkpt>
      <trkpt lat="44.82875" lon="5.45472">
        <ele>1586.294</ele>
        <time>2014-06-26T13:43:27Z</time>
      </trkpt>
      <trkpt lat="44.82872" lon="5.45468">
        <ele>1586.294</ele>
        <time>2014-06-26T13:43:32Z</time>
      </trkpt>
      <trkpt lat="44.82873" lon="5.45466">
        <ele>1586.294</ele>
        <time>2014-06-26T13:43:37Z</time>
      </trkpt>
      <trkpt lat="44.8287" lon="5.45457">
        <ele>1583.9976</ele>
        <time>2014-06-26T13:43:42Z</time>
      </trkpt>
      <trkpt lat="44.8287" lon="5.45453">
        <ele>1583.9976</ele>
        <time>2014-06-26T13:43:47Z</time>
      </trkpt>
      <trkpt lat="44.8287" lon="5.45447">
        <ele>1583.9976</ele>
        <time>2014-06-26T13:43:51Z</time>
      </trkpt>
      <trkpt lat="44.8287" lon="5.45439">
        <ele>1581.8612</ele>
        <time>2014-06-26T13:43:57Z</time>
      </trkpt>
      <trkpt lat="44.82869" lon="5.45436">
        <ele>1581.8612</ele>
        <time>2014-06-26T13:44:02Z</time>
      </trkpt>
      <trkpt lat="44.82869" lon="5.45432">
        <ele>1581.8612</ele>
        <time>2014-06-26T13:44:07Z</time>
      </trkpt>
      <trkpt lat="44.8287" lon="5.45428">
        <ele>1581.8612</ele>
        <time>2014-06-26T13:44:12Z</time>
      </trkpt>
      <trkpt lat="44.82869" lon="5.45425">
        <ele>1579.8721</ele>
        <time>2014-06-26T13:44:17Z</time>
      </trkpt>
      <trkpt lat="44.82868" lon="5.45421">
        <ele>1579.8721</ele>
        <time>2014-06-26T13:44:22Z</time>
      </trkpt>
      <trkpt lat="44.82867" lon="5.45415">
        <ele>1579.8721</ele>
        <time>2014-06-26T13:44:26Z</time>
      </trkpt>
      <trkpt lat="44.82868" lon="5.45412">
        <ele>1578.0321</ele>
        <time>2014-06-26T13:44:32Z</time>
      </trkpt>
      <trkpt lat="44.8287" lon="5.45412">
        <ele>1578.0321</ele>
        <time>2014-06-26T13:44:37Z</time>
      </trkpt>
      <trkpt lat="44.82871" lon="5.45407">
        <ele>1578.0321</ele>
        <time>2014-06-26T13:44:42Z</time>
      </trkpt>
      <trkpt lat="44.82871" lon="5.45401">
        <ele>1576.3282</ele>
        <time>2014-06-26T13:44:47Z</time>
      </trkpt>
      <trkpt lat="44.82873" lon="5.45397">
        <ele>1576.3282</ele>
        <time>2014-06-26T13:44:52Z</time>
      </trkpt>
      <trkpt lat="44.82873" lon="5.45395">
        <ele>1576.3282</ele>
        <time>2014-06-26T13:44:56Z</time>
      </trkpt>
      <trkpt lat="44.82872" lon="5.45393">
        <ele>1576.3282</ele>
        <time>2014-06-26T13:45:00Z</time>
      </trkpt>
      <trkpt lat="44.82871" lon="5.45391">
        <ele>1576.3282</ele>
        <time>2014-06-26T13:45:07Z</time>
      </trkpt>
      <trkpt lat="44.82867" lon="5.45391">
        <ele>1574.6613</ele>
        <time>2014-06-26T13:45:17Z</time>
      </trkpt>
      <trkpt lat="44.82864" lon="5.45392">
        <ele>1574.6613</ele>
        <time>2014-06-26T13:45:22Z</time>
      </trkpt>
      <trkpt lat="44.82864" lon="5.45393">
        <ele>1574.6613</ele>
        <time>2014-06-26T13:45:27Z</time>
      </trkpt>
      <trkpt lat="44.82864" lon="5.45395">
        <ele>1574.6613</ele>
        <time>2014-06-26T13:45:57Z</time>
      </trkpt>
      <trkpt lat="44.82864" lon="5.45395">
        <ele>1574.6613</ele>
        <time>2014-06-26T13:46:02Z</time>
      </trkpt>
      <trkpt lat="44.82861" lon="5.45395">
        <ele>1574.6613</ele>
        <time>2014-06-26T13:46:19Z</time>
      </trkpt>
      <trkpt lat="44.82859" lon="5.45398">
        <ele>1572.6367</ele>
        <time>2014-06-26T13:46:20Z</time>
      </trkpt>
      <trkpt lat="44.82859" lon="5.454">
        <ele>1572.6367</ele>
        <time>2014-06-26T13:46:27Z</time>
      </trkpt>
      <trkpt lat="44.82858" lon="5.45413">
        <ele>1569.6736</ele>
        <time>2014-06-26T13:48:12Z</time>
      </trkpt>
      <trkpt lat="44.82857" lon="5.45413">
        <ele>1569.6736</ele>
        <time>2014-06-26T13:48:17Z</time>
      </trkpt>
      <trkpt lat="44.82859" lon="5.45416">
        <ele>1569.6736</ele>
        <time>2014-06-26T13:48:27Z</time>
      </trkpt>
      <trkpt lat="44.82858" lon="5.45422">
        <ele>1569.6736</ele>
        <time>2014-06-26T13:48:32Z</time>
      </trkpt>
      <trkpt lat="44.82856" lon="5.45424">
        <ele>1566.5765</ele>
        <time>2014-06-26T13:48:37Z</time>
      </trkpt>
      <trkpt lat="44.82852" lon="5.45427">
        <ele>1566.5765</ele>
        <time>2014-06-26T13:48:42Z</time>
      </trkpt>
      <trkpt lat="44.8285" lon="5.45429">
        <ele>1566.5765</ele>
        <time>2014-06-26T13:48:47Z</time>
      </trkpt>
      <trkpt lat="44.82853" lon="5.4543">
        <ele>1561.9584</ele>
        <time>2014-06-26T13:50:42Z</time>
      </trkpt>
      <trkpt lat="44.82849" lon="5.4544">
        <ele>1561.9584</ele>
        <time>2014-06-26T13:50:47Z</time>
      </trkpt>
      <trkpt lat="44.82845" lon="5.45445">
        <ele>1557.2477</ele>
        <time>2014-06-26T13:50:52Z</time>
      </trkpt>
      <trkpt lat="44.82842" lon="5.45449">
        <ele>1557.2477</ele>
        <time>2014-06-26T13:50:56Z</time>
      </trkpt>
      <trkpt lat="44.82839" lon="5.45458">
        <ele>1552.3124</ele>
        <time>2014-06-26T13:51:02Z</time>
      </trkpt>
      <trkpt lat="44.82837" lon="5.45462">
        <ele>1552.3124</ele>
        <time>2014-06-26T13:51:07Z</time>
      </trkpt>
      <trkpt lat="44.82835" lon="5.45467">
        <ele>1552.3124</ele>
        <time>2014-06-26T13:51:14Z</time>
      </trkpt>
      <trkpt lat="44.82832" lon="5.45471">
        <ele>1547.1606</ele>
        <time>2014-06-26T13:51:16Z</time>
      </trkpt>
      <trkpt lat="44.8283" lon="5.45475">
        <ele>1547.1606</ele>
        <time>2014-06-26T13:51:22Z</time>
      </trkpt>
      <trkpt lat="44.82826" lon="5.45482">
        <ele>1542.2758</ele>
        <time>2014-06-26T13:51:27Z</time>
      </trkpt>
      <trkpt lat="44.82826" lon="5.45489">
        <ele>1542.2758</ele>
        <time>2014-06-26T13:51:32Z</time>
      </trkpt>
      <trkpt lat="44.8282" lon="5.45495">
        <ele>1537.3125</ele>
        <time>2014-06-26T13:51:37Z</time>
      </trkpt>
      <trkpt lat="44.82818" lon="5.45499">
        <ele>1537.3125</ele>
        <time>2014-06-26T13:51:42Z</time>
      </trkpt>
      <trkpt lat="44.82813" lon="5.45501">
        <ele>1532.34</ele>
        <time>2014-06-26T13:51:47Z</time>
      </trkpt>
      <trkpt lat="44.8281" lon="5.45504">
        <ele>1532.34</ele>
        <time>2014-06-26T13:51:52Z</time>
      </trkpt>
      <trkpt lat="44.82806" lon="5.45508">
        <ele>1532.34</ele>
        <time>2014-06-26T13:51:57Z</time>
      </trkpt>
      <trkpt lat="44.82804" lon="5.4551">
        <ele>1527.3356</ele>
        <time>2014-06-26T13:52:01Z</time>
      </trkpt>
      <trkpt lat="44.82803" lon="5.4551">
        <ele>1527.3356</ele>
        <time>2014-06-26T13:52:07Z</time>
      </trkpt>
      <trkpt lat="44.82799" lon="5.45513">
        <ele>1527.3356</ele>
        <time>2014-06-26T13:52:12Z</time>
      </trkpt>
      <trkpt lat="44.82798" lon="5.45516">
        <ele>1527.3356</ele>
        <time>2014-06-26T13:52:17Z</time>
      </trkpt>
      <trkpt lat="44.82795" lon="5.45521">
        <ele>1522.6244</ele>
        <time>2014-06-26T13:52:22Z</time>
      </trkpt>
      <trkpt lat="44.82793" lon="5.45525">
        <ele>1522.6244</ele>
        <time>2014-06-26T13:52:27Z</time>
      </trkpt>
      <trkpt lat="44.82789" lon="5.45527">
        <ele>1522.6244</ele>
        <time>2014-06-26T13:52:32Z</time>
      </trkpt>
      <trkpt lat="44.82787" lon="5.45532">
        <ele>1518.2615</ele>
        <time>2014-06-26T13:52:37Z</time>
      </trkpt>
      <trkpt lat="44.82784" lon="5.45535">
        <ele>1518.2615</ele>
        <time>2014-06-26T13:52:42Z</time>
      </trkpt>
      <trkpt lat="44.82782" lon="5.45537">
        <ele>1518.2615</ele>
        <time>2014-06-26T13:52:47Z</time>
      </trkpt>
      <trkpt lat="44.8278" lon="5.45541">
        <ele>1513.9221</ele>
        <time>2014-06-26T13:52:52Z</time>
      </trkpt>
      <trkpt lat="44.8278" lon="5.45546">
        <ele>1513.9221</ele>
        <time>2014-06-26T13:52:57Z</time>
      </trkpt>
      <trkpt lat="44.82774" lon="5.4555">
        <ele>1509.7089</ele>
        <time>2014-06-26T13:53:02Z</time>
      </trkpt>
      <trkpt lat="44.8277" lon="5.45555">
        <ele>1509.7089</ele>
        <time>2014-06-26T13:53:07Z</time>
      </trkpt>
      <trkpt lat="44.82766" lon="5.45556">
        <ele>1505.846</ele>
        <time>2014-06-26T13:53:12Z</time>
      </trkpt>
      <trkpt lat="44.82761" lon="5.45557">
        <ele>1505.846</ele>
        <time>2014-06-26T13:53:17Z</time>
      </trkpt>
      <trkpt lat="44.82754" lon="5.45558">
        <ele>1502.2516</ele>
        <time>2014-06-26T13:53:22Z</time>
      </trkpt>
      <trkpt lat="44.82746" lon="5.4556">
        <ele>1502.2516</ele>
        <time>2014-06-26T13:53:27Z</time>
      </trkpt>
      <trkpt lat="44.82742" lon="5.45565">
        <ele>1498.9789</ele>
        <time>2014-06-26T13:53:32Z</time>
      </trkpt>
      <trkpt lat="44.8274" lon="5.45569">
        <ele>1498.9789</ele>
        <time>2014-06-26T13:53:37Z</time>
      </trkpt>
      <trkpt lat="44.82738" lon="5.45574">
        <ele>1498.9789</ele>
        <time>2014-06-26T13:53:42Z</time>
      </trkpt>
      <trkpt lat="44.82737" lon="5.45575">
        <ele>1498.9789</ele>
        <time>2014-06-26T13:53:46Z</time>
      </trkpt>
      <trkpt lat="44.82732" lon="5.45578">
        <ele>1495.9321</ele>
        <time>2014-06-26T13:53:51Z</time>
      </trkpt>
      <trkpt lat="44.82728" lon="5.45575">
        <ele>1495.9321</ele>
        <time>2014-06-26T13:53:57Z</time>
      </trkpt>
      <trkpt lat="44.82724" lon="5.45575">
        <ele>1495.9321</ele>
        <time>2014-06-26T13:54:01Z</time>
      </trkpt>
      <trkpt lat="44.82721" lon="5.45575">
        <ele>1493.2234</ele>
        <time>2014-06-26T13:54:07Z</time>
      </trkpt>
      <trkpt lat="44.82717" lon="5.45576">
        <ele>1493.2234</ele>
        <time>2014-06-26T13:54:12Z</time>
      </trkpt>
      <trkpt lat="44.82714" lon="5.4558">
        <ele>1493.2234</ele>
        <time>2014-06-26T13:54:17Z</time>
      </trkpt>
      <trkpt lat="44.82708" lon="5.45577">
        <ele>1490.7826</ele>
        <time>2014-06-26T13:54:22Z</time>
      </trkpt>
      <trkpt lat="44.82708" lon="5.45573">
        <ele>1490.7826</ele>
        <time>2014-06-26T13:54:26Z</time>
      </trkpt>
      <trkpt lat="44.82707" lon="5.45569">
        <ele>1490.7826</ele>
        <time>2014-06-26T13:54:32Z</time>
      </trkpt>
      <trkpt lat="44.82706" lon="5.45569">
        <ele>1490.7826</ele>
        <time>2014-06-26T13:54:36Z</time>
      </trkpt>
      <trkpt lat="44.82704" lon="5.4558">
        <ele>1487.8956</ele>
        <time>2014-06-26T13:54:42Z</time>
      </trkpt>
      <trkpt lat="44.82701" lon="5.45583">
        <ele>1487.8956</ele>
        <time>2014-06-26T13:54:47Z</time>
      </trkpt>
      <trkpt lat="44.82699" lon="5.45585">
        <ele>1487.8956</ele>
        <time>2014-06-26T13:54:52Z</time>
      </trkpt>
      <trkpt lat="44.82696" lon="5.45585">
        <ele>1484.8817</ele>
        <time>2014-06-26T13:54:57Z</time>
      </trkpt>
      <trkpt lat="44.82692" lon="5.45586">
        <ele>1484.8817</ele>
        <time>2014-06-26T13:55:02Z</time>
      </trkpt>
      <trkpt lat="44.8269" lon="5.45587">
        <ele>1484.8817</ele>
        <time>2014-06-26T13:55:07Z</time>
      </trkpt>
      <trkpt lat="44.82685" lon="5.45587">
        <ele>1481.792</ele>
        <time>2014-06-26T13:55:12Z</time>
      </trkpt>
      <trkpt lat="44.82682" lon="5.4559">
        <ele>1481.792</ele>
        <time>2014-06-26T13:55:17Z</time>
      </trkpt>
      <trkpt lat="44.8268" lon="5.45592">
        <ele>1481.792</ele>
        <time>2014-06-26T13:55:22Z</time>
      </trkpt>
      <trkpt lat="44.82678" lon="5.45594">
        <ele>1481.792</ele>
        <time>2014-06-26T13:55:27Z</time>
      </trkpt>
      <trkpt lat="44.82675" lon="5.45596">
        <ele>1478.8184</ele>
        <time>2014-06-26T13:55:32Z</time>
      </trkpt>
      <trkpt lat="44.82668" lon="5.456">
        <ele>1478.8184</ele>
        <time>2014-06-26T13:55:37Z</time>
      </trkpt>
      <trkpt lat="44.82664" lon="5.45602">
        <ele>1476.1093</ele>
        <time>2014-06-26T13:55:42Z</time>
      </trkpt>
      <trkpt lat="44.82658" lon="5.45605">
        <ele>1476.1093</ele>
        <time>2014-06-26T13:55:57Z</time>
      </trkpt>
      <trkpt lat="44.82658" lon="5.45606">
        <ele>1476.1093</ele>
        <time>2014-06-26T13:56:02Z</time>
      </trkpt>
      <trkpt lat="44.82655" lon="5.45608">
        <ele>1473.4985</ele>
        <time>2014-06-26T13:56:32Z</time>
      </trkpt>
      <trkpt lat="44.82652" lon="5.45611">
        <ele>1473.4985</ele>
        <time>2014-06-26T13:56:37Z</time>
      </trkpt>
      <trkpt lat="44.8265" lon="5.45613">
        <ele>1473.4985</ele>
        <time>2014-06-26T13:56:41Z</time>
      </trkpt>
      <trkpt lat="44.82649" lon="5.45615">
        <ele>1473.4985</ele>
        <time>2014-06-26T13:56:46Z</time>
      </trkpt>
      <trkpt lat="44.82646" lon="5.4562">
        <ele>1471.1495</ele>
        <time>2014-06-26T13:56:51Z</time>
      </trkpt>
      <trkpt lat="44.82641" lon="5.45622">
        <ele>1471.1495</ele>
        <time>2014-06-26T13:56:57Z</time>
      </trkpt>
      <trkpt lat="44.82637" lon="5.45625">
        <ele>1469.1548</ele>
        <time>2014-06-26T13:57:02Z</time>
      </trkpt>
      <trkpt lat="44.82632" lon="5.45629">
        <ele>1469.1548</ele>
        <time>2014-06-26T13:57:07Z</time>
      </trkpt>
      <trkpt lat="44.82626" lon="5.45635">
        <ele>1467.4839</ele>
        <time>2014-06-26T13:57:12Z</time>
      </trkpt>
      <trkpt lat="44.82622" lon="5.45636">
        <ele>1467.4839</ele>
        <time>2014-06-26T13:57:17Z</time>
      </trkpt>
      <trkpt lat="44.82619" lon="5.45639">
        <ele>1467.4839</ele>
        <time>2014-06-26T13:57:22Z</time>
      </trkpt>
      <trkpt lat="44.82615" lon="5.45644">
        <ele>1466.1365</ele>
        <time>2014-06-26T13:57:27Z</time>
      </trkpt>
      <trkpt lat="44.82609" lon="5.45647">
        <ele>1466.1365</ele>
        <time>2014-06-26T13:57:32Z</time>
      </trkpt>
      <trkpt lat="44.82604" lon="5.45652">
        <ele>1465.0396</ele>
        <time>2014-06-26T13:57:37Z</time>
      </trkpt>
      <trkpt lat="44.826" lon="5.45655">
        <ele>1465.0396</ele>
        <time>2014-06-26T13:57:42Z</time>
      </trkpt>
      <trkpt lat="44.82596" lon="5.45659">
        <ele>1464.139</ele>
        <time>2014-06-26T13:57:46Z</time>
      </trkpt>
      <trkpt lat="44.82593" lon="5.45663">
        <ele>1464.139</ele>
        <time>2014-06-26T13:57:52Z</time>
      </trkpt>
      <trkpt lat="44.82592" lon="5.45663">
        <ele>1464.139</ele>
        <time>2014-06-26T13:57:59Z</time>
      </trkpt>
      <trkpt lat="44.82592" lon="5.45664">
        <ele>1464.139</ele>
        <time>2014-06-26T13:58:00Z</time>
      </trkpt>
      <trkpt lat="44.82589" lon="5.45669">
        <ele>1463.4274</ele>
        <time>2014-06-26T13:58:07Z</time>
      </trkpt>
      <trkpt lat="44.82589" lon="5.45668">
        <ele>1463.4274</ele>
        <time>2014-06-26T13:58:12Z</time>
      </trkpt>
      <trkpt lat="44.82587" lon="5.4567">
        <ele>1463.4274</ele>
        <time>2014-06-26T13:58:17Z</time>
      </trkpt>
      <trkpt lat="44.82586" lon="5.45673">
        <ele>1463.4274</ele>
        <time>2014-06-26T13:58:22Z</time>
      </trkpt>
      <trkpt lat="44.82581" lon="5.45676">
        <ele>1462.9264</ele>
        <time>2014-06-26T13:58:27Z</time>
      </trkpt>
      <trkpt lat="44.82575" lon="5.45682">
        <ele>1462.9264</ele>
        <time>2014-06-26T13:58:32Z</time>
      </trkpt>
      <trkpt lat="44.8257" lon="5.45687">
        <ele>1462.6122</ele>
        <time>2014-06-26T13:58:36Z</time>
      </trkpt>
      <trkpt lat="44.82567" lon="5.45687">
        <ele>1462.6122</ele>
        <time>2014-06-26T13:58:42Z</time>
      </trkpt>
      <trkpt lat="44.82563" lon="5.45689">
        <ele>1462.6122</ele>
        <time>2014-06-26T13:58:46Z</time>
      </trkpt>
      <trkpt lat="44.82555" lon="5.45692">
        <ele>1462.3903</ele>
        <time>2014-06-26T13:58:52Z</time>
      </trkpt>
      <trkpt lat="44.82551" lon="5.45693">
        <ele>1462.3903</ele>
        <time>2014-06-26T13:58:56Z</time>
      </trkpt>
      <trkpt lat="44.82545" lon="5.45704">
        <ele>1462.2739</ele>
        <time>2014-06-26T13:59:05Z</time>
      </trkpt>
      <trkpt lat="44.82538" lon="5.45724">
        <ele>1462.16</ele>
        <time>2014-06-26T13:59:12Z</time>
      </trkpt>
      <trkpt lat="44.82537" lon="5.45732">
        <ele>1462.16</ele>
        <time>2014-06-26T13:59:17Z</time>
      </trkpt>
      <trkpt lat="44.82534" lon="5.45741">
        <ele>1461.3909</ele>
        <time>2014-06-26T13:59:22Z</time>
      </trkpt>
      <trkpt lat="44.82529" lon="5.45749">
        <ele>1461.3909</ele>
        <time>2014-06-26T13:59:27Z</time>
      </trkpt>
      <trkpt lat="44.82525" lon="5.45758">
        <ele>1460.2385</ele>
        <time>2014-06-26T13:59:32Z</time>
      </trkpt>
      <trkpt lat="44.82519" lon="5.45763">
        <ele>1460.2385</ele>
        <time>2014-06-26T13:59:37Z</time>
      </trkpt>
      <trkpt lat="44.82519" lon="5.45771">
        <ele>1459.0714</ele>
        <time>2014-06-26T13:59:42Z</time>
      </trkpt>
      <trkpt lat="44.82518" lon="5.45776">
        <ele>1459.0714</ele>
        <time>2014-06-26T13:59:46Z</time>
      </trkpt>
      <trkpt lat="44.82516" lon="5.45783">
        <ele>1459.0714</ele>
        <time>2014-06-26T13:59:52Z</time>
      </trkpt>
      <trkpt lat="44.82515" lon="5.45796">
        <ele>1457.9429</ele>
        <time>2014-06-26T14:00:01Z</time>
      </trkpt>
      <trkpt lat="44.82514" lon="5.45807">
        <ele>1457.9429</ele>
        <time>2014-06-26T14:00:06Z</time>
      </trkpt>
      <trkpt lat="44.82512" lon="5.45813">
        <ele>1456.9601</ele>
        <time>2014-06-26T14:00:12Z</time>
      </trkpt>
      <trkpt lat="44.8251" lon="5.45823">
        <ele>1456.9601</ele>
        <time>2014-06-26T14:00:17Z</time>
      </trkpt>
      <trkpt lat="44.82509" lon="5.45828">
        <ele>1456.0927</ele>
        <time>2014-06-26T14:00:22Z</time>
      </trkpt>
      <trkpt lat="44.82507" lon="5.45835">
        <ele>1456.0927</ele>
        <time>2014-06-26T14:00:27Z</time>
      </trkpt>
      <trkpt lat="44.82505" lon="5.45842">
        <ele>1455.3551</ele>
        <time>2014-06-26T14:00:31Z</time>
      </trkpt>
      <trkpt lat="44.82503" lon="5.45849">
        <ele>1455.3551</ele>
        <time>2014-06-26T14:00:37Z</time>
      </trkpt>
      <trkpt lat="44.82501" lon="5.45857">
        <ele>1454.7611</ele>
        <time>2014-06-26T14:00:42Z</time>
      </trkpt>
      <trkpt lat="44.82503" lon="5.45866">
        <ele>1454.7611</ele>
        <time>2014-06-26T14:00:47Z</time>
      </trkpt>
      <trkpt lat="44.825" lon="5.4587">
        <ele>1454.2509</ele>
        <time>2014-06-26T14:00:52Z</time>
      </trkpt>
      <trkpt lat="44.82496" lon="5.45876">
        <ele>1454.2509</ele>
        <time>2014-06-26T14:00:57Z</time>
      </trkpt>
      <trkpt lat="44.82494" lon="5.45882">
        <ele>1453.7689</ele>
        <time>2014-06-26T14:01:04Z</time>
      </trkpt>
      <trkpt lat="44.82489" lon="5.45883">
        <ele>1453.7689</ele>
        <time>2014-06-26T14:01:06Z</time>
      </trkpt>
      <trkpt lat="44.8248" lon="5.45886">
        <ele>1453.3938</ele>
        <time>2014-06-26T14:01:12Z</time>
      </trkpt>
      <trkpt lat="44.82476" lon="5.45885">
        <ele>1453.3938</ele>
        <time>2014-06-26T14:01:16Z</time>
      </trkpt>
      <trkpt lat="44.82472" lon="5.45888">
        <ele>1453.3938</ele>
        <time>2014-06-26T14:01:21Z</time>
      </trkpt>
      <trkpt lat="44.82465" lon="5.45893">
        <ele>1453.1118</ele>
        <time>2014-06-26T14:01:27Z</time>
      </trkpt>
      <trkpt lat="44.82459" lon="5.45898">
        <ele>1453.1118</ele>
        <time>2014-06-26T14:01:32Z</time>
      </trkpt>
      <trkpt lat="44.82454" lon="5.45901">
        <ele>1452.881</ele>
        <time>2014-06-26T14:01:37Z</time>
      </trkpt>
      <trkpt lat="44.82451" lon="5.45907">
        <ele>1452.881</ele>
        <time>2014-06-26T14:01:42Z</time>
      </trkpt>
      <trkpt lat="44.8245" lon="5.45913">
        <ele>1452.7207</ele>
        <time>2014-06-26T14:01:47Z</time>
      </trkpt>
      <trkpt lat="44.82446" lon="5.4592">
        <ele>1452.7207</ele>
        <time>2014-06-26T14:01:52Z</time>
      </trkpt>
      <trkpt lat="44.82443" lon="5.45927">
        <ele>1452.5476</ele>
        <time>2014-06-26T14:01:57Z</time>
      </trkpt>
      <trkpt lat="44.82438" lon="5.4593">
        <ele>1452.5476</ele>
        <time>2014-06-26T14:02:02Z</time>
      </trkpt>
      <trkpt lat="44.82434" lon="5.45936">
        <ele>1452.4579</ele>
        <time>2014-06-26T14:02:07Z</time>
      </trkpt>
      <trkpt lat="44.8243" lon="5.45941">
        <ele>1452.4579</ele>
        <time>2014-06-26T14:02:12Z</time>
      </trkpt>
      <trkpt lat="44.82425" lon="5.45946">
        <ele>1452.4541</ele>
        <time>2014-06-26T14:02:17Z</time>
      </trkpt>
      <trkpt lat="44.82421" lon="5.45948">
        <ele>1452.4541</ele>
        <time>2014-06-26T14:02:22Z</time>
      </trkpt>
      <trkpt lat="44.82417" lon="5.45953">
        <ele>1452.524</ele>
        <time>2014-06-26T14:02:27Z</time>
      </trkpt>
      <trkpt lat="44.82412" lon="5.45959">
        <ele>1452.524</ele>
        <time>2014-06-26T14:02:32Z</time>
      </trkpt>
      <trkpt lat="44.8241" lon="5.45965">
        <ele>1452.6135</ele>
        <time>2014-06-26T14:02:37Z</time>
      </trkpt>
      <trkpt lat="44.82409" lon="5.45973">
        <ele>1452.6135</ele>
        <time>2014-06-26T14:02:41Z</time>
      </trkpt>
      <trkpt lat="44.82407" lon="5.45978">
        <ele>1452.7588</ele>
        <time>2014-06-26T14:02:47Z</time>
      </trkpt>
      <trkpt lat="44.82406" lon="5.45984">
        <ele>1452.7588</ele>
        <time>2014-06-26T14:02:52Z</time>
      </trkpt>
      <trkpt lat="44.82401" lon="5.45989">
        <ele>1452.9645</ele>
        <time>2014-06-26T14:02:57Z</time>
      </trkpt>
      <trkpt lat="44.82397" lon="5.45993">
        <ele>1452.9645</ele>
        <time>2014-06-26T14:03:01Z</time>
      </trkpt>
      <trkpt lat="44.82395" lon="5.45994">
        <ele>1452.9645</ele>
        <time>2014-06-26T14:03:06Z</time>
      </trkpt>
      <trkpt lat="44.82386" lon="5.45993">
        <ele>1453.1343</ele>
        <time>2014-06-26T14:03:12Z</time>
      </trkpt>
      <trkpt lat="44.8238" lon="5.45996">
        <ele>1453.1343</ele>
        <time>2014-06-26T14:03:17Z</time>
      </trkpt>
      <trkpt lat="44.82372" lon="5.46">
        <ele>1453.28</ele>
        <time>2014-06-26T14:03:22Z</time>
      </trkpt>
      <trkpt lat="44.82371" lon="5.46">
        <ele>1453.28</ele>
        <time>2014-06-26T14:03:26Z</time>
      </trkpt>
      <trkpt lat="44.82366" lon="5.46001">
        <ele>1453.28</ele>
        <time>2014-06-26T14:03:32Z</time>
      </trkpt>
      <trkpt lat="44.82362" lon="5.46">
        <ele>1453.3988</ele>
        <time>2014-06-26T14:03:38Z</time>
      </trkpt>
      <trkpt lat="44.82356" lon="5.46008">
        <ele>1453.3988</ele>
        <time>2014-06-26T14:03:41Z</time>
      </trkpt>
      <trkpt lat="44.82346" lon="5.46014">
        <ele>1453.6609</ele>
        <time>2014-06-26T14:03:47Z</time>
      </trkpt>
      <trkpt lat="44.82339" lon="5.46015">
        <ele>1453.6609</ele>
        <time>2014-06-26T14:03:52Z</time>
      </trkpt>
      <trkpt lat="44.82334" lon="5.46018">
        <ele>1453.9355</ele>
        <time>2014-06-26T14:03:57Z</time>
      </trkpt>
      <trkpt lat="44.82334" lon="5.46022">
        <ele>1453.9355</ele>
        <time>2014-06-26T14:04:02Z</time>
      </trkpt>
      <trkpt lat="44.82331" lon="5.4603">
        <ele>1453.9355</ele>
        <time>2014-06-26T14:04:07Z</time>
      </trkpt>
      <trkpt lat="44.82331" lon="5.46031">
        <ele>1454.1887</ele>
        <time>2014-06-26T14:04:11Z</time>
      </trkpt>
      <trkpt lat="44.82332" lon="5.46042">
        <ele>1454.1887</ele>
        <time>2014-06-26T14:04:17Z</time>
      </trkpt>
      <trkpt lat="44.82332" lon="5.46047">
        <ele>1454.6624</ele>
        <time>2014-06-26T14:04:22Z</time>
      </trkpt>
      <trkpt lat="44.8233" lon="5.46052">
        <ele>1454.6624</ele>
        <time>2014-06-26T14:04:27Z</time>
      </trkpt>
      <trkpt lat="44.82331" lon="5.4606">
        <ele>1455.1628</ele>
        <time>2014-06-26T14:04:32Z</time>
      </trkpt>
      <trkpt lat="44.82331" lon="5.46066">
        <ele>1455.1628</ele>
        <time>2014-06-26T14:04:38Z</time>
      </trkpt>
      <trkpt lat="44.8233" lon="5.46074">
        <ele>1455.4241</ele>
        <time>2014-06-26T14:04:41Z</time>
      </trkpt>
      <trkpt lat="44.8233" lon="5.46079">
        <ele>1455.4241</ele>
        <time>2014-06-26T14:04:47Z</time>
      </trkpt>
      <trkpt lat="44.82331" lon="5.46084">
        <ele>1455.4241</ele>
        <time>2014-06-26T14:04:52Z</time>
      </trkpt>
      <trkpt lat="44.82332" lon="5.46092">
        <ele>1455.8923</ele>
        <time>2014-06-26T14:04:57Z</time>
      </trkpt>
      <trkpt lat="44.82334" lon="5.46099">
        <ele>1455.8923</ele>
        <time>2014-06-26T14:05:02Z</time>
      </trkpt>
      <trkpt lat="44.82336" lon="5.46104">
        <ele>1456.4185</ele>
        <time>2014-06-26T14:05:07Z</time>
      </trkpt>
      <trkpt lat="44.82339" lon="5.46109">
        <ele>1456.4185</ele>
        <time>2014-06-26T14:05:12Z</time>
      </trkpt>
      <trkpt lat="44.82344" lon="5.46113">
        <ele>1457.0807</ele>
        <time>2014-06-26T14:05:17Z</time>
      </trkpt>
      <trkpt lat="44.82348" lon="5.46117">
        <ele>1457.0807</ele>
        <time>2014-06-26T14:05:21Z</time>
      </trkpt>
      <trkpt lat="44.82352" lon="5.46122">
        <ele>1457.908</ele>
        <time>2014-06-26T14:05:27Z</time>
      </trkpt>
      <trkpt lat="44.82352" lon="5.46125">
        <ele>1457.908</ele>
        <time>2014-06-26T14:05:32Z</time>
      </trkpt>
      <trkpt lat="44.82353" lon="5.46134">
        <ele>1457.908</ele>
        <time>2014-06-26T14:05:36Z</time>
      </trkpt>
      <trkpt lat="44.82353" lon="5.46141">
        <ele>1458.8549</ele>
        <time>2014-06-26T14:05:41Z</time>
      </trkpt>
      <trkpt lat="44.82356" lon="5.46155">
        <ele>1459.7638</ele>
        <time>2014-06-26T14:05:47Z</time>
      </trkpt>
      <trkpt lat="44.82358" lon="5.46161">
        <ele>1459.7638</ele>
        <time>2014-06-26T14:05:52Z</time>
      </trkpt>
      <trkpt lat="44.82358" lon="5.46166">
        <ele>1459.7638</ele>
        <time>2014-06-26T14:05:55Z</time>
      </trkpt>
      <trkpt lat="44.82358" lon="5.46173">
        <ele>1460.6475</ele>
        <time>2014-06-26T14:06:01Z</time>
      </trkpt>
      <trkpt lat="44.82354" lon="5.46179">
        <ele>1460.6475</ele>
        <time>2014-06-26T14:06:07Z</time>
      </trkpt>
      <trkpt lat="44.82355" lon="5.46186">
        <ele>1461.6478</ele>
        <time>2014-06-26T14:06:12Z</time>
      </trkpt>
      <trkpt lat="44.82359" lon="5.46193">
        <ele>1461.6478</ele>
        <time>2014-06-26T14:06:17Z</time>
      </trkpt>
      <trkpt lat="44.82359" lon="5.46201">
        <ele>1462.7087</ele>
        <time>2014-06-26T14:06:22Z</time>
      </trkpt>
      <trkpt lat="44.82359" lon="5.46203">
        <ele>1462.7087</ele>
        <time>2014-06-26T14:06:26Z</time>
      </trkpt>
      <trkpt lat="44.82355" lon="5.46214">
        <ele>1463.6631</ele>
        <time>2014-06-26T14:06:32Z</time>
      </trkpt>
      <trkpt lat="44.82356" lon="5.46222">
        <ele>1463.6631</ele>
        <time>2014-06-26T14:06:36Z</time>
      </trkpt>
      <trkpt lat="44.82356" lon="5.46231">
        <ele>1464.3419</ele>
        <time>2014-06-26T14:06:42Z</time>
      </trkpt>
      <trkpt lat="44.82354" lon="5.46237">
        <ele>1464.3419</ele>
        <time>2014-06-26T14:06:47Z</time>
      </trkpt>
      <trkpt lat="44.82351" lon="5.46243">
        <ele>1464.9067</ele>
        <time>2014-06-26T14:06:52Z</time>
      </trkpt>
      <trkpt lat="44.82349" lon="5.46249">
        <ele>1464.9067</ele>
        <time>2014-06-26T14:06:57Z</time>
      </trkpt>
      <trkpt lat="44.82349" lon="5.46253">
        <ele>1464.9067</ele>
        <time>2014-06-26T14:07:02Z</time>
      </trkpt>
      <trkpt lat="44.82353" lon="5.46258">
        <ele>1465.4934</ele>
        <time>2014-06-26T14:07:07Z</time>
      </trkpt>
      <trkpt lat="44.82353" lon="5.46261">
        <ele>1465.4934</ele>
        <time>2014-06-26T14:07:12Z</time>
      </trkpt>
      <trkpt lat="44.82349" lon="5.46274">
        <ele>1466.0548</ele>
        <time>2014-06-26T14:07:17Z</time>
      </trkpt>
      <trkpt lat="44.82349" lon="5.46284">
        <ele>1466.0548</ele>
        <time>2014-06-26T14:07:22Z</time>
      </trkpt>
      <trkpt lat="44.82348" lon="5.46293">
        <ele>1466.6628</ele>
        <time>2014-06-26T14:07:27Z</time>
      </trkpt>
      <trkpt lat="44.82345" lon="5.46301">
        <ele>1466.6628</ele>
        <time>2014-06-26T14:07:32Z</time>
      </trkpt>
      <trkpt lat="44.82343" lon="5.46305">
        <ele>1467.1681</ele>
        <time>2014-06-26T14:07:37Z</time>
      </trkpt>
      <trkpt lat="44.82342" lon="5.46308">
        <ele>1467.1681</ele>
        <time>2014-06-26T14:07:42Z</time>
      </trkpt>
      <trkpt lat="44.8234" lon="5.46314">
        <ele>1467.1681</ele>
        <time>2014-06-26T14:07:47Z</time>
      </trkpt>
      <trkpt lat="44.82341" lon="5.46319">
        <ele>1467.4901</ele>
        <time>2014-06-26T14:07:52Z</time>
      </trkpt>
      <trkpt lat="44.82339" lon="5.46322">
        <ele>1467.4901</ele>
        <time>2014-06-26T14:07:58Z</time>
      </trkpt>
      <trkpt lat="44.82335" lon="5.46331">
        <ele>1467.656</ele>
        <time>2014-06-26T14:08:01Z</time>
      </trkpt>
      <trkpt lat="44.82333" lon="5.46336">
        <ele>1467.656</ele>
        <time>2014-06-26T14:08:07Z</time>
      </trkpt>
      <trkpt lat="44.82334" lon="5.46343">
        <ele>1467.8209</ele>
        <time>2014-06-26T14:08:11Z</time>
      </trkpt>
      <trkpt lat="44.82333" lon="5.46349">
        <ele>1467.8209</ele>
        <time>2014-06-26T14:08:17Z</time>
      </trkpt>
      <trkpt lat="44.82334" lon="5.46356">
        <ele>1467.8209</ele>
        <time>2014-06-26T14:08:22Z</time>
      </trkpt>
      <trkpt lat="44.82335" lon="5.46361">
        <ele>1467.9415</ele>
        <time>2014-06-26T14:08:27Z</time>
      </trkpt>
      <trkpt lat="44.82334" lon="5.46371">
        <ele>1467.9415</ele>
        <time>2014-06-26T14:08:32Z</time>
      </trkpt>
      <trkpt lat="44.82332" lon="5.46379">
        <ele>1467.9205</ele>
        <time>2014-06-26T14:08:35Z</time>
      </trkpt>
      <trkpt lat="44.8233" lon="5.46388">
        <ele>1467.9205</ele>
        <time>2014-06-26T14:08:42Z</time>
      </trkpt>
      <trkpt lat="44.82331" lon="5.46392">
        <ele>1467.8839</ele>
        <time>2014-06-26T14:08:47Z</time>
      </trkpt>
      <trkpt lat="44.82331" lon="5.46396">
        <ele>1467.8839</ele>
        <time>2014-06-26T14:08:52Z</time>
      </trkpt>
      <trkpt lat="44.82333" lon="5.46402">
        <ele>1467.8839</ele>
        <time>2014-06-26T14:08:57Z</time>
      </trkpt>
      <trkpt lat="44.82333" lon="5.46403">
        <ele>1467.8839</ele>
        <time>2014-06-26T14:09:01Z</time>
      </trkpt>
      <trkpt lat="44.82331" lon="5.46412">
        <ele>1467.8193</ele>
        <time>2014-06-26T14:09:07Z</time>
      </trkpt>
      <trkpt lat="44.82328" lon="5.46422">
        <ele>1467.8193</ele>
        <time>2014-06-26T14:09:12Z</time>
      </trkpt>
      <trkpt lat="44.82327" lon="5.46428">
        <ele>1467.7009</ele>
        <time>2014-06-26T14:09:17Z</time>
      </trkpt>
      <trkpt lat="44.82326" lon="5.46436">
        <ele>1467.7009</ele>
        <time>2014-06-26T14:09:22Z</time>
      </trkpt>
      <trkpt lat="44.82326" lon="5.46441">
        <ele>1467.7009</ele>
        <time>2014-06-26T14:09:27Z</time>
      </trkpt>
      <trkpt lat="44.82325" lon="5.46447">
        <ele>1467.5337</ele>
        <time>2014-06-26T14:09:32Z</time>
      </trkpt>
      <trkpt lat="44.82323" lon="5.46453">
        <ele>1467.5337</ele>
        <time>2014-06-26T14:09:37Z</time>
      </trkpt>
      <trkpt lat="44.8232" lon="5.46461">
        <ele>1467.3947</ele>
        <time>2014-06-26T14:09:42Z</time>
      </trkpt>
      <trkpt lat="44.82323" lon="5.46467">
        <ele>1467.3947</ele>
        <time>2014-06-26T14:09:47Z</time>
      </trkpt>
      <trkpt lat="44.82323" lon="5.46472">
        <ele>1467.3947</ele>
        <time>2014-06-26T14:09:52Z</time>
      </trkpt>
      <trkpt lat="44.82319" lon="5.46481">
        <ele>1467.3407</ele>
        <time>2014-06-26T14:09:57Z</time>
      </trkpt>
      <trkpt lat="44.82318" lon="5.46488">
        <ele>1467.3407</ele>
        <time>2014-06-26T14:10:02Z</time>
      </trkpt>
      <trkpt lat="44.82318" lon="5.46495">
        <ele>1467.309</ele>
        <time>2014-06-26T14:10:06Z</time>
      </trkpt>
      <trkpt lat="44.82314" lon="5.46501">
        <ele>1467.309</ele>
        <time>2014-06-26T14:10:12Z</time>
      </trkpt>
      <trkpt lat="44.8231" lon="5.4651">
        <ele>1467.3423</ele>
        <time>2014-06-26T14:10:17Z</time>
      </trkpt>
      <trkpt lat="44.82307" lon="5.46515">
        <ele>1467.3423</ele>
        <time>2014-06-26T14:10:22Z</time>
      </trkpt>
      <trkpt lat="44.82304" lon="5.46523">
        <ele>1467.4081</ele>
        <time>2014-06-26T14:10:27Z</time>
      </trkpt>
      <trkpt lat="44.82302" lon="5.46528">
        <ele>1467.4081</ele>
        <time>2014-06-26T14:10:32Z</time>
      </trkpt>
      <trkpt lat="44.82298" lon="5.46533">
        <ele>1467.4615</ele>
        <time>2014-06-26T14:10:37Z</time>
      </trkpt>
      <trkpt lat="44.82295" lon="5.46539">
        <ele>1467.4615</ele>
        <time>2014-06-26T14:10:42Z</time>
      </trkpt>
      <trkpt lat="44.82291" lon="5.46545">
        <ele>1467.4757</ele>
        <time>2014-06-26T14:10:46Z</time>
      </trkpt>
      <trkpt lat="44.82284" lon="5.46554">
        <ele>1467.4835</ele>
        <time>2014-06-26T14:10:52Z</time>
      </trkpt>
      <trkpt lat="44.8228" lon="5.46559">
        <ele>1467.4835</ele>
        <time>2014-06-26T14:10:57Z</time>
      </trkpt>
      <trkpt lat="44.82277" lon="5.46564">
        <ele>1467.4719</ele>
        <time>2014-06-26T14:11:01Z</time>
      </trkpt>
      <trkpt lat="44.82272" lon="5.46568">
        <ele>1467.4719</ele>
        <time>2014-06-26T14:11:06Z</time>
      </trkpt>
      <trkpt lat="44.8227" lon="5.46573">
        <ele>1467.4727</ele>
        <time>2014-06-26T14:11:13Z</time>
      </trkpt>
      <trkpt lat="44.82268" lon="5.46579">
        <ele>1467.4727</ele>
        <time>2014-06-26T14:11:16Z</time>
      </trkpt>
      <trkpt lat="44.82264" lon="5.46585">
        <ele>1467.4858</ele>
        <time>2014-06-26T14:11:22Z</time>
      </trkpt>
      <trkpt lat="44.82257" lon="5.46596">
        <ele>1467.4972</ele>
        <time>2014-06-26T14:11:27Z</time>
      </trkpt>
      <trkpt lat="44.82254" lon="5.46602">
        <ele>1467.4972</ele>
        <time>2014-06-26T14:11:31Z</time>
      </trkpt>
      <trkpt lat="44.82251" lon="5.46609">
        <ele>1467.4938</ele>
        <time>2014-06-26T14:11:36Z</time>
      </trkpt>
      <trkpt lat="44.82247" lon="5.46612">
        <ele>1467.4938</ele>
        <time>2014-06-26T14:11:42Z</time>
      </trkpt>
      <trkpt lat="44.82242" lon="5.46616">
        <ele>1467.3049</ele>
        <time>2014-06-26T14:11:47Z</time>
      </trkpt>
      <trkpt lat="44.82237" lon="5.46622">
        <ele>1467.3049</ele>
        <time>2014-06-26T14:11:51Z</time>
      </trkpt>
      <trkpt lat="44.82232" lon="5.4663">
        <ele>1467.1332</ele>
        <time>2014-06-26T14:11:57Z</time>
      </trkpt>
      <trkpt lat="44.82228" lon="5.46637">
        <ele>1467.1332</ele>
        <time>2014-06-26T14:12:02Z</time>
      </trkpt>
      <trkpt lat="44.82225" lon="5.46643">
        <ele>1466.9357</ele>
        <time>2014-06-26T14:12:07Z</time>
      </trkpt>
      <trkpt lat="44.82222" lon="5.46648">
        <ele>1466.9357</ele>
        <time>2014-06-26T14:12:12Z</time>
      </trkpt>
      <trkpt lat="44.82222" lon="5.46653">
        <ele>1466.9357</ele>
        <time>2014-06-26T14:12:17Z</time>
      </trkpt>
      <trkpt lat="44.82221" lon="5.46656">
        <ele>1466.7305</ele>
        <time>2014-06-26T14:12:22Z</time>
      </trkpt>
      <trkpt lat="44.8222" lon="5.46661">
        <ele>1466.7305</ele>
        <time>2014-06-26T14:12:27Z</time>
      </trkpt>
      <trkpt lat="44.82217" lon="5.46665">
        <ele>1466.7305</ele>
        <time>2014-06-26T14:12:32Z</time>
      </trkpt>
      <trkpt lat="44.82215" lon="5.46673">
        <ele>1466.5199</ele>
        <time>2014-06-26T14:12:37Z</time>
      </trkpt>
      <trkpt lat="44.82211" lon="5.46682">
        <ele>1466.5199</ele>
        <time>2014-06-26T14:12:41Z</time>
      </trkpt>
      <trkpt lat="44.82207" lon="5.46689">
        <ele>1466.2771</ele>
        <time>2014-06-26T14:12:46Z</time>
      </trkpt>
      <trkpt lat="44.82208" lon="5.46694">
        <ele>1466.2771</ele>
        <time>2014-06-26T14:12:52Z</time>
      </trkpt>
      <trkpt lat="44.82205" lon="5.46698">
        <ele>1466.2771</ele>
        <time>2014-06-26T14:12:57Z</time>
      </trkpt>
      <trkpt lat="44.82203" lon="5.46701">
        <ele>1466.1504</ele>
        <time>2014-06-26T14:13:01Z</time>
      </trkpt>
      <trkpt lat="44.82201" lon="5.46711">
        <ele>1466.1504</ele>
        <time>2014-06-26T14:13:07Z</time>
      </trkpt>
      <trkpt lat="44.82197" lon="5.4672">
        <ele>1465.974</ele>
        <time>2014-06-26T14:13:12Z</time>
      </trkpt>
      <trkpt lat="44.82197" lon="5.46726">
        <ele>1465.974</ele>
        <time>2014-06-26T14:13:17Z</time>
      </trkpt>
      <trkpt lat="44.82195" lon="5.46734">
        <ele>1465.6956</ele>
        <time>2014-06-26T14:13:21Z</time>
      </trkpt>
      <trkpt lat="44.82194" lon="5.46737">
        <ele>1465.6956</ele>
        <time>2014-06-26T14:13:28Z</time>
      </trkpt>
      <trkpt lat="44.8219" lon="5.46749">
        <ele>1465.3962</ele>
        <time>2014-06-26T14:13:31Z</time>
      </trkpt>
      <trkpt lat="44.8219" lon="5.46753">
        <ele>1465.3962</ele>
        <time>2014-06-26T14:13:37Z</time>
      </trkpt>
      <trkpt lat="44.82189" lon="5.46759">
        <ele>1465.3962</ele>
        <time>2014-06-26T14:13:42Z</time>
      </trkpt>
      <trkpt lat="44.82189" lon="5.46764">
        <ele>1465.0652</ele>
        <time>2014-06-26T14:13:46Z</time>
      </trkpt>
      <trkpt lat="44.82187" lon="5.46771">
        <ele>1465.0652</ele>
        <time>2014-06-26T14:13:52Z</time>
      </trkpt>
      <trkpt lat="44.82186" lon="5.46778">
        <ele>1464.6919</ele>
        <time>2014-06-26T14:13:57Z</time>
      </trkpt>
      <trkpt lat="44.82184" lon="5.46782">
        <ele>1464.6919</ele>
        <time>2014-06-26T14:14:01Z</time>
      </trkpt>
      <trkpt lat="44.82184" lon="5.46789">
        <ele>1464.6919</ele>
        <time>2014-06-26T14:14:07Z</time>
      </trkpt>
      <trkpt lat="44.82182" lon="5.46794">
        <ele>1464.2671</ele>
        <time>2014-06-26T14:14:12Z</time>
      </trkpt>
      <trkpt lat="44.82179" lon="5.46801">
        <ele>1464.2671</ele>
        <time>2014-06-26T14:14:17Z</time>
      </trkpt>
      <trkpt lat="44.82177" lon="5.4681">
        <ele>1463.7388</ele>
        <time>2014-06-26T14:14:22Z</time>
      </trkpt>
      <trkpt lat="44.82176" lon="5.46818">
        <ele>1463.7388</ele>
        <time>2014-06-26T14:14:26Z</time>
      </trkpt>
      <trkpt lat="44.82174" lon="5.46822">
        <ele>1463.0881</ele>
        <time>2014-06-26T14:14:31Z</time>
      </trkpt>
      <trkpt lat="44.82173" lon="5.46831">
        <ele>1463.0881</ele>
        <time>2014-06-26T14:14:37Z</time>
      </trkpt>
      <trkpt lat="44.82175" lon="5.46836">
        <ele>1462.5573</ele>
        <time>2014-06-26T14:14:42Z</time>
      </trkpt>
      <trkpt lat="44.82174" lon="5.46842">
        <ele>1462.5573</ele>
        <time>2014-06-26T14:14:47Z</time>
      </trkpt>
      <trkpt lat="44.82171" lon="5.4685">
        <ele>1462.0818</ele>
        <time>2014-06-26T14:14:52Z</time>
      </trkpt>
      <trkpt lat="44.82167" lon="5.46858">
        <ele>1462.0818</ele>
        <time>2014-06-26T14:14:57Z</time>
      </trkpt>
      <trkpt lat="44.82164" lon="5.46864">
        <ele>1461.7028</ele>
        <time>2014-06-26T14:15:02Z</time>
      </trkpt>
      <trkpt lat="44.8216" lon="5.4687">
        <ele>1461.7028</ele>
        <time>2014-06-26T14:15:07Z</time>
      </trkpt>
      <trkpt lat="44.82154" lon="5.46876">
        <ele>1461.4293</ele>
        <time>2014-06-26T14:15:12Z</time>
      </trkpt>
      <trkpt lat="44.82148" lon="5.4688">
        <ele>1461.4293</ele>
        <time>2014-06-26T14:15:17Z</time>
      </trkpt>
      <trkpt lat="44.82144" lon="5.46884">
        <ele>1461.4276</ele>
        <time>2014-06-26T14:15:22Z</time>
      </trkpt>
      <trkpt lat="44.82138" lon="5.46881">
        <ele>1461.4276</ele>
        <time>2014-06-26T14:15:26Z</time>
      </trkpt>
      <trkpt lat="44.82134" lon="5.46878">
        <ele>1461.4333</ele>
        <time>2014-06-26T14:15:32Z</time>
      </trkpt>
      <trkpt lat="44.82131" lon="5.46878">
        <ele>1461.4333</ele>
        <time>2014-06-26T14:15:37Z</time>
      </trkpt>
      <trkpt lat="44.82117" lon="5.46872">
        <ele>1461.4896</ele>
        <time>2014-06-26T14:15:42Z</time>
      </trkpt>
      <trkpt lat="44.82111" lon="5.4687">
        <ele>1461.4896</ele>
        <time>2014-06-26T14:15:47Z</time>
      </trkpt>
      <trkpt lat="44.82109" lon="5.46869">
        <ele>1461.4896</ele>
        <time>2014-06-26T14:15:51Z</time>
      </trkpt>
      <trkpt lat="44.82102" lon="5.46866">
        <ele>1461.6503</ele>
        <time>2014-06-26T14:15:57Z</time>
      </trkpt>
      <trkpt lat="44.82096" lon="5.46866">
        <ele>1461.6503</ele>
        <time>2014-06-26T14:16:02Z</time>
      </trkpt>
      <trkpt lat="44.82091" lon="5.4687">
        <ele>1461.7203</ele>
        <time>2014-06-26T14:16:07Z</time>
      </trkpt>
      <trkpt lat="44.82089" lon="5.46874">
        <ele>1461.7203</ele>
        <time>2014-06-26T14:16:12Z</time>
      </trkpt>
      <trkpt lat="44.82088" lon="5.46876">
        <ele>1461.7203</ele>
        <time>2014-06-26T14:16:17Z</time>
      </trkpt>
      <trkpt lat="44.82087" lon="5.46881">
        <ele>1461.447</ele>
        <time>2014-06-26T14:16:22Z</time>
      </trkpt>
      <trkpt lat="44.82084" lon="5.46888">
        <ele>1461.447</ele>
        <time>2014-06-26T14:16:26Z</time>
      </trkpt>
      <trkpt lat="44.82084" lon="5.46893">
        <ele>1461.0438</ele>
        <time>2014-06-26T14:16:32Z</time>
      </trkpt>
      <trkpt lat="44.82084" lon="5.46897">
        <ele>1461.0438</ele>
        <time>2014-06-26T14:16:38Z</time>
      </trkpt>
      <trkpt lat="44.82086" lon="5.46903">
        <ele>1461.0438</ele>
        <time>2014-06-26T14:16:41Z</time>
      </trkpt>
      <trkpt lat="44.82088" lon="5.46908">
        <ele>1460.5792</ele>
        <time>2014-06-26T14:16:47Z</time>
      </trkpt>
      <trkpt lat="44.8209" lon="5.46914">
        <ele>1460.5792</ele>
        <time>2014-06-26T14:16:52Z</time>
      </trkpt>
      <trkpt lat="44.82091" lon="5.46921">
        <ele>1460.2322</ele>
        <time>2014-06-26T14:16:57Z</time>
      </trkpt>
      <trkpt lat="44.82093" lon="5.46926">
        <ele>1460.2322</ele>
        <time>2014-06-26T14:17:02Z</time>
      </trkpt>
      <trkpt lat="44.82091" lon="5.46936">
        <ele>1459.894</ele>
        <time>2014-06-26T14:17:05Z</time>
      </trkpt>
      <trkpt lat="44.82091" lon="5.46943">
        <ele>1459.894</ele>
        <time>2014-06-26T14:17:11Z</time>
      </trkpt>
      <trkpt lat="44.82092" lon="5.46948">
        <ele>1459.5076</ele>
        <time>2014-06-26T14:17:17Z</time>
      </trkpt>
      <trkpt lat="44.82092" lon="5.46955">
        <ele>1459.5076</ele>
        <time>2014-06-26T14:17:22Z</time>
      </trkpt>
      <trkpt lat="44.82092" lon="5.46955">
        <ele>1459.5076</ele>
        <time>2014-06-26T14:17:26Z</time>
      </trkpt>
      <trkpt lat="44.8209" lon="5.4696">
        <ele>1459.5076</ele>
        <time>2014-06-26T14:17:36Z</time>
      </trkpt>
      <trkpt lat="44.82086" lon="5.46959">
        <ele>1458.7893</ele>
        <time>2014-06-26T14:17:42Z</time>
      </trkpt>
      <trkpt lat="44.82093" lon="5.46967">
        <ele>1457.9814</ele>
        <time>2014-06-26T14:18:46Z</time>
      </trkpt>
      <trkpt lat="44.82093" lon="5.46967">
        <ele>1457.9814</ele>
        <time>2014-06-26T14:18:51Z</time>
      </trkpt>
      <trkpt lat="44.82089" lon="5.46969">
        <ele>1457.9814</ele>
        <time>2014-06-26T14:23:27Z</time>
      </trkpt>
      <trkpt lat="44.82089" lon="5.46969">
        <ele>1457.9814</ele>
        <time>2014-06-26T14:23:32Z</time>
      </trkpt>
      <trkpt lat="44.82098" lon="5.46974">
        <ele>1456.5309</ele>
        <time>2014-06-26T14:23:50Z</time>
      </trkpt>
      <trkpt lat="44.82098" lon="5.46974">
        <ele>1456.5309</ele>
        <time>2014-06-26T14:23:55Z</time>
      </trkpt>
      <trkpt lat="44.82091" lon="5.46965">
        <ele>1454.9788</ele>
        <time>2014-06-26T14:25:25Z</time>
      </trkpt>
      <trkpt lat="44.82101" lon="5.46965">
        <ele>1453.495</ele>
        <time>2014-06-26T14:26:10Z</time>
      </trkpt>
      <trkpt lat="44.82093" lon="5.46969">
        <ele>1453.495</ele>
        <time>2014-06-26T14:26:50Z</time>
      </trkpt>
      <trkpt lat="44.82093" lon="5.46969">
        <ele>1453.495</ele>
        <time>2014-06-26T14:26:55Z</time>
      </trkpt>
      <trkpt lat="44.82092" lon="5.46955">
        <ele>1451.603</ele>
        <time>2014-06-26T14:28:25Z</time>
      </trkpt>
      <trkpt lat="44.8209" lon="5.46953">
        <ele>1451.603</ele>
        <time>2014-06-26T14:28:31Z</time>
      </trkpt>
      <trkpt lat="44.82084" lon="5.46946">
        <ele>1449.8999</ele>
        <time>2014-06-26T14:28:36Z</time>
      </trkpt>
      <trkpt lat="44.82084" lon="5.46942">
        <ele>1449.8999</ele>
        <time>2014-06-26T14:28:41Z</time>
      </trkpt>
      <trkpt lat="44.82082" lon="5.46938">
        <ele>1449.8999</ele>
        <time>2014-06-26T14:28:46Z</time>
      </trkpt>
      <trkpt lat="44.8208" lon="5.46932">
        <ele>1448.3326</ele>
        <time>2014-06-26T14:28:52Z</time>
      </trkpt>
      <trkpt lat="44.82077" lon="5.46928">
        <ele>1448.3326</ele>
        <time>2014-06-26T14:28:57Z</time>
      </trkpt>
      <trkpt lat="44.82075" lon="5.46924">
        <ele>1448.3326</ele>
        <time>2014-06-26T14:29:00Z</time>
      </trkpt>
      <trkpt lat="44.82073" lon="5.46925">
        <ele>1446.9385</ele>
        <time>2014-06-26T14:29:07Z</time>
      </trkpt>
      <trkpt lat="44.82069" lon="5.46919">
        <ele>1446.9385</ele>
        <time>2014-06-26T14:29:16Z</time>
      </trkpt>
      <trkpt lat="44.82066" lon="5.46914">
        <ele>1445.708</ele>
        <time>2014-06-26T14:29:22Z</time>
      </trkpt>
      <trkpt lat="44.82062" lon="5.46908">
        <ele>1445.708</ele>
        <time>2014-06-26T14:29:27Z</time>
      </trkpt>
      <trkpt lat="44.82057" lon="5.46903">
        <ele>1444.6321</ele>
        <time>2014-06-26T14:29:32Z</time>
      </trkpt>
      <trkpt lat="44.82051" lon="5.469">
        <ele>1444.6321</ele>
        <time>2014-06-26T14:29:36Z</time>
      </trkpt>
      <trkpt lat="44.82048" lon="5.46894">
        <ele>1443.7013</ele>
        <time>2014-06-26T14:29:41Z</time>
      </trkpt>
      <trkpt lat="44.82044" lon="5.4689">
        <ele>1443.7013</ele>
        <time>2014-06-26T14:29:45Z</time>
      </trkpt>
      <trkpt lat="44.82041" lon="5.46885">
        <ele>1442.878</ele>
        <time>2014-06-26T14:29:50Z</time>
      </trkpt>
      <trkpt lat="44.82039" lon="5.46876">
        <ele>1442.878</ele>
        <time>2014-06-26T14:29:55Z</time>
      </trkpt>
      <trkpt lat="44.82036" lon="5.46872">
        <ele>1442.1558</ele>
        <time>2014-06-26T14:30:00Z</time>
      </trkpt>
      <trkpt lat="44.82035" lon="5.46866">
        <ele>1442.1558</ele>
        <time>2014-06-26T14:30:05Z</time>
      </trkpt>
      <trkpt lat="44.82031" lon="5.46862">
        <ele>1441.5424</ele>
        <time>2014-06-26T14:30:10Z</time>
      </trkpt>
      <trkpt lat="44.82025" lon="5.46857">
        <ele>1441.5424</ele>
        <time>2014-06-26T14:30:15Z</time>
      </trkpt>
      <trkpt lat="44.82021" lon="5.46852">
        <ele>1441.0304</ele>
        <time>2014-06-26T14:30:20Z</time>
      </trkpt>
      <trkpt lat="44.82017" lon="5.46847">
        <ele>1441.0304</ele>
        <time>2014-06-26T14:30:25Z</time>
      </trkpt>
      <trkpt lat="44.8201" lon="5.46841">
        <ele>1440.5405</ele>
        <time>2014-06-26T14:30:30Z</time>
      </trkpt>
      <trkpt lat="44.82009" lon="5.46835">
        <ele>1440.5405</ele>
        <time>2014-06-26T14:30:35Z</time>
      </trkpt>
      <trkpt lat="44.82006" lon="5.46829">
        <ele>1440.1</ele>
        <time>2014-06-26T14:30:40Z</time>
      </trkpt>
      <trkpt lat="44.82003" lon="5.46822">
        <ele>1440.1</ele>
        <time>2014-06-26T14:30:46Z</time>
      </trkpt>
      <trkpt lat="44.81999" lon="5.46819">
        <ele>1439.7339</ele>
        <time>2014-06-26T14:30:52Z</time>
      </trkpt>
      <trkpt lat="44.81991" lon="5.46811">
        <ele>1439.4363</ele>
        <time>2014-06-26T14:30:57Z</time>
      </trkpt>
      <trkpt lat="44.81986" lon="5.46805">
        <ele>1439.4363</ele>
        <time>2014-06-26T14:31:02Z</time>
      </trkpt>
      <trkpt lat="44.81986" lon="5.46797">
        <ele>1439.2015</ele>
        <time>2014-06-26T14:31:07Z</time>
      </trkpt>
      <trkpt lat="44.81985" lon="5.46785">
        <ele>1439.2015</ele>
        <time>2014-06-26T14:31:11Z</time>
      </trkpt>
      <trkpt lat="44.81985" lon="5.46775">
        <ele>1439.0096</ele>
        <time>2014-06-26T14:31:17Z</time>
      </trkpt>
      <trkpt lat="44.81985" lon="5.46772">
        <ele>1439.0096</ele>
        <time>2014-06-26T14:31:21Z</time>
      </trkpt>
      <trkpt lat="44.81983" lon="5.46768">
        <ele>1439.0096</ele>
        <time>2014-06-26T14:31:26Z</time>
      </trkpt>
      <trkpt lat="44.81983" lon="5.46766">
        <ele>1439.0096</ele>
        <time>2014-06-26T14:31:30Z</time>
      </trkpt>
      <trkpt lat="44.81981" lon="5.46761">
        <ele>1438.8419</ele>
        <time>2014-06-26T14:31:35Z</time>
      </trkpt>
      <trkpt lat="44.81979" lon="5.46754">
        <ele>1438.8419</ele>
        <time>2014-06-26T14:31:40Z</time>
      </trkpt>
      <trkpt lat="44.81974" lon="5.4675">
        <ele>1438.6667</ele>
        <time>2014-06-26T14:31:45Z</time>
      </trkpt>
      <trkpt lat="44.8197" lon="5.46744">
        <ele>1438.6667</ele>
        <time>2014-06-26T14:31:50Z</time>
      </trkpt>
      <trkpt lat="44.81968" lon="5.4674">
        <ele>1438.4545</ele>
        <time>2014-06-26T14:31:55Z</time>
      </trkpt>
      <trkpt lat="44.81967" lon="5.46737">
        <ele>1438.4545</ele>
        <time>2014-06-26T14:32:00Z</time>
      </trkpt>
      <trkpt lat="44.81968" lon="5.46736">
        <ele>1438.4545</ele>
        <time>2014-06-26T14:32:05Z</time>
      </trkpt>
      <trkpt lat="44.8197" lon="5.46729">
        <ele>1438.4545</ele>
        <time>2014-06-26T14:32:17Z</time>
      </trkpt>
      <trkpt lat="44.81971" lon="5.46725">
        <ele>1438.2069</ele>
        <time>2014-06-26T14:32:22Z</time>
      </trkpt>
      <trkpt lat="44.81972" lon="5.46724">
        <ele>1438.2069</ele>
        <time>2014-06-26T14:32:27Z</time>
      </trkpt>
      <trkpt lat="44.8197" lon="5.46718">
        <ele>1438.2069</ele>
        <time>2014-06-26T14:32:32Z</time>
      </trkpt>
      <trkpt lat="44.81968" lon="5.46713">
        <ele>1438.0406</ele>
        <time>2014-06-26T14:32:42Z</time>
      </trkpt>
      <trkpt lat="44.81967" lon="5.46711">
        <ele>1438.0406</ele>
        <time>2014-06-26T14:32:46Z</time>
      </trkpt>
      <trkpt lat="44.81962" lon="5.46698">
        <ele>1437.8335</ele>
        <time>2014-06-26T14:33:25Z</time>
      </trkpt>
      <trkpt lat="44.81963" lon="5.46698">
        <ele>1437.8335</ele>
        <time>2014-06-26T14:33:30Z</time>
      </trkpt>
      <trkpt lat="44.81971" lon="5.46691">
        <ele>1437.4285</ele>
        <time>2014-06-26T14:34:20Z</time>
      </trkpt>
      <trkpt lat="44.81971" lon="5.46691">
        <ele>1437.4285</ele>
        <time>2014-06-26T14:34:25Z</time>
      </trkpt>
      <trkpt lat="44.8198" lon="5.46698">
        <ele>1436.7819</ele>
        <time>2014-06-26T14:36:05Z</time>
      </trkpt>
      <trkpt lat="44.8199" lon="5.46687">
        <ele>1435.6378</ele>
        <time>2014-06-26T14:36:35Z</time>
      </trkpt>
      <trkpt lat="44.81991" lon="5.46686">
        <ele>1435.6378</ele>
        <time>2014-06-26T14:36:40Z</time>
      </trkpt>
      <trkpt lat="44.81998" lon="5.46676">
        <ele>1434.135</ele>
        <time>2014-06-26T14:36:55Z</time>
      </trkpt>
      <trkpt lat="44.81997" lon="5.46675">
        <ele>1434.135</ele>
        <time>2014-06-26T14:37:00Z</time>
      </trkpt>
      <trkpt lat="44.81998" lon="5.46674">
        <ele>1434.135</ele>
        <time>2014-06-26T14:37:05Z</time>
      </trkpt>
      <trkpt lat="44.82007" lon="5.46673">
        <ele>1432.1294</ele>
        <time>2014-06-26T14:37:15Z</time>
      </trkpt>
      <trkpt lat="44.82007" lon="5.46673">
        <ele>1432.1294</ele>
        <time>2014-06-26T14:37:20Z</time>
      </trkpt>
      <trkpt lat="44.82008" lon="5.46691">
        <ele>1430.0365</ele>
        <time>2014-06-26T14:37:50Z</time>
      </trkpt>
      <trkpt lat="44.82011" lon="5.46699">
        <ele>1430.0365</ele>
        <time>2014-06-26T14:37:55Z</time>
      </trkpt>
      <trkpt lat="44.82012" lon="5.46705">
        <ele>1427.9674</ele>
        <time>2014-06-26T14:38:00Z</time>
      </trkpt>
      <trkpt lat="44.82013" lon="5.46709">
        <ele>1427.9674</ele>
        <time>2014-06-26T14:38:05Z</time>
      </trkpt>
      <trkpt lat="44.82013" lon="5.46711">
        <ele>1427.9674</ele>
        <time>2014-06-26T14:38:10Z</time>
      </trkpt>
      <trkpt lat="44.82024" lon="5.46705">
        <ele>1425.8956</ele>
        <time>2014-06-26T14:38:47Z</time>
      </trkpt>
      <trkpt lat="44.82024" lon="5.46705">
        <ele>1425.8956</ele>
        <time>2014-06-26T14:38:51Z</time>
      </trkpt>
      <trkpt lat="44.82031" lon="5.4672">
        <ele>1423.8973</ele>
        <time>2014-06-26T14:39:00Z</time>
      </trkpt>
      <trkpt lat="44.82035" lon="5.46724">
        <ele>1423.8973</ele>
        <time>2014-06-26T14:39:05Z</time>
      </trkpt>
      <trkpt lat="44.8204" lon="5.46727">
        <ele>1422.086</ele>
        <time>2014-06-26T14:39:10Z</time>
      </trkpt>
      <trkpt lat="44.82042" lon="5.46731">
        <ele>1422.086</ele>
        <time>2014-06-26T14:39:15Z</time>
      </trkpt>
      <trkpt lat="44.8204" lon="5.46728">
        <ele>1422.086</ele>
        <time>2014-06-26T14:39:20Z</time>
      </trkpt>
      <trkpt lat="44.82047" lon="5.46717">
        <ele>1420.4656</ele>
        <time>2014-06-26T14:39:30Z</time>
      </trkpt>
      <trkpt lat="44.82052" lon="5.46707">
        <ele>1420.4656</ele>
        <time>2014-06-26T14:39:35Z</time>
      </trkpt>
      <trkpt lat="44.82051" lon="5.46699">
        <ele>1418.9666</ele>
        <time>2014-06-26T14:39:40Z</time>
      </trkpt>
      <trkpt lat="44.82051" lon="5.46692">
        <ele>1418.9666</ele>
        <time>2014-06-26T14:39:45Z</time>
      </trkpt>
      <trkpt lat="44.82055" lon="5.46692">
        <ele>1418.9666</ele>
        <time>2014-06-26T14:39:50Z</time>
      </trkpt>
      <trkpt lat="44.82054" lon="5.46686">
        <ele>1417.4381</ele>
        <time>2014-06-26T14:39:55Z</time>
      </trkpt>
      <trkpt lat="44.82052" lon="5.46686">
        <ele>1417.4381</ele>
        <time>2014-06-26T14:40:00Z</time>
      </trkpt>
      <trkpt lat="44.8205" lon="5.46689">
        <ele>1417.4381</ele>
        <time>2014-06-26T14:40:05Z</time>
      </trkpt>
      <trkpt lat="44.8205" lon="5.46702">
        <ele>1415.971</ele>
        <time>2014-06-26T14:40:15Z</time>
      </trkpt>
      <trkpt lat="44.82048" lon="5.46704">
        <ele>1415.971</ele>
        <time>2014-06-26T14:40:20Z</time>
      </trkpt>
      <trkpt lat="44.82048" lon="5.46719">
        <ele>1414.6632</ele>
        <time>2014-06-26T14:40:40Z</time>
      </trkpt>
      <trkpt lat="44.8205" lon="5.4672">
        <ele>1414.6632</ele>
        <time>2014-06-26T14:40:45Z</time>
      </trkpt>
      <trkpt lat="44.8205" lon="5.46718">
        <ele>1414.6632</ele>
        <time>2014-06-26T14:40:50Z</time>
      </trkpt>
      <trkpt lat="44.8206" lon="5.4671">
        <ele>1413.4181</ele>
        <time>2014-06-26T14:41:10Z</time>
      </trkpt>
      <trkpt lat="44.82062" lon="5.4671">
        <ele>1413.4181</ele>
        <time>2014-06-26T14:41:15Z</time>
      </trkpt>
      <trkpt lat="44.82061" lon="5.4671">
        <ele>1413.4181</ele>
        <time>2014-06-26T14:41:20Z</time>
      </trkpt>
      <trkpt lat="44.82064" lon="5.46718">
        <ele>1412.3185</ele>
        <time>2014-06-26T14:41:25Z</time>
      </trkpt>
      <trkpt lat="44.82066" lon="5.46724">
        <ele>1412.3185</ele>
        <time>2014-06-26T14:41:30Z</time>
      </trkpt>
      <trkpt lat="44.82066" lon="5.46723">
        <ele>1412.3185</ele>
        <time>2014-06-26T14:41:41Z</time>
      </trkpt>
      <trkpt lat="44.82073" lon="5.46719">
        <ele>1411.095</ele>
        <time>2014-06-26T14:41:52Z</time>
      </trkpt>
      <trkpt lat="44.82077" lon="5.46715">
        <ele>1411.095</ele>
        <time>2014-06-26T14:41:56Z</time>
      </trkpt>
      <trkpt lat="44.82078" lon="5.46704">
        <ele>1409.9159</ele>
        <time>2014-06-26T14:42:02Z</time>
      </trkpt>
      <trkpt lat="44.82077" lon="5.46701">
        <ele>1409.9159</ele>
        <time>2014-06-26T14:42:06Z</time>
      </trkpt>
      <trkpt lat="44.82079" lon="5.46698">
        <ele>1409.9159</ele>
        <time>2014-06-26T14:42:11Z</time>
      </trkpt>
      <trkpt lat="44.82079" lon="5.46698">
        <ele>1409.9159</ele>
        <time>2014-06-26T14:42:16Z</time>
      </trkpt>
      <trkpt lat="44.82088" lon="5.46697">
        <ele>1408.7069</ele>
        <time>2014-06-26T14:42:26Z</time>
      </trkpt>
      <trkpt lat="44.82087" lon="5.46693">
        <ele>1408.7069</ele>
        <time>2014-06-26T14:42:32Z</time>
      </trkpt>
      <trkpt lat="44.8209" lon="5.46693">
        <ele>1408.7069</ele>
        <time>2014-06-26T14:42:37Z</time>
      </trkpt>
      <trkpt lat="44.8209" lon="5.46696">
        <ele>1408.7069</ele>
        <time>2014-06-26T14:42:41Z</time>
      </trkpt>
      <trkpt lat="44.8209" lon="5.46694">
        <ele>1407.3265</ele>
        <time>2014-06-26T14:42:47Z</time>
      </trkpt>
      <trkpt lat="44.82093" lon="5.46697">
        <ele>1407.3265</ele>
        <time>2014-06-26T14:42:51Z</time>
      </trkpt>
      <trkpt lat="44.82094" lon="5.46698">
        <ele>1407.3265</ele>
        <time>2014-06-26T14:42:57Z</time>
      </trkpt>
      <trkpt lat="44.82098" lon="5.46697">
        <ele>1407.3265</ele>
        <time>2014-06-26T14:43:02Z</time>
      </trkpt>
      <trkpt lat="44.82101" lon="5.46696">
        <ele>1406.0337</ele>
        <time>2014-06-26T14:43:05Z</time>
      </trkpt>
      <trkpt lat="44.82101" lon="5.467">
        <ele>1406.0337</ele>
        <time>2014-06-26T14:43:11Z</time>
      </trkpt>
      <trkpt lat="44.82102" lon="5.46698">
        <ele>1406.0337</ele>
        <time>2014-06-26T14:43:17Z</time>
      </trkpt>
      <trkpt lat="44.82102" lon="5.46701">
        <ele>1406.0337</ele>
        <time>2014-06-26T14:43:22Z</time>
      </trkpt>
      <trkpt lat="44.82106" lon="5.467">
        <ele>1404.866</ele>
        <time>2014-06-26T14:43:32Z</time>
      </trkpt>
      <trkpt lat="44.82105" lon="5.46697">
        <ele>1404.866</ele>
        <time>2014-06-26T14:43:37Z</time>
      </trkpt>
      <trkpt lat="44.82099" lon="5.46703">
        <ele>1404.866</ele>
        <time>2014-06-26T14:43:42Z</time>
      </trkpt>
      <trkpt lat="44.821" lon="5.46703">
        <ele>1403.7858</ele>
        <time>2014-06-26T14:43:46Z</time>
      </trkpt>
      <trkpt lat="44.821" lon="5.4671">
        <ele>1403.7858</ele>
        <time>2014-06-26T14:43:50Z</time>
      </trkpt>
      <trkpt lat="44.821" lon="5.46711">
        <ele>1403.7858</ele>
        <time>2014-06-26T14:43:55Z</time>
      </trkpt>
      <trkpt lat="44.82106" lon="5.46712">
        <ele>1402.7723</ele>
        <time>2014-06-26T14:44:15Z</time>
      </trkpt>
      <trkpt lat="44.82106" lon="5.46713">
        <ele>1402.7723</ele>
        <time>2014-06-26T14:44:20Z</time>
      </trkpt>
      <trkpt lat="44.82106" lon="5.46711">
        <ele>1402.7723</ele>
        <time>2014-06-26T14:44:30Z</time>
      </trkpt>
      <trkpt lat="44.82103" lon="5.46719">
        <ele>1402.7723</ele>
        <time>2014-06-26T14:44:42Z</time>
      </trkpt>
      <trkpt lat="44.82103" lon="5.46716">
        <ele>1401.8208</ele>
        <time>2014-06-26T14:44:46Z</time>
      </trkpt>
      <trkpt lat="44.82106" lon="5.4671">
        <ele>1401.8208</ele>
        <time>2014-06-26T14:44:52Z</time>
      </trkpt>
      <trkpt lat="44.82108" lon="5.4671">
        <ele>1401.8208</ele>
        <time>2014-06-26T14:44:57Z</time>
      </trkpt>
      <trkpt lat="44.82107" lon="5.46712">
        <ele>1401.8208</ele>
        <time>2014-06-26T14:45:01Z</time>
      </trkpt>
      <trkpt lat="44.82104" lon="5.4671">
        <ele>1400.9552</ele>
        <time>2014-06-26T14:45:07Z</time>
      </trkpt>
      <trkpt lat="44.821" lon="5.46714">
        <ele>1400.9552</ele>
        <time>2014-06-26T14:45:12Z</time>
      </trkpt>
      <trkpt lat="44.82099" lon="5.46714">
        <ele>1400.9552</ele>
        <time>2014-06-26T14:45:17Z</time>
      </trkpt>
      <trkpt lat="44.82094" lon="5.46713">
        <ele>1400.0243</ele>
        <time>2014-06-26T14:45:22Z</time>
      </trkpt>
      <trkpt lat="44.8209" lon="5.46711">
        <ele>1400.0243</ele>
        <time>2014-06-26T14:45:27Z</time>
      </trkpt>
      <trkpt lat="44.82087" lon="5.4671">
        <ele>1400.0243</ele>
        <time>2014-06-26T14:45:32Z</time>
      </trkpt>
      <trkpt lat="44.82086" lon="5.46707">
        <ele>1399.1478</ele>
        <time>2014-06-26T14:45:37Z</time>
      </trkpt>
      <trkpt lat="44.82084" lon="5.46708">
        <ele>1399.1478</ele>
        <time>2014-06-26T14:45:41Z</time>
      </trkpt>
      <trkpt lat="44.82081" lon="5.4671">
        <ele>1399.1478</ele>
        <time>2014-06-26T14:45:47Z</time>
      </trkpt>
      <trkpt lat="44.82081" lon="5.46712">
        <ele>1399.1478</ele>
        <time>2014-06-26T14:45:51Z</time>
      </trkpt>
      <trkpt lat="44.82076" lon="5.46713">
        <ele>1398.3356</ele>
        <time>2014-06-26T14:45:57Z</time>
      </trkpt>
      <trkpt lat="44.82075" lon="5.46712">
        <ele>1398.3356</ele>
        <time>2014-06-26T14:46:02Z</time>
      </trkpt>
      <trkpt lat="44.82069" lon="5.46718">
        <ele>1397.6254</ele>
        <time>2014-06-26T14:46:05Z</time>
      </trkpt>
      <trkpt lat="44.82065" lon="5.46722">
        <ele>1397.6254</ele>
        <time>2014-06-26T14:46:11Z</time>
      </trkpt>
      <trkpt lat="44.8206" lon="5.46724">
        <ele>1397.0804</ele>
        <time>2014-06-26T14:46:17Z</time>
      </trkpt>
      <trkpt lat="44.82057" lon="5.46726">
        <ele>1397.0804</ele>
        <time>2014-06-26T14:46:22Z</time>
      </trkpt>
      <trkpt lat="44.82055" lon="5.46729">
        <ele>1397.0804</ele>
        <time>2014-06-26T14:46:26Z</time>
      </trkpt>
      <trkpt lat="44.82054" lon="5.46735">
        <ele>1396.6871</ele>
        <time>2014-06-26T14:46:32Z</time>
      </trkpt>
      <trkpt lat="44.82052" lon="5.4674">
        <ele>1396.6871</ele>
        <time>2014-06-26T14:46:37Z</time>
      </trkpt>
      <trkpt lat="44.82047" lon="5.46738">
        <ele>1396.5476</ele>
        <time>2014-06-26T14:46:42Z</time>
      </trkpt>
      <trkpt lat="44.82042" lon="5.46739">
        <ele>1396.5476</ele>
        <time>2014-06-26T14:46:47Z</time>
      </trkpt>
      <trkpt lat="44.82041" lon="5.46741">
        <ele>1396.5476</ele>
        <time>2014-06-26T14:46:52Z</time>
      </trkpt>
      <trkpt lat="44.82034" lon="5.46737">
        <ele>1396.5538</ele>
        <time>2014-06-26T14:46:57Z</time>
      </trkpt>
      <trkpt lat="44.8203" lon="5.46731">
        <ele>1396.5538</ele>
        <time>2014-06-26T14:47:02Z</time>
      </trkpt>
      <trkpt lat="44.82028" lon="5.46729">
        <ele>1396.6056</ele>
        <time>2014-06-26T14:47:07Z</time>
      </trkpt>
      <trkpt lat="44.82022" lon="5.46728">
        <ele>1396.6056</ele>
        <time>2014-06-26T14:47:12Z</time>
      </trkpt>
      <trkpt lat="44.82017" lon="5.46724">
        <ele>1396.7394</ele>
        <time>2014-06-26T14:47:16Z</time>
      </trkpt>
      <trkpt lat="44.82014" lon="5.46724">
        <ele>1396.7394</ele>
        <time>2014-06-26T14:47:21Z</time>
      </trkpt>
      <trkpt lat="44.8201" lon="5.46722">
        <ele>1396.7394</ele>
        <time>2014-06-26T14:47:26Z</time>
      </trkpt>
      <trkpt lat="44.8201" lon="5.46718">
        <ele>1396.9314</ele>
        <time>2014-06-26T14:47:31Z</time>
      </trkpt>
      <trkpt lat="44.82009" lon="5.46713">
        <ele>1396.9314</ele>
        <time>2014-06-26T14:47:36Z</time>
      </trkpt>
      <trkpt lat="44.82007" lon="5.46708">
        <ele>1396.9314</ele>
        <time>2014-06-26T14:47:42Z</time>
      </trkpt>
      <trkpt lat="44.82006" lon="5.46707">
        <ele>1396.9314</ele>
        <time>2014-06-26T14:47:47Z</time>
      </trkpt>
      <trkpt lat="44.82002" lon="5.467">
        <ele>1397.2458</ele>
        <time>2014-06-26T14:47:52Z</time>
      </trkpt>
      <trkpt lat="44.82" lon="5.46697">
        <ele>1397.2458</ele>
        <time>2014-06-26T14:47:57Z</time>
      </trkpt>
      <trkpt lat="44.81997" lon="5.46691">
        <ele>1397.2458</ele>
        <time>2014-06-26T14:48:01Z</time>
      </trkpt>
      <trkpt lat="44.81993" lon="5.46689">
        <ele>1397.7129</ele>
        <time>2014-06-26T14:48:07Z</time>
      </trkpt>
      <trkpt lat="44.8199" lon="5.46683">
        <ele>1397.7129</ele>
        <time>2014-06-26T14:48:12Z</time>
      </trkpt>
      <trkpt lat="44.81988" lon="5.46679">
        <ele>1397.7129</ele>
        <time>2014-06-26T14:48:17Z</time>
      </trkpt>
      <trkpt lat="44.81983" lon="5.46675">
        <ele>1398.2594</ele>
        <time>2014-06-26T14:48:21Z</time>
      </trkpt>
      <trkpt lat="44.81978" lon="5.46673">
        <ele>1398.2594</ele>
        <time>2014-06-26T14:48:27Z</time>
      </trkpt>
      <trkpt lat="44.81974" lon="5.46669">
        <ele>1398.7311</ele>
        <time>2014-06-26T14:48:32Z</time>
      </trkpt>
      <trkpt lat="44.81972" lon="5.46667">
        <ele>1398.7311</ele>
        <time>2014-06-26T14:48:37Z</time>
      </trkpt>
      <trkpt lat="44.81968" lon="5.46662">
        <ele>1398.7311</ele>
        <time>2014-06-26T14:48:42Z</time>
      </trkpt>
      <trkpt lat="44.81962" lon="5.46659">
        <ele>1399.1868</ele>
        <time>2014-06-26T14:48:47Z</time>
      </trkpt>
      <trkpt lat="44.81957" lon="5.46653">
        <ele>1399.1868</ele>
        <time>2014-06-26T14:48:52Z</time>
      </trkpt>
      <trkpt lat="44.81952" lon="5.46649">
        <ele>1399.6381</ele>
        <time>2014-06-26T14:48:57Z</time>
      </trkpt>
      <trkpt lat="44.8195" lon="5.46646">
        <ele>1399.6381</ele>
        <time>2014-06-26T14:49:02Z</time>
      </trkpt>
      <trkpt lat="44.81947" lon="5.46644">
        <ele>1399.6381</ele>
        <time>2014-06-26T14:49:06Z</time>
      </trkpt>
      <trkpt lat="44.81943" lon="5.46641">
        <ele>1400.1244</ele>
        <time>2014-06-26T14:49:12Z</time>
      </trkpt>
      <trkpt lat="44.8194" lon="5.4664">
        <ele>1400.1244</ele>
        <time>2014-06-26T14:49:15Z</time>
      </trkpt>
      <trkpt lat="44.81935" lon="5.46643">
        <ele>1400.1244</ele>
        <time>2014-06-26T14:49:22Z</time>
      </trkpt>
      <trkpt lat="44.81934" lon="5.46644">
        <ele>1400.5674</ele>
        <time>2014-06-26T14:49:27Z</time>
      </trkpt>
      <trkpt lat="44.81932" lon="5.46645">
        <ele>1400.5674</ele>
        <time>2014-06-26T14:49:31Z</time>
      </trkpt>
      <trkpt lat="44.81931" lon="5.46645">
        <ele>1400.5674</ele>
        <time>2014-06-26T14:49:37Z</time>
      </trkpt>
      <trkpt lat="44.81932" lon="5.4664">
        <ele>1400.5674</ele>
        <time>2014-06-26T14:50:40Z</time>
      </trkpt>
      <trkpt lat="44.81935" lon="5.46648">
        <ele>1401.9031</ele>
        <time>2014-06-26T14:50:45Z</time>
      </trkpt>
      <trkpt lat="44.81933" lon="5.46651">
        <ele>1401.9031</ele>
        <time>2014-06-26T14:50:50Z</time>
      </trkpt>
      <trkpt lat="44.81933" lon="5.46652">
        <ele>1401.9031</ele>
        <time>2014-06-26T14:50:55Z</time>
      </trkpt>
      <trkpt lat="44.81939" lon="5.46666">
        <ele>1403.5264</ele>
        <time>2014-06-26T14:51:20Z</time>
      </trkpt>
      <trkpt lat="44.81942" lon="5.46671">
        <ele>1403.5264</ele>
        <time>2014-06-26T14:51:25Z</time>
      </trkpt>
      <trkpt lat="44.81944" lon="5.46676">
        <ele>1403.5264</ele>
        <time>2014-06-26T14:51:30Z</time>
      </trkpt>
      <trkpt lat="44.81942" lon="5.46683">
        <ele>1405.1357</ele>
        <time>2014-06-26T14:51:35Z</time>
      </trkpt>
      <trkpt lat="44.81944" lon="5.46688">
        <ele>1405.1357</ele>
        <time>2014-06-26T14:51:40Z</time>
      </trkpt>
      <trkpt lat="44.81946" lon="5.46693">
        <ele>1405.1357</ele>
        <time>2014-06-26T14:51:45Z</time>
      </trkpt>
      <trkpt lat="44.81948" lon="5.46699">
        <ele>1406.7252</ele>
        <time>2014-06-26T14:51:50Z</time>
      </trkpt>
      <trkpt lat="44.81953" lon="5.46702">
        <ele>1406.7252</ele>
        <time>2014-06-26T14:51:55Z</time>
      </trkpt>
      <trkpt lat="44.81956" lon="5.46711">
        <ele>1408.2898</ele>
        <time>2014-06-26T14:52:00Z</time>
      </trkpt>
      <trkpt lat="44.81959" lon="5.46715">
        <ele>1408.2898</ele>
        <time>2014-06-26T14:52:05Z</time>
      </trkpt>
      <trkpt lat="44.8196" lon="5.46722">
        <ele>1408.2898</ele>
        <time>2014-06-26T14:52:11Z</time>
      </trkpt>
      <trkpt lat="44.81961" lon="5.46725">
        <ele>1409.7388</ele>
        <time>2014-06-26T14:52:15Z</time>
      </trkpt>
      <trkpt lat="44.81961" lon="5.46725">
        <ele>1409.7388</ele>
        <time>2014-06-26T14:52:20Z</time>
      </trkpt>
      <trkpt lat="44.81966" lon="5.46736">
        <ele>1411.305</ele>
        <time>2014-06-26T14:52:40Z</time>
      </trkpt>
      <trkpt lat="44.8197" lon="5.46739">
        <ele>1411.305</ele>
        <time>2014-06-26T14:52:45Z</time>
      </trkpt>
      <trkpt lat="44.81973" lon="5.46743">
        <ele>1411.305</ele>
        <time>2014-06-26T14:52:50Z</time>
      </trkpt>
      <trkpt lat="44.81977" lon="5.46745">
        <ele>1412.8013</ele>
        <time>2014-06-26T14:52:55Z</time>
      </trkpt>
      <trkpt lat="44.81979" lon="5.46748">
        <ele>1412.8013</ele>
        <time>2014-06-26T14:53:00Z</time>
      </trkpt>
      <trkpt lat="44.81983" lon="5.46755">
        <ele>1414.27</ele>
        <time>2014-06-26T14:53:05Z</time>
      </trkpt>
      <trkpt lat="44.81984" lon="5.4676">
        <ele>1414.27</ele>
        <time>2014-06-26T14:53:10Z</time>
      </trkpt>
      <trkpt lat="44.81989" lon="5.46765">
        <ele>1414.27</ele>
        <time>2014-06-26T14:53:15Z</time>
      </trkpt>
      <trkpt lat="44.81992" lon="5.46772">
        <ele>1415.7802</ele>
        <time>2014-06-26T14:53:20Z</time>
      </trkpt>
      <trkpt lat="44.81994" lon="5.46777">
        <ele>1415.7802</ele>
        <time>2014-06-26T14:53:25Z</time>
      </trkpt>
      <trkpt lat="44.81994" lon="5.46783">
        <ele>1415.7802</ele>
        <time>2014-06-26T14:53:30Z</time>
      </trkpt>
      <trkpt lat="44.81994" lon="5.46788">
        <ele>1417.3231</ele>
        <time>2014-06-26T14:53:35Z</time>
      </trkpt>
      <trkpt lat="44.81995" lon="5.46794">
        <ele>1417.3231</ele>
        <time>2014-06-26T14:53:40Z</time>
      </trkpt>
      <trkpt lat="44.81998" lon="5.46801">
        <ele>1418.8192</ele>
        <time>2014-06-26T14:53:45Z</time>
      </trkpt>
      <trkpt lat="44.82001" lon="5.46805">
        <ele>1418.8192</ele>
        <time>2014-06-26T14:53:50Z</time>
      </trkpt>
      <trkpt lat="44.82005" lon="5.46813">
        <ele>1420.3534</ele>
        <time>2014-06-26T14:53:55Z</time>
      </trkpt>
      <trkpt lat="44.82007" lon="5.46818">
        <ele>1420.3534</ele>
        <time>2014-06-26T14:54:00Z</time>
      </trkpt>
      <trkpt lat="44.8201" lon="5.46824">
        <ele>1421.8026</ele>
        <time>2014-06-26T14:54:05Z</time>
      </trkpt>
      <trkpt lat="44.82014" lon="5.4683">
        <ele>1421.8026</ele>
        <time>2014-06-26T14:54:10Z</time>
      </trkpt>
      <trkpt lat="44.82017" lon="5.46835">
        <ele>1423.1688</ele>
        <time>2014-06-26T14:54:15Z</time>
      </trkpt>
      <trkpt lat="44.82019" lon="5.4684">
        <ele>1423.1688</ele>
        <time>2014-06-26T14:54:20Z</time>
      </trkpt>
      <trkpt lat="44.82022" lon="5.46845">
        <ele>1423.1688</ele>
        <time>2014-06-26T14:54:25Z</time>
      </trkpt>
      <trkpt lat="44.82027" lon="5.46848">
        <ele>1424.4683</ele>
        <time>2014-06-26T14:54:30Z</time>
      </trkpt>
      <trkpt lat="44.8203" lon="5.46852">
        <ele>1424.4683</ele>
        <time>2014-06-26T14:54:35Z</time>
      </trkpt>
      <trkpt lat="44.82032" lon="5.46857">
        <ele>1424.4683</ele>
        <time>2014-06-26T14:54:40Z</time>
      </trkpt>
      <trkpt lat="44.82034" lon="5.46862">
        <ele>1425.731</ele>
        <time>2014-06-26T14:54:45Z</time>
      </trkpt>
      <trkpt lat="44.82036" lon="5.46866">
        <ele>1425.731</ele>
        <time>2014-06-26T14:54:50Z</time>
      </trkpt>
      <trkpt lat="44.82039" lon="5.46868">
        <ele>1425.731</ele>
        <time>2014-06-26T14:54:55Z</time>
      </trkpt>
      <trkpt lat="44.82042" lon="5.46872">
        <ele>1426.9275</ele>
        <time>2014-06-26T14:55:00Z</time>
      </trkpt>
      <trkpt lat="44.82047" lon="5.46878">
        <ele>1426.9275</ele>
        <time>2014-06-26T14:55:05Z</time>
      </trkpt>
      <trkpt lat="44.82052" lon="5.46883">
        <ele>1428.0453</ele>
        <time>2014-06-26T14:55:10Z</time>
      </trkpt>
      <trkpt lat="44.82055" lon="5.46889">
        <ele>1428.0453</ele>
        <time>2014-06-26T14:55:15Z</time>
      </trkpt>
      <trkpt lat="44.8206" lon="5.46893">
        <ele>1429.1161</ele>
        <time>2014-06-26T14:55:20Z</time>
      </trkpt>
      <trkpt lat="44.82063" lon="5.46896">
        <ele>1429.1161</ele>
        <time>2014-06-26T14:55:25Z</time>
      </trkpt>
      <trkpt lat="44.82067" lon="5.46899">
        <ele>1429.1161</ele>
        <time>2014-06-26T14:55:30Z</time>
      </trkpt>
      <trkpt lat="44.82073" lon="5.469">
        <ele>1430.1411</ele>
        <time>2014-06-26T14:55:35Z</time>
      </trkpt>
      <trkpt lat="44.82077" lon="5.46903">
        <ele>1430.1411</ele>
        <time>2014-06-26T14:55:40Z</time>
      </trkpt>
      <trkpt lat="44.82084" lon="5.46907">
        <ele>1431.0782</ele>
        <time>2014-06-26T14:55:45Z</time>
      </trkpt>
      <trkpt lat="44.82087" lon="5.46909">
        <ele>1431.0782</ele>
        <time>2014-06-26T14:55:50Z</time>
      </trkpt>
      <trkpt lat="44.8209" lon="5.46913">
        <ele>1431.0782</ele>
        <time>2014-06-26T14:55:55Z</time>
      </trkpt>
      <trkpt lat="44.82093" lon="5.46915">
        <ele>1431.9468</ele>
        <time>2014-06-26T14:56:02Z</time>
      </trkpt>
      <trkpt lat="44.82093" lon="5.4692">
        <ele>1431.9468</ele>
        <time>2014-06-26T14:56:07Z</time>
      </trkpt>
      <trkpt lat="44.82095" lon="5.4693">
        <ele>1432.7648</ele>
        <time>2014-06-26T14:56:12Z</time>
      </trkpt>
      <trkpt lat="44.82096" lon="5.46938">
        <ele>1432.7648</ele>
        <time>2014-06-26T14:56:17Z</time>
      </trkpt>
      <trkpt lat="44.82098" lon="5.46946">
        <ele>1433.5493</ele>
        <time>2014-06-26T14:56:22Z</time>
      </trkpt>
      <trkpt lat="44.82099" lon="5.46951">
        <ele>1433.5493</ele>
        <time>2014-06-26T14:56:26Z</time>
      </trkpt>
      <trkpt lat="44.82099" lon="5.46959">
        <ele>1434.2876</ele>
        <time>2014-06-26T14:56:32Z</time>
      </trkpt>
      <trkpt lat="44.82098" lon="5.46963">
        <ele>1434.2876</ele>
        <time>2014-06-26T14:56:35Z</time>
      </trkpt>
      <trkpt lat="44.82097" lon="5.46962">
        <ele>1434.2876</ele>
        <time>2014-06-26T14:56:40Z</time>
      </trkpt>
      <trkpt lat="44.82086" lon="5.46973">
        <ele>1435.0831</ele>
        <time>2014-06-26T14:56:50Z</time>
      </trkpt>
      <trkpt lat="44.82083" lon="5.46974">
        <ele>1435.0831</ele>
        <time>2014-06-26T14:56:55Z</time>
      </trkpt>
      <trkpt lat="44.82091" lon="5.46963">
        <ele>1436.2627</ele>
        <time>2014-06-26T14:57:40Z</time>
      </trkpt>
      <trkpt lat="44.82092" lon="5.46952">
        <ele>1436.2627</ele>
        <time>2014-06-26T14:58:45Z</time>
      </trkpt>
      <trkpt lat="44.82091" lon="5.46952">
        <ele>1436.2627</ele>
        <time>2014-06-26T14:58:50Z</time>
      </trkpt>
      <trkpt lat="44.82087" lon="5.46967">
        <ele>1437.7101</ele>
        <time>2014-06-26T15:00:06Z</time>
      </trkpt>
      <trkpt lat="44.82077" lon="5.4697">
        <ele>1439.0284</ele>
        <time>2014-06-26T15:00:52Z</time>
      </trkpt>
      <trkpt lat="44.82087" lon="5.46972">
        <ele>1440.2689</ele>
        <time>2014-06-26T15:01:32Z</time>
      </trkpt>
      <trkpt lat="44.8209" lon="5.4697">
        <ele>1440.2689</ele>
        <time>2014-06-26T15:02:15Z</time>
      </trkpt>
      <trkpt lat="44.82094" lon="5.46973">
        <ele>1440.2689</ele>
        <time>2014-06-26T15:02:20Z</time>
      </trkpt>
      <trkpt lat="44.82093" lon="5.46979">
        <ele>1441.5797</ele>
        <time>2014-06-26T15:02:26Z</time>
      </trkpt>
      <trkpt lat="44.82093" lon="5.46984">
        <ele>1441.5797</ele>
        <time>2014-06-26T15:02:32Z</time>
      </trkpt>
      <trkpt lat="44.82094" lon="5.46988">
        <ele>1441.5797</ele>
        <time>2014-06-26T15:02:37Z</time>
      </trkpt>
      <trkpt lat="44.82095" lon="5.46992">
        <ele>1442.6804</ele>
        <time>2014-06-26T15:02:40Z</time>
      </trkpt>
      <trkpt lat="44.82096" lon="5.47004">
        <ele>1442.6804</ele>
        <time>2014-06-26T15:02:46Z</time>
      </trkpt>
      <trkpt lat="44.82096" lon="5.47011">
        <ele>1443.6287</ele>
        <time>2014-06-26T15:02:51Z</time>
      </trkpt>
      <trkpt lat="44.82096" lon="5.47017">
        <ele>1443.6287</ele>
        <time>2014-06-26T15:02:56Z</time>
      </trkpt>
      <trkpt lat="44.82092" lon="5.4702">
        <ele>1443.6287</ele>
        <time>2014-06-26T15:03:01Z</time>
      </trkpt>
      <trkpt lat="44.8209" lon="5.47026">
        <ele>1444.4932</ele>
        <time>2014-06-26T15:03:06Z</time>
      </trkpt>
      <trkpt lat="44.82088" lon="5.47031">
        <ele>1444.4932</ele>
        <time>2014-06-26T15:03:11Z</time>
      </trkpt>
      <trkpt lat="44.82085" lon="5.47035">
        <ele>1444.4932</ele>
        <time>2014-06-26T15:03:17Z</time>
      </trkpt>
      <trkpt lat="44.82084" lon="5.47047">
        <ele>1445.3663</ele>
        <time>2014-06-26T15:03:22Z</time>
      </trkpt>
      <trkpt lat="44.82083" lon="5.47053">
        <ele>1445.3663</ele>
        <time>2014-06-26T15:03:27Z</time>
      </trkpt>
      <trkpt lat="44.82082" lon="5.47059">
        <ele>1446.1611</ele>
        <time>2014-06-26T15:03:32Z</time>
      </trkpt>
      <trkpt lat="44.82084" lon="5.47064">
        <ele>1446.1611</ele>
        <time>2014-06-26T15:03:37Z</time>
      </trkpt>
      <trkpt lat="44.82085" lon="5.47069">
        <ele>1446.1611</ele>
        <time>2014-06-26T15:03:41Z</time>
      </trkpt>
      <trkpt lat="44.82088" lon="5.47076">
        <ele>1446.8981</ele>
        <time>2014-06-26T15:03:46Z</time>
      </trkpt>
      <trkpt lat="44.82089" lon="5.47085">
        <ele>1446.8981</ele>
        <time>2014-06-26T15:03:52Z</time>
      </trkpt>
      <trkpt lat="44.82087" lon="5.4709">
        <ele>1447.553</ele>
        <time>2014-06-26T15:03:56Z</time>
      </trkpt>
      <trkpt lat="44.82086" lon="5.47099">
        <ele>1447.553</ele>
        <time>2014-06-26T15:04:02Z</time>
      </trkpt>
      <trkpt lat="44.82084" lon="5.47108">
        <ele>1448.0896</ele>
        <time>2014-06-26T15:04:07Z</time>
      </trkpt>
      <trkpt lat="44.82084" lon="5.47118">
        <ele>1448.0896</ele>
        <time>2014-06-26T15:04:11Z</time>
      </trkpt>
      <trkpt lat="44.82084" lon="5.47125">
        <ele>1448.489</ele>
        <time>2014-06-26T15:04:17Z</time>
      </trkpt>
      <trkpt lat="44.82085" lon="5.47133">
        <ele>1448.489</ele>
        <time>2014-06-26T15:04:21Z</time>
      </trkpt>
      <trkpt lat="44.82086" lon="5.4714">
        <ele>1448.8206</ele>
        <time>2014-06-26T15:04:27Z</time>
      </trkpt>
      <trkpt lat="44.82083" lon="5.47154">
        <ele>1449.0767</ele>
        <time>2014-06-26T15:04:32Z</time>
      </trkpt>
      <trkpt lat="44.8208" lon="5.47166">
        <ele>1449.265</ele>
        <time>2014-06-26T15:04:37Z</time>
      </trkpt>
      <trkpt lat="44.82077" lon="5.47171">
        <ele>1449.265</ele>
        <time>2014-06-26T15:04:40Z</time>
      </trkpt>
      <trkpt lat="44.82075" lon="5.47172">
        <ele>1449.265</ele>
        <time>2014-06-26T15:04:47Z</time>
      </trkpt>
      <trkpt lat="44.82075" lon="5.47178">
        <ele>1449.4218</ele>
        <time>2014-06-26T15:04:52Z</time>
      </trkpt>
      <trkpt lat="44.82074" lon="5.47185">
        <ele>1449.4218</ele>
        <time>2014-06-26T15:04:57Z</time>
      </trkpt>
      <trkpt lat="44.82072" lon="5.47192">
        <ele>1449.4506</ele>
        <time>2014-06-26T15:05:02Z</time>
      </trkpt>
      <trkpt lat="44.82072" lon="5.47196">
        <ele>1449.4506</ele>
        <time>2014-06-26T15:05:06Z</time>
      </trkpt>
      <trkpt lat="44.82069" lon="5.47202">
        <ele>1449.4506</ele>
        <time>2014-06-26T15:05:12Z</time>
      </trkpt>
      <trkpt lat="44.82069" lon="5.47214">
        <ele>1449.263</ele>
        <time>2014-06-26T15:05:17Z</time>
      </trkpt>
      <trkpt lat="44.82068" lon="5.4722">
        <ele>1449.263</ele>
        <time>2014-06-26T15:05:22Z</time>
      </trkpt>
      <trkpt lat="44.82067" lon="5.47221">
        <ele>1449.263</ele>
        <time>2014-06-26T15:05:26Z</time>
      </trkpt>
      <trkpt lat="44.82061" lon="5.47233">
        <ele>1448.9069</ele>
        <time>2014-06-26T15:05:32Z</time>
      </trkpt>
      <trkpt lat="44.82062" lon="5.47233">
        <ele>1448.9069</ele>
        <time>2014-06-26T15:05:37Z</time>
      </trkpt>
      <trkpt lat="44.82063" lon="5.47238">
        <ele>1448.9069</ele>
        <time>2014-06-26T15:05:41Z</time>
      </trkpt>
      <trkpt lat="44.82062" lon="5.47243">
        <ele>1448.9069</ele>
        <time>2014-06-26T15:05:46Z</time>
      </trkpt>
      <trkpt lat="44.82063" lon="5.4725">
        <ele>1448.3553</ele>
        <time>2014-06-26T15:05:52Z</time>
      </trkpt>
      <trkpt lat="44.82063" lon="5.47256">
        <ele>1448.3553</ele>
        <time>2014-06-26T15:05:56Z</time>
      </trkpt>
      <trkpt lat="44.82065" lon="5.47267">
        <ele>1447.6271</ele>
        <time>2014-06-26T15:06:02Z</time>
      </trkpt>
      <trkpt lat="44.82064" lon="5.47276">
        <ele>1447.6271</ele>
        <time>2014-06-26T15:06:07Z</time>
      </trkpt>
      <trkpt lat="44.82066" lon="5.47284">
        <ele>1446.5526</ele>
        <time>2014-06-26T15:06:11Z</time>
      </trkpt>
      <trkpt lat="44.82066" lon="5.4729">
        <ele>1446.5526</ele>
        <time>2014-06-26T15:06:15Z</time>
      </trkpt>
      <trkpt lat="44.82066" lon="5.47302">
        <ele>1445.2638</ele>
        <time>2014-06-26T15:06:20Z</time>
      </trkpt>
      <trkpt lat="44.82065" lon="5.47307">
        <ele>1445.2638</ele>
        <time>2014-06-26T15:06:25Z</time>
      </trkpt>
      <trkpt lat="44.82065" lon="5.47319">
        <ele>1443.7684</ele>
        <time>2014-06-26T15:06:32Z</time>
      </trkpt>
      <trkpt lat="44.82069" lon="5.47324">
        <ele>1443.7684</ele>
        <time>2014-06-26T15:06:36Z</time>
      </trkpt>
      <trkpt lat="44.82074" lon="5.4733">
        <ele>1442.1173</ele>
        <time>2014-06-26T15:06:40Z</time>
      </trkpt>
      <trkpt lat="44.82077" lon="5.47337">
        <ele>1442.1173</ele>
        <time>2014-06-26T15:06:47Z</time>
      </trkpt>
      <trkpt lat="44.82077" lon="5.47347">
        <ele>1440.372</ele>
        <time>2014-06-26T15:06:52Z</time>
      </trkpt>
      <trkpt lat="44.82077" lon="5.47352">
        <ele>1440.372</ele>
        <time>2014-06-26T15:06:56Z</time>
      </trkpt>
      <trkpt lat="44.8208" lon="5.47361">
        <ele>1438.5757</ele>
        <time>2014-06-26T15:07:01Z</time>
      </trkpt>
      <trkpt lat="44.82084" lon="5.47365">
        <ele>1438.5757</ele>
        <time>2014-06-26T15:07:06Z</time>
      </trkpt>
      <trkpt lat="44.82088" lon="5.47368">
        <ele>1436.797</ele>
        <time>2014-06-26T15:07:11Z</time>
      </trkpt>
      <trkpt lat="44.82091" lon="5.47384">
        <ele>1435.0562</ele>
        <time>2014-06-26T15:07:17Z</time>
      </trkpt>
      <trkpt lat="44.82093" lon="5.47388">
        <ele>1435.0562</ele>
        <time>2014-06-26T15:07:22Z</time>
      </trkpt>
      <trkpt lat="44.82094" lon="5.47392">
        <ele>1435.0562</ele>
        <time>2014-06-26T15:07:27Z</time>
      </trkpt>
      <trkpt lat="44.82092" lon="5.47395">
        <ele>1435.0562</ele>
        <time>2014-06-26T15:07:31Z</time>
      </trkpt>
      <trkpt lat="44.82091" lon="5.47401">
        <ele>1433.4006</ele>
        <time>2014-06-26T15:07:37Z</time>
      </trkpt>
      <trkpt lat="44.82088" lon="5.47407">
        <ele>1433.4006</ele>
        <time>2014-06-26T15:07:41Z</time>
      </trkpt>
      <trkpt lat="44.82084" lon="5.47418">
        <ele>1431.8448</ele>
        <time>2014-06-26T15:07:46Z</time>
      </trkpt>
      <trkpt lat="44.82082" lon="5.47428">
        <ele>1431.8448</ele>
        <time>2014-06-26T15:07:52Z</time>
      </trkpt>
      <trkpt lat="44.82081" lon="5.47434">
        <ele>1430.1714</ele>
        <time>2014-06-26T15:07:56Z</time>
      </trkpt>
      <trkpt lat="44.8208" lon="5.47444">
        <ele>1430.1714</ele>
        <time>2014-06-26T15:08:02Z</time>
      </trkpt>
      <trkpt lat="44.82078" lon="5.47451">
        <ele>1428.4241</ele>
        <time>2014-06-26T15:08:07Z</time>
      </trkpt>
      <trkpt lat="44.8208" lon="5.47456">
        <ele>1428.4241</ele>
        <time>2014-06-26T15:08:12Z</time>
      </trkpt>
      <trkpt lat="44.82082" lon="5.47457">
        <ele>1428.4241</ele>
        <time>2014-06-26T15:08:17Z</time>
      </trkpt>
      <trkpt lat="44.82083" lon="5.4746">
        <ele>1428.4241</ele>
        <time>2014-06-26T15:08:22Z</time>
      </trkpt>
      <trkpt lat="44.8208" lon="5.47473">
        <ele>1426.6144</ele>
        <time>2014-06-26T15:08:27Z</time>
      </trkpt>
      <trkpt lat="44.82079" lon="5.47478">
        <ele>1426.6144</ele>
        <time>2014-06-26T15:08:31Z</time>
      </trkpt>
      <trkpt lat="44.82078" lon="5.47479">
        <ele>1426.6144</ele>
        <time>2014-06-26T15:08:36Z</time>
      </trkpt>
      <trkpt lat="44.82078" lon="5.4748">
        <ele>1426.6144</ele>
        <time>2014-06-26T15:08:40Z</time>
      </trkpt>
      <trkpt lat="44.82076" lon="5.47482">
        <ele>1426.6144</ele>
        <time>2014-06-26T15:08:52Z</time>
      </trkpt>
      <trkpt lat="44.82072" lon="5.47491">
        <ele>1424.8541</ele>
        <time>2014-06-26T15:08:57Z</time>
      </trkpt>
      <trkpt lat="44.82074" lon="5.47496">
        <ele>1424.8541</ele>
        <time>2014-06-26T15:09:02Z</time>
      </trkpt>
      <trkpt lat="44.82076" lon="5.47501">
        <ele>1424.8541</ele>
        <time>2014-06-26T15:09:06Z</time>
      </trkpt>
      <trkpt lat="44.82072" lon="5.47502">
        <ele>1422.9869</ele>
        <time>2014-06-26T15:09:12Z</time>
      </trkpt>
      <trkpt lat="44.82068" lon="5.47512">
        <ele>1422.9869</ele>
        <time>2014-06-26T15:09:17Z</time>
      </trkpt>
      <trkpt lat="44.82067" lon="5.47521">
        <ele>1421.0557</ele>
        <time>2014-06-26T15:09:22Z</time>
      </trkpt>
      <trkpt lat="44.82063" lon="5.47528">
        <ele>1421.0557</ele>
        <time>2014-06-26T15:09:26Z</time>
      </trkpt>
      <trkpt lat="44.8206" lon="5.47536">
        <ele>1419.2006</ele>
        <time>2014-06-26T15:09:31Z</time>
      </trkpt>
      <trkpt lat="44.82063" lon="5.47534">
        <ele>1419.2006</ele>
        <time>2014-06-26T15:09:37Z</time>
      </trkpt>
      <trkpt lat="44.82066" lon="5.4754">
        <ele>1419.2006</ele>
        <time>2014-06-26T15:09:46Z</time>
      </trkpt>
      <trkpt lat="44.82056" lon="5.47558">
        <ele>1417.1912</ele>
        <time>2014-06-26T15:09:51Z</time>
      </trkpt>
      <trkpt lat="44.82057" lon="5.47567">
        <ele>1417.1912</ele>
        <time>2014-06-26T15:09:57Z</time>
      </trkpt>
      <trkpt lat="44.82058" lon="5.47575">
        <ele>1415.1599</ele>
        <time>2014-06-26T15:10:01Z</time>
      </trkpt>
      <trkpt lat="44.82055" lon="5.4759">
        <ele>1413.1572</ele>
        <time>2014-06-26T15:10:06Z</time>
      </trkpt>
      <trkpt lat="44.82055" lon="5.47597">
        <ele>1413.1572</ele>
        <time>2014-06-26T15:10:11Z</time>
      </trkpt>
      <trkpt lat="44.8206" lon="5.47604">
        <ele>1410.9993</ele>
        <time>2014-06-26T15:10:17Z</time>
      </trkpt>
      <trkpt lat="44.82056" lon="5.47617">
        <ele>1408.775</ele>
        <time>2014-06-26T15:10:22Z</time>
      </trkpt>
      <trkpt lat="44.82057" lon="5.47621">
        <ele>1408.775</ele>
        <time>2014-06-26T15:10:27Z</time>
      </trkpt>
      <trkpt lat="44.82059" lon="5.47623">
        <ele>1408.775</ele>
        <time>2014-06-26T15:10:32Z</time>
      </trkpt>
      <trkpt lat="44.82059" lon="5.47627">
        <ele>1408.775</ele>
        <time>2014-06-26T15:10:37Z</time>
      </trkpt>
      <trkpt lat="44.8206" lon="5.47631">
        <ele>1405.9473</ele>
        <time>2014-06-26T15:10:40Z</time>
      </trkpt>
      <trkpt lat="44.82063" lon="5.47638">
        <ele>1405.9473</ele>
        <time>2014-06-26T15:10:47Z</time>
      </trkpt>
      <trkpt lat="44.82062" lon="5.47642">
        <ele>1403.0576</ele>
        <time>2014-06-26T15:10:51Z</time>
      </trkpt>
      <trkpt lat="44.82068" lon="5.47645">
        <ele>1403.0576</ele>
        <time>2014-06-26T15:10:56Z</time>
      </trkpt>
      <trkpt lat="44.8207" lon="5.47653">
        <ele>1400.2184</ele>
        <time>2014-06-26T15:11:01Z</time>
      </trkpt>
      <trkpt lat="44.82068" lon="5.47664">
        <ele>1400.2184</ele>
        <time>2014-06-26T15:11:07Z</time>
      </trkpt>
      <trkpt lat="44.82069" lon="5.4767">
        <ele>1397.4183</ele>
        <time>2014-06-26T15:11:13Z</time>
      </trkpt>
      <trkpt lat="44.82068" lon="5.47681">
        <ele>1397.4183</ele>
        <time>2014-06-26T15:11:16Z</time>
      </trkpt>
      <trkpt lat="44.82062" lon="5.47686">
        <ele>1394.5023</ele>
        <time>2014-06-26T15:11:22Z</time>
      </trkpt>
      <trkpt lat="44.82062" lon="5.47684">
        <ele>1394.5023</ele>
        <time>2014-06-26T15:11:26Z</time>
      </trkpt>
      <trkpt lat="44.8206" lon="5.47681">
        <ele>1394.5023</ele>
        <time>2014-06-26T15:11:32Z</time>
      </trkpt>
      <trkpt lat="44.82062" lon="5.47674">
        <ele>1391.125</ele>
        <time>2014-06-26T15:11:36Z</time>
      </trkpt>
      <trkpt lat="44.82063" lon="5.47669">
        <ele>1391.125</ele>
        <time>2014-06-26T15:11:41Z</time>
      </trkpt>
      <trkpt lat="44.82051" lon="5.47671">
        <ele>1387.7604</ele>
        <time>2014-06-26T15:11:46Z</time>
      </trkpt>
      <trkpt lat="44.82052" lon="5.47669">
        <ele>1387.7604</ele>
        <time>2014-06-26T15:11:52Z</time>
      </trkpt>
      <trkpt lat="44.82052" lon="5.47665">
        <ele>1387.7604</ele>
        <time>2014-06-26T15:11:56Z</time>
      </trkpt>
      <trkpt lat="44.8205" lon="5.47665">
        <ele>1387.7604</ele>
        <time>2014-06-26T15:12:01Z</time>
      </trkpt>
      <trkpt lat="44.82047" lon="5.47674">
        <ele>1384.2417</ele>
        <time>2014-06-26T15:12:06Z</time>
      </trkpt>
      <trkpt lat="44.82048" lon="5.4768">
        <ele>1384.2417</ele>
        <time>2014-06-26T15:12:12Z</time>
      </trkpt>
      <trkpt lat="44.8205" lon="5.4768">
        <ele>1384.2417</ele>
        <time>2014-06-26T15:12:17Z</time>
      </trkpt>
      <trkpt lat="44.8205" lon="5.4768">
        <ele>1384.2417</ele>
        <time>2014-06-26T15:12:21Z</time>
      </trkpt>
      <trkpt lat="44.82052" lon="5.47678">
        <ele>1380.5013</ele>
        <time>2014-06-26T15:12:26Z</time>
      </trkpt>
      <trkpt lat="44.82049" lon="5.47684">
        <ele>1380.5013</ele>
        <time>2014-06-26T15:12:32Z</time>
      </trkpt>
      <trkpt lat="44.8205" lon="5.47682">
        <ele>1380.5013</ele>
        <time>2014-06-26T15:12:47Z</time>
      </trkpt>
      <trkpt lat="44.8205" lon="5.47682">
        <ele>1380.5013</ele>
        <time>2014-06-26T15:12:52Z</time>
      </trkpt>
      <trkpt lat="44.82055" lon="5.47681">
        <ele>1376.6787</ele>
        <time>2014-06-26T15:13:01Z</time>
      </trkpt>
      <trkpt lat="44.82054" lon="5.47681">
        <ele>1376.6787</ele>
        <time>2014-06-26T15:13:07Z</time>
      </trkpt>
      <trkpt lat="44.82053" lon="5.4768">
        <ele>1376.6787</ele>
        <time>2014-06-26T15:13:15Z</time>
      </trkpt>
      <trkpt lat="44.82052" lon="5.4768">
        <ele>1376.6787</ele>
        <time>2014-06-26T15:13:20Z</time>
      </trkpt>
      <trkpt lat="44.82044" lon="5.47686">
        <ele>1373.393</ele>
        <time>2014-06-26T15:13:35Z</time>
      </trkpt>
      <trkpt lat="44.82043" lon="5.47686">
        <ele>1373.393</ele>
        <time>2014-06-26T15:13:40Z</time>
      </trkpt>
      <trkpt lat="44.82051" lon="5.47677">
        <ele>1370.1063</ele>
        <time>2014-06-26T15:14:36Z</time>
      </trkpt>
      <trkpt lat="44.82051" lon="5.47676">
        <ele>1370.1063</ele>
        <time>2014-06-26T15:14:41Z</time>
      </trkpt>
      <trkpt lat="44.82045" lon="5.47677">
        <ele>1370.1063</ele>
        <time>2014-06-26T15:15:21Z</time>
      </trkpt>
      <trkpt lat="44.82046" lon="5.47677">
        <ele>1370.1063</ele>
        <time>2014-06-26T15:15:27Z</time>
      </trkpt>
      <trkpt lat="44.82051" lon="5.47681">
        <ele>1366.9545</ele>
        <time>2014-06-26T15:15:52Z</time>
      </trkpt>
      <trkpt lat="44.82051" lon="5.47681">
        <ele>1366.9545</ele>
        <time>2014-06-26T15:15:56Z</time>
      </trkpt>
      <trkpt lat="44.82048" lon="5.47685">
        <ele>1366.9545</ele>
        <time>2014-06-26T15:16:02Z</time>
      </trkpt>
      <trkpt lat="44.82045" lon="5.47686">
        <ele>1366.9545</ele>
        <time>2014-06-26T15:16:07Z</time>
      </trkpt>
      <trkpt lat="44.82045" lon="5.47682">
        <ele>1364.192</ele>
        <time>2014-06-26T15:16:12Z</time>
      </trkpt>
      <trkpt lat="44.82043" lon="5.47681">
        <ele>1364.192</ele>
        <time>2014-06-26T15:16:17Z</time>
      </trkpt>
      <trkpt lat="44.82039" lon="5.47679">
        <ele>1364.192</ele>
        <time>2014-06-26T15:16:22Z</time>
      </trkpt>
      <trkpt lat="44.82038" lon="5.47678">
        <ele>1364.192</ele>
        <time>2014-06-26T15:16:25Z</time>
      </trkpt>
      <trkpt lat="44.8204" lon="5.47671">
        <ele>1361.7655</ele>
        <time>2014-06-26T15:16:32Z</time>
      </trkpt>
      <trkpt lat="44.82038" lon="5.47669">
        <ele>1361.7655</ele>
        <time>2014-06-26T15:16:36Z</time>
      </trkpt>
      <trkpt lat="44.82036" lon="5.47664">
        <ele>1361.7655</ele>
        <time>2014-06-26T15:16:41Z</time>
      </trkpt>
      <trkpt lat="44.82029" lon="5.47657">
        <ele>1359.6385</ele>
        <time>2014-06-26T15:16:47Z</time>
      </trkpt>
      <trkpt lat="44.82025" lon="5.47656">
        <ele>1359.6385</ele>
        <time>2014-06-26T15:16:52Z</time>
      </trkpt>
      <trkpt lat="44.82022" lon="5.47658">
        <ele>1359.6385</ele>
        <time>2014-06-26T15:16:57Z</time>
      </trkpt>
      <trkpt lat="44.82022" lon="5.47661">
        <ele>1357.6611</ele>
        <time>2014-06-26T15:17:02Z</time>
      </trkpt>
      <trkpt lat="44.82022" lon="5.47662">
        <ele>1357.6611</ele>
        <time>2014-06-26T15:17:07Z</time>
      </trkpt>
      <trkpt lat="44.82022" lon="5.47656">
        <ele>1357.6611</ele>
        <time>2014-06-26T15:17:12Z</time>
      </trkpt>
      <trkpt lat="44.82017" lon="5.47646">
        <ele>1355.8663</ele>
        <time>2014-06-26T15:17:17Z</time>
      </trkpt>
      <trkpt lat="44.82015" lon="5.47645">
        <ele>1355.8663</ele>
        <time>2014-06-26T15:17:22Z</time>
      </trkpt>
      <trkpt lat="44.8201" lon="5.47646">
        <ele>1355.8663</ele>
        <time>2014-06-26T15:17:26Z</time>
      </trkpt>
      <trkpt lat="44.82006" lon="5.47646">
        <ele>1354.2699</ele>
        <time>2014-06-26T15:17:32Z</time>
      </trkpt>
      <trkpt lat="44.82006" lon="5.47647">
        <ele>1354.2699</ele>
        <time>2014-06-26T15:17:37Z</time>
      </trkpt>
      <trkpt lat="44.82004" lon="5.47641">
        <ele>1354.2699</ele>
        <time>2014-06-26T15:17:41Z</time>
      </trkpt>
      <trkpt lat="44.81997" lon="5.47638">
        <ele>1352.6407</ele>
        <time>2014-06-26T15:17:47Z</time>
      </trkpt>
      <trkpt lat="44.81996" lon="5.4763">
        <ele>1352.6407</ele>
        <time>2014-06-26T15:17:52Z</time>
      </trkpt>
      <trkpt lat="44.81993" lon="5.47626">
        <ele>1351.0815</ele>
        <time>2014-06-26T15:17:57Z</time>
      </trkpt>
      <trkpt lat="44.81995" lon="5.47624">
        <ele>1351.0815</ele>
        <time>2014-06-26T15:18:01Z</time>
      </trkpt>
      <trkpt lat="44.81994" lon="5.47624">
        <ele>1351.0815</ele>
        <time>2014-06-26T15:18:07Z</time>
      </trkpt>
      <trkpt lat="44.81993" lon="5.47616">
        <ele>1349.6583</ele>
        <time>2014-06-26T15:18:12Z</time>
      </trkpt>
      <trkpt lat="44.81988" lon="5.47611">
        <ele>1349.6583</ele>
        <time>2014-06-26T15:18:17Z</time>
      </trkpt>
      <trkpt lat="44.81985" lon="5.47606">
        <ele>1348.3165</ele>
        <time>2014-06-26T15:18:21Z</time>
      </trkpt>
      <trkpt lat="44.81982" lon="5.47596">
        <ele>1348.3165</ele>
        <time>2014-06-26T15:18:26Z</time>
      </trkpt>
      <trkpt lat="44.81979" lon="5.47583">
        <ele>1346.933</ele>
        <time>2014-06-26T15:18:32Z</time>
      </trkpt>
      <trkpt lat="44.81972" lon="5.47582">
        <ele>1346.933</ele>
        <time>2014-06-26T15:18:37Z</time>
      </trkpt>
      <trkpt lat="44.81971" lon="5.47577">
        <ele>1345.509</ele>
        <time>2014-06-26T15:18:40Z</time>
      </trkpt>
      <trkpt lat="44.81968" lon="5.47566">
        <ele>1345.509</ele>
        <time>2014-06-26T15:18:47Z</time>
      </trkpt>
      <trkpt lat="44.81965" lon="5.47561">
        <ele>1344.0171</ele>
        <time>2014-06-26T15:18:52Z</time>
      </trkpt>
      <trkpt lat="44.8196" lon="5.4756">
        <ele>1344.0171</ele>
        <time>2014-06-26T15:18:57Z</time>
      </trkpt>
      <trkpt lat="44.81955" lon="5.47559">
        <ele>1342.4604</ele>
        <time>2014-06-26T15:19:01Z</time>
      </trkpt>
      <trkpt lat="44.81947" lon="5.47559">
        <ele>1342.4604</ele>
        <time>2014-06-26T15:19:07Z</time>
      </trkpt>
      <trkpt lat="44.81942" lon="5.47557">
        <ele>1340.8568</ele>
        <time>2014-06-26T15:19:11Z</time>
      </trkpt>
      <trkpt lat="44.81938" lon="5.47558">
        <ele>1340.8568</ele>
        <time>2014-06-26T15:19:16Z</time>
      </trkpt>
      <trkpt lat="44.81935" lon="5.4755">
        <ele>1339.2225</ele>
        <time>2014-06-26T15:19:22Z</time>
      </trkpt>
      <trkpt lat="44.8193" lon="5.47543">
        <ele>1339.2225</ele>
        <time>2014-06-26T15:19:26Z</time>
      </trkpt>
      <trkpt lat="44.81926" lon="5.4753">
        <ele>1337.4863</ele>
        <time>2014-06-26T15:19:32Z</time>
      </trkpt>
      <trkpt lat="44.81923" lon="5.47518">
        <ele>1335.8562</ele>
        <time>2014-06-26T15:19:36Z</time>
      </trkpt>
      <trkpt lat="44.81924" lon="5.47513">
        <ele>1335.8562</ele>
        <time>2014-06-26T15:19:41Z</time>
      </trkpt>
      <trkpt lat="44.81923" lon="5.47514">
        <ele>1335.8562</ele>
        <time>2014-06-26T15:19:47Z</time>
      </trkpt>
      <trkpt lat="44.81922" lon="5.47515">
        <ele>1335.8562</ele>
        <time>2014-06-26T15:19:52Z</time>
      </trkpt>
      <trkpt lat="44.81921" lon="5.47512">
        <ele>1335.8562</ele>
        <time>2014-06-26T15:19:57Z</time>
      </trkpt>
      <trkpt lat="44.8192" lon="5.47512">
        <ele>1335.8562</ele>
        <time>2014-06-26T15:20:01Z</time>
      </trkpt>
      <trkpt lat="44.81919" lon="5.47509">
        <ele>1334.006</ele>
        <time>2014-06-26T15:20:07Z</time>
      </trkpt>
      <trkpt lat="44.81917" lon="5.47505">
        <ele>1334.006</ele>
        <time>2014-06-26T15:20:12Z</time>
      </trkpt>
      <trkpt lat="44.81916" lon="5.47499">
        <ele>1334.006</ele>
        <time>2014-06-26T15:20:17Z</time>
      </trkpt>
      <trkpt lat="44.81914" lon="5.47504">
        <ele>1332.0227</ele>
        <time>2014-06-26T15:20:22Z</time>
      </trkpt>
      <trkpt lat="44.81912" lon="5.47506">
        <ele>1332.0227</ele>
        <time>2014-06-26T15:20:37Z</time>
      </trkpt>
      <trkpt lat="44.81911" lon="5.47499">
        <ele>1332.0227</ele>
        <time>2014-06-26T15:20:40Z</time>
      </trkpt>
      <trkpt lat="44.81907" lon="5.47489">
        <ele>1329.6707</ele>
        <time>2014-06-26T15:20:47Z</time>
      </trkpt>
      <trkpt lat="44.81904" lon="5.47478">
        <ele>1329.6707</ele>
        <time>2014-06-26T15:20:51Z</time>
      </trkpt>
      <trkpt lat="44.81901" lon="5.47469">
        <ele>1327.3807</ele>
        <time>2014-06-26T15:20:57Z</time>
      </trkpt>
      <trkpt lat="44.81899" lon="5.47465">
        <ele>1327.3807</ele>
        <time>2014-06-26T15:21:02Z</time>
      </trkpt>
      <trkpt lat="44.819" lon="5.47464">
        <ele>1327.3807</ele>
        <time>2014-06-26T15:21:08Z</time>
      </trkpt>
      <trkpt lat="44.81898" lon="5.47465">
        <ele>1327.3807</ele>
        <time>2014-06-26T15:21:11Z</time>
      </trkpt>
      <trkpt lat="44.81896" lon="5.47458">
        <ele>1324.7885</ele>
        <time>2014-06-26T15:21:17Z</time>
      </trkpt>
      <trkpt lat="44.81893" lon="5.47446">
        <ele>1324.7885</ele>
        <time>2014-06-26T15:21:21Z</time>
      </trkpt>
      <trkpt lat="44.81891" lon="5.47436">
        <ele>1322.3204</ele>
        <time>2014-06-26T15:21:27Z</time>
      </trkpt>
      <trkpt lat="44.81889" lon="5.47432">
        <ele>1322.3204</ele>
        <time>2014-06-26T15:21:31Z</time>
      </trkpt>
      <trkpt lat="44.81888" lon="5.47421">
        <ele>1319.9106</ele>
        <time>2014-06-26T15:21:37Z</time>
      </trkpt>
      <trkpt lat="44.81888" lon="5.47415">
        <ele>1319.9106</ele>
        <time>2014-06-26T15:21:41Z</time>
      </trkpt>
      <trkpt lat="44.81888" lon="5.4741">
        <ele>1319.9106</ele>
        <time>2014-06-26T15:21:47Z</time>
      </trkpt>
      <trkpt lat="44.81887" lon="5.47409">
        <ele>1317.5265</ele>
        <time>2014-06-26T15:21:56Z</time>
      </trkpt>
      <trkpt lat="44.81886" lon="5.474">
        <ele>1317.5265</ele>
        <time>2014-06-26T15:22:02Z</time>
      </trkpt>
      <trkpt lat="44.81884" lon="5.47394">
        <ele>1315.2528</ele>
        <time>2014-06-26T15:22:06Z</time>
      </trkpt>
      <trkpt lat="44.8188" lon="5.47381">
        <ele>1313.1825</ele>
        <time>2014-06-26T15:22:12Z</time>
      </trkpt>
      <trkpt lat="44.81879" lon="5.47374">
        <ele>1313.1825</ele>
        <time>2014-06-26T15:22:17Z</time>
      </trkpt>
      <trkpt lat="44.81877" lon="5.47364">
        <ele>1311.1848</ele>
        <time>2014-06-26T15:22:22Z</time>
      </trkpt>
      <trkpt lat="44.81871" lon="5.47357">
        <ele>1311.1848</ele>
        <time>2014-06-26T15:22:26Z</time>
      </trkpt>
      <trkpt lat="44.81865" lon="5.47351">
        <ele>1308.9365</ele>
        <time>2014-06-26T15:22:32Z</time>
      </trkpt>
      <trkpt lat="44.8186" lon="5.47339">
        <ele>1306.7443</ele>
        <time>2014-06-26T15:22:37Z</time>
      </trkpt>
      <trkpt lat="44.81856" lon="5.47332">
        <ele>1306.7443</ele>
        <time>2014-06-26T15:22:40Z</time>
      </trkpt>
      <trkpt lat="44.81848" lon="5.47319">
        <ele>1304.2865</ele>
        <time>2014-06-26T15:22:47Z</time>
      </trkpt>
      <trkpt lat="44.81847" lon="5.47312">
        <ele>1304.2865</ele>
        <time>2014-06-26T15:22:52Z</time>
      </trkpt>
      <trkpt lat="44.81845" lon="5.47312">
        <ele>1304.2865</ele>
        <time>2014-06-26T15:22:57Z</time>
      </trkpt>
      <trkpt lat="44.81844" lon="5.47306">
        <ele>1301.742</ele>
        <time>2014-06-26T15:23:02Z</time>
      </trkpt>
      <trkpt lat="44.81843" lon="5.47299">
        <ele>1301.742</ele>
        <time>2014-06-26T15:23:07Z</time>
      </trkpt>
      <trkpt lat="44.81836" lon="5.47293">
        <ele>1299.1897</ele>
        <time>2014-06-26T15:23:12Z</time>
      </trkpt>
      <trkpt lat="44.81832" lon="5.47286">
        <ele>1299.1897</ele>
        <time>2014-06-26T15:23:17Z</time>
      </trkpt>
      <trkpt lat="44.81827" lon="5.47279">
        <ele>1296.6454</ele>
        <time>2014-06-26T15:23:21Z</time>
      </trkpt>
      <trkpt lat="44.81826" lon="5.4727">
        <ele>1296.6454</ele>
        <time>2014-06-26T15:23:27Z</time>
      </trkpt>
      <trkpt lat="44.81824" lon="5.47259">
        <ele>1293.9218</ele>
        <time>2014-06-26T15:23:32Z</time>
      </trkpt>
      <trkpt lat="44.8182" lon="5.47249">
        <ele>1293.9218</ele>
        <time>2014-06-26T15:23:36Z</time>
      </trkpt>
      <trkpt lat="44.81817" lon="5.47242">
        <ele>1291.0911</ele>
        <time>2014-06-26T15:23:41Z</time>
      </trkpt>
      <trkpt lat="44.81811" lon="5.47236">
        <ele>1291.0911</ele>
        <time>2014-06-26T15:23:46Z</time>
      </trkpt>
      <trkpt lat="44.81809" lon="5.47227">
        <ele>1288.0038</ele>
        <time>2014-06-26T15:23:52Z</time>
      </trkpt>
      <trkpt lat="44.8181" lon="5.47226">
        <ele>1288.0038</ele>
        <time>2014-06-26T15:23:57Z</time>
      </trkpt>
      <trkpt lat="44.81814" lon="5.47219">
        <ele>1288.0038</ele>
        <time>2014-06-26T15:24:26Z</time>
      </trkpt>
      <trkpt lat="44.8181" lon="5.47216">
        <ele>1284.1624</ele>
        <time>2014-06-26T15:24:32Z</time>
      </trkpt>
      <trkpt lat="44.81807" lon="5.47209">
        <ele>1284.1624</ele>
        <time>2014-06-26T15:24:37Z</time>
      </trkpt>
      <trkpt lat="44.81803" lon="5.47206">
        <ele>1280.5918</ele>
        <time>2014-06-26T15:24:40Z</time>
      </trkpt>
      <trkpt lat="44.81806" lon="5.47196">
        <ele>1280.5918</ele>
        <time>2014-06-26T15:24:46Z</time>
      </trkpt>
      <trkpt lat="44.81809" lon="5.4719">
        <ele>1277.3046</ele>
        <time>2014-06-26T15:24:52Z</time>
      </trkpt>
      <trkpt lat="44.81808" lon="5.47184">
        <ele>1277.3046</ele>
        <time>2014-06-26T15:24:57Z</time>
      </trkpt>
      <trkpt lat="44.81805" lon="5.47179">
        <ele>1274.297</ele>
        <time>2014-06-26T15:25:02Z</time>
      </trkpt>
      <trkpt lat="44.81804" lon="5.47173">
        <ele>1274.297</ele>
        <time>2014-06-26T15:25:06Z</time>
      </trkpt>
      <trkpt lat="44.81801" lon="5.47167">
        <ele>1274.297</ele>
        <time>2014-06-26T15:25:12Z</time>
      </trkpt>
      <trkpt lat="44.81799" lon="5.47164">
        <ele>1271.4205</ele>
        <time>2014-06-26T15:25:17Z</time>
      </trkpt>
      <trkpt lat="44.81798" lon="5.47159">
        <ele>1271.4205</ele>
        <time>2014-06-26T15:25:22Z</time>
      </trkpt>
      <trkpt lat="44.81796" lon="5.47154">
        <ele>1271.4205</ele>
        <time>2014-06-26T15:25:26Z</time>
      </trkpt>
      <trkpt lat="44.81794" lon="5.47149">
        <ele>1268.6237</ele>
        <time>2014-06-26T15:25:32Z</time>
      </trkpt>
      <trkpt lat="44.81793" lon="5.47142">
        <ele>1268.6237</ele>
        <time>2014-06-26T15:25:37Z</time>
      </trkpt>
      <trkpt lat="44.81792" lon="5.47136">
        <ele>1266.0602</ele>
        <time>2014-06-26T15:25:40Z</time>
      </trkpt>
      <trkpt lat="44.81791" lon="5.47126">
        <ele>1266.0602</ele>
        <time>2014-06-26T15:25:46Z</time>
      </trkpt>
      <trkpt lat="44.81784" lon="5.47114">
        <ele>1263.5836</ele>
        <time>2014-06-26T15:25:52Z</time>
      </trkpt>
      <trkpt lat="44.81781" lon="5.47109">
        <ele>1263.5836</ele>
        <time>2014-06-26T15:25:56Z</time>
      </trkpt>
      <trkpt lat="44.81775" lon="5.47109">
        <ele>1261.2742</ele>
        <time>2014-06-26T15:26:01Z</time>
      </trkpt>
      <trkpt lat="44.81772" lon="5.47108">
        <ele>1261.2742</ele>
        <time>2014-06-26T15:26:06Z</time>
      </trkpt>
      <trkpt lat="44.81768" lon="5.47105">
        <ele>1261.2742</ele>
        <time>2014-06-26T15:26:12Z</time>
      </trkpt>
      <trkpt lat="44.81762" lon="5.47104">
        <ele>1258.9751</ele>
        <time>2014-06-26T15:26:17Z</time>
      </trkpt>
      <trkpt lat="44.81756" lon="5.471">
        <ele>1258.9751</ele>
        <time>2014-06-26T15:26:21Z</time>
      </trkpt>
      <trkpt lat="44.81751" lon="5.47099">
        <ele>1256.6562</ele>
        <time>2014-06-26T15:26:27Z</time>
      </trkpt>
      <trkpt lat="44.81746" lon="5.47095">
        <ele>1256.6562</ele>
        <time>2014-06-26T15:26:32Z</time>
      </trkpt>
      <trkpt lat="44.81742" lon="5.47088">
        <ele>1254.4196</ele>
        <time>2014-06-26T15:26:36Z</time>
      </trkpt>
      <trkpt lat="44.81742" lon="5.47081">
        <ele>1254.4196</ele>
        <time>2014-06-26T15:26:40Z</time>
      </trkpt>
      <trkpt lat="44.81739" lon="5.47073">
        <ele>1252.2726</ele>
        <time>2014-06-26T15:26:47Z</time>
      </trkpt>
      <trkpt lat="44.81736" lon="5.47069">
        <ele>1252.2726</ele>
        <time>2014-06-26T15:26:51Z</time>
      </trkpt>
      <trkpt lat="44.8173" lon="5.47065">
        <ele>1250.2368</ele>
        <time>2014-06-26T15:26:57Z</time>
      </trkpt>
      <trkpt lat="44.8173" lon="5.47065">
        <ele>1250.2368</ele>
        <time>2014-06-26T15:27:01Z</time>
      </trkpt>
      <trkpt lat="44.81723" lon="5.47061">
        <ele>1250.2368</ele>
        <time>2014-06-26T15:27:07Z</time>
      </trkpt>
      <trkpt lat="44.81721" lon="5.47059">
        <ele>1248.2593</ele>
        <time>2014-06-26T15:27:12Z</time>
      </trkpt>
      <trkpt lat="44.81716" lon="5.47055">
        <ele>1248.2593</ele>
        <time>2014-06-26T15:27:16Z</time>
      </trkpt>
      <trkpt lat="44.81711" lon="5.47054">
        <ele>1246.3486</ele>
        <time>2014-06-26T15:27:22Z</time>
      </trkpt>
      <trkpt lat="44.8171" lon="5.47051">
        <ele>1246.3486</ele>
        <time>2014-06-26T15:27:27Z</time>
      </trkpt>
      <trkpt lat="44.81709" lon="5.47048">
        <ele>1246.3486</ele>
        <time>2014-06-26T15:27:31Z</time>
      </trkpt>
      <trkpt lat="44.81704" lon="5.47043">
        <ele>1244.4839</ele>
        <time>2014-06-26T15:27:36Z</time>
      </trkpt>
      <trkpt lat="44.817" lon="5.47041">
        <ele>1244.4839</ele>
        <time>2014-06-26T15:27:41Z</time>
      </trkpt>
      <trkpt lat="44.81697" lon="5.4704">
        <ele>1244.4839</ele>
        <time>2014-06-26T15:27:46Z</time>
      </trkpt>
      <trkpt lat="44.8169" lon="5.47041">
        <ele>1242.7753</ele>
        <time>2014-06-26T15:27:52Z</time>
      </trkpt>
      <trkpt lat="44.81688" lon="5.47042">
        <ele>1242.7753</ele>
        <time>2014-06-26T15:27:57Z</time>
      </trkpt>
      <trkpt lat="44.81685" lon="5.4704">
        <ele>1242.7753</ele>
        <time>2014-06-26T15:28:02Z</time>
      </trkpt>
      <trkpt lat="44.81684" lon="5.47036">
        <ele>1242.7753</ele>
        <time>2014-06-26T15:28:10Z</time>
      </trkpt>
      <trkpt lat="44.8168" lon="5.47034">
        <ele>1241.3241</ele>
        <time>2014-06-26T15:28:10Z</time>
      </trkpt>
      <trkpt lat="44.81675" lon="5.47029">
        <ele>1241.3241</ele>
        <time>2014-06-26T15:28:16Z</time>
      </trkpt>
      <trkpt lat="44.8167" lon="5.47028">
        <ele>1240.0797</ele>
        <time>2014-06-26T15:28:22Z</time>
      </trkpt>
      <trkpt lat="44.81668" lon="5.47024">
        <ele>1240.0797</ele>
        <time>2014-06-26T15:28:27Z</time>
      </trkpt>
      <trkpt lat="44.81666" lon="5.47019">
        <ele>1240.0797</ele>
        <time>2014-06-26T15:28:32Z</time>
      </trkpt>
      <trkpt lat="44.81662" lon="5.47018">
        <ele>1238.9226</ele>
        <time>2014-06-26T15:28:36Z</time>
      </trkpt>
      <trkpt lat="44.8166" lon="5.47016">
        <ele>1238.9226</ele>
        <time>2014-06-26T15:28:40Z</time>
      </trkpt>
      <trkpt lat="44.81659" lon="5.47012">
        <ele>1238.9226</ele>
        <time>2014-06-26T15:28:46Z</time>
      </trkpt>
      <trkpt lat="44.81653" lon="5.47005">
        <ele>1237.8425</ele>
        <time>2014-06-26T15:28:52Z</time>
      </trkpt>
      <trkpt lat="44.81649" lon="5.46998">
        <ele>1237.8425</ele>
        <time>2014-06-26T15:28:57Z</time>
      </trkpt>
      <trkpt lat="44.81642" lon="5.46997">
        <ele>1236.8154</ele>
        <time>2014-06-26T15:29:01Z</time>
      </trkpt>
      <trkpt lat="44.81643" lon="5.46995">
        <ele>1236.8154</ele>
        <time>2014-06-26T15:29:07Z</time>
      </trkpt>
      <trkpt lat="44.81641" lon="5.46989">
        <ele>1236.8154</ele>
        <time>2014-06-26T15:29:11Z</time>
      </trkpt>
      <trkpt lat="44.81639" lon="5.46986">
        <ele>1235.9055</ele>
        <time>2014-06-26T15:29:17Z</time>
      </trkpt>
      <trkpt lat="44.81637" lon="5.46985">
        <ele>1235.9055</ele>
        <time>2014-06-26T15:29:22Z</time>
      </trkpt>
      <trkpt lat="44.8163" lon="5.46982">
        <ele>1235.1285</ele>
        <time>2014-06-26T15:29:26Z</time>
      </trkpt>
      <trkpt lat="44.81625" lon="5.46983">
        <ele>1235.1285</ele>
        <time>2014-06-26T15:29:32Z</time>
      </trkpt>
      <trkpt lat="44.81619" lon="5.46981">
        <ele>1234.1388</ele>
        <time>2014-06-26T15:29:37Z</time>
      </trkpt>
      <trkpt lat="44.81616" lon="5.46978">
        <ele>1234.1388</ele>
        <time>2014-06-26T15:29:41Z</time>
      </trkpt>
      <trkpt lat="44.8161" lon="5.46972">
        <ele>1233.1208</ele>
        <time>2014-06-26T15:29:46Z</time>
      </trkpt>
      <trkpt lat="44.81604" lon="5.46968">
        <ele>1233.1208</ele>
        <time>2014-06-26T15:29:51Z</time>
      </trkpt>
      <trkpt lat="44.81599" lon="5.46962">
        <ele>1231.9432</ele>
        <time>2014-06-26T15:29:56Z</time>
      </trkpt>
      <trkpt lat="44.81593" lon="5.46957">
        <ele>1231.9432</ele>
        <time>2014-06-26T15:30:02Z</time>
      </trkpt>
      <trkpt lat="44.81588" lon="5.46947">
        <ele>1230.5712</ele>
        <time>2014-06-26T15:30:07Z</time>
      </trkpt>
      <trkpt lat="44.81584" lon="5.4694">
        <ele>1230.5712</ele>
        <time>2014-06-26T15:30:11Z</time>
      </trkpt>
      <trkpt lat="44.81578" lon="5.4693">
        <ele>1228.9874</ele>
        <time>2014-06-26T15:30:17Z</time>
      </trkpt>
      <trkpt lat="44.81576" lon="5.46924">
        <ele>1228.9874</ele>
        <time>2014-06-26T15:30:22Z</time>
      </trkpt>
      <trkpt lat="44.81572" lon="5.4692">
        <ele>1227.1625</ele>
        <time>2014-06-26T15:30:26Z</time>
      </trkpt>
      <trkpt lat="44.81568" lon="5.46914">
        <ele>1227.1625</ele>
        <time>2014-06-26T15:30:32Z</time>
      </trkpt>
      <trkpt lat="44.81565" lon="5.46905">
        <ele>1225.2567</ele>
        <time>2014-06-26T15:30:37Z</time>
      </trkpt>
      <trkpt lat="44.81561" lon="5.469">
        <ele>1225.2567</ele>
        <time>2014-06-26T15:30:40Z</time>
      </trkpt>
      <trkpt lat="44.81555" lon="5.4689">
        <ele>1223.1025</ele>
        <time>2014-06-26T15:30:47Z</time>
      </trkpt>
      <trkpt lat="44.8155" lon="5.46891">
        <ele>1223.1025</ele>
        <time>2014-06-26T15:30:51Z</time>
      </trkpt>
      <trkpt lat="44.81545" lon="5.46888">
        <ele>1220.9053</ele>
        <time>2014-06-26T15:30:57Z</time>
      </trkpt>
      <trkpt lat="44.81537" lon="5.46883">
        <ele>1220.9053</ele>
        <time>2014-06-26T15:31:01Z</time>
      </trkpt>
      <trkpt lat="44.81531" lon="5.4688">
        <ele>1218.6682</ele>
        <time>2014-06-26T15:31:07Z</time>
      </trkpt>
      <trkpt lat="44.81531" lon="5.46876">
        <ele>1218.6682</ele>
        <time>2014-06-26T15:31:12Z</time>
      </trkpt>
      <trkpt lat="44.81524" lon="5.4687">
        <ele>1216.5242</ele>
        <time>2014-06-26T15:31:16Z</time>
      </trkpt>
      <trkpt lat="44.81521" lon="5.46866">
        <ele>1216.5242</ele>
        <time>2014-06-26T15:31:22Z</time>
      </trkpt>
      <trkpt lat="44.81516" lon="5.46863">
        <ele>1214.3511</ele>
        <time>2014-06-26T15:31:27Z</time>
      </trkpt>
      <trkpt lat="44.81512" lon="5.46855">
        <ele>1214.3511</ele>
        <time>2014-06-26T15:31:31Z</time>
      </trkpt>
      <trkpt lat="44.81509" lon="5.46846">
        <ele>1211.9784</ele>
        <time>2014-06-26T15:31:37Z</time>
      </trkpt>
      <trkpt lat="44.81505" lon="5.46844">
        <ele>1211.9784</ele>
        <time>2014-06-26T15:31:41Z</time>
      </trkpt>
      <trkpt lat="44.815" lon="5.4684">
        <ele>1209.465</ele>
        <time>2014-06-26T15:31:46Z</time>
      </trkpt>
      <trkpt lat="44.81496" lon="5.46833">
        <ele>1209.465</ele>
        <time>2014-06-26T15:31:52Z</time>
      </trkpt>
      <trkpt lat="44.81494" lon="5.46829">
        <ele>1206.9806</ele>
        <time>2014-06-26T15:31:57Z</time>
      </trkpt>
      <trkpt lat="44.81494" lon="5.46823">
        <ele>1206.9806</ele>
        <time>2014-06-26T15:32:02Z</time>
      </trkpt>
      <trkpt lat="44.81497" lon="5.46818">
        <ele>1204.5823</ele>
        <time>2014-06-26T15:32:06Z</time>
      </trkpt>
      <trkpt lat="44.81501" lon="5.46816">
        <ele>1204.5823</ele>
        <time>2014-06-26T15:32:12Z</time>
      </trkpt>
      <trkpt lat="44.81502" lon="5.46816">
        <ele>1204.5823</ele>
        <time>2014-06-26T15:32:17Z</time>
      </trkpt>
      <trkpt lat="44.81515" lon="5.46818">
        <ele>1202.1205</ele>
        <time>2014-06-26T15:32:22Z</time>
      </trkpt>
      <trkpt lat="44.81516" lon="5.46818">
        <ele>1202.1205</ele>
        <time>2014-06-26T15:32:26Z</time>
      </trkpt>
      <trkpt lat="44.81524" lon="5.46819">
        <ele>1199.774</ele>
        <time>2014-06-26T15:32:32Z</time>
      </trkpt>
      <trkpt lat="44.81529" lon="5.46817">
        <ele>1199.774</ele>
        <time>2014-06-26T15:32:37Z</time>
      </trkpt>
      <trkpt lat="44.81532" lon="5.46817">
        <ele>1199.774</ele>
        <time>2014-06-26T15:32:40Z</time>
      </trkpt>
      <trkpt lat="44.81539" lon="5.46816">
        <ele>1197.521</ele>
        <time>2014-06-26T15:32:47Z</time>
      </trkpt>
      <trkpt lat="44.81544" lon="5.46815">
        <ele>1197.521</ele>
        <time>2014-06-26T15:32:52Z</time>
      </trkpt>
      <trkpt lat="44.81551" lon="5.46815">
        <ele>1195.528</ele>
        <time>2014-06-26T15:32:57Z</time>
      </trkpt>
      <trkpt lat="44.81556" lon="5.46815">
        <ele>1195.528</ele>
        <time>2014-06-26T15:33:02Z</time>
      </trkpt>
      <trkpt lat="44.81562" lon="5.46814">
        <ele>1193.6318</ele>
        <time>2014-06-26T15:33:06Z</time>
      </trkpt>
      <trkpt lat="44.81566" lon="5.46815">
        <ele>1193.6318</ele>
        <time>2014-06-26T15:33:11Z</time>
      </trkpt>
      <trkpt lat="44.81569" lon="5.46812">
        <ele>1193.6318</ele>
        <time>2014-06-26T15:33:17Z</time>
      </trkpt>
      <trkpt lat="44.81572" lon="5.46815">
        <ele>1191.508</ele>
        <time>2014-06-26T15:33:22Z</time>
      </trkpt>
      <trkpt lat="44.81577" lon="5.46816">
        <ele>1191.508</ele>
        <time>2014-06-26T15:33:27Z</time>
      </trkpt>
      <trkpt lat="44.8158" lon="5.46818">
        <ele>1191.508</ele>
        <time>2014-06-26T15:33:31Z</time>
      </trkpt>
      <trkpt lat="44.81587" lon="5.46818">
        <ele>1189.3468</ele>
        <time>2014-06-26T15:33:37Z</time>
      </trkpt>
      <trkpt lat="44.81588" lon="5.46817">
        <ele>1189.3468</ele>
        <time>2014-06-26T15:33:41Z</time>
      </trkpt>
      <trkpt lat="44.81593" lon="5.46817">
        <ele>1189.3468</ele>
        <time>2014-06-26T15:33:46Z</time>
      </trkpt>
      <trkpt lat="44.81593" lon="5.46816">
        <ele>1189.3468</ele>
        <time>2014-06-26T15:33:51Z</time>
      </trkpt>
      <trkpt lat="44.8159" lon="5.46813">
        <ele>1186.4016</ele>
        <time>2014-06-26T15:33:57Z</time>
      </trkpt>
      <trkpt lat="44.81584" lon="5.46812">
        <ele>1186.4016</ele>
        <time>2014-06-26T15:34:02Z</time>
      </trkpt>
      <trkpt lat="44.81583" lon="5.46808">
        <ele>1186.4016</ele>
        <time>2014-06-26T15:34:06Z</time>
      </trkpt>
      <trkpt lat="44.81581" lon="5.46804">
        <ele>1183.1941</ele>
        <time>2014-06-26T15:34:12Z</time>
      </trkpt>
      <trkpt lat="44.8158" lon="5.46802">
        <ele>1183.1941</ele>
        <time>2014-06-26T15:34:16Z</time>
      </trkpt>
      <trkpt lat="44.81579" lon="5.46794">
        <ele>1183.1941</ele>
        <time>2014-06-26T15:34:21Z</time>
      </trkpt>
      <trkpt lat="44.81578" lon="5.46791">
        <ele>1179.7468</ele>
        <time>2014-06-26T15:34:26Z</time>
      </trkpt>
      <trkpt lat="44.81577" lon="5.46784">
        <ele>1179.7468</ele>
        <time>2014-06-26T15:34:32Z</time>
      </trkpt>
      <trkpt lat="44.81575" lon="5.46781">
        <ele>1179.7468</ele>
        <time>2014-06-26T15:34:36Z</time>
      </trkpt>
      <trkpt lat="44.81575" lon="5.46779">
        <ele>1176.2401</ele>
        <time>2014-06-26T15:34:40Z</time>
      </trkpt>
      <trkpt lat="44.81577" lon="5.46777">
        <ele>1176.2401</ele>
        <time>2014-06-26T15:34:47Z</time>
      </trkpt>
      <trkpt lat="44.81573" lon="5.46773">
        <ele>1176.2401</ele>
        <time>2014-06-26T15:34:57Z</time>
      </trkpt>
      <trkpt lat="44.8157" lon="5.46772">
        <ele>1172.8408</ele>
        <time>2014-06-26T15:35:02Z</time>
      </trkpt>
      <trkpt lat="44.81567" lon="5.46768">
        <ele>1172.8408</ele>
        <time>2014-06-26T15:35:07Z</time>
      </trkpt>
      <trkpt lat="44.81566" lon="5.46768">
        <ele>1172.8408</ele>
        <time>2014-06-26T15:35:12Z</time>
      </trkpt>
      <trkpt lat="44.81565" lon="5.46767">
        <ele>1172.8408</ele>
        <time>2014-06-26T15:35:16Z</time>
      </trkpt>
      <trkpt lat="44.81563" lon="5.46764">
        <ele>1169.2426</ele>
        <time>2014-06-26T15:35:21Z</time>
      </trkpt>
      <trkpt lat="44.81552" lon="5.46763">
        <ele>1165.8821</ele>
        <time>2014-06-26T15:35:26Z</time>
      </trkpt>
      <trkpt lat="44.81545" lon="5.46761">
        <ele>1165.8821</ele>
        <time>2014-06-26T15:35:32Z</time>
      </trkpt>
      <trkpt lat="44.8154" lon="5.46758">
        <ele>1162.7024</ele>
        <time>2014-06-26T15:35:36Z</time>
      </trkpt>
      <trkpt lat="44.81536" lon="5.46754">
        <ele>1162.7024</ele>
        <time>2014-06-26T15:35:41Z</time>
      </trkpt>
      <trkpt lat="44.81534" lon="5.46751">
        <ele>1162.7024</ele>
        <time>2014-06-26T15:35:48Z</time>
      </trkpt>
      <trkpt lat="44.81528" lon="5.46744">
        <ele>1159.6069</ele>
        <time>2014-06-26T15:35:51Z</time>
      </trkpt>
      <trkpt lat="44.81523" lon="5.46735">
        <ele>1159.6069</ele>
        <time>2014-06-26T15:35:57Z</time>
      </trkpt>
      <trkpt lat="44.81519" lon="5.46723">
        <ele>1156.7074</ele>
        <time>2014-06-26T15:36:01Z</time>
      </trkpt>
      <trkpt lat="44.81513" lon="5.46716">
        <ele>1156.7074</ele>
        <time>2014-06-26T15:36:07Z</time>
      </trkpt>
      <trkpt lat="44.81504" lon="5.46705">
        <ele>1153.9342</ele>
        <time>2014-06-26T15:36:12Z</time>
      </trkpt>
      <trkpt lat="44.81501" lon="5.46696">
        <ele>1153.9342</ele>
        <time>2014-06-26T15:36:16Z</time>
      </trkpt>
      <trkpt lat="44.81495" lon="5.46694">
        <ele>1151.2365</ele>
        <time>2014-06-26T15:36:22Z</time>
      </trkpt>
      <trkpt lat="44.81489" lon="5.46687">
        <ele>1151.2365</ele>
        <time>2014-06-26T15:36:27Z</time>
      </trkpt>
      <trkpt lat="44.81487" lon="5.46677">
        <ele>1148.4948</ele>
        <time>2014-06-26T15:36:32Z</time>
      </trkpt>
      <trkpt lat="44.81483" lon="5.46669">
        <ele>1148.4948</ele>
        <time>2014-06-26T15:36:37Z</time>
      </trkpt>
      <trkpt lat="44.8148" lon="5.46664">
        <ele>1145.7859</ele>
        <time>2014-06-26T15:36:40Z</time>
      </trkpt>
      <trkpt lat="44.81472" lon="5.46659">
        <ele>1145.7859</ele>
        <time>2014-06-26T15:36:47Z</time>
      </trkpt>
      <trkpt lat="44.81467" lon="5.46653">
        <ele>1142.9938</ele>
        <time>2014-06-26T15:36:52Z</time>
      </trkpt>
      <trkpt lat="44.81459" lon="5.46647">
        <ele>1142.9938</ele>
        <time>2014-06-26T15:36:57Z</time>
      </trkpt>
      <trkpt lat="44.81455" lon="5.46643">
        <ele>1140.3276</ele>
        <time>2014-06-26T15:37:02Z</time>
      </trkpt>
      <trkpt lat="44.8145" lon="5.4664">
        <ele>1140.3276</ele>
        <time>2014-06-26T15:37:07Z</time>
      </trkpt>
      <trkpt lat="44.81447" lon="5.46631">
        <ele>1137.837</ele>
        <time>2014-06-26T15:37:12Z</time>
      </trkpt>
      <trkpt lat="44.81441" lon="5.46627">
        <ele>1137.837</ele>
        <time>2014-06-26T15:37:16Z</time>
      </trkpt>
      <trkpt lat="44.8144" lon="5.46626">
        <ele>1137.837</ele>
        <time>2014-06-26T15:37:22Z</time>
      </trkpt>
      <trkpt lat="44.81442" lon="5.46618">
        <ele>1134.9764</ele>
        <time>2014-06-26T15:37:37Z</time>
      </trkpt>
      <trkpt lat="44.81442" lon="5.46618">
        <ele>1134.9764</ele>
        <time>2014-06-26T15:37:41Z</time>
      </trkpt>
      <trkpt lat="44.81439" lon="5.46613">
        <ele>1134.9764</ele>
        <time>2014-06-26T15:37:47Z</time>
      </trkpt>
      <trkpt lat="44.81434" lon="5.46609">
        <ele>1132.1781</ele>
        <time>2014-06-26T15:37:52Z</time>
      </trkpt>
      <trkpt lat="44.81432" lon="5.46608">
        <ele>1132.1781</ele>
        <time>2014-06-26T15:37:57Z</time>
      </trkpt>
      <trkpt lat="44.81429" lon="5.46601">
        <ele>1132.1781</ele>
        <time>2014-06-26T15:38:07Z</time>
      </trkpt>
      <trkpt lat="44.81425" lon="5.46601">
        <ele>1129.4243</ele>
        <time>2014-06-26T15:38:11Z</time>
      </trkpt>
      <trkpt lat="44.8142" lon="5.46598">
        <ele>1129.4243</ele>
        <time>2014-06-26T15:38:17Z</time>
      </trkpt>
      <trkpt lat="44.81417" lon="5.46593">
        <ele>1126.7705</ele>
        <time>2014-06-26T15:38:22Z</time>
      </trkpt>
      <trkpt lat="44.81413" lon="5.4659">
        <ele>1126.7705</ele>
        <time>2014-06-26T15:38:27Z</time>
      </trkpt>
      <trkpt lat="44.81414" lon="5.46583">
        <ele>1126.7705</ele>
        <time>2014-06-26T15:38:31Z</time>
      </trkpt>
      <trkpt lat="44.81413" lon="5.46579">
        <ele>1123.8356</ele>
        <time>2014-06-26T15:38:36Z</time>
      </trkpt>
      <trkpt lat="44.81409" lon="5.46574">
        <ele>1123.8356</ele>
        <time>2014-06-26T15:38:41Z</time>
      </trkpt>
      <trkpt lat="44.81406" lon="5.46566">
        <ele>1120.8721</ele>
        <time>2014-06-26T15:38:47Z</time>
      </trkpt>
      <trkpt lat="44.81403" lon="5.46562">
        <ele>1120.8721</ele>
        <time>2014-06-26T15:38:52Z</time>
      </trkpt>
      <trkpt lat="44.81401" lon="5.46558">
        <ele>1120.8721</ele>
        <time>2014-06-26T15:38:56Z</time>
      </trkpt>
      <trkpt lat="44.81395" lon="5.46555">
        <ele>1117.8406</ele>
        <time>2014-06-26T15:39:02Z</time>
      </trkpt>
      <trkpt lat="44.81392" lon="5.46551">
        <ele>1117.8406</ele>
        <time>2014-06-26T15:39:07Z</time>
      </trkpt>
      <trkpt lat="44.81387" lon="5.46546">
        <ele>1114.935</ele>
        <time>2014-06-26T15:39:11Z</time>
      </trkpt>
      <trkpt lat="44.81384" lon="5.4654">
        <ele>1114.935</ele>
        <time>2014-06-26T15:39:17Z</time>
      </trkpt>
      <trkpt lat="44.81379" lon="5.46534">
        <ele>1112.133</ele>
        <time>2014-06-26T15:39:21Z</time>
      </trkpt>
      <trkpt lat="44.81375" lon="5.46531">
        <ele>1112.133</ele>
        <time>2014-06-26T15:39:27Z</time>
      </trkpt>
      <trkpt lat="44.8137" lon="5.46524">
        <ele>1109.572</ele>
        <time>2014-06-26T15:39:31Z</time>
      </trkpt>
      <trkpt lat="44.81364" lon="5.46517">
        <ele>1109.572</ele>
        <time>2014-06-26T15:39:37Z</time>
      </trkpt>
      <trkpt lat="44.81362" lon="5.46514">
        <ele>1107.3064</ele>
        <time>2014-06-26T15:39:41Z</time>
      </trkpt>
      <trkpt lat="44.8136" lon="5.4651">
        <ele>1107.3064</ele>
        <time>2014-06-26T15:39:47Z</time>
      </trkpt>
      <trkpt lat="44.81357" lon="5.46507">
        <ele>1107.3064</ele>
        <time>2014-06-26T15:39:52Z</time>
      </trkpt>
      <trkpt lat="44.81355" lon="5.46505">
        <ele>1105.2131</ele>
        <time>2014-06-26T15:39:57Z</time>
      </trkpt>
      <trkpt lat="44.81347" lon="5.46497">
        <ele>1103.3645</ele>
        <time>2014-06-26T15:40:02Z</time>
      </trkpt>
      <trkpt lat="44.8134" lon="5.46494">
        <ele>1103.3645</ele>
        <time>2014-06-26T15:40:06Z</time>
      </trkpt>
      <trkpt lat="44.81335" lon="5.46488">
        <ele>1101.6687</ele>
        <time>2014-06-26T15:40:12Z</time>
      </trkpt>
      <trkpt lat="44.81327" lon="5.46481">
        <ele>1100.2129</ele>
        <time>2014-06-26T15:40:17Z</time>
      </trkpt>
      <trkpt lat="44.81322" lon="5.46472">
        <ele>1100.2129</ele>
        <time>2014-06-26T15:40:22Z</time>
      </trkpt>
      <trkpt lat="44.81318" lon="5.46472">
        <ele>1098.9332</ele>
        <time>2014-06-26T15:40:26Z</time>
      </trkpt>
      <trkpt lat="44.81313" lon="5.46468">
        <ele>1098.9332</ele>
        <time>2014-06-26T15:40:32Z</time>
      </trkpt>
      <trkpt lat="44.81309" lon="5.46466">
        <ele>1097.7555</ele>
        <time>2014-06-26T15:40:37Z</time>
      </trkpt>
      <trkpt lat="44.81308" lon="5.46462">
        <ele>1097.7555</ele>
        <time>2014-06-26T15:40:40Z</time>
      </trkpt>
      <trkpt lat="44.81306" lon="5.46457">
        <ele>1097.7555</ele>
        <time>2014-06-26T15:40:47Z</time>
      </trkpt>
      <trkpt lat="44.81302" lon="5.46451">
        <ele>1096.7402</ele>
        <time>2014-06-26T15:40:51Z</time>
      </trkpt>
      <trkpt lat="44.81295" lon="5.46449">
        <ele>1096.7402</ele>
        <time>2014-06-26T15:40:57Z</time>
      </trkpt>
      <trkpt lat="44.81289" lon="5.46448">
        <ele>1095.9434</ele>
        <time>2014-06-26T15:41:02Z</time>
      </trkpt>
      <trkpt lat="44.81282" lon="5.46451">
        <ele>1095.9434</ele>
        <time>2014-06-26T15:41:07Z</time>
      </trkpt>
      <trkpt lat="44.81278" lon="5.46448">
        <ele>1095.3005</ele>
        <time>2014-06-26T15:41:12Z</time>
      </trkpt>
      <trkpt lat="44.81272" lon="5.46446">
        <ele>1095.3005</ele>
        <time>2014-06-26T15:41:16Z</time>
      </trkpt>
      <trkpt lat="44.81268" lon="5.46442">
        <ele>1094.7809</ele>
        <time>2014-06-26T15:41:22Z</time>
      </trkpt>
      <trkpt lat="44.81265" lon="5.46437">
        <ele>1094.7809</ele>
        <time>2014-06-26T15:41:27Z</time>
      </trkpt>
      <trkpt lat="44.81261" lon="5.46434">
        <ele>1094.4274</ele>
        <time>2014-06-26T15:41:32Z</time>
      </trkpt>
      <trkpt lat="44.81258" lon="5.46429">
        <ele>1094.4274</ele>
        <time>2014-06-26T15:41:36Z</time>
      </trkpt>
      <trkpt lat="44.81251" lon="5.46424">
        <ele>1094.2074</ele>
        <time>2014-06-26T15:41:41Z</time>
      </trkpt>
      <trkpt lat="44.81243" lon="5.46419">
        <ele>1094.0471</ele>
        <time>2014-06-26T15:41:47Z</time>
      </trkpt>
      <trkpt lat="44.81238" lon="5.46417">
        <ele>1094.0471</ele>
        <time>2014-06-26T15:41:52Z</time>
      </trkpt>
      <trkpt lat="44.8123" lon="5.46418">
        <ele>1093.9646</ele>
        <time>2014-06-26T15:41:57Z</time>
      </trkpt>
      <trkpt lat="44.81226" lon="5.46415">
        <ele>1093.9646</ele>
        <time>2014-06-26T15:42:02Z</time>
      </trkpt>
      <trkpt lat="44.81223" lon="5.46416">
        <ele>1093.9646</ele>
        <time>2014-06-26T15:42:07Z</time>
      </trkpt>
      <trkpt lat="44.81216" lon="5.4641">
        <ele>1093.9764</ele>
        <time>2014-06-26T15:42:12Z</time>
      </trkpt>
      <trkpt lat="44.81214" lon="5.46404">
        <ele>1093.9764</ele>
        <time>2014-06-26T15:42:16Z</time>
      </trkpt>
      <trkpt lat="44.81211" lon="5.46401">
        <ele>1093.9764</ele>
        <time>2014-06-26T15:42:22Z</time>
      </trkpt>
      <trkpt lat="44.81207" lon="5.46395">
        <ele>1094.17</ele>
        <time>2014-06-26T15:42:27Z</time>
      </trkpt>
      <trkpt lat="44.81203" lon="5.4639">
        <ele>1094.17</ele>
        <time>2014-06-26T15:42:31Z</time>
      </trkpt>
      <trkpt lat="44.812" lon="5.46384">
        <ele>1094.4674</ele>
        <time>2014-06-26T15:42:37Z</time>
      </trkpt>
      <trkpt lat="44.81197" lon="5.46379">
        <ele>1094.4674</ele>
        <time>2014-06-26T15:42:40Z</time>
      </trkpt>
      <trkpt lat="44.81192" lon="5.46374">
        <ele>1094.7815</ele>
        <time>2014-06-26T15:42:47Z</time>
      </trkpt>
      <trkpt lat="44.81192" lon="5.46365">
        <ele>1094.7815</ele>
        <time>2014-06-26T15:42:52Z</time>
      </trkpt>
      <trkpt lat="44.81187" lon="5.46362">
        <ele>1094.5133</ele>
        <time>2014-06-26T15:42:57Z</time>
      </trkpt>
      <trkpt lat="44.81184" lon="5.46362">
        <ele>1094.5133</ele>
        <time>2014-06-26T15:43:02Z</time>
      </trkpt>
      <trkpt lat="44.81183" lon="5.46356">
        <ele>1094.5133</ele>
        <time>2014-06-26T15:43:07Z</time>
      </trkpt>
      <trkpt lat="44.81181" lon="5.46353">
        <ele>1093.3401</ele>
        <time>2014-06-26T15:43:12Z</time>
      </trkpt>
      <trkpt lat="44.81178" lon="5.46346">
        <ele>1093.3401</ele>
        <time>2014-06-26T15:43:17Z</time>
      </trkpt>
      <trkpt lat="44.81172" lon="5.46341">
        <ele>1091.556</ele>
        <time>2014-06-26T15:43:21Z</time>
      </trkpt>
      <trkpt lat="44.81166" lon="5.46336">
        <ele>1091.556</ele>
        <time>2014-06-26T15:43:27Z</time>
      </trkpt>
      <trkpt lat="44.8116" lon="5.4633">
        <ele>1089.4506</ele>
        <time>2014-06-26T15:43:32Z</time>
      </trkpt>
      <trkpt lat="44.81156" lon="5.46325">
        <ele>1089.4506</ele>
        <time>2014-06-26T15:43:36Z</time>
      </trkpt>
      <trkpt lat="44.81153" lon="5.46323">
        <ele>1089.4506</ele>
        <time>2014-06-26T15:43:41Z</time>
      </trkpt>
      <trkpt lat="44.81153" lon="5.46311">
        <ele>1087.0476</ele>
        <time>2014-06-26T15:43:46Z</time>
      </trkpt>
      <trkpt lat="44.81149" lon="5.46307">
        <ele>1087.0476</ele>
        <time>2014-06-26T15:43:52Z</time>
      </trkpt>
      <trkpt lat="44.81145" lon="5.46305">
        <ele>1084.5286</ele>
        <time>2014-06-26T15:43:57Z</time>
      </trkpt>
      <trkpt lat="44.81141" lon="5.46302">
        <ele>1084.5286</ele>
        <time>2014-06-26T15:44:01Z</time>
      </trkpt>
      <trkpt lat="44.81138" lon="5.46297">
        <ele>1084.5286</ele>
        <time>2014-06-26T15:44:06Z</time>
      </trkpt>
      <trkpt lat="44.81138" lon="5.46292">
        <ele>1081.7167</ele>
        <time>2014-06-26T15:44:12Z</time>
      </trkpt>
      <trkpt lat="44.81133" lon="5.46287">
        <ele>1081.7167</ele>
        <time>2014-06-26T15:44:17Z</time>
      </trkpt>
      <trkpt lat="44.81131" lon="5.4628">
        <ele>1078.9241</ele>
        <time>2014-06-26T15:44:22Z</time>
      </trkpt>
      <trkpt lat="44.81126" lon="5.46278">
        <ele>1078.9241</ele>
        <time>2014-06-26T15:44:27Z</time>
      </trkpt>
      <trkpt lat="44.81121" lon="5.46273">
        <ele>1076.1234</ele>
        <time>2014-06-26T15:44:32Z</time>
      </trkpt>
      <trkpt lat="44.81119" lon="5.46271">
        <ele>1076.1234</ele>
        <time>2014-06-26T15:44:36Z</time>
      </trkpt>
      <trkpt lat="44.81119" lon="5.46271">
        <ele>1076.1234</ele>
        <time>2014-06-26T15:44:40Z</time>
      </trkpt>
      <trkpt lat="44.81121" lon="5.46264">
        <ele>1076.1234</ele>
        <time>2014-06-26T15:44:46Z</time>
      </trkpt>
      <trkpt lat="44.81118" lon="5.46263">
        <ele>1073.419</ele>
        <time>2014-06-26T15:44:52Z</time>
      </trkpt>
      <trkpt lat="44.81118" lon="5.46261">
        <ele>1073.419</ele>
        <time>2014-06-26T15:44:56Z</time>
      </trkpt>
      <trkpt lat="44.81118" lon="5.46261">
        <ele>1073.419</ele>
        <time>2014-06-26T15:45:02Z</time>
      </trkpt>
      <trkpt lat="44.81123" lon="5.46258">
        <ele>1073.419</ele>
        <time>2014-06-26T15:45:16Z</time>
      </trkpt>
      <trkpt lat="44.81122" lon="5.46259">
        <ele>1073.419</ele>
        <time>2014-06-26T15:45:22Z</time>
      </trkpt>
      <trkpt lat="44.81124" lon="5.4626">
        <ele>1070.6476</ele>
        <time>2014-06-26T15:45:26Z</time>
      </trkpt>
      <trkpt lat="44.81127" lon="5.46257">
        <ele>1070.6476</ele>
        <time>2014-06-26T15:45:32Z</time>
      </trkpt>
      <trkpt lat="44.81128" lon="5.46255">
        <ele>1070.6476</ele>
        <time>2014-06-26T15:45:37Z</time>
      </trkpt>
      <trkpt lat="44.81124" lon="5.46256">
        <ele>1068.1342</ele>
        <time>2014-06-26T15:45:41Z</time>
      </trkpt>
      <trkpt lat="44.8112" lon="5.46257">
        <ele>1068.1342</ele>
        <time>2014-06-26T15:45:46Z</time>
      </trkpt>
      <trkpt lat="44.81119" lon="5.46258">
        <ele>1068.1342</ele>
        <time>2014-06-26T15:45:52Z</time>
      </trkpt>
      <trkpt lat="44.81124" lon="5.46258">
        <ele>1065.8907</ele>
        <time>2014-06-26T15:45:59Z</time>
      </trkpt>
      <trkpt lat="44.81126" lon="5.46256">
        <ele>1065.8907</ele>
        <time>2014-06-26T15:46:01Z</time>
      </trkpt>
      <trkpt lat="44.81125" lon="5.46259">
        <ele>1065.8907</ele>
        <time>2014-06-26T15:46:07Z</time>
      </trkpt>
      <trkpt lat="44.8112" lon="5.46261">
        <ele>1063.6682</ele>
        <time>2014-06-26T15:46:21Z</time>
      </trkpt>
      <trkpt lat="44.8112" lon="5.46261">
        <ele>1063.6682</ele>
        <time>2014-06-26T15:46:27Z</time>
      </trkpt>
      <trkpt lat="44.81125" lon="5.46253">
        <ele>1063.6682</ele>
        <time>2014-06-26T15:46:36Z</time>
      </trkpt>
      <trkpt lat="44.81126" lon="5.46253">
        <ele>1063.6682</ele>
        <time>2014-06-26T15:46:40Z</time>
      </trkpt>
      <trkpt lat="44.81127" lon="5.46253">
        <ele>1061.7549</ele>
        <time>2014-06-26T15:46:49Z</time>
      </trkpt>
      <trkpt lat="44.81124" lon="5.46245">
        <ele>1061.7549</ele>
        <time>2014-06-26T15:46:57Z</time>
      </trkpt>
      <trkpt lat="44.81117" lon="5.46244">
        <ele>1060.0851</ele>
        <time>2014-06-26T15:47:01Z</time>
      </trkpt>
      <trkpt lat="44.81111" lon="5.46246">
        <ele>1060.0851</ele>
        <time>2014-06-26T15:47:06Z</time>
      </trkpt>
      <trkpt lat="44.81109" lon="5.46243">
        <ele>1060.0851</ele>
        <time>2014-06-26T15:47:11Z</time>
      </trkpt>
      <trkpt lat="44.8111" lon="5.46243">
        <ele>1058.3528</ele>
        <time>2014-06-26T15:47:17Z</time>
      </trkpt>
      <trkpt lat="44.81115" lon="5.46235">
        <ele>1058.3528</ele>
        <time>2014-06-26T15:47:22Z</time>
      </trkpt>
      <trkpt lat="44.81111" lon="5.46233">
        <ele>1056.7067</ele>
        <time>2014-06-26T15:47:27Z</time>
      </trkpt>
      <trkpt lat="44.81109" lon="5.46233">
        <ele>1056.7067</ele>
        <time>2014-06-26T15:47:31Z</time>
      </trkpt>
      <trkpt lat="44.81105" lon="5.46228">
        <ele>1056.7067</ele>
        <time>2014-06-26T15:47:37Z</time>
      </trkpt>
      <trkpt lat="44.81103" lon="5.46229">
        <ele>1056.7067</ele>
        <time>2014-06-26T15:47:41Z</time>
      </trkpt>
      <trkpt lat="44.81101" lon="5.46222">
        <ele>1055.2554</ele>
        <time>2014-06-26T15:47:46Z</time>
      </trkpt>
      <trkpt lat="44.81102" lon="5.46217">
        <ele>1055.2554</ele>
        <time>2014-06-26T15:47:51Z</time>
      </trkpt>
      <trkpt lat="44.811" lon="5.46215">
        <ele>1055.2554</ele>
        <time>2014-06-26T15:47:57Z</time>
      </trkpt>
      <trkpt lat="44.81101" lon="5.46214">
        <ele>1055.2554</ele>
        <time>2014-06-26T15:48:01Z</time>
      </trkpt>
      <trkpt lat="44.81105" lon="5.46206">
        <ele>1053.8688</ele>
        <time>2014-06-26T15:48:06Z</time>
      </trkpt>
      <trkpt lat="44.81106" lon="5.46203">
        <ele>1053.8688</ele>
        <time>2014-06-26T15:48:11Z</time>
      </trkpt>
      <trkpt lat="44.81108" lon="5.46195">
        <ele>1053.8688</ele>
        <time>2014-06-26T15:48:17Z</time>
      </trkpt>
      <trkpt lat="44.81109" lon="5.46191">
        <ele>1052.3394</ele>
        <time>2014-06-26T15:48:21Z</time>
      </trkpt>
      <trkpt lat="44.81107" lon="5.46185">
        <ele>1052.3394</ele>
        <time>2014-06-26T15:48:26Z</time>
      </trkpt>
      <trkpt lat="44.81107" lon="5.46179">
        <ele>1052.3394</ele>
        <time>2014-06-26T15:48:31Z</time>
      </trkpt>
      <trkpt lat="44.81106" lon="5.4617">
        <ele>1050.8646</ele>
        <time>2014-06-26T15:48:37Z</time>
      </trkpt>
      <trkpt lat="44.81106" lon="5.4616">
        <ele>1050.8646</ele>
        <time>2014-06-26T15:48:40Z</time>
      </trkpt>
      <trkpt lat="44.81105" lon="5.46154">
        <ele>1049.3246</ele>
        <time>2014-06-26T15:48:47Z</time>
      </trkpt>
      <trkpt lat="44.81108" lon="5.4615">
        <ele>1049.3246</ele>
        <time>2014-06-26T15:48:52Z</time>
      </trkpt>
      <trkpt lat="44.81108" lon="5.46143">
        <ele>1047.7812</ele>
        <time>2014-06-26T15:48:57Z</time>
      </trkpt>
      <trkpt lat="44.81107" lon="5.46138">
        <ele>1047.7812</ele>
        <time>2014-06-26T15:49:02Z</time>
      </trkpt>
      <trkpt lat="44.81104" lon="5.46133">
        <ele>1047.7812</ele>
        <time>2014-06-26T15:49:06Z</time>
      </trkpt>
      <trkpt lat="44.81103" lon="5.46127">
        <ele>1046.0472</ele>
        <time>2014-06-26T15:49:11Z</time>
      </trkpt>
      <trkpt lat="44.811" lon="5.46121">
        <ele>1046.0472</ele>
        <time>2014-06-26T15:49:15Z</time>
      </trkpt>
      <trkpt lat="44.81097" lon="5.46115">
        <ele>1044.3239</ele>
        <time>2014-06-26T15:49:22Z</time>
      </trkpt>
      <trkpt lat="44.81097" lon="5.46114">
        <ele>1044.3239</ele>
        <time>2014-06-26T15:49:27Z</time>
      </trkpt>
      <trkpt lat="44.81097" lon="5.46109">
        <ele>1044.3239</ele>
        <time>2014-06-26T15:49:31Z</time>
      </trkpt>
      <trkpt lat="44.81101" lon="5.46103">
        <ele>1042.7549</ele>
        <time>2014-06-26T15:49:36Z</time>
      </trkpt>
      <trkpt lat="44.811" lon="5.46098">
        <ele>1042.7549</ele>
        <time>2014-06-26T15:49:41Z</time>
      </trkpt>
      <trkpt lat="44.81098" lon="5.46095">
        <ele>1042.7549</ele>
        <time>2014-06-26T15:49:46Z</time>
      </trkpt>
      <trkpt lat="44.81102" lon="5.46089">
        <ele>1041.069</ele>
        <time>2014-06-26T15:49:52Z</time>
      </trkpt>
      <trkpt lat="44.81103" lon="5.46085">
        <ele>1041.069</ele>
        <time>2014-06-26T15:49:57Z</time>
      </trkpt>
      <trkpt lat="44.81105" lon="5.46082">
        <ele>1041.069</ele>
        <time>2014-06-26T15:50:02Z</time>
      </trkpt>
      <trkpt lat="44.81105" lon="5.46078">
        <ele>1039.3472</ele>
        <time>2014-06-26T15:50:06Z</time>
      </trkpt>
      <trkpt lat="44.81106" lon="5.46073">
        <ele>1039.3472</ele>
        <time>2014-06-26T15:50:12Z</time>
      </trkpt>
      <trkpt lat="44.81104" lon="5.46066">
        <ele>1037.5055</ele>
        <time>2014-06-26T15:50:16Z</time>
      </trkpt>
      <trkpt lat="44.81105" lon="5.4606">
        <ele>1037.5055</ele>
        <time>2014-06-26T15:50:21Z</time>
      </trkpt>
      <trkpt lat="44.81105" lon="5.46053">
        <ele>1037.5055</ele>
        <time>2014-06-26T15:50:27Z</time>
      </trkpt>
      <trkpt lat="44.81105" lon="5.46046">
        <ele>1035.64</ele>
        <time>2014-06-26T15:50:32Z</time>
      </trkpt>
      <trkpt lat="44.81102" lon="5.46042">
        <ele>1035.64</ele>
        <time>2014-06-26T15:50:36Z</time>
      </trkpt>
      <trkpt lat="44.81101" lon="5.46037">
        <ele>1035.64</ele>
        <time>2014-06-26T15:50:40Z</time>
      </trkpt>
      <trkpt lat="44.81102" lon="5.4603">
        <ele>1033.7529</ele>
        <time>2014-06-26T15:50:47Z</time>
      </trkpt>
      <trkpt lat="44.811" lon="5.46023">
        <ele>1033.7529</ele>
        <time>2014-06-26T15:50:51Z</time>
      </trkpt>
      <trkpt lat="44.81102" lon="5.46017">
        <ele>1031.933</ele>
        <time>2014-06-26T15:50:56Z</time>
      </trkpt>
      <trkpt lat="44.811" lon="5.46007">
        <ele>1031.933</ele>
        <time>2014-06-26T15:51:02Z</time>
      </trkpt>
      <trkpt lat="44.81099" lon="5.46001">
        <ele>1029.8298</ele>
        <time>2014-06-26T15:51:07Z</time>
      </trkpt>
      <trkpt lat="44.81104" lon="5.45992">
        <ele>1029.8298</ele>
        <time>2014-06-26T15:51:11Z</time>
      </trkpt>
      <trkpt lat="44.81106" lon="5.45982">
        <ele>1027.6096</ele>
        <time>2014-06-26T15:51:17Z</time>
      </trkpt>
      <trkpt lat="44.81106" lon="5.4598">
        <ele>1027.6096</ele>
        <time>2014-06-26T15:51:22Z</time>
      </trkpt>
      <trkpt lat="44.81103" lon="5.45961">
        <ele>1025.1675</ele>
        <time>2014-06-26T15:51:27Z</time>
      </trkpt>
      <trkpt lat="44.81098" lon="5.45956">
        <ele>1025.1675</ele>
        <time>2014-06-26T15:51:31Z</time>
      </trkpt>
      <trkpt lat="44.81097" lon="5.45956">
        <ele>1025.1675</ele>
        <time>2014-06-26T15:51:37Z</time>
      </trkpt>
      <trkpt lat="44.81095" lon="5.4595">
        <ele>1022.1037</ele>
        <time>2014-06-26T15:51:51Z</time>
      </trkpt>
      <trkpt lat="44.81094" lon="5.45943">
        <ele>1022.1037</ele>
        <time>2014-06-26T15:51:57Z</time>
      </trkpt>
      <trkpt lat="44.81088" lon="5.45937">
        <ele>1019.3616</ele>
        <time>2014-06-26T15:52:02Z</time>
      </trkpt>
      <trkpt lat="44.81083" lon="5.45934">
        <ele>1019.3616</ele>
        <time>2014-06-26T15:52:07Z</time>
      </trkpt>
      <trkpt lat="44.81082" lon="5.45932">
        <ele>1019.3616</ele>
        <time>2014-06-26T15:52:11Z</time>
      </trkpt>
      <trkpt lat="44.81082" lon="5.45928">
        <ele>1016.74744</ele>
        <time>2014-06-26T15:52:17Z</time>
      </trkpt>
      <trkpt lat="44.8108" lon="5.45921">
        <ele>1016.74744</ele>
        <time>2014-06-26T15:52:21Z</time>
      </trkpt>
      <trkpt lat="44.81077" lon="5.45915">
        <ele>1014.3698</ele>
        <time>2014-06-26T15:52:27Z</time>
      </trkpt>
      <trkpt lat="44.81073" lon="5.45912">
        <ele>1014.3698</ele>
        <time>2014-06-26T15:52:32Z</time>
      </trkpt>
      <trkpt lat="44.81066" lon="5.45913">
        <ele>1012.25653</ele>
        <time>2014-06-26T15:52:36Z</time>
      </trkpt>
      <trkpt lat="44.81062" lon="5.45915">
        <ele>1012.25653</ele>
        <time>2014-06-26T15:52:41Z</time>
      </trkpt>
      <trkpt lat="44.81057" lon="5.45915">
        <ele>1010.3893</ele>
        <time>2014-06-26T15:52:49Z</time>
      </trkpt>
      <trkpt lat="44.81048" lon="5.45918">
        <ele>1008.76483</ele>
        <time>2014-06-26T15:52:51Z</time>
      </trkpt>
      <trkpt lat="44.81042" lon="5.45923">
        <ele>1008.76483</ele>
        <time>2014-06-26T15:52:57Z</time>
      </trkpt>
      <trkpt lat="44.81032" lon="5.45925">
        <ele>1007.3362</ele>
        <time>2014-06-26T15:53:00Z</time>
      </trkpt>
      <trkpt lat="44.81031" lon="5.45927">
        <ele>1007.3362</ele>
        <time>2014-06-26T15:53:06Z</time>
      </trkpt>
      <trkpt lat="44.81028" lon="5.45928">
        <ele>1007.3362</ele>
        <time>2014-06-26T15:53:12Z</time>
      </trkpt>
      <trkpt lat="44.81022" lon="5.45932">
        <ele>1006.016</ele>
        <time>2014-06-26T15:53:17Z</time>
      </trkpt>
      <trkpt lat="44.81019" lon="5.45932">
        <ele>1006.016</ele>
        <time>2014-06-26T15:53:21Z</time>
      </trkpt>
      <trkpt lat="44.81019" lon="5.45933">
        <ele>1006.016</ele>
        <time>2014-06-26T15:53:26Z</time>
      </trkpt>
      <trkpt lat="44.81003" lon="5.45924">
        <ele>1004.8528</ele>
        <time>2014-06-26T15:53:31Z</time>
      </trkpt>
      <trkpt lat="44.80997" lon="5.45915">
        <ele>1004.8528</ele>
        <time>2014-06-26T15:53:37Z</time>
      </trkpt>
      <trkpt lat="44.80998" lon="5.45909">
        <ele>1003.8333</ele>
        <time>2014-06-26T15:53:41Z</time>
      </trkpt>
      <trkpt lat="44.80998" lon="5.45905">
        <ele>1003.8333</ele>
        <time>2014-06-26T15:53:46Z</time>
      </trkpt>
      <trkpt lat="44.80992" lon="5.459">
        <ele>1002.9593</ele>
        <time>2014-06-26T15:53:52Z</time>
      </trkpt>
      <trkpt lat="44.80992" lon="5.45895">
        <ele>1002.9593</ele>
        <time>2014-06-26T15:53:57Z</time>
      </trkpt>
      <trkpt lat="44.80988" lon="5.45885">
        <ele>1002.27515</ele>
        <time>2014-06-26T15:54:02Z</time>
      </trkpt>
      <trkpt lat="44.80983" lon="5.45877">
        <ele>1002.27515</ele>
        <time>2014-06-26T15:54:06Z</time>
      </trkpt>
      <trkpt lat="44.80978" lon="5.45866">
        <ele>1001.6199</ele>
        <time>2014-06-26T15:54:11Z</time>
      </trkpt>
      <trkpt lat="44.80972" lon="5.45857">
        <ele>1001.6199</ele>
        <time>2014-06-26T15:54:16Z</time>
      </trkpt>
      <trkpt lat="44.80969" lon="5.45849">
        <ele>1001.089</ele>
        <time>2014-06-26T15:54:22Z</time>
      </trkpt>
      <trkpt lat="44.80962" lon="5.45843">
        <ele>1001.089</ele>
        <time>2014-06-26T15:54:27Z</time>
      </trkpt>
      <trkpt lat="44.80958" lon="5.45839">
        <ele>1000.6411</ele>
        <time>2014-06-26T15:54:31Z</time>
      </trkpt>
      <trkpt lat="44.80957" lon="5.45828">
        <ele>1000.6411</ele>
        <time>2014-06-26T15:54:36Z</time>
      </trkpt>
      <trkpt lat="44.80958" lon="5.4582">
        <ele>1000.2376</ele>
        <time>2014-06-26T15:54:41Z</time>
      </trkpt>
      <trkpt lat="44.80954" lon="5.45807">
        <ele>999.9869</ele>
        <time>2014-06-26T15:54:47Z</time>
      </trkpt>
      <trkpt lat="44.80956" lon="5.458">
        <ele>999.9869</ele>
        <time>2014-06-26T15:54:52Z</time>
      </trkpt>
      <trkpt lat="44.80958" lon="5.45787">
        <ele>999.8879</ele>
        <time>2014-06-26T15:54:56Z</time>
      </trkpt>
      <trkpt lat="44.8096" lon="5.45778">
        <ele>999.8879</ele>
        <time>2014-06-26T15:55:02Z</time>
      </trkpt>
      <trkpt lat="44.80966" lon="5.45771">
        <ele>999.9106</ele>
        <time>2014-06-26T15:55:07Z</time>
      </trkpt>
      <trkpt lat="44.80974" lon="5.45766">
        <ele>999.9106</ele>
        <time>2014-06-26T15:55:12Z</time>
      </trkpt>
      <trkpt lat="44.80978" lon="5.45761">
        <ele>1000.0124</ele>
        <time>2014-06-26T15:55:17Z</time>
      </trkpt>
      <trkpt lat="44.80975" lon="5.4575">
        <ele>1000.0124</ele>
        <time>2014-06-26T15:55:21Z</time>
      </trkpt>
      <trkpt lat="44.80978" lon="5.45744">
        <ele>1000.2114</ele>
        <time>2014-06-26T15:55:25Z</time>
      </trkpt>
      <trkpt lat="44.80979" lon="5.45741">
        <ele>1000.2114</ele>
        <time>2014-06-26T15:55:30Z</time>
      </trkpt>
      <trkpt lat="44.80979" lon="5.45735">
        <ele>1000.2114</ele>
        <time>2014-06-26T15:55:35Z</time>
      </trkpt>
      <trkpt lat="44.80979" lon="5.45727">
        <ele>1000.40894</ele>
        <time>2014-06-26T15:55:40Z</time>
      </trkpt>
      <trkpt lat="44.80984" lon="5.45717">
        <ele>1000.40894</ele>
        <time>2014-06-26T15:55:45Z</time>
      </trkpt>
      <trkpt lat="44.80988" lon="5.45709">
        <ele>1000.4703</ele>
        <time>2014-06-26T15:55:50Z</time>
      </trkpt>
      <trkpt lat="44.80987" lon="5.457">
        <ele>1000.4703</ele>
        <time>2014-06-26T15:55:55Z</time>
      </trkpt>
      <trkpt lat="44.80989" lon="5.45692">
        <ele>1000.38654</ele>
        <time>2014-06-26T15:56:00Z</time>
      </trkpt>
      <trkpt lat="44.80987" lon="5.45682">
        <ele>1000.38654</ele>
        <time>2014-06-26T15:56:07Z</time>
      </trkpt>
      <trkpt lat="44.80992" lon="5.45673">
        <ele>1000.222</ele>
        <time>2014-06-26T15:56:11Z</time>
      </trkpt>
      <trkpt lat="44.80991" lon="5.45663">
        <ele>1000.222</ele>
        <time>2014-06-26T15:56:17Z</time>
      </trkpt>
      <trkpt lat="44.80991" lon="5.45653">
        <ele>999.90674</ele>
        <time>2014-06-26T15:56:21Z</time>
      </trkpt>
      <trkpt lat="44.80993" lon="5.45639">
        <ele>999.62164</ele>
        <time>2014-06-26T15:56:26Z</time>
      </trkpt>
      <trkpt lat="44.80985" lon="5.45627">
        <ele>999.3613</ele>
        <time>2014-06-26T15:56:31Z</time>
      </trkpt>
      <trkpt lat="44.80982" lon="5.45617">
        <ele>999.3613</ele>
        <time>2014-06-26T15:56:36Z</time>
      </trkpt>
      <trkpt lat="44.80987" lon="5.45609">
        <ele>999.07776</ele>
        <time>2014-06-26T15:56:41Z</time>
      </trkpt>
      <trkpt lat="44.80985" lon="5.45606">
        <ele>999.07776</ele>
        <time>2014-06-26T15:56:46Z</time>
      </trkpt>
      <trkpt lat="44.80976" lon="5.45603">
        <ele>998.784</ele>
        <time>2014-06-26T15:56:52Z</time>
      </trkpt>
      <trkpt lat="44.80972" lon="5.45595">
        <ele>998.784</ele>
        <time>2014-06-26T15:56:57Z</time>
      </trkpt>
      <trkpt lat="44.8097" lon="5.45588">
        <ele>998.3772</ele>
        <time>2014-06-26T15:57:01Z</time>
      </trkpt>
      <trkpt lat="44.80966" lon="5.45583">
        <ele>998.3772</ele>
        <time>2014-06-26T15:57:05Z</time>
      </trkpt>
      <trkpt lat="44.80963" lon="5.45574">
        <ele>997.82007</ele>
        <time>2014-06-26T15:57:11Z</time>
      </trkpt>
      <trkpt lat="44.8096" lon="5.45568">
        <ele>997.82007</ele>
        <time>2014-06-26T15:57:17Z</time>
      </trkpt>
      <trkpt lat="44.80959" lon="5.45565">
        <ele>997.82007</ele>
        <time>2014-06-26T15:57:21Z</time>
      </trkpt>
      <trkpt lat="44.80955" lon="5.45559">
        <ele>997.266</ele>
        <time>2014-06-26T15:57:27Z</time>
      </trkpt>
      <trkpt lat="44.80951" lon="5.45553">
        <ele>997.266</ele>
        <time>2014-06-26T15:57:32Z</time>
      </trkpt>
      <trkpt lat="44.8095" lon="5.45557">
        <ele>997.266</ele>
        <time>2014-06-26T15:57:36Z</time>
      </trkpt>
      <trkpt lat="44.80955" lon="5.4556">
        <ele>996.7418</ele>
        <time>2014-06-26T15:57:41Z</time>
      </trkpt>
      <trkpt lat="44.80961" lon="5.4556">
        <ele>996.7418</ele>
        <time>2014-06-26T15:57:46Z</time>
      </trkpt>
      <trkpt lat="44.80962" lon="5.45558">
        <ele>996.7418</ele>
        <time>2014-06-26T15:57:51Z</time>
      </trkpt>
      <trkpt lat="44.80962" lon="5.45558">
        <ele>996.7418</ele>
        <time>2014-06-26T15:57:56Z</time>
      </trkpt>
      <trkpt lat="44.80964" lon="5.45559">
        <ele>996.2293</ele>
        <time>2014-06-26T15:58:01Z</time>
      </trkpt>
      <trkpt lat="44.80956" lon="5.4556">
        <ele>996.2293</ele>
        <time>2014-06-26T15:58:07Z</time>
      </trkpt>
      <trkpt lat="44.80951" lon="5.45562">
        <ele>995.87006</ele>
        <time>2014-06-26T15:58:11Z</time>
      </trkpt>
      <trkpt lat="44.80948" lon="5.45558">
        <ele>995.87006</ele>
        <time>2014-06-26T15:58:17Z</time>
      </trkpt>
      <trkpt lat="44.80946" lon="5.45559">
        <ele>995.87006</ele>
        <time>2014-06-26T15:58:21Z</time>
      </trkpt>
      <trkpt lat="44.80946" lon="5.45559">
        <ele>995.87006</ele>
        <time>2014-06-26T15:58:26Z</time>
      </trkpt>
      <trkpt lat="44.80954" lon="5.45551">
        <ele>995.6221</ele>
        <time>2014-06-26T15:58:32Z</time>
      </trkpt>
      <trkpt lat="44.80953" lon="5.45547">
        <ele>995.6221</ele>
        <time>2014-06-26T15:58:36Z</time>
      </trkpt>
      <trkpt lat="44.80944" lon="5.45545">
        <ele>995.53265</ele>
        <time>2014-06-26T15:58:41Z</time>
      </trkpt>
      <trkpt lat="44.80942" lon="5.45543">
        <ele>995.53265</ele>
        <time>2014-06-26T15:58:46Z</time>
      </trkpt>
      <trkpt lat="44.80941" lon="5.45543">
        <ele>995.53265</ele>
        <time>2014-06-26T15:58:52Z</time>
      </trkpt>
      <trkpt lat="44.80953" lon="5.45541">
        <ele>995.8182</ele>
        <time>2014-06-26T15:59:07Z</time>
      </trkpt>
      <trkpt lat="44.80954" lon="5.45538">
        <ele>995.8182</ele>
        <time>2014-06-26T15:59:11Z</time>
      </trkpt>
      <trkpt lat="44.8095" lon="5.45536">
        <ele>995.8182</ele>
        <time>2014-06-26T15:59:17Z</time>
      </trkpt>
      <trkpt lat="44.80948" lon="5.45535">
        <ele>996.40454</ele>
        <time>2014-06-26T15:59:21Z</time>
      </trkpt>
      <trkpt lat="44.80945" lon="5.45537">
        <ele>996.40454</ele>
        <time>2014-06-26T15:59:26Z</time>
      </trkpt>
      <trkpt lat="44.80947" lon="5.45535">
        <ele>996.40454</ele>
        <time>2014-06-26T15:59:32Z</time>
      </trkpt>
      <trkpt lat="44.80949" lon="5.45534">
        <ele>996.40454</ele>
        <time>2014-06-26T15:59:36Z</time>
      </trkpt>
      <trkpt lat="44.80949" lon="5.45532">
        <ele>997.0636</ele>
        <time>2014-06-26T15:59:47Z</time>
      </trkpt>
      <trkpt lat="44.80944" lon="5.45532">
        <ele>997.0636</ele>
        <time>2014-06-26T15:59:51Z</time>
      </trkpt>
      <trkpt lat="44.80938" lon="5.4553">
        <ele>997.74255</ele>
        <time>2014-06-26T15:59:56Z</time>
      </trkpt>
      <trkpt lat="44.80936" lon="5.45524">
        <ele>997.74255</ele>
        <time>2014-06-26T16:00:01Z</time>
      </trkpt>
      <trkpt lat="44.80933" lon="5.45522">
        <ele>997.74255</ele>
        <time>2014-06-26T16:00:06Z</time>
      </trkpt>
      <trkpt lat="44.80924" lon="5.45529">
        <ele>998.4645</ele>
        <time>2014-06-26T16:00:12Z</time>
      </trkpt>
      <trkpt lat="44.80917" lon="5.45531">
        <ele>998.4645</ele>
        <time>2014-06-26T16:00:16Z</time>
      </trkpt>
      <trkpt lat="44.80907" lon="5.4553">
        <ele>999.09235</ele>
        <time>2014-06-26T16:00:22Z</time>
      </trkpt>
      <trkpt lat="44.80905" lon="5.45529">
        <ele>999.09235</ele>
        <time>2014-06-26T16:00:26Z</time>
      </trkpt>
      <trkpt lat="44.80901" lon="5.45531">
        <ele>999.09235</ele>
        <time>2014-06-26T16:00:31Z</time>
      </trkpt>
      <trkpt lat="44.80901" lon="5.45531">
        <ele>999.09235</ele>
        <time>2014-06-26T16:00:37Z</time>
      </trkpt>
      <trkpt lat="44.80899" lon="5.45533">
        <ele>999.6147</ele>
        <time>2014-06-26T16:00:40Z</time>
      </trkpt>
      <trkpt lat="44.80889" lon="5.45528">
        <ele>1000.07916</ele>
        <time>2014-06-26T16:00:47Z</time>
      </trkpt>
      <trkpt lat="44.80882" lon="5.45525">
        <ele>1000.07916</ele>
        <time>2014-06-26T16:00:52Z</time>
      </trkpt>
      <trkpt lat="44.80876" lon="5.45522">
        <ele>1000.47235</ele>
        <time>2014-06-26T16:00:57Z</time>
      </trkpt>
      <trkpt lat="44.80869" lon="5.45519">
        <ele>1000.47235</ele>
        <time>2014-06-26T16:01:01Z</time>
      </trkpt>
      <trkpt lat="44.80865" lon="5.45522">
        <ele>1000.79675</ele>
        <time>2014-06-26T16:01:07Z</time>
      </trkpt>
      <trkpt lat="44.80863" lon="5.45529">
        <ele>1000.79675</ele>
        <time>2014-06-26T16:01:11Z</time>
      </trkpt>
      <trkpt lat="44.80853" lon="5.45533">
        <ele>1001.0692</ele>
        <time>2014-06-26T16:01:17Z</time>
      </trkpt>
      <trkpt lat="44.80842" lon="5.4553">
        <ele>1001.3058</ele>
        <time>2014-06-26T16:01:21Z</time>
      </trkpt>
      <trkpt lat="44.80843" lon="5.4553">
        <ele>1001.3058</ele>
        <time>2014-06-26T16:01:27Z</time>
      </trkpt>
      <trkpt lat="44.80842" lon="5.45531">
        <ele>1001.3058</ele>
        <time>2014-06-26T16:01:31Z</time>
      </trkpt>
      <trkpt lat="44.80823" lon="5.4553">
        <ele>1001.4926</ele>
        <time>2014-06-26T16:01:37Z</time>
      </trkpt>
      <trkpt lat="44.80815" lon="5.45531">
        <ele>1001.4926</ele>
        <time>2014-06-26T16:01:40Z</time>
      </trkpt>
      <trkpt lat="44.80822" lon="5.45538">
        <ele>1001.66046</ele>
        <time>2014-06-26T16:01:47Z</time>
      </trkpt>
      <trkpt lat="44.80823" lon="5.45539">
        <ele>1001.66046</ele>
        <time>2014-06-26T16:01:52Z</time>
      </trkpt>
      <trkpt lat="44.80815" lon="5.45535">
        <ele>1001.8234</ele>
        <time>2014-06-26T16:01:57Z</time>
      </trkpt>
      <trkpt lat="44.80817" lon="5.45538">
        <ele>1001.8234</ele>
        <time>2014-06-26T16:02:01Z</time>
      </trkpt>
      <trkpt lat="44.80826" lon="5.45544">
        <ele>1001.9804</ele>
        <time>2014-06-26T16:02:07Z</time>
      </trkpt>
      <trkpt lat="44.80825" lon="5.45542">
        <ele>1001.9804</ele>
        <time>2014-06-26T16:02:11Z</time>
      </trkpt>
      <trkpt lat="44.80805" lon="5.45524">
        <ele>1002.1593</ele>
        <time>2014-06-26T16:02:17Z</time>
      </trkpt>
      <trkpt lat="44.80791" lon="5.45522">
        <ele>1002.3283</ele>
        <time>2014-06-26T16:02:21Z</time>
      </trkpt>
      <trkpt lat="44.80783" lon="5.45523">
        <ele>1002.3283</ele>
        <time>2014-06-26T16:02:27Z</time>
      </trkpt>
      <trkpt lat="44.80776" lon="5.45524">
        <ele>1002.50146</ele>
        <time>2014-06-26T16:02:31Z</time>
      </trkpt>
      <trkpt lat="44.80769" lon="5.45524">
        <ele>1002.50146</ele>
        <time>2014-06-26T16:02:36Z</time>
      </trkpt>
      <trkpt lat="44.80758" lon="5.45517">
        <ele>1002.6772</ele>
        <time>2014-06-26T16:02:41Z</time>
      </trkpt>
      <trkpt lat="44.80753" lon="5.45513">
        <ele>1002.6772</ele>
        <time>2014-06-26T16:02:47Z</time>
      </trkpt>
      <trkpt lat="44.80751" lon="5.45506">
        <ele>1002.8688</ele>
        <time>2014-06-26T16:02:51Z</time>
      </trkpt>
      <trkpt lat="44.80755" lon="5.45501">
        <ele>1002.8688</ele>
        <time>2014-06-26T16:02:57Z</time>
      </trkpt>
      <trkpt lat="44.8076" lon="5.45496">
        <ele>1003.08844</ele>
        <time>2014-06-26T16:03:01Z</time>
      </trkpt>
      <trkpt lat="44.80765" lon="5.45491">
        <ele>1003.08844</ele>
        <time>2014-06-26T16:03:07Z</time>
      </trkpt>
      <trkpt lat="44.80772" lon="5.45488">
        <ele>1003.31866</ele>
        <time>2014-06-26T16:03:11Z</time>
      </trkpt>
      <trkpt lat="44.80779" lon="5.45477">
        <ele>1003.54333</ele>
        <time>2014-06-26T16:03:17Z</time>
      </trkpt>
      <trkpt lat="44.80776" lon="5.45464">
        <ele>1003.762</ele>
        <time>2014-06-26T16:03:22Z</time>
      </trkpt>
      <trkpt lat="44.80767" lon="5.45449">
        <ele>1003.9744</ele>
        <time>2014-06-26T16:03:26Z</time>
      </trkpt>
      <trkpt lat="44.80774" lon="5.45446">
        <ele>1003.9744</ele>
        <time>2014-06-26T16:03:32Z</time>
      </trkpt>
      <trkpt lat="44.80774" lon="5.45443">
        <ele>1004.18024</ele>
        <time>2014-06-26T16:03:36Z</time>
      </trkpt>
      <trkpt lat="44.80773" lon="5.45439">
        <ele>1004.18024</ele>
        <time>2014-06-26T16:03:40Z</time>
      </trkpt>
      <trkpt lat="44.80778" lon="5.45429">
        <ele>1004.3938</ele>
        <time>2014-06-26T16:03:47Z</time>
      </trkpt>
      <trkpt lat="44.80779" lon="5.45423">
        <ele>1004.3938</ele>
        <time>2014-06-26T16:03:51Z</time>
      </trkpt>
      <trkpt lat="44.80785" lon="5.45413">
        <ele>1004.614</ele>
        <time>2014-06-26T16:03:57Z</time>
      </trkpt>
      <trkpt lat="44.8079" lon="5.45412">
        <ele>1004.614</ele>
        <time>2014-06-26T16:04:01Z</time>
      </trkpt>
      <trkpt lat="44.80796" lon="5.45405">
        <ele>1004.83984</ele>
        <time>2014-06-26T16:04:07Z</time>
      </trkpt>
      <trkpt lat="44.80799" lon="5.45398">
        <ele>1004.83984</ele>
        <time>2014-06-26T16:04:12Z</time>
      </trkpt>
      <trkpt lat="44.80794" lon="5.45391">
        <ele>1005.1569</ele>
        <time>2014-06-26T16:04:16Z</time>
      </trkpt>
      <trkpt lat="44.80795" lon="5.45381">
        <ele>1005.1569</ele>
        <time>2014-06-26T16:04:21Z</time>
      </trkpt>
      <trkpt lat="44.80794" lon="5.45376">
        <ele>1005.529</ele>
        <time>2014-06-26T16:04:27Z</time>
      </trkpt>
      <trkpt lat="44.80787" lon="5.45362">
        <ele>1005.9657</ele>
        <time>2014-06-26T16:04:31Z</time>
      </trkpt>
      <trkpt lat="44.80789" lon="5.45354">
        <ele>1005.9657</ele>
        <time>2014-06-26T16:04:36Z</time>
      </trkpt>
      <trkpt lat="44.80792" lon="5.45347">
        <ele>1006.4757</ele>
        <time>2014-06-26T16:04:40Z</time>
      </trkpt>
      <trkpt lat="44.80791" lon="5.45334">
        <ele>1007.02386</ele>
        <time>2014-06-26T16:04:47Z</time>
      </trkpt>
      <trkpt lat="44.80792" lon="5.45328">
        <ele>1007.02386</ele>
        <time>2014-06-26T16:04:51Z</time>
      </trkpt>
      <trkpt lat="44.80798" lon="5.45322">
        <ele>1007.83673</ele>
        <time>2014-06-26T16:04:56Z</time>
      </trkpt>
      <trkpt lat="44.80804" lon="5.45313">
        <ele>1007.83673</ele>
        <time>2014-06-26T16:05:01Z</time>
      </trkpt>
      <trkpt lat="44.80803" lon="5.45304">
        <ele>1008.95074</ele>
        <time>2014-06-26T16:05:06Z</time>
      </trkpt>
      <trkpt lat="44.80805" lon="5.45294">
        <ele>1008.95074</ele>
        <time>2014-06-26T16:05:12Z</time>
      </trkpt>
      <trkpt lat="44.80807" lon="5.45288">
        <ele>1010.0818</ele>
        <time>2014-06-26T16:05:17Z</time>
      </trkpt>
      <trkpt lat="44.80812" lon="5.45282">
        <ele>1010.0818</ele>
        <time>2014-06-26T16:05:21Z</time>
      </trkpt>
      <trkpt lat="44.80816" lon="5.45276">
        <ele>1011.3269</ele>
        <time>2014-06-26T16:05:26Z</time>
      </trkpt>
      <trkpt lat="44.80814" lon="5.45268">
        <ele>1011.3269</ele>
        <time>2014-06-26T16:05:31Z</time>
      </trkpt>
      <trkpt lat="44.80824" lon="5.45262">
        <ele>1012.79004</ele>
        <time>2014-06-26T16:05:36Z</time>
      </trkpt>
      <trkpt lat="44.80825" lon="5.45256">
        <ele>1012.79004</ele>
        <time>2014-06-26T16:05:40Z</time>
      </trkpt>
      <trkpt lat="44.80829" lon="5.45249">
        <ele>1014.3654</ele>
        <time>2014-06-26T16:05:47Z</time>
      </trkpt>
      <trkpt lat="44.80833" lon="5.45239">
        <ele>1014.3654</ele>
        <time>2014-06-26T16:05:52Z</time>
      </trkpt>
      <trkpt lat="44.80838" lon="5.45232">
        <ele>1015.969</ele>
        <time>2014-06-26T16:05:56Z</time>
      </trkpt>
      <trkpt lat="44.80842" lon="5.45227">
        <ele>1015.969</ele>
        <time>2014-06-26T16:06:01Z</time>
      </trkpt>
      <trkpt lat="44.80842" lon="5.45221">
        <ele>1017.6672</ele>
        <time>2014-06-26T16:06:07Z</time>
      </trkpt>
      <trkpt lat="44.80845" lon="5.45211">
        <ele>1017.6672</ele>
        <time>2014-06-26T16:06:11Z</time>
      </trkpt>
      <trkpt lat="44.80847" lon="5.45205">
        <ele>1019.5788</ele>
        <time>2014-06-26T16:06:16Z</time>
      </trkpt>
      <trkpt lat="44.80847" lon="5.45197">
        <ele>1019.5788</ele>
        <time>2014-06-26T16:06:22Z</time>
      </trkpt>
      <trkpt lat="44.80851" lon="5.45191">
        <ele>1021.6118</ele>
        <time>2014-06-26T16:06:27Z</time>
      </trkpt>
      <trkpt lat="44.80854" lon="5.45182">
        <ele>1021.6118</ele>
        <time>2014-06-26T16:06:32Z</time>
      </trkpt>
      <trkpt lat="44.80853" lon="5.45173">
        <ele>1023.6806</ele>
        <time>2014-06-26T16:06:36Z</time>
      </trkpt>
      <trkpt lat="44.80854" lon="5.45166">
        <ele>1023.6806</ele>
        <time>2014-06-26T16:06:41Z</time>
      </trkpt>
      <trkpt lat="44.80853" lon="5.45159">
        <ele>1025.6915</ele>
        <time>2014-06-26T16:06:46Z</time>
      </trkpt>
      <trkpt lat="44.80858" lon="5.45142">
        <ele>1027.6588</ele>
        <time>2014-06-26T16:06:56Z</time>
      </trkpt>
      <trkpt lat="44.80854" lon="5.45135">
        <ele>1027.6588</ele>
        <time>2014-06-26T16:07:01Z</time>
      </trkpt>
      <trkpt lat="44.80852" lon="5.45129">
        <ele>1029.9563</ele>
        <time>2014-06-26T16:07:05Z</time>
      </trkpt>
      <trkpt lat="44.80854" lon="5.45122">
        <ele>1029.9563</ele>
        <time>2014-06-26T16:07:10Z</time>
      </trkpt>
      <trkpt lat="44.80855" lon="5.45115">
        <ele>1032.5836</ele>
        <time>2014-06-26T16:07:15Z</time>
      </trkpt>
      <trkpt lat="44.80858" lon="5.45109">
        <ele>1032.5836</ele>
        <time>2014-06-26T16:07:20Z</time>
      </trkpt>
      <trkpt lat="44.80859" lon="5.451">
        <ele>1035.5251</ele>
        <time>2014-06-26T16:07:26Z</time>
      </trkpt>
      <trkpt lat="44.80862" lon="5.45094">
        <ele>1035.5251</ele>
        <time>2014-06-26T16:07:31Z</time>
      </trkpt>
      <trkpt lat="44.80861" lon="5.45087">
        <ele>1038.5642</ele>
        <time>2014-06-26T16:07:37Z</time>
      </trkpt>
      <trkpt lat="44.80867" lon="5.45079">
        <ele>1038.5642</ele>
        <time>2014-06-26T16:07:41Z</time>
      </trkpt>
      <trkpt lat="44.80869" lon="5.45075">
        <ele>1041.6868</ele>
        <time>2014-06-26T16:07:47Z</time>
      </trkpt>
      <trkpt lat="44.80867" lon="5.45067">
        <ele>1041.6868</ele>
        <time>2014-06-26T16:07:51Z</time>
      </trkpt>
      <trkpt lat="44.80862" lon="5.45061">
        <ele>1044.8657</ele>
        <time>2014-06-26T16:07:56Z</time>
      </trkpt>
      <trkpt lat="44.80856" lon="5.4506">
        <ele>1044.8657</ele>
        <time>2014-06-26T16:08:01Z</time>
      </trkpt>
      <trkpt lat="44.8086" lon="5.45057">
        <ele>1048.4504</ele>
        <time>2014-06-26T16:08:06Z</time>
      </trkpt>
      <trkpt lat="44.80854" lon="5.45053">
        <ele>1048.4504</ele>
        <time>2014-06-26T16:08:11Z</time>
      </trkpt>
      <trkpt lat="44.80852" lon="5.45047">
        <ele>1052</ele>
        <time>2014-06-26T16:08:17Z</time>
      </trkpt>
      <trkpt lat="44.80845" lon="5.45046">
        <ele>1052</ele>
        <time>2014-06-26T16:08:22Z</time>
      </trkpt>
      <trkpt lat="44.80841" lon="5.45043">
        <ele>1055.4519</ele>
        <time>2014-06-26T16:08:27Z</time>
      </trkpt>
      <trkpt lat="44.80834" lon="5.45038">
        <ele>1055.4519</ele>
        <time>2014-06-26T16:08:31Z</time>
      </trkpt>
      <trkpt lat="44.80825" lon="5.45037">
        <ele>1058.7198</ele>
        <time>2014-06-26T16:08:36Z</time>
      </trkpt>
      <trkpt lat="44.80822" lon="5.45035">
        <ele>1058.7198</ele>
        <time>2014-06-26T16:08:41Z</time>
      </trkpt>
      <trkpt lat="44.80821" lon="5.45033">
        <ele>1058.7198</ele>
        <time>2014-06-26T16:08:46Z</time>
      </trkpt>
      <trkpt lat="44.80822" lon="5.45036">
        <ele>1058.7198</ele>
        <time>2014-06-26T16:08:52Z</time>
      </trkpt>
      <trkpt lat="44.8082" lon="5.45039">
        <ele>1061.8257</ele>
        <time>2014-06-26T16:08:56Z</time>
      </trkpt>
      <trkpt lat="44.80815" lon="5.45037">
        <ele>1061.8257</ele>
        <time>2014-06-26T16:09:00Z</time>
      </trkpt>
      <trkpt lat="44.80808" lon="5.45029">
        <ele>1064.718</ele>
        <time>2014-06-26T16:09:05Z</time>
      </trkpt>
      <trkpt lat="44.80806" lon="5.45028">
        <ele>1064.718</ele>
        <time>2014-06-26T16:09:10Z</time>
      </trkpt>
      <trkpt lat="44.80801" lon="5.45025">
        <ele>1064.718</ele>
        <time>2014-06-26T16:09:15Z</time>
      </trkpt>
      <trkpt lat="44.80793" lon="5.4502">
        <ele>1067.3932</ele>
        <time>2014-06-26T16:09:21Z</time>
      </trkpt>
      <trkpt lat="44.80781" lon="5.4502">
        <ele>1069.8202</ele>
        <time>2014-06-26T16:09:27Z</time>
      </trkpt>
      <trkpt lat="44.80776" lon="5.45021">
        <ele>1069.8202</ele>
        <time>2014-06-26T16:09:32Z</time>
      </trkpt>
      <trkpt lat="44.80775" lon="5.45018">
        <ele>1069.8202</ele>
        <time>2014-06-26T16:09:37Z</time>
      </trkpt>
      <trkpt lat="44.80772" lon="5.45015">
        <ele>1072.0427</ele>
        <time>2014-06-26T16:09:40Z</time>
      </trkpt>
      <trkpt lat="44.80772" lon="5.45013">
        <ele>1072.0427</ele>
        <time>2014-06-26T16:09:46Z</time>
      </trkpt>
      <trkpt lat="44.80783" lon="5.45011">
        <ele>1074.1024</ele>
        <time>2014-06-26T16:09:57Z</time>
      </trkpt>
      <trkpt lat="44.80787" lon="5.45012">
        <ele>1074.1024</ele>
        <time>2014-06-26T16:10:01Z</time>
      </trkpt>
      <trkpt lat="44.80787" lon="5.4501">
        <ele>1074.1024</ele>
        <time>2014-06-26T16:10:05Z</time>
      </trkpt>
      <trkpt lat="44.80783" lon="5.45008">
        <ele>1076.0383</ele>
        <time>2014-06-26T16:10:12Z</time>
      </trkpt>
      <trkpt lat="44.8076" lon="5.44997">
        <ele>1077.772</ele>
        <time>2014-06-26T16:10:16Z</time>
      </trkpt>
      <trkpt lat="44.80758" lon="5.44992">
        <ele>1077.772</ele>
        <time>2014-06-26T16:10:22Z</time>
      </trkpt>
      <trkpt lat="44.80751" lon="5.44983">
        <ele>1079.3466</ele>
        <time>2014-06-26T16:10:26Z</time>
      </trkpt>
      <trkpt lat="44.80738" lon="5.44974">
        <ele>1080.6729</ele>
        <time>2014-06-26T16:10:31Z</time>
      </trkpt>
      <trkpt lat="44.80729" lon="5.44972">
        <ele>1081.7704</ele>
        <time>2014-06-26T16:10:36Z</time>
      </trkpt>
      <trkpt lat="44.80721" lon="5.44967">
        <ele>1081.7704</ele>
        <time>2014-06-26T16:10:40Z</time>
      </trkpt>
      <trkpt lat="44.80712" lon="5.44959">
        <ele>1082.6863</ele>
        <time>2014-06-26T16:10:46Z</time>
      </trkpt>
      <trkpt lat="44.80717" lon="5.44948">
        <ele>1083.3931</ele>
        <time>2014-06-26T16:10:52Z</time>
      </trkpt>
      <trkpt lat="44.80713" lon="5.44943">
        <ele>1083.3931</ele>
        <time>2014-06-26T16:10:57Z</time>
      </trkpt>
      <trkpt lat="44.80712" lon="5.4494">
        <ele>1083.3931</ele>
        <time>2014-06-26T16:11:01Z</time>
      </trkpt>
      <trkpt lat="44.80717" lon="5.44917">
        <ele>1083.8804</ele>
        <time>2014-06-26T16:11:07Z</time>
      </trkpt>
      <trkpt lat="44.80722" lon="5.44905">
        <ele>1084.1825</ele>
        <time>2014-06-26T16:11:11Z</time>
      </trkpt>
      <trkpt lat="44.80725" lon="5.44901">
        <ele>1084.1825</ele>
        <time>2014-06-26T16:11:16Z</time>
      </trkpt>
      <trkpt lat="44.80728" lon="5.44884">
        <ele>1084.3173</ele>
        <time>2014-06-26T16:11:22Z</time>
      </trkpt>
      <trkpt lat="44.8073" lon="5.44872">
        <ele>1084.3173</ele>
        <time>2014-06-26T16:11:26Z</time>
      </trkpt>
      <trkpt lat="44.80728" lon="5.44867">
        <ele>1084.3019</ele>
        <time>2014-06-26T16:11:32Z</time>
      </trkpt>
      <trkpt lat="44.80726" lon="5.44864">
        <ele>1084.3019</ele>
        <time>2014-06-26T16:11:37Z</time>
      </trkpt>
      <trkpt lat="44.80727" lon="5.44861">
        <ele>1084.3019</ele>
        <time>2014-06-26T16:11:41Z</time>
      </trkpt>
      <trkpt lat="44.80729" lon="5.44847">
        <ele>1084.1239</ele>
        <time>2014-06-26T16:11:47Z</time>
      </trkpt>
      <trkpt lat="44.8073" lon="5.44839">
        <ele>1084.1239</ele>
        <time>2014-06-26T16:11:52Z</time>
      </trkpt>
      <trkpt lat="44.80728" lon="5.44834">
        <ele>1083.8009</ele>
        <time>2014-06-26T16:11:57Z</time>
      </trkpt>
      <trkpt lat="44.80719" lon="5.44831">
        <ele>1083.8009</ele>
        <time>2014-06-26T16:12:02Z</time>
      </trkpt>
      <trkpt lat="44.80715" lon="5.44827">
        <ele>1083.3641</ele>
        <time>2014-06-26T16:12:06Z</time>
      </trkpt>
      <trkpt lat="44.8071" lon="5.44831">
        <ele>1083.3641</ele>
        <time>2014-06-26T16:12:11Z</time>
      </trkpt>
      <trkpt lat="44.80703" lon="5.44833">
        <ele>1082.8716</ele>
        <time>2014-06-26T16:12:17Z</time>
      </trkpt>
      <trkpt lat="44.80704" lon="5.44835">
        <ele>1082.8716</ele>
        <time>2014-06-26T16:12:20Z</time>
      </trkpt>
      <trkpt lat="44.80701" lon="5.44827">
        <ele>1082.334</ele>
        <time>2014-06-26T16:12:25Z</time>
      </trkpt>
      <trkpt lat="44.80697" lon="5.44821">
        <ele>1082.334</ele>
        <time>2014-06-26T16:12:30Z</time>
      </trkpt>
      <trkpt lat="44.80689" lon="5.44809">
        <ele>1081.7899</ele>
        <time>2014-06-26T16:12:35Z</time>
      </trkpt>
      <trkpt lat="44.80685" lon="5.44802">
        <ele>1081.7899</ele>
        <time>2014-06-26T16:12:40Z</time>
      </trkpt>
      <trkpt lat="44.80683" lon="5.44792">
        <ele>1081.261</ele>
        <time>2014-06-26T16:12:45Z</time>
      </trkpt>
      <trkpt lat="44.80675" lon="5.44784">
        <ele>1080.7092</ele>
        <time>2014-06-26T16:12:50Z</time>
      </trkpt>
      <trkpt lat="44.8067" lon="5.44776">
        <ele>1080.7092</ele>
        <time>2014-06-26T16:12:55Z</time>
      </trkpt>
      <trkpt lat="44.8067" lon="5.4477">
        <ele>1080.1859</ele>
        <time>2014-06-26T16:13:00Z</time>
      </trkpt>
      <trkpt lat="44.80669" lon="5.44763">
        <ele>1080.1859</ele>
        <time>2014-06-26T16:13:05Z</time>
      </trkpt>
      <trkpt lat="44.80663" lon="5.44756">
        <ele>1079.6375</ele>
        <time>2014-06-26T16:13:10Z</time>
      </trkpt>
      <trkpt lat="44.80659" lon="5.4475">
        <ele>1079.6375</ele>
        <time>2014-06-26T16:13:15Z</time>
      </trkpt>
      <trkpt lat="44.80657" lon="5.44747">
        <ele>1079.6375</ele>
        <time>2014-06-26T16:13:20Z</time>
      </trkpt>
      <trkpt lat="44.80655" lon="5.44741">
        <ele>1079.0863</ele>
        <time>2014-06-26T16:13:25Z</time>
      </trkpt>
      <trkpt lat="44.80656" lon="5.44734">
        <ele>1079.0863</ele>
        <time>2014-06-26T16:13:30Z</time>
      </trkpt>
      <trkpt lat="44.80652" lon="5.44731">
        <ele>1078.5243</ele>
        <time>2014-06-26T16:13:35Z</time>
      </trkpt>
      <trkpt lat="44.8065" lon="5.44727">
        <ele>1078.5243</ele>
        <time>2014-06-26T16:13:40Z</time>
      </trkpt>
      <trkpt lat="44.80646" lon="5.44723">
        <ele>1078.5243</ele>
        <time>2014-06-26T16:13:45Z</time>
      </trkpt>
      <trkpt lat="44.80648" lon="5.44714">
        <ele>1078.0013</ele>
        <time>2014-06-26T16:13:50Z</time>
      </trkpt>
      <trkpt lat="44.80645" lon="5.44708">
        <ele>1078.0013</ele>
        <time>2014-06-26T16:13:55Z</time>
      </trkpt>
      <trkpt lat="44.80641" lon="5.44701">
        <ele>1077.549</ele>
        <time>2014-06-26T16:14:00Z</time>
      </trkpt>
      <trkpt lat="44.80635" lon="5.44693">
        <ele>1077.549</ele>
        <time>2014-06-26T16:14:05Z</time>
      </trkpt>
      <trkpt lat="44.80635" lon="5.44685">
        <ele>1077.1384</ele>
        <time>2014-06-26T16:14:10Z</time>
      </trkpt>
      <trkpt lat="44.80643" lon="5.4468">
        <ele>1076.7429</ele>
        <time>2014-06-26T16:14:15Z</time>
      </trkpt>
      <trkpt lat="44.80652" lon="5.44676">
        <ele>1076.3661</ele>
        <time>2014-06-26T16:14:20Z</time>
      </trkpt>
      <trkpt lat="44.8065" lon="5.44666">
        <ele>1076.3661</ele>
        <time>2014-06-26T16:14:25Z</time>
      </trkpt>
      <trkpt lat="44.80641" lon="5.44656">
        <ele>1076.069</ele>
        <time>2014-06-26T16:14:30Z</time>
      </trkpt>
      <trkpt lat="44.80638" lon="5.44647">
        <ele>1076.069</ele>
        <time>2014-06-26T16:14:35Z</time>
      </trkpt>
      <trkpt lat="44.80635" lon="5.44642">
        <ele>1075.8497</ele>
        <time>2014-06-26T16:14:40Z</time>
      </trkpt>
      <trkpt lat="44.80639" lon="5.44633">
        <ele>1075.8497</ele>
        <time>2014-06-26T16:14:45Z</time>
      </trkpt>
      <trkpt lat="44.80643" lon="5.44627">
        <ele>1075.6633</ele>
        <time>2014-06-26T16:14:50Z</time>
      </trkpt>
      <trkpt lat="44.80643" lon="5.44619">
        <ele>1075.6633</ele>
        <time>2014-06-26T16:14:55Z</time>
      </trkpt>
      <trkpt lat="44.80641" lon="5.44612">
        <ele>1075.4963</ele>
        <time>2014-06-26T16:15:00Z</time>
      </trkpt>
      <trkpt lat="44.80635" lon="5.44603">
        <ele>1075.4963</ele>
        <time>2014-06-26T16:15:05Z</time>
      </trkpt>
      <trkpt lat="44.80631" lon="5.44594">
        <ele>1075.351</ele>
        <time>2014-06-26T16:15:10Z</time>
      </trkpt>
      <trkpt lat="44.80627" lon="5.44581">
        <ele>1075.2142</ele>
        <time>2014-06-26T16:15:15Z</time>
      </trkpt>
      <trkpt lat="44.80627" lon="5.44573">
        <ele>1075.2142</ele>
        <time>2014-06-26T16:15:20Z</time>
      </trkpt>
      <trkpt lat="44.80626" lon="5.44567">
        <ele>1075.1459</ele>
        <time>2014-06-26T16:15:25Z</time>
      </trkpt>
      <trkpt lat="44.80626" lon="5.4456">
        <ele>1075.1459</ele>
        <time>2014-06-26T16:15:30Z</time>
      </trkpt>
      <trkpt lat="44.80626" lon="5.4455">
        <ele>1075.0574</ele>
        <time>2014-06-26T16:15:35Z</time>
      </trkpt>
      <trkpt lat="44.80623" lon="5.44543">
        <ele>1075.0574</ele>
        <time>2014-06-26T16:15:40Z</time>
      </trkpt>
      <trkpt lat="44.80621" lon="5.44532">
        <ele>1074.8804</ele>
        <time>2014-06-26T16:15:45Z</time>
      </trkpt>
      <trkpt lat="44.80622" lon="5.44525">
        <ele>1074.8804</ele>
        <time>2014-06-26T16:15:50Z</time>
      </trkpt>
      <trkpt lat="44.80621" lon="5.44522">
        <ele>1074.8804</ele>
        <time>2014-06-26T16:15:55Z</time>
      </trkpt>
      <trkpt lat="44.80623" lon="5.44526">
        <ele>1074.5953</ele>
        <time>2014-06-26T16:16:00Z</time>
      </trkpt>
      <trkpt lat="44.80627" lon="5.44528">
        <ele>1074.5953</ele>
        <time>2014-06-26T16:16:05Z</time>
      </trkpt>
      <trkpt lat="44.80634" lon="5.44536">
        <ele>1074.3137</ele>
        <time>2014-06-26T16:16:10Z</time>
      </trkpt>
      <trkpt lat="44.80639" lon="5.44544">
        <ele>1074.3137</ele>
        <time>2014-06-26T16:16:15Z</time>
      </trkpt>
      <trkpt lat="44.80643" lon="5.44554">
        <ele>1074.0092</ele>
        <time>2014-06-26T16:16:20Z</time>
      </trkpt>
      <trkpt lat="44.80651" lon="5.44559">
        <ele>1074.0092</ele>
        <time>2014-06-26T16:16:25Z</time>
      </trkpt>
      <trkpt lat="44.80655" lon="5.44566">
        <ele>1073.7146</ele>
        <time>2014-06-26T16:16:30Z</time>
      </trkpt>
      <trkpt lat="44.80657" lon="5.44575">
        <ele>1073.7146</ele>
        <time>2014-06-26T16:16:35Z</time>
      </trkpt>
      <trkpt lat="44.80659" lon="5.4458">
        <ele>1073.4606</ele>
        <time>2014-06-26T16:16:40Z</time>
      </trkpt>
      <trkpt lat="44.80658" lon="5.44588">
        <ele>1073.4606</ele>
        <time>2014-06-26T16:16:45Z</time>
      </trkpt>
      <trkpt lat="44.80659" lon="5.44595">
        <ele>1073.2175</ele>
        <time>2014-06-26T16:16:50Z</time>
      </trkpt>
      <trkpt lat="44.80658" lon="5.44606">
        <ele>1073.2175</ele>
        <time>2014-06-26T16:16:55Z</time>
      </trkpt>
      <trkpt lat="44.80664" lon="5.44618">
        <ele>1072.972</ele>
        <time>2014-06-26T16:17:00Z</time>
      </trkpt>
      <trkpt lat="44.80669" lon="5.44628">
        <ele>1072.972</ele>
        <time>2014-06-26T16:17:05Z</time>
      </trkpt>
      <trkpt lat="44.8067" lon="5.44632">
        <ele>1072.6396</ele>
        <time>2014-06-26T16:17:10Z</time>
      </trkpt>
      <trkpt lat="44.80667" lon="5.44637">
        <ele>1072.6396</ele>
        <time>2014-06-26T16:17:15Z</time>
      </trkpt>
      <trkpt lat="44.80666" lon="5.4464">
        <ele>1072.6396</ele>
        <time>2014-06-26T16:17:20Z</time>
      </trkpt>
      <trkpt lat="44.80671" lon="5.44639">
        <ele>1072.0704</ele>
        <time>2014-06-26T16:17:25Z</time>
      </trkpt>
      <trkpt lat="44.80673" lon="5.44639">
        <ele>1072.0704</ele>
        <time>2014-06-26T16:17:30Z</time>
      </trkpt>
      <trkpt lat="44.80671" lon="5.44642">
        <ele>1072.0704</ele>
        <time>2014-06-26T16:17:35Z</time>
      </trkpt>
      <trkpt lat="44.80667" lon="5.44639">
        <ele>1072.0704</ele>
        <time>2014-06-26T16:17:40Z</time>
      </trkpt>
      <trkpt lat="44.80677" lon="5.44641">
        <ele>1071.2552</ele>
        <time>2014-06-26T16:17:45Z</time>
      </trkpt>
      <trkpt lat="44.80686" lon="5.44643">
        <ele>1070.4172</ele>
        <time>2014-06-26T16:17:50Z</time>
      </trkpt>
      <trkpt lat="44.80694" lon="5.44645">
        <ele>1070.4172</ele>
        <time>2014-06-26T16:17:55Z</time>
      </trkpt>
      <trkpt lat="44.80694" lon="5.44647">
        <ele>1069.5897</ele>
        <time>2014-06-26T16:18:00Z</time>
      </trkpt>
      <trkpt lat="44.80698" lon="5.44649">
        <ele>1069.5897</ele>
        <time>2014-06-26T16:18:05Z</time>
      </trkpt>
      <trkpt lat="44.80692" lon="5.44648">
        <ele>1068.6597</ele>
        <time>2014-06-26T16:18:10Z</time>
      </trkpt>
      <trkpt lat="44.80691" lon="5.44647">
        <ele>1068.6597</ele>
        <time>2014-06-26T16:18:15Z</time>
      </trkpt>
      <trkpt lat="44.807" lon="5.44641">
        <ele>1067.5944</ele>
        <time>2014-06-26T16:18:21Z</time>
      </trkpt>
      <trkpt lat="44.80707" lon="5.44637">
        <ele>1067.5944</ele>
        <time>2014-06-26T16:18:27Z</time>
      </trkpt>
      <trkpt lat="44.80712" lon="5.44635">
        <ele>1066.4504</ele>
        <time>2014-06-26T16:18:31Z</time>
      </trkpt>
      <trkpt lat="44.80708" lon="5.44634">
        <ele>1066.4504</ele>
        <time>2014-06-26T16:18:37Z</time>
      </trkpt>
      <trkpt lat="44.8071" lon="5.44634">
        <ele>1066.4504</ele>
        <time>2014-06-26T16:18:41Z</time>
      </trkpt>
      <trkpt lat="44.80715" lon="5.44635">
        <ele>1065.3523</ele>
        <time>2014-06-26T16:18:45Z</time>
      </trkpt>
      <trkpt lat="44.80717" lon="5.44634">
        <ele>1065.3523</ele>
        <time>2014-06-26T16:18:51Z</time>
      </trkpt>
      <trkpt lat="44.80716" lon="5.44639">
        <ele>1065.3523</ele>
        <time>2014-06-26T16:19:01Z</time>
      </trkpt>
      <trkpt lat="44.80712" lon="5.44643">
        <ele>1064.1268</ele>
        <time>2014-06-26T16:19:05Z</time>
      </trkpt>
      <trkpt lat="44.8071" lon="5.44645">
        <ele>1064.1268</ele>
        <time>2014-06-26T16:19:10Z</time>
      </trkpt>
      <trkpt lat="44.80712" lon="5.44646">
        <ele>1064.1268</ele>
        <time>2014-06-26T16:19:15Z</time>
      </trkpt>
    </trkseg>
  </trk>
</gpx>